Wetterdaten: Dienstag, 13.02.2018
Datum Zeit Temp. A. Pool Temp. Feuchte A. Luftdruck Regen Wind Richtung Richtung Sonnenschein ET UV Solar Taupunkt Windchill Windben Empfang
13.02.2018 00:00 -0,3 C 4,4 C 90 % 1017,9 hPa 0,0 l/m 10,6 km/h (2 Bft) SW 221 0 min 0,000 mm 0,0 UV-I 0 W/m -1,7 C -4,3 C 14,5 km/h (3 Bft) 95,65 %
13.02.2018 00:01 -0,3 C 4,4 C 90 % 1017,9 hPa 0,0 l/m 9,5 km/h (2 Bft) SW 215 0 min 0,000 mm 0,0 UV-I 0 W/m -1,7 C -3,4 C 12,9 km/h (3 Bft) 100,00 %
13.02.2018 00:02 -0,3 C 4,4 C 90 % 1017,9 hPa 0,0 l/m 10,5 km/h (2 Bft) SW 228 0 min 0,000 mm 0,0 UV-I 0 W/m -1,7 C -4,2 C 16,1 km/h (3 Bft) 9,09 %
13.02.2018 00:03 -0,3 C 4,4 C 90 % 1017,9 hPa 0,0 l/m 10,2 km/h (2 Bft) SW 218 0 min 0,000 mm 0,0 UV-I 0 W/m -1,7 C -3,9 C 14,5 km/h (3 Bft) 9,09 %
13.02.2018 00:04 -0,3 C 4,4 C 90 % 1017,9 hPa 0,0 l/m 9,6 km/h (2 Bft) SW 222 0 min 0,000 mm 0,0 UV-I 0 W/m -1,7 C -3,4 C 12,9 km/h (3 Bft) 9,09 %
13.02.2018 00:05 -0,3 C 4,4 C 90 % 1017,9 hPa 0,0 l/m 12,1 km/h (2 Bft) W-SW 237 0 min 0,000 mm 0,0 UV-I 0 W/m -1,7 C -5,4 C 14,5 km/h (3 Bft) 96,00 %
13.02.2018 00:06 -0,3 C 4,4 C 90 % 1017,9 hPa 0,0 l/m 10,5 km/h (2 Bft) SW 226 0 min 0,000 mm 0,0 UV-I 0 W/m -1,7 C -4,2 C 16,1 km/h (3 Bft) 100,00 %
13.02.2018 00:07 -0,3 C 4,4 C 90 % 1017,9 hPa 0,0 l/m 13,3 km/h (3 Bft) SW 229 0 min 0,000 mm 0,0 UV-I 0 W/m -1,7 C -6,3 C 16,1 km/h (3 Bft) 93,10 %
13.02.2018 00:08 -0,3 C 4,4 C 90 % 1017,9 hPa 0,0 l/m 11,1 km/h (2 Bft) SW 236 0 min 0,000 mm 0,0 UV-I 0 W/m -1,7 C -4,7 C 14,5 km/h (3 Bft) 100,00 %
13.02.2018 00:09 -0,3 C 4,4 C 90 % 1017,8 hPa 0,0 l/m 9,5 km/h (2 Bft) SW 232 0 min 0,000 mm 0,0 UV-I 0 W/m -1,7 C -3,4 C 12,9 km/h (3 Bft) 95,65 %
13.02.2018 00:10 -0,3 C 4,4 C 90 % 1017,8 hPa 0,0 l/m 10,1 km/h (2 Bft) S-SW 212 0 min 0,000 mm 0,0 UV-I 0 W/m -1,7 C -3,9 C 14,5 km/h (3 Bft) 95,83 %
13.02.2018 00:11 -0,3 C 4,4 C 90 % 1017,9 hPa 0,0 l/m 9,7 km/h (2 Bft) W-SW 238 0 min 0,000 mm 0,0 UV-I 0 W/m -1,7 C -3,5 C 14,5 km/h (3 Bft) 100,00 %
13.02.2018 00:12 -0,3 C 4,4 C 90 % 1017,8 hPa 0,0 l/m 11,7 km/h (2 Bft) SW 218 0 min 0,000 mm 0,0 UV-I 0 W/m -1,7 C -5,1 C 14,5 km/h (3 Bft) 95,83 %
13.02.2018 00:13 -0,4 C 4,4 C 90 % 1017,8 hPa 0,0 l/m 10,7 km/h (2 Bft) SW 236 0 min 0,000 mm 0,0 UV-I 0 W/m -1,8 C -4,5 C 16,1 km/h (3 Bft) 100,00 %
13.02.2018 00:14 -0,4 C 4,4 C 90 % 1017,9 hPa 0,0 l/m 12,9 km/h (3 Bft) SW 218 0 min 0,000 mm 0,0 UV-I 0 W/m -1,8 C -6,1 C 16,1 km/h (3 Bft) 91,67 %
13.02.2018 00:15 -0,4 C 4,4 C 90 % 1017,8 hPa 0,0 l/m 12,9 km/h (3 Bft) SW 219 0 min 0,000 mm 0,0 UV-I 0 W/m -1,8 C -6,1 C 16,1 km/h (3 Bft) 95,65 %
13.02.2018 00:16 -0,3 C 4,4 C 90 % 1017,8 hPa 0,0 l/m 12,3 km/h (3 Bft) SW 235 0 min 0,000 mm 0,0 UV-I 0 W/m -1,7 C -5,6 C 16,1 km/h (3 Bft) 91,67 %
13.02.2018 00:17 -0,3 C 4,4 C 90 % 1017,8 hPa 0,0 l/m 10,1 km/h (2 Bft) SW 236 0 min 0,000 mm 0,0 UV-I 0 W/m -1,7 C -3,9 C 12,9 km/h (3 Bft) 100,00 %
13.02.2018 00:18 -0,4 C 4,4 C 90 % 1017,9 hPa 0,0 l/m 10,7 km/h (2 Bft) W-SW 237 0 min 0,000 mm 0,0 UV-I 0 W/m -1,8 C -4,5 C 14,5 km/h (3 Bft) 95,12 %
13.02.2018 00:19 -0,4 C 4,4 C 90 % 1017,8 hPa 0,0 l/m 9,2 km/h (2 Bft) SW 236 0 min 0,000 mm 0,0 UV-I 0 W/m -1,8 C -3,2 C 14,5 km/h (3 Bft) 95,65 %
13.02.2018 00:20 -0,4 C 4,4 C 90 % 1017,9 hPa 0,0 l/m 11,2 km/h (2 Bft) SW 228 0 min 0,000 mm 0,0 UV-I 0 W/m -1,8 C -4,9 C 14,5 km/h (3 Bft) 100,00 %
13.02.2018 00:21 -0,4 C 4,4 C 90 % 1017,8 hPa 0,0 l/m 8,0 km/h (2 Bft) SW 228 0 min 0,000 mm 0,0 UV-I 0 W/m -1,8 C -2,1 C 11,3 km/h (2 Bft) 95,65 %
13.02.2018 00:22 -0,4 C 4,4 C 90 % 1017,8 hPa 0,0 l/m 9,7 km/h (2 Bft) W-SW 249 0 min 0,000 mm 0,0 UV-I 0 W/m -1,8 C -3,6 C 14,5 km/h (3 Bft) 100,00 %
13.02.2018 00:23 -0,4 C 4,4 C 90 % 1017,8 hPa 0,0 l/m 12,9 km/h (3 Bft) W-SW 238 0 min 0,000 mm 0,0 UV-I 0 W/m -1,8 C -6,1 C 16,1 km/h (3 Bft) 92,31 %
13.02.2018 00:24 -0,4 C 4,4 C 90 % 1017,9 hPa 0,0 l/m 9,8 km/h (2 Bft) SW 221 0 min 0,000 mm 0,0 UV-I 0 W/m -1,8 C -3,7 C 14,5 km/h (3 Bft) 100,00 %
13.02.2018 00:25 -0,4 C 4,4 C 90 % 1017,9 hPa 0,0 l/m 8,6 km/h (2 Bft) W-SW 250 0 min 0,000 mm 0,0 UV-I 0 W/m -1,8 C -2,6 C 16,1 km/h (3 Bft) 95,65 %
13.02.2018 00:26 -0,4 C 4,4 C 90 % 1017,9 hPa 0,0 l/m 11,1 km/h (2 Bft) SW 226 0 min 0,000 mm 0,0 UV-I 0 W/m -1,8 C -4,8 C 12,9 km/h (3 Bft) 100,00 %
13.02.2018 00:27 -0,4 C 4,4 C 90 % 1017,9 hPa 0,0 l/m 11,5 km/h (2 Bft) SW 229 0 min 0,000 mm 0,0 UV-I 0 W/m -1,8 C -5,1 C 12,9 km/h (3 Bft) 93,33 %
13.02.2018 00:28 -0,4 C 4,4 C 90 % 1017,9 hPa 0,0 l/m 8,6 km/h (2 Bft) SW 232 0 min 0,000 mm 0,0 UV-I 0 W/m -1,8 C -2,6 C 12,9 km/h (3 Bft) 95,12 %
13.02.2018 00:29 -0,4 C 4,4 C 90 % 1017,9 hPa 0,0 l/m 10,8 km/h (2 Bft) SW 232 0 min 0,000 mm 0,0 UV-I 0 W/m -1,8 C -4,5 C 14,5 km/h (3 Bft) 100,00 %
13.02.2018 00:30 -0,4 C 4,4 C 90 % 1017,9 hPa 0,0 l/m 10,7 km/h (2 Bft) W-SW 254 0 min 0,000 mm 0,0 UV-I 0 W/m -1,8 C -4,5 C 14,5 km/h (3 Bft) 91,30 %
13.02.2018 00:31 -0,4 C 4,4 C 90 % 1018,0 hPa 0,0 l/m 8,3 km/h (2 Bft) W-SW 254 0 min 0,000 mm 0,0 UV-I 0 W/m -1,8 C -2,4 C 11,3 km/h (2 Bft) 100,00 %
13.02.2018 00:32 -0,4 C 4,4 C 90 % 1018,0 hPa 0,0 l/m 8,5 km/h (2 Bft) W-SW 249 0 min 0,000 mm 0,0 UV-I 0 W/m -1,8 C -2,6 C 11,3 km/h (2 Bft) 91,30 %
13.02.2018 00:33 -0,4 C 4,4 C 90 % 1017,9 hPa 0,0 l/m 5,5 km/h (1 Bft) W-SW 237 0 min 0,000 mm 0,0 UV-I 0 W/m -1,8 C -0,4 C 9,7 km/h (2 Bft) 100,00 %
13.02.2018 00:34 -0,4 C 4,4 C 90 % 1018,0 hPa 0,0 l/m 8,3 km/h (2 Bft) SW 216 0 min 0,000 mm 0,0 UV-I 0 W/m -1,8 C -2,4 C 9,7 km/h (2 Bft) 92,31 %
13.02.2018 00:35 -0,4 C 4,4 C 90 % 1018,0 hPa 0,0 l/m 10,5 km/h (2 Bft) SW 231 0 min 0,000 mm 0,0 UV-I 0 W/m -1,8 C -4,3 C 14,5 km/h (3 Bft) 100,00 %
13.02.2018 00:36 -0,4 C 4,4 C 90 % 1018,0 hPa 0,0 l/m 9,5 km/h (2 Bft) SW 235 0 min 0,000 mm 0,0 UV-I 0 W/m -1,8 C -3,5 C 12,9 km/h (3 Bft) 84,62 %
13.02.2018 00:37 -0,4 C 4,4 C 90 % 1018,0 hPa 0,0 l/m 10,8 km/h (2 Bft) SW 227 0 min 0,000 mm 0,0 UV-I 0 W/m -1,8 C -4,5 C 14,5 km/h (3 Bft) 96,30 %
13.02.2018 00:38 -0,4 C 4,4 C 90 % 1017,9 hPa 0,0 l/m 9,7 km/h (2 Bft) W-SW 254 0 min 0,000 mm 0,0 UV-I 0 W/m -1,8 C -3,6 C 12,9 km/h (3 Bft) 100,00 %
13.02.2018 00:39 -0,4 C 4,4 C 90 % 1018,0 hPa 0,0 l/m 9,7 km/h (2 Bft) SW 233 0 min 0,000 mm 0,0 UV-I 0 W/m -1,8 C -3,6 C 17,7 km/h (3 Bft) 92,31 %
13.02.2018 00:40 -0,4 C 4,4 C 90 % 1018,0 hPa 0,0 l/m 8,6 km/h (2 Bft) W-SW 242 0 min 0,000 mm 0,0 UV-I 0 W/m -1,8 C -2,6 C 11,3 km/h (2 Bft) 100,00 %
13.02.2018 00:41 -0,4 C 4,4 C 90 % 1018,0 hPa 0,0 l/m 8,0 km/h (2 Bft) W-SW 244 0 min 0,000 mm 0,0 UV-I 0 W/m -1,8 C -2,1 C 11,3 km/h (2 Bft) 93,33 %
13.02.2018 00:42 -0,4 C 4,4 C 90 % 1018,0 hPa 0,0 l/m 7,7 km/h (2 Bft) W-SW 242 0 min 0,000 mm 0,0 UV-I 0 W/m -1,8 C -1,8 C 11,3 km/h (2 Bft) 100,00 %
13.02.2018 00:43 -0,4 C 4,4 C 90 % 1018,0 hPa 0,0 l/m 7,7 km/h (2 Bft) W-SW 237 0 min 0,000 mm 0,0 UV-I 0 W/m -1,8 C -1,8 C 12,9 km/h (3 Bft) 95,83 %
13.02.2018 00:44 -0,4 C 4,4 C 90 % 1018,0 hPa 0,0 l/m 8,3 km/h (2 Bft) W-SW 250 0 min 0,000 mm 0,0 UV-I 0 W/m -1,8 C -2,4 C 11,3 km/h (2 Bft) 95,65 %
13.02.2018 00:45 -0,4 C 4,4 C 90 % 1018,0 hPa 0,0 l/m 8,8 km/h (2 Bft) W-SW 251 0 min 0,000 mm 0,0 UV-I 0 W/m -1,8 C -2,8 C 11,3 km/h (2 Bft) 94,21 %
13.02.2018 00:46 -0,4 C 4,4 C 90 % 1018,1 hPa 0,0 l/m 6,0 km/h (2 Bft) W-SW 258 0 min 0,000 mm 0,0 UV-I 0 W/m -1,8 C -0,4 C 9,7 km/h (2 Bft) 100,00 %
13.02.2018 00:47 -0,5 C 4,4 C 90 % 1018,1 hPa 0,0 l/m 6,4 km/h (2 Bft) W-SW 248 0 min 0,000 mm 0,0 UV-I 0 W/m -1,9 C -0,5 C 9,7 km/h (2 Bft) 95,65 %
13.02.2018 00:48 -0,5 C 4,4 C 90 % 1018,1 hPa 0,0 l/m 8,1 km/h (2 Bft) SW 236 0 min 0,000 mm 0,0 UV-I 0 W/m -1,9 C -2,3 C 9,7 km/h (2 Bft) 91,67 %
13.02.2018 00:49 -0,5 C 4,4 C 90 % 1018,1 hPa 0,0 l/m 7,0 km/h (2 Bft) SW 220 0 min 0,000 mm 0,0 UV-I 0 W/m -1,9 C -1,1 C 8,0 km/h (2 Bft) 100,00 %
13.02.2018 00:50 -0,4 C 4,4 C 90 % 1018,2 hPa 0,0 l/m 8,9 km/h (2 Bft) W-SW 238 0 min 0,000 mm 0,0 UV-I 0 W/m -1,8 C -2,9 C 14,5 km/h (3 Bft) 95,83 %
13.02.2018 00:51 -0,5 C 4,4 C 90 % 1018,2 hPa 0,0 l/m 5,8 km/h (2 Bft) SW 227 0 min 0,000 mm 0,0 UV-I 0 W/m -1,9 C -0,5 C 8,0 km/h (2 Bft) 96,15 %
13.02.2018 00:52 -0,5 C 4,4 C 90 % 1018,2 hPa 0,0 l/m 5,7 km/h (1 Bft) W-SW 240 0 min 0,000 mm 0,0 UV-I 0 W/m -1,9 C -0,5 C 6,4 km/h (2 Bft) 95,83 %
13.02.2018 00:53 -0,5 C 4,4 C 90 % 1018,1 hPa 0,0 l/m 5,1 km/h (1 Bft) W-SW 241 0 min 0,000 mm 0,0 UV-I 0 W/m -1,9 C -0,5 C 6,4 km/h (2 Bft) 100,00 %
13.02.2018 00:54 -0,5 C 4,4 C 90 % 1018,1 hPa 0,0 l/m 7,6 km/h (2 Bft) W 269 0 min 0,000 mm 0,0 UV-I 0 W/m -1,9 C -1,8 C 11,3 km/h (2 Bft) 95,83 %
13.02.2018 00:55 -0,5 C 4,4 C 90 % 1018,2 hPa 0,0 l/m 7,9 km/h (2 Bft) W-SW 242 0 min 0,000 mm 0,0 UV-I 0 W/m -1,9 C -2,1 C 11,3 km/h (2 Bft) 100,00 %
13.02.2018 00:56 -0,5 C 4,4 C 90 % 1018,2 hPa 0,0 l/m 7,5 km/h (2 Bft) W-SW 255 0 min 0,000 mm 0,0 UV-I 0 W/m -1,9 C -1,7 C 9,7 km/h (2 Bft) 95,83 %
13.02.2018 00:57 -0,5 C 4,4 C 90 % 1018,2 hPa 0,0 l/m 8,9 km/h (2 Bft) S-SW 203 0 min 0,000 mm 0,0 UV-I 0 W/m -1,9 C -3,0 C 11,3 km/h (2 Bft) 96,55 %
13.02.2018 00:58 -0,5 C 4,4 C 90 % 1018,2 hPa 0,0 l/m 8,8 km/h (2 Bft) SW 223 0 min 0,000 mm 0,0 UV-I 0 W/m -1,9 C -2,9 C 11,3 km/h (2 Bft) 100,00 %
13.02.2018 00:59 -0,5 C 4,4 C 90 % 1018,2 hPa 0,0 l/m 6,4 km/h (2 Bft) W-SW 252 0 min 0,000 mm 0,0 UV-I 0 W/m -1,9 C -0,5 C 8,0 km/h (2 Bft) 91,67 %
13.02.2018 01:00 -0,5 C 4,4 C 90 % 1018,1 hPa 0,0 l/m 6,9 km/h (2 Bft) SW 227 0 min 0,000 mm 0,0 UV-I 0 W/m -1,9 C -1,0 C 9,7 km/h (2 Bft) 96,55 %
13.02.2018 01:01 -0,5 C 4,4 C 90 % 1018,1 hPa 0,0 l/m 7,6 km/h (2 Bft) W-SW 240 0 min 0,000 mm 0,0 UV-I 0 W/m -1,9 C -1,8 C 9,7 km/h (2 Bft) 95,83 %
13.02.2018 01:02 -0,5 C 4,4 C 90 % 1018,1 hPa 0,0 l/m 9,9 km/h (2 Bft) W 261 0 min 0,000 mm 0,0 UV-I 0 W/m -1,9 C -3,9 C 16,1 km/h (3 Bft) 100,00 %
13.02.2018 01:03 -0,5 C 4,4 C 90 % 1018,2 hPa 0,0 l/m 8,7 km/h (2 Bft) W-SW 250 0 min 0,000 mm 0,0 UV-I 0 W/m -1,9 C -2,8 C 14,5 km/h (3 Bft) 96,15 %
13.02.2018 01:04 -0,5 C 4,4 C 90 % 1018,1 hPa 0,0 l/m 8,0 km/h (2 Bft) SW 229 0 min 0,000 mm 0,0 UV-I 0 W/m -1,9 C -2,2 C 14,5 km/h (3 Bft) 100,00 %
13.02.2018 01:05 -0,5 C 4,4 C 90 % 1018,2 hPa 0,0 l/m 5,5 km/h (1 Bft) W-SW 250 0 min 0,000 mm 0,0 UV-I 0 W/m -1,9 C -0,5 C 8,0 km/h (2 Bft) 92,59 %
13.02.2018 01:06 -0,5 C 4,4 C 90 % 1018,1 hPa 0,0 l/m 8,7 km/h (2 Bft) SW 229 0 min 0,000 mm 0,0 UV-I 0 W/m -1,9 C -2,8 C 12,9 km/h (3 Bft) 100,00 %
13.02.2018 01:07 -0,4 C 4,4 C 90 % 1018,1 hPa 0,0 l/m 9,1 km/h (2 Bft) W 259 0 min 0,000 mm 0,0 UV-I 0 W/m -1,8 C -3,1 C 14,5 km/h (3 Bft) 95,83 %
13.02.2018 01:08 -0,5 C 4,4 C 90 % 1018,1 hPa 0,0 l/m 10,9 km/h (2 Bft) SW 232 0 min 0,000 mm 0,0 UV-I 0 W/m -1,9 C -4,7 C 14,5 km/h (3 Bft) 92,86 %
13.02.2018 01:09 -0,5 C 4,4 C 90 % 1018,1 hPa 0,0 l/m 7,4 km/h (2 Bft) W-SW 238 0 min 0,000 mm 0,0 UV-I 0 W/m -1,9 C -1,6 C 9,7 km/h (2 Bft) 96,30 %
13.02.2018 01:10 -0,4 C 4,4 C 90 % 1018,1 hPa 0,0 l/m 8,5 km/h (2 Bft) W-SW 238 0 min 0,000 mm 0,0 UV-I 0 W/m -1,8 C -2,6 C 12,9 km/h (3 Bft) 96,15 %
13.02.2018 01:11 -0,5 C 4,4 C 90 % 1018,1 hPa 0,0 l/m 9,7 km/h (2 Bft) W-SW 241 0 min 0,000 mm 0,0 UV-I 0 W/m -1,9 C -3,7 C 12,9 km/h (3 Bft) 100,00 %
13.02.2018 01:12 -0,4 C 4,4 C 90 % 1018,2 hPa 0,0 l/m 10,7 km/h (2 Bft) W-SW 248 0 min 0,000 mm 0,0 UV-I 0 W/m -1,8 C -4,5 C 14,5 km/h (3 Bft) 92,31 %
13.02.2018 01:13 -0,4 C 4,4 C 90 % 1018,1 hPa 0,0 l/m 9,1 km/h (2 Bft) W 261 0 min 0,000 mm 0,0 UV-I 0 W/m -1,8 C -3,1 C 11,3 km/h (2 Bft) 100,00 %
13.02.2018 01:14 -0,4 C 4,4 C 90 % 1018,1 hPa 0,0 l/m 9,1 km/h (2 Bft) W-SW 248 0 min 0,000 mm 0,0 UV-I 0 W/m -1,8 C -3,1 C 14,5 km/h (3 Bft) 95,65 %
13.02.2018 01:15 -0,4 C 4,4 C 90 % 1018,2 hPa 0,0 l/m 8,0 km/h (2 Bft) W 263 0 min 0,000 mm 0,0 UV-I 0 W/m -1,8 C -2,1 C 12,9 km/h (3 Bft) 100,00 %
13.02.2018 01:16 -0,4 C 4,4 C 90 % 1018,2 hPa 0,0 l/m 7,7 km/h (2 Bft) W-SW 244 0 min 0,000 mm 0,0 UV-I 0 W/m -1,8 C -1,8 C 12,9 km/h (3 Bft) 95,65 %
13.02.2018 01:17 -0,4 C 4,4 C 90 % 1018,2 hPa 0,0 l/m 5,6 km/h (1 Bft) SW 215 0 min 0,000 mm 0,0 UV-I 0 W/m -1,8 C -0,4 C 8,0 km/h (2 Bft) 100,00 %
13.02.2018 01:18 -0,4 C 4,4 C 90 % 1018,2 hPa 0,0 l/m 8,8 km/h (2 Bft) W-SW 238 0 min 0,000 mm 0,0 UV-I 0 W/m -1,8 C -2,8 C 11,3 km/h (2 Bft) 96,55 %
13.02.2018 01:19 -0,4 C 4,4 C 90 % 1018,2 hPa 0,0 l/m 8,6 km/h (2 Bft) W-SW 243 0 min 0,000 mm 0,0 UV-I 0 W/m -1,8 C -2,6 C 12,9 km/h (3 Bft) 96,30 %
13.02.2018 01:20 -0,4 C 4,4 C 90 % 1018,2 hPa 0,0 l/m 6,9 km/h (2 Bft) W-SW 257 0 min 0,000 mm 0,0 UV-I 0 W/m -1,8 C -0,9 C 9,7 km/h (2 Bft) 91,30 %
13.02.2018 01:21 -0,4 C 4,4 C 90 % 1018,2 hPa 0,0 l/m 6,5 km/h (2 Bft) SW 223 0 min 0,000 mm 0,0 UV-I 0 W/m -1,8 C -0,5 C 9,7 km/h (2 Bft) 100,00 %
13.02.2018 01:22 -0,4 C 4,4 C 90 % 1018,2 hPa 0,0 l/m 7,6 km/h (2 Bft) W-SW 242 0 min 0,000 mm 0,0 UV-I 0 W/m -1,8 C -1,7 C 9,7 km/h (2 Bft) 96,88 %
13.02.2018 01:23 -0,4 C 4,4 C 90 % 1018,2 hPa 0,0 l/m 8,0 km/h (2 Bft) W-SW 254 0 min 0,000 mm 0,0 UV-I 0 W/m -1,8 C -2,1 C 12,9 km/h (3 Bft) 95,83 %
13.02.2018 01:24 -0,4 C 4,4 C 90 % 1018,1 hPa 0,0 l/m 7,9 km/h (2 Bft) W-SW 258 0 min 0,000 mm 0,0 UV-I 0 W/m -1,8 C -2,0 C 12,9 km/h (3 Bft) 100,00 %
13.02.2018 01:25 -0,4 C 4,4 C 90 % 1018,2 hPa 0,0 l/m 7,9 km/h (2 Bft) W-SW 244 0 min 0,000 mm 0,0 UV-I 0 W/m -1,8 C -2,0 C 12,9 km/h (3 Bft) 93,33 %
13.02.2018 01:26 -0,4 C 4,4 C 90 % 1018,2 hPa 0,0 l/m 7,0 km/h (2 Bft) SW 221 0 min 0,000 mm 0,0 UV-I 0 W/m -1,8 C -1,0 C 11,3 km/h (2 Bft) 95,83 %
13.02.2018 01:27 -0,4 C 4,4 C 90 % 1018,2 hPa 0,0 l/m 8,5 km/h (2 Bft) SW 232 0 min 0,000 mm 0,0 UV-I 0 W/m -1,8 C -2,6 C 12,9 km/h (3 Bft) 91,30 %
13.02.2018 01:28 -0,4 C 4,4 C 90 % 1018,2 hPa 0,0 l/m 8,0 km/h (2 Bft) SW 230 0 min 0,000 mm 0,0 UV-I 0 W/m -1,8 C -2,1 C 9,7 km/h (2 Bft) 100,00 %
13.02.2018 01:29 -0,4 C 4,4 C 90 % 1018,2 hPa 0,0 l/m 7,4 km/h (2 Bft) W 263 0 min 0,000 mm 0,0 UV-I 0 W/m -1,8 C -1,5 C 11,3 km/h (2 Bft) 96,15 %
13.02.2018 01:30 -0,4 C 4,4 C 90 % 1018,2 hPa 0,0 l/m 12,0 km/h (2 Bft) W-SW 244 0 min 0,000 mm 0,0 UV-I 0 W/m -1,8 C -5,5 C 16,1 km/h (3 Bft) 95,83 %
13.02.2018 01:31 -0,4 C 4,4 C 90 % 1018,2 hPa 0,0 l/m 8,2 km/h (2 Bft) SW 234 0 min 0,000 mm 0,0 UV-I 0 W/m -1,8 C -2,3 C 12,9 km/h (3 Bft) 91,30 %
13.02.2018 01:32 -0,4 C 4,4 C 90 % 1018,2 hPa 0,0 l/m 8,4 km/h (2 Bft) W-SW 252 0 min 0,000 mm 0,0 UV-I 0 W/m -1,8 C -2,5 C 12,9 km/h (3 Bft) 95,83 %
13.02.2018 01:33 -0,4 C 4,4 C 90 % 1018,1 hPa 0,0 l/m 8,5 km/h (2 Bft) W-SW 253 0 min 0,000 mm 0,0 UV-I 0 W/m -1,8 C -2,6 C 11,3 km/h (2 Bft) 100,00 %
13.02.2018 01:34 -0,4 C 4,4 C 90 % 1018,1 hPa 0,0 l/m 8,2 km/h (2 Bft) SW 219 0 min 0,000 mm 0,0 UV-I 0 W/m -1,8 C -2,3 C 11,3 km/h (2 Bft) 93,33 %
13.02.2018 01:35 -0,4 C 4,4 C 90 % 1018,1 hPa 0,0 l/m 9,0 km/h (2 Bft) W-SW 248 0 min 0,000 mm 0,0 UV-I 0 W/m -1,8 C -3,0 C 12,9 km/h (3 Bft) 100,00 %
13.02.2018 01:36 -0,4 C 4,4 C 90 % 1018,1 hPa 0,0 l/m 7,6 km/h (2 Bft) W-SW 246 0 min 0,000 mm 0,0 UV-I 0 W/m -1,8 C -1,7 C 11,3 km/h (2 Bft) 95,83 %
13.02.2018 01:37 -0,4 C 4,4 C 90 % 1018,1 hPa 0,0 l/m 9,4 km/h (2 Bft) W-SW 250 0 min 0,000 mm 0,0 UV-I 0 W/m -1,8 C -3,4 C 11,3 km/h (2 Bft) 100,00 %
13.02.2018 01:38 -0,4 C 4,4 C 90 % 1018,1 hPa 0,0 l/m 10,5 km/h (2 Bft) W-SW 251 0 min 0,000 mm 0,0 UV-I 0 W/m -1,8 C -4,3 C 14,5 km/h (3 Bft) 100,00 %
13.02.2018 01:39 -0,4 C 4,4 C 90 % 1018,2 hPa 0,0 l/m 8,0 km/h (2 Bft) W-SW 257 0 min 0,000 mm 0,0 UV-I 0 W/m -1,8 C -2,1 C 11,3 km/h (2 Bft) 100,00 %
13.02.2018 01:40 -0,4 C 4,4 C 90 % 1018,1 hPa 0,0 l/m 8,9 km/h (2 Bft) W-SW 258 0 min 0,000 mm 0,0 UV-I 0 W/m -1,8 C -2,9 C 12,9 km/h (3 Bft) 92,59 %
13.02.2018 01:41 -0,4 C 4,4 C 90 % 1018,1 hPa 0,0 l/m 11,0 km/h (2 Bft) W-NW 282 0 min 0,000 mm 0,0 UV-I 0 W/m -1,8 C -4,7 C 16,1 km/h (3 Bft) 100,00 %
13.02.2018 01:42 -0,4 C 4,4 C 90 % 1018,2 hPa 0,0 l/m 8,4 km/h (2 Bft) W-SW 250 0 min 0,000 mm 0,0 UV-I 0 W/m -1,8 C -2,5 C 12,9 km/h (3 Bft) 100,00 %
13.02.2018 01:43 -0,4 C 4,4 C 90 % 1018,2 hPa 0,0 l/m 10,9 km/h (2 Bft) W 272 0 min 0,000 mm 0,0 UV-I 0 W/m -1,8 C -4,6 C 14,5 km/h (3 Bft) 100,00 %
13.02.2018 01:44 -0,4 C 4,4 C 90 % 1018,2 hPa 0,0 l/m 10,5 km/h (2 Bft) SW 220 0 min 0,000 mm 0,0 UV-I 0 W/m -1,8 C -4,3 C 12,9 km/h (3 Bft) 100,00 %
13.02.2018 01:45 -0,4 C 4,4 C 90 % 1018,2 hPa 0,0 l/m 7,1 km/h (2 Bft) W-SW 240 0 min 0,000 mm 0,0 UV-I 0 W/m -1,8 C -1,1 C 11,3 km/h (2 Bft) 100,00 %
13.02.2018 01:46 -0,4 C 4,4 C 90 % 1018,2 hPa 0,0 l/m 6,5 km/h (2 Bft) W-SW 256 0 min 0,000 mm 0,0 UV-I 0 W/m -1,8 C -0,5 C 9,7 km/h (2 Bft) 100,00 %
13.02.2018 01:47 -0,4 C 4,4 C 90 % 1018,2 hPa 0,0 l/m 5,6 km/h (1 Bft) W 268 0 min 0,000 mm 0,0 UV-I 0 W/m -1,8 C -0,4 C 8,0 km/h (2 Bft) 100,00 %
13.02.2018 01:48 -0,4 C 4,4 C 90 % 1018,2 hPa 0,0 l/m 6,8 km/h (2 Bft) SW 216 0 min 0,000 mm 0,0 UV-I 0 W/m -1,8 C -0,8 C 9,7 km/h (2 Bft) 100,00 %
13.02.2018 01:49 -0,4 C 4,4 C 90 % 1018,1 hPa 0,0 l/m 8,1 km/h (2 Bft) W 262 0 min 0,000 mm 0,0 UV-I 0 W/m -1,8 C -2,2 C 12,9 km/h (3 Bft) 100,00 %
13.02.2018 01:50 -0,4 C 4,4 C 90 % 1018,2 hPa 0,0 l/m 6,5 km/h (2 Bft) W 267 0 min 0,000 mm 0,0 UV-I 0 W/m -1,8 C -0,5 C 11,3 km/h (2 Bft) 100,00 %
13.02.2018 01:51 -0,4 C 4,4 C 90 % 1018,2 hPa 0,0 l/m 6,9 km/h (2 Bft) SW 227 0 min 0,000 mm 0,0 UV-I 0 W/m -1,8 C -0,9 C 9,7 km/h (2 Bft) 100,00 %
13.02.2018 01:52 -0,4 C 4,4 C 90 % 1018,2 hPa 0,0 l/m 6,5 km/h (2 Bft) W-SW 250 0 min 0,000 mm 0,0 UV-I 0 W/m -1,8 C -0,5 C 11,3 km/h (2 Bft) 90,91 %
13.02.2018 01:53 -0,4 C 4,4 C 90 % 1018,2 hPa 0,0 l/m 5,9 km/h (2 Bft) W-SW 242 0 min 0,000 mm 0,0 UV-I 0 W/m -1,8 C -0,4 C 9,7 km/h (2 Bft) 100,00 %
13.02.2018 01:54 -0,4 C 4,4 C 90 % 1018,2 hPa 0,0 l/m 6,3 km/h (2 Bft) SW 232 0 min 0,000 mm 0,0 UV-I 0 W/m -1,8 C -0,4 C 9,7 km/h (2 Bft) 100,00 %
13.02.2018 01:55 -0,4 C 4,4 C 90 % 1018,2 hPa 0,0 l/m 7,6 km/h (2 Bft) W-SW 254 0 min 0,000 mm 0,0 UV-I 0 W/m -1,8 C -1,7 C 11,3 km/h (2 Bft) 100,00 %
13.02.2018 01:56 -0,4 C 4,4 C 90 % 1018,2 hPa 0,0 l/m 6,9 km/h (2 Bft) SW 236 0 min 0,000 mm 0,0 UV-I 0 W/m -1,8 C -0,9 C 11,3 km/h (2 Bft) 100,00 %
13.02.2018 01:57 -0,4 C 4,4 C 90 % 1018,2 hPa 0,0 l/m 7,2 km/h (2 Bft) SW 221 0 min 0,000 mm 0,0 UV-I 0 W/m -1,8 C -1,2 C 12,9 km/h (3 Bft) 100,00 %
13.02.2018 01:58 -0,4 C 4,4 C 90 % 1018,2 hPa 0,0 l/m 8,0 km/h (2 Bft) SW 217 0 min 0,000 mm 0,0 UV-I 0 W/m -1,8 C -2,1 C 12,9 km/h (3 Bft) 100,00 %
13.02.2018 01:59 -0,4 C 4,4 C 90 % 1018,2 hPa 0,0 l/m 7,9 km/h (2 Bft) W 265 0 min 0,000 mm 0,0 UV-I 0 W/m -1,8 C -2,0 C 11,3 km/h (2 Bft) 100,00 %
13.02.2018 02:00 -0,4 C 4,4 C 90 % 1018,2 hPa 0,0 l/m 7,2 km/h (2 Bft) W 265 0 min 0,000 mm 0,0 UV-I 0 W/m -1,8 C -1,2 C 11,3 km/h (2 Bft) 100,00 %
13.02.2018 02:01 -0,4 C 4,4 C 90 % 1018,2 hPa 0,0 l/m 7,8 km/h (2 Bft) SW 229 0 min 0,000 mm 0,0 UV-I 0 W/m -1,8 C -1,9 C 12,9 km/h (3 Bft) 100,00 %
13.02.2018 02:02 -0,4 C 4,4 C 90 % 1018,2 hPa 0,0 l/m 6,4 km/h (2 Bft) SW 221 0 min 0,000 mm 0,0 UV-I 0 W/m -1,8 C -0,4 C 8,0 km/h (2 Bft) 95,83 %
13.02.2018 02:03 -0,4 C 4,4 C 90 % 1018,2 hPa 0,0 l/m 8,3 km/h (2 Bft) SW 236 0 min 0,000 mm 0,0 UV-I 0 W/m -1,8 C -2,4 C 12,9 km/h (3 Bft) 100,00 %
13.02.2018 02:04 -0,3 C 4,4 C 90 % 1018,2 hPa 0,0 l/m 7,7 km/h (2 Bft) SW 234 0 min 0,000 mm 0,0 UV-I 0 W/m -1,7 C -1,7 C 11,3 km/h (2 Bft) 100,00 %
13.02.2018 02:05 -0,4 C 4,4 C 90 % 1018,2 hPa 0,0 l/m 7,0 km/h (2 Bft) SW 236 0 min 0,000 mm 0,0 UV-I 0 W/m -1,8 C -1,0 C 8,0 km/h (2 Bft) 100,00 %
13.02.2018 02:06 -0,3 C 4,4 C 90 % 1018,1 hPa 0,0 l/m 6,9 km/h (2 Bft) W-SW 237 0 min 0,000 mm 0,0 UV-I 0 W/m -1,7 C -0,8 C 8,0 km/h (2 Bft) 93,33 %
13.02.2018 02:07 -0,3 C 4,4 C 90 % 1018,2 hPa 0,0 l/m 6,2 km/h (2 Bft) SW 223 0 min 0,000 mm 0,0 UV-I 0 W/m -1,7 C -0,3 C 9,7 km/h (2 Bft) 100,00 %
13.02.2018 02:08 -0,3 C 4,4 C 90 % 1018,2 hPa 0,0 l/m 6,6 km/h (2 Bft) SW 234 0 min 0,000 mm 0,0 UV-I 0 W/m -1,7 C -0,5 C 9,7 km/h (2 Bft) 100,00 %
13.02.2018 02:09 -0,3 C 4,4 C 91 % 1018,2 hPa 0,0 l/m 5,6 km/h (1 Bft) SW 236 0 min 0,000 mm 0,0 UV-I 0 W/m -1,6 C -0,3 C 6,4 km/h (2 Bft) 95,65 %
13.02.2018 02:10 -0,3 C 4,4 C 91 % 1018,2 hPa 0,0 l/m 5,8 km/h (2 Bft) W-SW 246 0 min 0,000 mm 0,0 UV-I 0 W/m -1,6 C -0,3 C 8,0 km/h (2 Bft) 95,83 %
13.02.2018 02:11 -0,4 C 4,4 C 91 % 1018,2 hPa 0,0 l/m 5,7 km/h (1 Bft) W-SW 246 0 min 0,000 mm 0,0 UV-I 0 W/m -1,7 C -0,4 C 8,0 km/h (2 Bft) 92,31 %
13.02.2018 02:12 -0,4 C 4,4 C 91 % 1018,2 hPa 0,0 l/m 4,9 km/h (1 Bft) W-SW 257 0 min 0,000 mm 0,0 UV-I 0 W/m -1,7 C -0,4 C 6,4 km/h (2 Bft) 100,00 %
13.02.2018 02:13 -0,4 C 4,4 C 91 % 1018,2 hPa 0,0 l/m 6,2 km/h (2 Bft) W 270 0 min 0,000 mm 0,0 UV-I 0 W/m -1,7 C -0,4 C 9,7 km/h (2 Bft) 96,15 %
13.02.2018 02:14 -0,4 C 4,4 C 91 % 1018,2 hPa 0,0 l/m 6,5 km/h (2 Bft) S-SW 194 0 min 0,000 mm 0,0 UV-I 0 W/m -1,7 C -0,5 C 11,3 km/h (2 Bft) 94,44 %
13.02.2018 02:15 -0,3 C 4,4 C 91 % 1018,2 hPa 0,0 l/m 6,8 km/h (2 Bft) W-SW 249 0 min 0,000 mm 0,0 UV-I 0 W/m -1,6 C -0,7 C 9,7 km/h (2 Bft) 100,00 %
13.02.2018 02:16 -0,4 C 4,4 C 91 % 1018,2 hPa 0,0 l/m 7,6 km/h (2 Bft) W-SW 254 0 min 0,000 mm 0,0 UV-I 0 W/m -1,7 C -1,7 C 11,3 km/h (2 Bft) 95,83 %
13.02.2018 02:17 -0,4 C 4,4 C 91 % 1018,2 hPa 0,0 l/m 6,1 km/h (2 Bft) W-SW 252 0 min 0,000 mm 0,0 UV-I 0 W/m -1,7 C -0,4 C 8,0 km/h (2 Bft) 100,00 %
13.02.2018 02:18 -0,4 C 4,4 C 91 % 1018,2 hPa 0,0 l/m 5,9 km/h (2 Bft) W-SW 257 0 min 0,000 mm 0,0 UV-I 0 W/m -1,7 C -0,4 C 9,7 km/h (2 Bft) 93,33 %
13.02.2018 02:19 -0,4 C 4,4 C 91 % 1018,2 hPa 0,0 l/m 7,1 km/h (2 Bft) W-SW 254 0 min 0,000 mm 0,0 UV-I 0 W/m -1,7 C -1,1 C 11,3 km/h (2 Bft) 100,00 %
13.02.2018 02:20 -0,4 C 4,4 C 91 % 1018,2 hPa 0,0 l/m 4,4 km/h (1 Bft) W-SW 250 0 min 0,000 mm 0,0 UV-I 0 W/m -1,7 C -0,4 C 6,4 km/h (2 Bft) 95,65 %
13.02.2018 02:21 -0,4 C 4,4 C 91 % 1018,2 hPa 0,0 l/m 5,8 km/h (2 Bft) W-SW 245 0 min 0,000 mm 0,0 UV-I 0 W/m -1,7 C -0,4 C 8,0 km/h (2 Bft) 95,83 %
13.02.2018 02:22 -0,4 C 4,4 C 91 % 1018,2 hPa 0,0 l/m 5,1 km/h (1 Bft) W-SW 241 0 min 0,000 mm 0,0 UV-I 0 W/m -1,7 C -0,4 C 8,0 km/h (2 Bft) 100,00 %
13.02.2018 02:23 -0,4 C 4,4 C 91 % 1018,2 hPa 0,0 l/m 5,9 km/h (2 Bft) SW 230 0 min 0,000 mm 0,0 UV-I 0 W/m -1,7 C -0,4 C 9,7 km/h (2 Bft) 96,30 %
13.02.2018 02:24 -0,4 C 4,4 C 91 % 1018,2 hPa 0,0 l/m 7,0 km/h (2 Bft) SW 236 0 min 0,000 mm 0,0 UV-I 0 W/m -1,7 C -1,0 C 9,7 km/h (2 Bft) 100,00 %
13.02.2018 02:25 -0,4 C 4,4 C 91 % 1018,2 hPa 0,0 l/m 7,2 km/h (2 Bft) SW 229 0 min 0,000 mm 0,0 UV-I 0 W/m -1,7 C -1,2 C 11,3 km/h (2 Bft) 91,67 %
13.02.2018 02:26 -0,4 C 4,4 C 91 % 1018,2 hPa 0,0 l/m 5,8 km/h (2 Bft) SW 221 0 min 0,000 mm 0,0 UV-I 0 W/m -1,7 C -0,4 C 8,0 km/h (2 Bft) 100,00 %
13.02.2018 02:27 -0,4 C 4,4 C 91 % 1018,2 hPa 0,0 l/m 5,7 km/h (1 Bft) W-SW 237 0 min 0,000 mm 0,0 UV-I 0 W/m -1,7 C -0,4 C 6,4 km/h (2 Bft) 96,30 %
13.02.2018 02:28 -0,4 C 4,4 C 91 % 1018,2 hPa 0,0 l/m 4,6 km/h (1 Bft) W-SW 251 0 min 0,000 mm 0,0 UV-I 0 W/m -1,7 C -0,4 C 6,4 km/h (2 Bft) 96,15 %
13.02.2018 02:29 -0,4 C 4,4 C 91 % 1018,2 hPa 0,0 l/m 5,0 km/h (1 Bft) W-SW 248 0 min 0,000 mm 0,0 UV-I 0 W/m -1,7 C -0,4 C 8,0 km/h (2 Bft) 100,00 %
13.02.2018 02:30 -0,4 C 4,4 C 91 % 1018,2 hPa 0,0 l/m 6,5 km/h (2 Bft) W-SW 240 0 min 0,000 mm 0,0 UV-I 0 W/m -1,7 C -0,5 C 8,0 km/h (2 Bft) 92,86 %
13.02.2018 02:31 -0,4 C 4,4 C 91 % 1018,2 hPa 0,0 l/m 6,4 km/h (2 Bft) W-SW 250 0 min 0,000 mm 0,0 UV-I 0 W/m -1,7 C -0,4 C 11,3 km/h (2 Bft) 100,00 %
13.02.2018 02:32 -0,4 C 4,4 C 91 % 1018,2 hPa 0,0 l/m 7,1 km/h (2 Bft) W-SW 246 0 min 0,000 mm 0,0 UV-I 0 W/m -1,7 C -1,1 C 11,3 km/h (2 Bft) 95,65 %
13.02.2018 02:33 -0,4 C 4,4 C 91 % 1018,2 hPa 0,0 l/m 7,9 km/h (2 Bft) W-SW 252 0 min 0,000 mm 0,0 UV-I 0 W/m -1,7 C -2,0 C 11,3 km/h (2 Bft) 100,00 %
13.02.2018 02:34 -0,4 C 4,4 C 91 % 1018,2 hPa 0,0 l/m 7,0 km/h (2 Bft) W-SW 251 0 min 0,000 mm 0,0 UV-I 0 W/m -1,7 C -1,0 C 11,3 km/h (2 Bft) 95,65 %
13.02.2018 02:35 -0,4 C 4,4 C 91 % 1018,2 hPa 0,0 l/m 5,6 km/h (1 Bft) SW 219 0 min 0,000 mm 0,0 UV-I 0 W/m -1,7 C -0,4 C 8,0 km/h (2 Bft) 96,30 %
13.02.2018 02:36 -0,4 C 4,4 C 91 % 1018,1 hPa 0,0 l/m 5,3 km/h (1 Bft) W 259 0 min 0,000 mm 0,0 UV-I 0 W/m -1,7 C -0,4 C 6,4 km/h (2 Bft) 100,00 %
13.02.2018 02:37 -0,4 C 4,4 C 91 % 1018,2 hPa 0,0 l/m 6,1 km/h (2 Bft) W-SW 257 0 min 0,000 mm 0,0 UV-I 0 W/m -1,7 C -0,4 C 8,0 km/h (2 Bft) 96,30 %
13.02.2018 02:38 -0,4 C 4,4 C 91 % 1018,2 hPa 0,0 l/m 5,6 km/h (1 Bft) W-SW 248 0 min 0,000 mm 0,0 UV-I 0 W/m -1,7 C -0,4 C 8,0 km/h (2 Bft) 100,00 %
13.02.2018 02:39 -0,4 C 4,4 C 91 % 1018,2 hPa 0,0 l/m 6,0 km/h (2 Bft) W 268 0 min 0,000 mm 0,0 UV-I 0 W/m -1,7 C -0,4 C 6,4 km/h (2 Bft) 93,33 %
13.02.2018 02:40 -0,4 C 4,4 C 91 % 1018,2 hPa 0,0 l/m 5,1 km/h (1 Bft) W 261 0 min 0,000 mm 0,0 UV-I 0 W/m -1,7 C -0,4 C 6,4 km/h (2 Bft) 100,00 %
13.02.2018 02:41 -0,4 C 4,4 C 91 % 1018,2 hPa 0,0 l/m 3,4 km/h (1 Bft) W 262 0 min 0,000 mm 0,0 UV-I 0 W/m -1,7 C -0,4 C 4,8 km/h (1 Bft) 100,00 %
13.02.2018 02:42 -0,4 C 4,4 C 91 % 1018,2 hPa 0,0 l/m 4,7 km/h (1 Bft) W-SW 241 0 min 0,000 mm 0,0 UV-I 0 W/m -1,7 C -0,4 C 6,4 km/h (2 Bft) 100,00 %
13.02.2018 02:43 -0,4 C 4,4 C 91 % 1018,2 hPa 0,0 l/m 4,8 km/h (1 Bft) SW 228 0 min 0,000 mm 0,0 UV-I 0 W/m -1,7 C -0,4 C 6,4 km/h (2 Bft) 100,00 %
13.02.2018 02:44 -0,4 C 4,4 C 91 % 1018,2 hPa 0,0 l/m 3,4 km/h (1 Bft) SW 229 0 min 0,000 mm 0,0 UV-I 0 W/m -1,7 C -0,4 C 4,8 km/h (1 Bft) 100,00 %
13.02.2018 02:45 -0,4 C 4,4 C 91 % 1018,2 hPa 0,0 l/m 6,4 km/h (2 Bft) W 274 0 min 0,000 mm 0,0 UV-I 0 W/m -1,7 C -0,4 C 9,7 km/h (2 Bft) 91,30 %
13.02.2018 02:46 -0,4 C 4,4 C 91 % 1018,2 hPa 0,0 l/m 4,9 km/h (1 Bft) W 275 0 min 0,000 mm 0,0 UV-I 0 W/m -1,7 C -0,4 C 6,4 km/h (2 Bft) 100,00 %
13.02.2018 02:47 -0,4 C 4,4 C 92 % 1018,2 hPa 0,0 l/m 5,4 km/h (1 Bft) W-SW 246 0 min 0,000 mm 0,0 UV-I 0 W/m -1,5 C -0,4 C 8,0 km/h (2 Bft) 100,00 %
13.02.2018 02:48 -0,4 C 4,4 C 91 % 1018,2 hPa 0,0 l/m 4,4 km/h (1 Bft) W-SW 246 0 min 0,000 mm 0,0 UV-I 0 W/m -1,7 C -0,4 C 6,4 km/h (2 Bft) 100,00 %
13.02.2018 02:49 -0,4 C 4,4 C 91 % 1018,2 hPa 0,0 l/m 6,2 km/h (2 Bft) W-SW 256 0 min 0,000 mm 0,0 UV-I 0 W/m -1,7 C -0,4 C 11,3 km/h (2 Bft) 100,00 %
13.02.2018 02:50 -0,4 C 4,4 C 91 % 1018,2 hPa 0,0 l/m 4,7 km/h (1 Bft) W 267 0 min 0,000 mm 0,0 UV-I 0 W/m -1,7 C -0,4 C 6,4 km/h (2 Bft) 100,00 %
13.02.2018 02:51 -0,4 C 4,4 C 91 % 1018,2 hPa 0,0 l/m 5,4 km/h (1 Bft) W-SW 255 0 min 0,000 mm 0,0 UV-I 0 W/m -1,7 C -0,4 C 8,0 km/h (2 Bft) 100,00 %
13.02.2018 02:52 -0,4 C 4,4 C 91 % 1018,2 hPa 0,0 l/m 10,2 km/h (2 Bft) W-SW 257 0 min 0,000 mm 0,0 UV-I 0 W/m -1,7 C -4,1 C 14,5 km/h (3 Bft) 100,00 %
13.02.2018 02:53 -0,4 C 4,4 C 91 % 1018,2 hPa 0,0 l/m 4,6 km/h (1 Bft) W 271 0 min 0,000 mm 0,0 UV-I 0 W/m -1,7 C -0,4 C 6,4 km/h (2 Bft) 100,00 %
13.02.2018 02:54 -0,3 C 4,4 C 91 % 1018,1 hPa 0,0 l/m 4,2 km/h (1 Bft) W 271 0 min 0,000 mm 0,0 UV-I 0 W/m -1,6 C -0,3 C 4,8 km/h (1 Bft) 93,33 %
13.02.2018 02:55 -0,3 C 4,4 C 90 % 1018,2 hPa 0,0 l/m 5,7 km/h (1 Bft) W-SW 248 0 min 0,000 mm 0,0 UV-I 0 W/m -1,7 C -0,3 C 11,3 km/h (2 Bft) 100,00 %
13.02.2018 02:56 -0,3 C 4,4 C 90 % 1018,2 hPa 0,0 l/m 5,2 km/h (1 Bft) W 263 0 min 0,000 mm 0,0 UV-I 0 W/m -1,7 C -0,3 C 11,3 km/h (2 Bft) 100,00 %
13.02.2018 02:57 -0,3 C 4,4 C 90 % 1018,2 hPa 0,0 l/m 4,0 km/h (1 Bft) W-SW 244 0 min 0,000 mm 0,0 UV-I 0 W/m -1,7 C -0,3 C 8,0 km/h (2 Bft) 100,00 %
13.02.2018 02:58 -0,3 C 4,4 C 90 % 1018,2 hPa 0,0 l/m 8,3 km/h (2 Bft) W 269 0 min 0,000 mm 0,0 UV-I 0 W/m -1,7 C -2,3 C 11,3 km/h (2 Bft) 100,00 %
13.02.2018 02:59 -0,3 C 4,4 C 90 % 1018,2 hPa 0,0 l/m 9,3 km/h (2 Bft) W 268 0 min 0,000 mm 0,0 UV-I 0 W/m -1,7 C -3,2 C 11,3 km/h (2 Bft) 100,00 %
13.02.2018 03:00 -0,3 C 4,4 C 90 % 1018,2 hPa 0,0 l/m 6,5 km/h (2 Bft) W 274 0 min 0,000 mm 0,0 UV-I 0 W/m -1,7 C -0,4 C 11,3 km/h (2 Bft) 100,00 %
13.02.2018 03:01 -0,3 C 4,4 C 90 % 1018,2 hPa 0,0 l/m 4,3 km/h (1 Bft) W 268 0 min 0,000 mm 0,0 UV-I 0 W/m -1,7 C -0,3 C 6,4 km/h (2 Bft) 100,00 %
13.02.2018 03:02 -0,3 C 4,4 C 90 % 1018,2 hPa 0,0 l/m 7,3 km/h (2 Bft) W 261 0 min 0,000 mm 0,0 UV-I 0 W/m -1,7 C -1,2 C 9,7 km/h (2 Bft) 100,00 %
13.02.2018 03:03 -0,3 C 4,4 C 90 % 1018,2 hPa 0,0 l/m 9,3 km/h (2 Bft) W 270 0 min 0,000 mm 0,0 UV-I 0 W/m -1,7 C -3,2 C 11,3 km/h (2 Bft) 100,00 %
13.02.2018 03:04 -0,3 C 4,4 C 90 % 1018,2 hPa 0,0 l/m 6,4 km/h (2 Bft) W-NW 288 0 min 0,000 mm 0,0 UV-I 0 W/m -1,7 C -0,3 C 9,7 km/h (2 Bft) 95,83 %
13.02.2018 03:05 -0,3 C 4,4 C 90 % 1018,3 hPa 0,0 l/m 5,0 km/h (1 Bft) W-NW 285 0 min 0,000 mm 0,0 UV-I 0 W/m -1,7 C -0,3 C 6,4 km/h (2 Bft) 100,00 %
13.02.2018 03:06 -0,3 C 4,4 C 89 % 1018,2 hPa 0,0 l/m 4,4 km/h (1 Bft) N-NW 329 0 min 0,000 mm 0,0 UV-I 0 W/m -1,9 C -0,3 C 6,4 km/h (2 Bft) 95,83 %
13.02.2018 03:07 -0,3 C 4,4 C 89 % 1018,2 hPa 0,0 l/m 4,5 km/h (1 Bft) W-SW 244 0 min 0,000 mm 0,0 UV-I 0 W/m -1,9 C -0,3 C 8,0 km/h (2 Bft) 100,00 %
13.02.2018 03:08 -0,3 C 4,4 C 89 % 1018,2 hPa 0,0 l/m 6,9 km/h (2 Bft) W 266 0 min 0,000 mm 0,0 UV-I 0 W/m -1,9 C -0,8 C 9,7 km/h (2 Bft) 91,30 %
13.02.2018 03:09 -0,3 C 4,4 C 89 % 1018,2 hPa 0,0 l/m 5,1 km/h (1 Bft) W 276 0 min 0,000 mm 0,0 UV-I 0 W/m -1,9 C -0,3 C 6,4 km/h (2 Bft) 100,00 %
13.02.2018 03:10 -0,3 C 4,4 C 89 % 1018,2 hPa 0,0 l/m 8,9 km/h (2 Bft) W-SW 251 0 min 0,000 mm 0,0 UV-I 0 W/m -1,9 C -2,8 C 12,9 km/h (3 Bft) 100,00 %
13.02.2018 03:11 -0,3 C 4,4 C 89 % 1018,2 hPa 0,0 l/m 8,4 km/h (2 Bft) W 273 0 min 0,000 mm 0,0 UV-I 0 W/m -1,9 C -2,4 C 11,3 km/h (2 Bft) 100,00 %
13.02.2018 03:12 -0,3 C 4,4 C 89 % 1018,2 hPa 0,0 l/m 5,8 km/h (2 Bft) W-SW 252 0 min 0,000 mm 0,0 UV-I 0 W/m -1,9 C -0,3 C 8,0 km/h (2 Bft) 100,00 %
13.02.2018 03:13 -0,3 C 4,4 C 89 % 1018,2 hPa 0,0 l/m 5,7 km/h (1 Bft) W 271 0 min 0,000 mm 0,0 UV-I 0 W/m -1,9 C -0,3 C 9,7 km/h (2 Bft) 100,00 %
13.02.2018 03:14 -0,3 C 4,4 C 89 % 1018,2 hPa 0,0 l/m 3,9 km/h (1 Bft) W 266 0 min 0,000 mm 0,0 UV-I 0 W/m -1,9 C -0,3 C 9,7 km/h (2 Bft) 100,00 %
13.02.2018 03:15 -0,3 C 4,4 C 89 % 1018,2 hPa 0,0 l/m 8,4 km/h (2 Bft) W-NW 284 0 min 0,000 mm 0,0 UV-I 0 W/m -1,9 C -2,4 C 11,3 km/h (2 Bft) 100,00 %
13.02.2018 03:16 -0,3 C 4,4 C 89 % 1018,1 hPa 0,0 l/m 7,5 km/h (2 Bft) W-SW 257 0 min 0,000 mm 0,0 UV-I 0 W/m -1,9 C -1,5 C 11,3 km/h (2 Bft) 100,00 %
13.02.2018 03:17 -0,3 C 4,4 C 89 % 1018,2 hPa 0,0 l/m 4,1 km/h (1 Bft) W 272 0 min 0,000 mm 0,0 UV-I 0 W/m -1,9 C -0,3 C 4,8 km/h (1 Bft) 100,00 %
13.02.2018 03:18 -0,3 C 4,4 C 89 % 1018,1 hPa 0,0 l/m 3,4 km/h (1 Bft) W 272 0 min 0,000 mm 0,0 UV-I 0 W/m -1,9 C -0,3 C 4,8 km/h (1 Bft) 100,00 %
13.02.2018 03:19 -0,3 C 4,4 C 89 % 1018,1 hPa 0,0 l/m 6,9 km/h (2 Bft) W 268 0 min 0,000 mm 0,0 UV-I 0 W/m -1,9 C -0,8 C 11,3 km/h (2 Bft) 100,00 %
13.02.2018 03:20 -0,3 C 4,4 C 89 % 1018,1 hPa 0,0 l/m 5,9 km/h (2 Bft) W 273 0 min 0,000 mm 0,0 UV-I 0 W/m -1,9 C -0,3 C 9,7 km/h (2 Bft) 100,00 %
13.02.2018 03:21 -0,3 C 4,4 C 89 % 1018,1 hPa 0,0 l/m 5,0 km/h (1 Bft) W-NW 285 0 min 0,000 mm 0,0 UV-I 0 W/m -1,9 C -0,3 C 6,4 km/h (2 Bft) 100,00 %
13.02.2018 03:22 -0,3 C 4,4 C 89 % 1018,2 hPa 0,0 l/m 8,2 km/h (2 Bft) SW 232 0 min 0,000 mm 0,0 UV-I 0 W/m -1,9 C -2,2 C 12,9 km/h (3 Bft) 100,00 %
13.02.2018 03:23 -0,3 C 4,4 C 89 % 1018,2 hPa 0,0 l/m 6,6 km/h (2 Bft) W 261 0 min 0,000 mm 0,0 UV-I 0 W/m -1,9 C -0,5 C 9,7 km/h (2 Bft) 100,00 %
13.02.2018 03:24 -0,3 C 4,4 C 89 % 1018,1 hPa 0,0 l/m 7,2 km/h (2 Bft) W 262 0 min 0,000 mm 0,0 UV-I 0 W/m -1,9 C -1,1 C 11,3 km/h (2 Bft) 100,00 %
13.02.2018 03:25 -0,3 C 4,4 C 89 % 1018,1 hPa 0,0 l/m 9,8 km/h (2 Bft) SW 233 0 min 0,000 mm 0,0 UV-I 0 W/m -1,9 C -3,6 C 12,9 km/h (3 Bft) 100,00 %
13.02.2018 03:26 -0,3 C 4,4 C 89 % 1018,2 hPa 0,0 l/m 4,8 km/h (1 Bft) W-SW 255 0 min 0,000 mm 0,0 UV-I 0 W/m -1,9 C -0,3 C 6,4 km/h (2 Bft) 96,30 %
13.02.2018 03:27 -0,3 C 4,4 C 89 % 1018,2 hPa 0,0 l/m 4,5 km/h (1 Bft) W 279 0 min 0,000 mm 0,0 UV-I 0 W/m -1,9 C -0,3 C 6,4 km/h (2 Bft) 100,00 %
13.02.2018 03:28 -0,3 C 4,4 C 89 % 1018,1 hPa 0,0 l/m 7,6 km/h (2 Bft) W 267 0 min 0,000 mm 0,0 UV-I 0 W/m -1,9 C -1,6 C 12,9 km/h (3 Bft) 100,00 %
13.02.2018 03:29 -0,3 C 4,4 C 89 % 1018,1 hPa 0,0 l/m 3,7 km/h (1 Bft) W 276 0 min 0,000 mm 0,0 UV-I 0 W/m -1,9 C -0,3 C 4,8 km/h (1 Bft) 100,00 %
13.02.2018 03:30 -0,3 C 4,4 C 89 % 1018,2 hPa 0,0 l/m 4,8 km/h (1 Bft) W-SW 247 0 min 0,000 mm 0,0 UV-I 0 W/m -1,9 C -0,3 C 6,4 km/h (2 Bft) 100,00 %
13.02.2018 03:31 -0,3 C 4,4 C 89 % 1018,2 hPa 0,0 l/m 5,5 km/h (1 Bft) W-SW 240 0 min 0,000 mm 0,0 UV-I 0 W/m -1,9 C -0,3 C 9,7 km/h (2 Bft) 100,00 %
13.02.2018 03:32 -0,3 C 4,4 C 89 % 1018,1 hPa 0,0 l/m 4,7 km/h (1 Bft) NW 308 0 min 0,000 mm 0,0 UV-I 0 W/m -1,9 C -0,3 C 8,0 km/h (2 Bft) 100,00 %
13.02.2018 03:33 -0,3 C 4,4 C 89 % 1018,1 hPa 0,0 l/m 4,1 km/h (1 Bft) W-SW 254 0 min 0,000 mm 0,0 UV-I 0 W/m -1,9 C -0,3 C 6,4 km/h (2 Bft) 100,00 %
13.02.2018 03:34 -0,3 C 4,4 C 89 % 1018,1 hPa 0,0 l/m 3,8 km/h (1 Bft) W-SW 255 0 min 0,000 mm 0,0 UV-I 0 W/m -1,9 C -0,3 C 6,4 km/h (2 Bft) 100,00 %
13.02.2018 03:35 -0,3 C 4,4 C 89 % 1018,1 hPa 0,0 l/m 4,9 km/h (1 Bft) W-NW 297 0 min 0,000 mm 0,0 UV-I 0 W/m -1,9 C -0,3 C 6,4 km/h (2 Bft) 100,00 %
13.02.2018 03:36 -0,3 C 4,4 C 89 % 1018,1 hPa 0,0 l/m 5,7 km/h (1 Bft) W 265 0 min 0,000 mm 0,0 UV-I 0 W/m -1,9 C -0,3 C 9,7 km/h (2 Bft) 100,00 %
13.02.2018 03:37 -0,3 C 4,4 C 89 % 1018,1 hPa 0,0 l/m 4,5 km/h (1 Bft) W 264 0 min 0,000 mm 0,0 UV-I 0 W/m -1,9 C -0,3 C 6,4 km/h (2 Bft) 100,00 %
13.02.2018 03:38 -0,3 C 4,4 C 89 % 1018,1 hPa 0,0 l/m 4,6 km/h (1 Bft) W-SW 252 0 min 0,000 mm 0,0 UV-I 0 W/m -1,9 C -0,3 C 9,7 km/h (2 Bft) 100,00 %
13.02.2018 03:39 -0,3 C 4,4 C 89 % 1018,1 hPa 0,0 l/m 5,2 km/h (1 Bft) W 267 0 min 0,000 mm 0,0 UV-I 0 W/m -1,9 C -0,3 C 8,0 km/h (2 Bft) 100,00 %
13.02.2018 03:40 -0,3 C 4,4 C 89 % 1018,1 hPa 0,0 l/m 4,7 km/h (1 Bft) W-SW 249 0 min 0,000 mm 0,0 UV-I 0 W/m -1,9 C -0,3 C 8,0 km/h (2 Bft) 100,00 %
13.02.2018 03:41 -0,3 C 4,4 C 89 % 1018,0 hPa 0,0 l/m 4,5 km/h (1 Bft) W 281 0 min 0,000 mm 0,0 UV-I 0 W/m -1,9 C -0,3 C 6,4 km/h (2 Bft) 96,67 %
13.02.2018 03:42 -0,3 C 4,4 C 89 % 1018,0 hPa 0,0 l/m 2,3 km/h (1 Bft) W 281 0 min 0,000 mm 0,0 UV-I 0 W/m -1,9 C -0,3 C 4,8 km/h (1 Bft) 91,30 %
13.02.2018 03:43 -0,3 C 4,4 C 89 % 1018,0 hPa 0,0 l/m 4,0 km/h (1 Bft) W 265 0 min 0,000 mm 0,0 UV-I 0 W/m -1,9 C -0,3 C 4,8 km/h (1 Bft) 95,83 %
13.02.2018 03:44 -0,3 C 4,4 C 89 % 1018,1 hPa 0,0 l/m 6,5 km/h (2 Bft) W-SW 254 0 min 0,000 mm 0,0 UV-I 0 W/m -1,9 C -0,4 C 11,3 km/h (2 Bft) 100,00 %
13.02.2018 03:45 -0,3 C 4,4 C 89 % 1018,0 hPa 0,0 l/m 5,3 km/h (1 Bft) W-SW 252 0 min 0,000 mm 0,0 UV-I 0 W/m -1,9 C -0,3 C 6,4 km/h (2 Bft) 100,00 %
13.02.2018 03:46 -0,3 C 4,4 C 89 % 1018,0 hPa 0,0 l/m 5,8 km/h (2 Bft) W 269 0 min 0,000 mm 0,0 UV-I 0 W/m -1,9 C -0,3 C 9,7 km/h (2 Bft) 100,00 %
13.02.2018 03:47 -0,3 C 4,4 C 89 % 1018,0 hPa 0,0 l/m 5,6 km/h (1 Bft) W 279 0 min 0,000 mm 0,0 UV-I 0 W/m -1,9 C -0,3 C 9,7 km/h (2 Bft) 100,00 %
13.02.2018 03:48 -0,3 C 4,4 C 89 % 1018,0 hPa 0,0 l/m 3,5 km/h (1 Bft) W 279 0 min 0,000 mm 0,0 UV-I 0 W/m -1,9 C -0,3 C 4,8 km/h (1 Bft) 100,00 %
13.02.2018 03:49 -0,3 C 4,4 C 89 % 1018,0 hPa 0,0 l/m 4,6 km/h (1 Bft) W 260 0 min 0,000 mm 0,0 UV-I 0 W/m -1,9 C -0,3 C 6,4 km/h (2 Bft) 100,00 %
13.02.2018 03:50 -0,3 C 4,4 C 89 % 1018,0 hPa 0,0 l/m 5,2 km/h (1 Bft) W 261 0 min 0,000 mm 0,0 UV-I 0 W/m -1,9 C -0,3 C 6,4 km/h (2 Bft) 100,00 %
13.02.2018 03:51 -0,3 C 4,4 C 89 % 1017,9 hPa 0,0 l/m 3,6 km/h (1 Bft) W-SW 246 0 min 0,000 mm 0,0 UV-I 0 W/m -1,9 C -0,3 C 4,8 km/h (1 Bft) 100,00 %
13.02.2018 03:52 -0,3 C 4,4 C 89 % 1018,0 hPa 0,0 l/m 4,0 km/h (1 Bft) W-SW 244 0 min 0,000 mm 0,0 UV-I 0 W/m -1,9 C -0,3 C 6,4 km/h (2 Bft) 100,00 %
13.02.2018 03:53 -0,4 C 4,4 C 89 % 1018,0 hPa 0,0 l/m 8,1 km/h (2 Bft) W 281 0 min 0,000 mm 0,0 UV-I 0 W/m -2,0 C -2,2 C 11,3 km/h (2 Bft) 100,00 %
13.02.2018 03:54 -0,4 C 4,4 C 89 % 1018,0 hPa 0,0 l/m 6,5 km/h (2 Bft) W-SW 255 0 min 0,000 mm 0,0 UV-I 0 W/m -2,0 C -0,5 C 11,3 km/h (2 Bft) 100,00 %
13.02.2018 03:55 -0,4 C 4,4 C 89 % 1018,0 hPa 0,0 l/m 4,9 km/h (1 Bft) W-SW 257 0 min 0,000 mm 0,0 UV-I 0 W/m -2,0 C -0,4 C 6,4 km/h (2 Bft) 100,00 %
13.02.2018 03:56 -0,4 C 4,4 C 89 % 1018,0 hPa 0,0 l/m 5,5 km/h (1 Bft) W-SW 244 0 min 0,000 mm 0,0 UV-I 0 W/m -2,0 C -0,4 C 8,0 km/h (2 Bft) 100,00 %
13.02.2018 03:57 -0,4 C 4,4 C 89 % 1018,0 hPa 0,0 l/m 7,5 km/h (2 Bft) W-SW 255 0 min 0,000 mm 0,0 UV-I 0 W/m -2,0 C -1,6 C 14,5 km/h (3 Bft) 100,00 %
13.02.2018 03:58 -0,4 C 4,4 C 89 % 1018,0 hPa 0,0 l/m 9,7 km/h (2 Bft) W 270 0 min 0,000 mm 0,0 UV-I 0 W/m -2,0 C -3,6 C 12,9 km/h (3 Bft) 100,00 %
13.02.2018 03:59 -0,4 C 4,4 C 89 % 1018,0 hPa 0,0 l/m 7,4 km/h (2 Bft) W-SW 237 0 min 0,000 mm 0,0 UV-I 0 W/m -2,0 C -1,5 C 11,3 km/h (2 Bft) 100,00 %
13.02.2018 04:00 -0,4 C 4,4 C 89 % 1018,0 hPa 0,0 l/m 10,8 km/h (2 Bft) W 266 0 min 0,000 mm 0,0 UV-I 0 W/m -2,0 C -4,5 C 12,9 km/h (3 Bft) 100,00 %
13.02.2018 04:02 -0,4 C 4,4 C 89 % 1018,0 hPa 0,0 l/m 7,7 km/h (2 Bft) W-SW 257 0 min 0,000 mm 0,0 UV-I 0 W/m -2,0 C -1,8 C 9,7 km/h (2 Bft) 95,65 %
13.02.2018 04:03 -0,4 C 4,4 C 89 % 1018,0 hPa 0,0 l/m 10,7 km/h (2 Bft) W-SW 252 0 min 0,000 mm 0,0 UV-I 0 W/m -2,0 C -4,5 C 16,1 km/h (3 Bft) 100,00 %
13.02.2018 04:04 -0,4 C 4,4 C 88 % 1017,9 hPa 0,0 l/m 11,9 km/h (2 Bft) W-SW 257 0 min 0,000 mm 0,0 UV-I 0 W/m -2,1 C -5,4 C 16,1 km/h (3 Bft) 100,00 %
13.02.2018 04:05 -0,4 C 4,4 C 88 % 1017,9 hPa 0,0 l/m 12,5 km/h (3 Bft) W 277 0 min 0,000 mm 0,0 UV-I 0 W/m -2,1 C -5,8 C 17,7 km/h (3 Bft) 100,00 %
13.02.2018 04:06 -0,4 C 4,4 C 88 % 1017,9 hPa 0,0 l/m 10,6 km/h (2 Bft) W 281 0 min 0,000 mm 0,0 UV-I 0 W/m -2,1 C -4,4 C 16,1 km/h (3 Bft) 100,00 %
13.02.2018 04:07 -0,4 C 4,4 C 88 % 1017,9 hPa 0,0 l/m 8,9 km/h (2 Bft) W-SW 250 0 min 0,000 mm 0,0 UV-I 0 W/m -2,1 C -2,9 C 12,9 km/h (3 Bft) 100,00 %
13.02.2018 04:08 -0,4 C 4,4 C 88 % 1017,9 hPa 0,0 l/m 7,7 km/h (2 Bft) W-SW 244 0 min 0,000 mm 0,0 UV-I 0 W/m -2,1 C -1,8 C 12,9 km/h (3 Bft) 100,00 %
13.02.2018 04:09 -0,4 C 4,4 C 88 % 1017,9 hPa 0,0 l/m 8,2 km/h (2 Bft) W 260 0 min 0,000 mm 0,0 UV-I 0 W/m -2,1 C -2,3 C 12,9 km/h (3 Bft) 100,00 %
13.02.2018 04:10 -0,4 C 4,4 C 88 % 1017,9 hPa 0,0 l/m 10,3 km/h (2 Bft) W 262 0 min 0,000 mm 0,0 UV-I 0 W/m -2,1 C -4,1 C 12,9 km/h (3 Bft) 100,00 %
13.02.2018 04:11 -0,4 C 4,4 C 88 % 1017,9 hPa 0,0 l/m 7,2 km/h (2 Bft) W 263 0 min 0,000 mm 0,0 UV-I 0 W/m -2,1 C -1,2 C 11,3 km/h (2 Bft) 100,00 %
13.02.2018 04:12 -0,4 C 4,4 C 88 % 1017,9 hPa 0,0 l/m 7,3 km/h (2 Bft) W-SW 258 0 min 0,000 mm 0,0 UV-I 0 W/m -2,1 C -1,3 C 9,7 km/h (2 Bft) 100,00 %
13.02.2018 04:13 -0,5 C 4,4 C 88 % 1017,9 hPa 0,0 l/m 9,7 km/h (2 Bft) W 265 0 min 0,000 mm 0,0 UV-I 0 W/m -2,2 C -3,7 C 12,9 km/h (3 Bft) 96,15 %
13.02.2018 04:14 -0,5 C 4,4 C 88 % 1017,9 hPa 0,0 l/m 8,1 km/h (2 Bft) W 269 0 min 0,000 mm 0,0 UV-I 0 W/m -2,2 C -2,3 C 12,9 km/h (3 Bft) 95,83 %
13.02.2018 04:15 -0,5 C 4,4 C 88 % 1017,9 hPa 0,0 l/m 9,1 km/h (2 Bft) W-NW 288 0 min 0,000 mm 0,0 UV-I 0 W/m -2,2 C -3,2 C 12,9 km/h (3 Bft) 95,65 %
13.02.2018 04:16 -0,5 C 4,4 C 88 % 1017,9 hPa 0,0 l/m 6,7 km/h (2 Bft) W-SW 254 0 min 0,000 mm 0,0 UV-I 0 W/m -2,2 C -0,8 C 12,9 km/h (3 Bft) 91,67 %
13.02.2018 04:17 -0,5 C 4,4 C 88 % 1017,9 hPa 0,0 l/m 7,2 km/h (2 Bft) W 259 0 min 0,000 mm 0,0 UV-I 0 W/m -2,2 C -1,3 C 11,3 km/h (2 Bft) 100,00 %
13.02.2018 04:18 -0,5 C 4,4 C 88 % 1017,9 hPa 0,0 l/m 9,2 km/h (2 Bft) W-NW 289 0 min 0,000 mm 0,0 UV-I 0 W/m -2,2 C -3,3 C 11,3 km/h (2 Bft) 96,30 %
13.02.2018 04:19 -0,5 C 4,4 C 88 % 1017,9 hPa 0,0 l/m 10,0 km/h (2 Bft) W-NW 302 0 min 0,000 mm 0,0 UV-I 0 W/m -2,2 C -4,0 C 12,9 km/h (3 Bft) 100,00 %
13.02.2018 04:20 -0,5 C 4,4 C 88 % 1017,9 hPa 0,0 l/m 8,8 km/h (2 Bft) W-SW 250 0 min 0,000 mm 0,0 UV-I 0 W/m -2,2 C -2,9 C 14,5 km/h (3 Bft) 95,65 %
13.02.2018 04:21 -0,6 C 4,4 C 88 % 1017,9 hPa 0,0 l/m 9,5 km/h (2 Bft) W 259 0 min 0,000 mm 0,0 UV-I 0 W/m -2,3 C -3,7 C 14,5 km/h (3 Bft) 100,00 %
13.02.2018 04:22 -0,5 C 4,4 C 88 % 1017,9 hPa 0,0 l/m 6,4 km/h (2 Bft) W-SW 258 0 min 0,000 mm 0,0 UV-I 0 W/m -2,2 C -0,5 C 11,3 km/h (2 Bft) 96,15 %
13.02.2018 04:23 -0,5 C 4,4 C 88 % 1017,8 hPa 0,0 l/m 8,7 km/h (2 Bft) W 265 0 min 0,000 mm 0,0 UV-I 0 W/m -2,2 C -2,8 C 14,5 km/h (3 Bft) 100,00 %
13.02.2018 04:24 -0,6 C 4,4 C 88 % 1017,9 hPa 0,0 l/m 11,7 km/h (2 Bft) W 263 0 min 0,000 mm 0,0 UV-I 0 W/m -2,3 C -5,5 C 14,5 km/h (3 Bft) 96,15 %
13.02.2018 04:25 -0,6 C 4,4 C 88 % 1017,9 hPa 0,0 l/m 10,0 km/h (2 Bft) W 272 0 min 0,000 mm 0,0 UV-I 0 W/m -2,3 C -4,1 C 14,5 km/h (3 Bft) 96,30 %
13.02.2018 04:26 -0,5 C 4,4 C 88 % 1017,9 hPa 0,0 l/m 6,4 km/h (2 Bft) W 273 0 min 0,000 mm 0,0 UV-I 0 W/m -2,2 C -0,5 C 12,9 km/h (3 Bft) 100,00 %
13.02.2018 04:27 -0,5 C 4,4 C 88 % 1017,9 hPa 0,0 l/m 10,6 km/h (2 Bft) W-NW 293 0 min 0,000 mm 0,0 UV-I 0 W/m -2,2 C -4,5 C 14,5 km/h (3 Bft) 93,33 %
13.02.2018 04:29 -0,6 C 4,4 C 88 % 1017,9 hPa 0,0 l/m 3,7 km/h (1 Bft) W 269 0 min 0,000 mm 0,0 UV-I 0 W/m -2,3 C -0,6 C 4,8 km/h (1 Bft) 91,67 %
13.02.2018 04:30 -0,6 C 4,4 C 88 % 1017,9 hPa 0,0 l/m 6,3 km/h (2 Bft) W 278 0 min 0,000 mm 0,0 UV-I 0 W/m -2,3 C -0,6 C 12,9 km/h (3 Bft) 91,67 %
13.02.2018 04:31 -0,6 C 4,4 C 88 % 1017,9 hPa 0,0 l/m 9,4 km/h (2 Bft) W-SW 241 0 min 0,000 mm 0,0 UV-I 0 W/m -2,3 C -3,6 C 14,5 km/h (3 Bft) 95,65 %
13.02.2018 04:32 -0,6 C 4,4 C 88 % 1017,9 hPa 0,0 l/m 12,0 km/h (2 Bft) W-SW 254 0 min 0,000 mm 0,0 UV-I 0 W/m -2,3 C -5,7 C 14,5 km/h (3 Bft) 93,33 %
13.02.2018 04:33 -0,6 C 4,4 C 88 % 1017,9 hPa 0,0 l/m 6,5 km/h (2 Bft) W 265 0 min 0,000 mm 0,0 UV-I 0 W/m -2,3 C -0,7 C 9,7 km/h (2 Bft) 96,15 %
13.02.2018 04:34 -0,6 C 4,4 C 88 % 1017,9 hPa 0,0 l/m 4,6 km/h (1 Bft) W-SW 255 0 min 0,000 mm 0,0 UV-I 0 W/m -2,3 C -0,6 C 8,0 km/h (2 Bft) 96,30 %
13.02.2018 04:35 -0,6 C 4,4 C 88 % 1017,9 hPa 0,0 l/m 6,4 km/h (2 Bft) W 269 0 min 0,000 mm 0,0 UV-I 0 W/m -2,3 C -0,6 C 11,3 km/h (2 Bft) 96,15 %
13.02.2018 04:36 -0,6 C 4,4 C 88 % 1017,9 hPa 0,0 l/m 10,9 km/h (2 Bft) W 270 0 min 0,000 mm 0,0 UV-I 0 W/m -2,3 C -4,9 C 14,5 km/h (3 Bft) 91,67 %
13.02.2018 04:37 -0,6 C 4,4 C 88 % 1017,9 hPa 0,0 l/m 5,2 km/h (1 Bft) W 262 0 min 0,000 mm 0,0 UV-I 0 W/m -2,3 C -0,6 C 8,0 km/h (2 Bft) 92,59 %
13.02.2018 04:38 -0,6 C 4,4 C 88 % 1017,9 hPa 0,0 l/m 6,0 km/h (2 Bft) W-SW 256 0 min 0,000 mm 0,0 UV-I 0 W/m -2,3 C -0,6 C 8,0 km/h (2 Bft) 91,30 %
13.02.2018 04:39 -0,6 C 4,4 C 88 % 1017,9 hPa 0,0 l/m 7,2 km/h (2 Bft) W 266 0 min 0,000 mm 0,0 UV-I 0 W/m -2,3 C -1,4 C 9,7 km/h (2 Bft) 92,59 %
13.02.2018 04:40 -0,6 C 4,4 C 88 % 1018,0 hPa 0,0 l/m 6,1 km/h (2 Bft) W-SW 247 0 min 0,000 mm 0,0 UV-I 0 W/m -2,3 C -0,6 C 6,4 km/h (2 Bft) 96,55 %
13.02.2018 04:41 -0,6 C 4,4 C 88 % 1018,0 hPa 0,0 l/m 6,0 km/h (2 Bft) W 263 0 min 0,000 mm 0,0 UV-I 0 W/m -2,3 C -0,6 C 9,7 km/h (2 Bft) 91,67 %
13.02.2018 04:42 -0,6 C 4,4 C 88 % 1017,9 hPa 0,0 l/m 7,0 km/h (2 Bft) W 263 0 min 0,000 mm 0,0 UV-I 0 W/m -2,3 C -1,2 C 12,9 km/h (3 Bft) 100,00 %
13.02.2018 04:43 -0,6 C 4,4 C 88 % 1017,9 hPa 0,0 l/m 6,6 km/h (2 Bft) W 269 0 min 0,000 mm 0,0 UV-I 0 W/m -2,3 C -0,8 C 11,3 km/h (2 Bft) 95,83 %
13.02.2018 04:44 -0,6 C 4,4 C 88 % 1017,9 hPa 0,0 l/m 12,4 km/h (3 Bft) W-SW 256 0 min 0,000 mm 0,0 UV-I 0 W/m -2,3 C -6,0 C 17,7 km/h (3 Bft) 91,30 %
13.02.2018 04:45 -0,6 C 4,4 C 88 % 1017,9 hPa 0,0 l/m 8,2 km/h (2 Bft) W 262 0 min 0,000 mm 0,0 UV-I 0 W/m -2,3 C -2,5 C 11,3 km/h (2 Bft) 91,67 %
13.02.2018 04:46 -0,6 C 4,4 C 88 % 1017,9 hPa 0,0 l/m 5,2 km/h (1 Bft) W-SW 246 0 min 0,000 mm 0,0 UV-I 0 W/m -2,3 C -0,6 C 6,4 km/h (2 Bft) 92,31 %
13.02.2018 04:47 -0,6 C 4,4 C 88 % 1017,9 hPa 0,0 l/m 5,3 km/h (1 Bft) W-SW 245 0 min 0,000 mm 0,0 UV-I 0 W/m -2,3 C -0,6 C 6,4 km/h (2 Bft) 96,67 %
13.02.2018 04:48 -0,6 C 4,4 C 88 % 1017,9 hPa 0,0 l/m 6,8 km/h (2 Bft) W-SW 257 0 min 0,000 mm 0,0 UV-I 0 W/m -2,3 C -1,0 C 12,9 km/h (3 Bft) 95,65 %
13.02.2018 04:49 -0,7 C 4,4 C 88 % 1018,0 hPa 0,0 l/m 7,2 km/h (2 Bft) W 267 0 min 0,000 mm 0,0 UV-I 0 W/m -2,4 C -1,6 C 11,3 km/h (2 Bft) 100,00 %
13.02.2018 04:50 -0,7 C 4,4 C 88 % 1017,9 hPa 0,0 l/m 4,7 km/h (1 Bft) W 273 0 min 0,000 mm 0,0 UV-I 0 W/m -2,4 C -0,7 C 6,4 km/h (2 Bft) 92,59 %
13.02.2018 04:51 -0,7 C 4,4 C 88 % 1017,9 hPa 0,0 l/m 5,2 km/h (1 Bft) W 280 0 min 0,000 mm 0,0 UV-I 0 W/m -2,4 C -0,7 C 9,7 km/h (2 Bft) 100,00 %
13.02.2018 04:52 -0,7 C 4,4 C 88 % 1017,9 hPa 0,0 l/m 4,9 km/h (1 Bft) W-NW 288 0 min 0,000 mm 0,0 UV-I 0 W/m -2,4 C -0,7 C 6,4 km/h (2 Bft) 95,65 %
13.02.2018 04:53 -0,7 C 4,4 C 88 % 1017,9 hPa 0,0 l/m 4,7 km/h (1 Bft) W 264 0 min 0,000 mm 0,0 UV-I 0 W/m -2,4 C -0,7 C 6,4 km/h (2 Bft) 96,30 %
13.02.2018 04:54 -0,7 C 4,4 C 88 % 1018,0 hPa 0,0 l/m 5,1 km/h (1 Bft) W-NW 293 0 min 0,000 mm 0,0 UV-I 0 W/m -2,4 C -0,7 C 6,4 km/h (2 Bft) 100,00 %
13.02.2018 04:55 -0,7 C 4,4 C 88 % 1017,9 hPa 0,0 l/m 5,2 km/h (1 Bft) W-SW 254 0 min 0,000 mm 0,0 UV-I 0 W/m -2,4 C -0,7 C 8,0 km/h (2 Bft) 95,83 %
13.02.2018 04:56 -0,7 C 4,4 C 88 % 1018,0 hPa 0,0 l/m 4,6 km/h (1 Bft) N 350 0 min 0,000 mm 0,0 UV-I 0 W/m -2,4 C -0,7 C 6,4 km/h (2 Bft) 100,00 %
13.02.2018 04:57 -0,7 C 4,4 C 89 % 1018,0 hPa 0,0 l/m 7,4 km/h (2 Bft) W 273 0 min 0,000 mm 0,0 UV-I 0 W/m -2,3 C -1,8 C 9,7 km/h (2 Bft) 91,67 %
13.02.2018 04:58 -0,7 C 4,4 C 89 % 1018,0 hPa 0,0 l/m 5,6 km/h (1 Bft) W-NW 284 0 min 0,000 mm 0,0 UV-I 0 W/m -2,3 C -0,7 C 11,3 km/h (2 Bft) 100,00 %
13.02.2018 04:59 -0,7 C 4,4 C 89 % 1018,0 hPa 0,0 l/m 5,5 km/h (1 Bft) W-SW 255 0 min 0,000 mm 0,0 UV-I 0 W/m -2,3 C -0,7 C 9,7 km/h (2 Bft) 91,30 %
13.02.2018 05:00 -0,7 C 4,4 C 89 % 1018,0 hPa 0,0 l/m 5,7 km/h (1 Bft) W 277 0 min 0,000 mm 0,0 UV-I 0 W/m -2,3 C -0,7 C 8,0 km/h (2 Bft) 96,30 %
13.02.2018 05:01 -0,7 C 4,4 C 89 % 1018,0 hPa 0,0 l/m 7,6 km/h (2 Bft) W 273 0 min 0,000 mm 0,0 UV-I 0 W/m -2,3 C -2,0 C 12,9 km/h (3 Bft) 91,30 %
13.02.2018 05:02 -0,7 C 4,4 C 89 % 1018,0 hPa 0,0 l/m 7,5 km/h (2 Bft) W 274 0 min 0,000 mm 0,0 UV-I 0 W/m -2,3 C -1,9 C 9,7 km/h (2 Bft) 96,30 %
13.02.2018 05:03 -0,7 C 4,4 C 89 % 1018,0 hPa 0,0 l/m 8,4 km/h (2 Bft) W-SW 256 0 min 0,000 mm 0,0 UV-I 0 W/m -2,3 C -2,8 C 11,3 km/h (2 Bft) 100,00 %
13.02.2018 05:04 -0,7 C 4,4 C 89 % 1018,0 hPa 0,0 l/m 3,2 km/h (1 Bft) W-SW 257 0 min 0,000 mm 0,0 UV-I 0 W/m -2,3 C -0,7 C 4,8 km/h (1 Bft) 100,00 %
13.02.2018 05:05 -0,7 C 4,4 C 89 % 1018,0 hPa 0,0 l/m 3,8 km/h (1 Bft) W-SW 257 0 min 0,000 mm 0,0 UV-I 0 W/m -2,3 C -0,7 C 4,8 km/h (1 Bft) 96,15 %
13.02.2018 05:06 -0,7 C 4,4 C 89 % 1018,0 hPa 0,0 l/m 6,6 km/h (2 Bft) W-SW 256 0 min 0,000 mm 0,0 UV-I 0 W/m -2,3 C -0,9 C 11,3 km/h (2 Bft) 95,83 %
13.02.2018 05:07 -0,7 C 4,4 C 89 % 1018,0 hPa 0,0 l/m 5,3 km/h (1 Bft) W-NW 284 0 min 0,000 mm 0,0 UV-I 0 W/m -2,3 C -0,7 C 6,4 km/h (2 Bft) 96,15 %
13.02.2018 05:08 -0,7 C 4,4 C 89 % 1018,0 hPa 0,0 l/m 4,6 km/h (1 Bft) W 265 0 min 0,000 mm 0,0 UV-I 0 W/m -2,3 C -0,7 C 6,4 km/h (2 Bft) 96,30 %
13.02.2018 05:09 -0,7 C 4,4 C 89 % 1018,0 hPa 0,0 l/m 3,9 km/h (1 Bft) W 265 0 min 0,000 mm 0,0 UV-I 0 W/m -2,3 C -0,7 C 4,8 km/h (1 Bft) 100,00 %
13.02.2018 05:10 -0,7 C 4,4 C 89 % 1018,0 hPa 0,0 l/m 4,9 km/h (1 Bft) W 263 0 min 0,000 mm 0,0 UV-I 0 W/m -2,3 C -0,7 C 6,4 km/h (2 Bft) 95,65 %
13.02.2018 05:11 -0,7 C 4,4 C 89 % 1018,0 hPa 0,0 l/m 7,6 km/h (2 Bft) W 277 0 min 0,000 mm 0,0 UV-I 0 W/m -2,3 C -2,0 C 11,3 km/h (2 Bft) 100,00 %
13.02.2018 05:12 -0,7 C 4,4 C 89 % 1018,0 hPa 0,0 l/m 7,2 km/h (2 Bft) W-SW 254 0 min 0,000 mm 0,0 UV-I 0 W/m -2,3 C -1,6 C 11,3 km/h (2 Bft) 95,65 %
13.02.2018 05:13 -0,7 C 4,4 C 89 % 1018,0 hPa 0,0 l/m 8,8 km/h (2 Bft) W 279 0 min 0,000 mm 0,0 UV-I 0 W/m -2,3 C -3,2 C 14,5 km/h (3 Bft) 100,00 %
13.02.2018 05:14 -0,7 C 4,4 C 89 % 1018,0 hPa 0,0 l/m 6,3 km/h (2 Bft) W-SW 248 0 min 0,000 mm 0,0 UV-I 0 W/m -2,3 C -0,7 C 12,9 km/h (3 Bft) 95,65 %
13.02.2018 05:15 -0,7 C 4,4 C 89 % 1018,0 hPa 0,0 l/m 5,4 km/h (1 Bft) W 259 0 min 0,000 mm 0,0 UV-I 0 W/m -2,3 C -0,7 C 9,7 km/h (2 Bft) 93,33 %
13.02.2018 05:16 -0,7 C 4,4 C 89 % 1018,0 hPa 0,0 l/m 6,4 km/h (2 Bft) W-NW 293 0 min 0,000 mm 0,0 UV-I 0 W/m -2,3 C -0,7 C 11,3 km/h (2 Bft) 100,00 %
13.02.2018 05:17 -0,7 C 4,4 C 89 % 1018,0 hPa 0,0 l/m 3,8 km/h (1 Bft) W 260 0 min 0,000 mm 0,0 UV-I 0 W/m -2,3 C -0,7 C 6,4 km/h (2 Bft) 100,00 %
13.02.2018 05:18 -0,7 C 4,4 C 89 % 1018,0 hPa 0,0 l/m 6,8 km/h (2 Bft) W-NW 282 0 min 0,000 mm 0,0 UV-I 0 W/m -2,3 C -1,1 C 9,7 km/h (2 Bft) 96,55 %
13.02.2018 05:19 -0,7 C 4,4 C 89 % 1017,9 hPa 0,0 l/m 6,0 km/h (2 Bft) W 259 0 min 0,000 mm 0,0 UV-I 0 W/m -2,3 C -0,7 C 12,9 km/h (3 Bft) 95,83 %
13.02.2018 05:20 -0,7 C 4,4 C 89 % 1017,9 hPa 0,0 l/m 9,5 km/h (2 Bft) W-SW 242 0 min 0,000 mm 0,0 UV-I 0 W/m -2,3 C -3,8 C 12,9 km/h (3 Bft) 100,00 %
13.02.2018 05:21 -0,7 C 4,4 C 89 % 1018,0 hPa 0,0 l/m 6,3 km/h (2 Bft) W 278 0 min 0,000 mm 0,0 UV-I 0 W/m -2,3 C -0,7 C 9,7 km/h (2 Bft) 96,30 %
13.02.2018 05:22 -0,7 C 4,4 C 89 % 1017,9 hPa 0,0 l/m 5,8 km/h (2 Bft) W 264 0 min 0,000 mm 0,0 UV-I 0 W/m -2,3 C -0,7 C 9,7 km/h (2 Bft) 100,00 %
13.02.2018 05:23 -0,7 C 4,4 C 89 % 1017,9 hPa 0,0 l/m 6,8 km/h (2 Bft) W 269 0 min 0,000 mm 0,0 UV-I 0 W/m -2,3 C -1,1 C 11,3 km/h (2 Bft) 96,30 %
13.02.2018 05:24 -0,7 C 4,4 C 89 % 1017,9 hPa 0,0 l/m 12,7 km/h (3 Bft) W 268 0 min 0,000 mm 0,0 UV-I 0 W/m -2,3 C -6,3 C 14,5 km/h (3 Bft) 100,00 %
13.02.2018 05:25 -0,7 C 4,4 C 89 % 1017,9 hPa 0,0 l/m 12,1 km/h (2 Bft) W-NW 298 0 min 0,000 mm 0,0 UV-I 0 W/m -2,3 C -5,9 C 16,1 km/h (3 Bft) 95,83 %
13.02.2018 05:26 -0,7 C 4,4 C 89 % 1017,9 hPa 0,0 l/m 7,1 km/h (2 Bft) W 268 0 min 0,000 mm 0,0 UV-I 0 W/m -2,3 C -1,4 C 9,7 km/h (2 Bft) 95,65 %
13.02.2018 05:27 -0,7 C 4,4 C 89 % 1017,9 hPa 0,0 l/m 7,6 km/h (2 Bft) W 259 0 min 0,000 mm 0,0 UV-I 0 W/m -2,3 C -2,0 C 12,9 km/h (3 Bft) 100,00 %
13.02.2018 05:28 -0,7 C 4,4 C 89 % 1017,9 hPa 0,0 l/m 9,1 km/h (2 Bft) W 263 0 min 0,000 mm 0,0 UV-I 0 W/m -2,3 C -3,4 C 11,3 km/h (2 Bft) 94,12 %
13.02.2018 05:29 -0,7 C 4,4 C 89 % 1017,9 hPa 0,0 l/m 9,3 km/h (2 Bft) W-SW 258 0 min 0,000 mm 0,0 UV-I 0 W/m -2,3 C -3,6 C 11,3 km/h (2 Bft) 100,00 %
13.02.2018 05:30 -0,7 C 4,4 C 89 % 1017,9 hPa 0,0 l/m 6,2 km/h (2 Bft) W-SW 254 0 min 0,000 mm 0,0 UV-I 0 W/m -2,3 C -0,7 C 8,0 km/h (2 Bft) 92,31 %
13.02.2018 05:31 -0,7 C 4,4 C 89 % 1017,9 hPa 0,0 l/m 7,2 km/h (2 Bft) W-NW 288 0 min 0,000 mm 0,0 UV-I 0 W/m -2,3 C -1,6 C 11,3 km/h (2 Bft) 100,00 %
13.02.2018 05:32 -0,7 C 4,4 C 89 % 1017,9 hPa 0,0 l/m 7,6 km/h (2 Bft) W 275 0 min 0,000 mm 0,0 UV-I 0 W/m -2,3 C -2,0 C 11,3 km/h (2 Bft) 91,30 %
13.02.2018 05:33 -0,7 C 4,4 C 89 % 1017,9 hPa 0,0 l/m 6,2 km/h (2 Bft) W-SW 250 0 min 0,000 mm 0,0 UV-I 0 W/m -2,3 C -0,7 C 11,3 km/h (2 Bft) 100,00 %
13.02.2018 05:34 -0,7 C 4,4 C 89 % 1017,9 hPa 0,0 l/m 5,1 km/h (1 Bft) W-NW 288 0 min 0,000 mm 0,0 UV-I 0 W/m -2,3 C -0,7 C 6,4 km/h (2 Bft) 95,65 %
13.02.2018 05:35 -0,7 C 4,4 C 89 % 1017,9 hPa 0,0 l/m 3,6 km/h (1 Bft) W 279 0 min 0,000 mm 0,0 UV-I 0 W/m -2,3 C -0,7 C 4,8 km/h (1 Bft) 100,00 %
13.02.2018 05:36 -0,7 C 4,4 C 89 % 1017,9 hPa 0,0 l/m 7,8 km/h (2 Bft) W 259 0 min 0,000 mm 0,0 UV-I 0 W/m -2,3 C -2,2 C 9,7 km/h (2 Bft) 100,00 %
13.02.2018 05:37 -0,7 C 4,4 C 89 % 1017,9 hPa 0,0 l/m 7,2 km/h (2 Bft) W-NW 286 0 min 0,000 mm 0,0 UV-I 0 W/m -2,3 C -1,6 C 9,7 km/h (2 Bft) 100,00 %
13.02.2018 05:38 -0,8 C 4,4 C 89 % 1017,9 hPa 0,0 l/m 5,5 km/h (1 Bft) W-SW 249 0 min 0,000 mm 0,0 UV-I 0 W/m -2,4 C -0,8 C 9,7 km/h (2 Bft) 100,00 %
13.02.2018 05:39 -0,8 C 4,4 C 89 % 1017,9 hPa 0,0 l/m 6,0 km/h (2 Bft) W-NW 294 0 min 0,000 mm 0,0 UV-I 0 W/m -2,4 C -0,8 C 9,7 km/h (2 Bft) 100,00 %
13.02.2018 05:40 -0,8 C 4,4 C 89 % 1017,8 hPa 0,0 l/m 5,4 km/h (1 Bft) W-SW 239 0 min 0,000 mm 0,0 UV-I 0 W/m -2,4 C -0,8 C 8,0 km/h (2 Bft) 100,00 %
13.02.2018 05:41 -0,8 C 4,4 C 89 % 1017,8 hPa 0,0 l/m 6,8 km/h (2 Bft) W 267 0 min 0,000 mm 0,0 UV-I 0 W/m -2,4 C -1,2 C 11,3 km/h (2 Bft) 100,00 %
13.02.2018 05:42 -0,8 C 4,4 C 89 % 1017,8 hPa 0,0 l/m 7,5 km/h (2 Bft) W-SW 249 0 min 0,000 mm 0,0 UV-I 0 W/m -2,4 C -2,0 C 11,3 km/h (2 Bft) 100,00 %
13.02.2018 05:43 -0,8 C 4,4 C 89 % 1017,8 hPa 0,0 l/m 8,9 km/h (2 Bft) W-SW 249 0 min 0,000 mm 0,0 UV-I 0 W/m -2,4 C -3,4 C 11,3 km/h (2 Bft) 100,00 %
13.02.2018 05:44 -0,9 C 4,4 C 89 % 1017,8 hPa 0,0 l/m 6,5 km/h (2 Bft) W-SW 257 0 min 0,000 mm 0,0 UV-I 0 W/m -2,5 C -1,0 C 9,7 km/h (2 Bft) 100,00 %
13.02.2018 05:45 -0,9 C 4,4 C 89 % 1017,8 hPa 0,0 l/m 5,9 km/h (2 Bft) W 273 0 min 0,000 mm 0,0 UV-I 0 W/m -2,5 C -0,9 C 9,7 km/h (2 Bft) 96,15 %
13.02.2018 05:46 -0,9 C 4,4 C 89 % 1017,9 hPa 0,0 l/m 10,3 km/h (2 Bft) W-NW 284 0 min 0,000 mm 0,0 UV-I 0 W/m -2,5 C -4,7 C 14,5 km/h (3 Bft) 100,00 %
13.02.2018 05:47 -0,9 C 4,4 C 89 % 1017,8 hPa 0,0 l/m 7,1 km/h (2 Bft) W-SW 253 0 min 0,000 mm 0,0 UV-I 0 W/m -2,5 C -1,6 C 11,3 km/h (2 Bft) 97,37 %
13.02.2018 05:48 -0,9 C 4,4 C 89 % 1017,9 hPa 0,0 l/m 6,9 km/h (2 Bft) W-SW 254 0 min 0,000 mm 0,0 UV-I 0 W/m -2,5 C -1,4 C 9,7 km/h (2 Bft) 100,00 %
13.02.2018 05:49 -0,9 C 4,4 C 89 % 1017,8 hPa 0,0 l/m 7,2 km/h (2 Bft) W 275 0 min 0,000 mm 0,0 UV-I 0 W/m -2,5 C -1,8 C 11,3 km/h (2 Bft) 100,00 %
13.02.2018 05:50 -1,0 C 4,4 C 89 % 1017,8 hPa 0,0 l/m 6,5 km/h (2 Bft) W-SW 242 0 min 0,000 mm 0,0 UV-I 0 W/m -2,6 C -1,1 C 11,3 km/h (2 Bft) 100,00 %
13.02.2018 05:51 -0,9 C 4,4 C 89 % 1017,8 hPa 0,0 l/m 7,0 km/h (2 Bft) W-SW 248 0 min 0,000 mm 0,0 UV-I 0 W/m -2,5 C -1,5 C 11,3 km/h (2 Bft) 96,15 %
13.02.2018 05:52 -1,0 C 4,4 C 90 % 1017,9 hPa 0,0 l/m 7,1 km/h (2 Bft) W-SW 253 0 min 0,000 mm 0,0 UV-I 0 W/m -2,4 C -1,7 C 11,3 km/h (2 Bft) 95,83 %
13.02.2018 05:53 -1,0 C 4,4 C 90 % 1017,9 hPa 0,0 l/m 10,6 km/h (2 Bft) W-SW 252 0 min 0,000 mm 0,0 UV-I 0 W/m -2,4 C -5,1 C 12,9 km/h (3 Bft) 95,83 %
13.02.2018 05:54 -1,0 C 4,4 C 90 % 1017,8 hPa 0,0 l/m 5,5 km/h (1 Bft) W-SW 250 0 min 0,000 mm 0,0 UV-I 0 W/m -2,4 C -1,0 C 9,7 km/h (2 Bft) 100,00 %
13.02.2018 05:55 -1,0 C 4,4 C 90 % 1017,8 hPa 0,0 l/m 6,0 km/h (2 Bft) W-SW 254 0 min 0,000 mm 0,0 UV-I 0 W/m -2,4 C -1,0 C 8,0 km/h (2 Bft) 100,00 %
13.02.2018 05:56 -1,0 C 4,4 C 90 % 1017,8 hPa 0,0 l/m 5,3 km/h (1 Bft) W-NW 284 0 min 0,000 mm 0,0 UV-I 0 W/m -2,4 C -1,0 C 6,4 km/h (2 Bft) 100,00 %
13.02.2018 05:57 -1,0 C 4,4 C 90 % 1017,8 hPa 0,0 l/m 4,4 km/h (1 Bft) W-NW 282 0 min 0,000 mm 0,0 UV-I 0 W/m -2,4 C -1,0 C 6,4 km/h (2 Bft) 100,00 %
13.02.2018 05:58 -1,0 C 4,4 C 90 % 1017,8 hPa 0,0 l/m 5,8 km/h (2 Bft) W-SW 258 0 min 0,000 mm 0,0 UV-I 0 W/m -2,4 C -1,0 C 11,3 km/h (2 Bft) 100,00 %
13.02.2018 05:59 -1,0 C 4,4 C 90 % 1017,8 hPa 0,0 l/m 7,8 km/h (2 Bft) W 272 0 min 0,000 mm 0,0 UV-I 0 W/m -2,4 C -2,5 C 11,3 km/h (2 Bft) 100,00 %
13.02.2018 06:00 -1,0 C 4,4 C 90 % 1017,8 hPa 0,0 l/m 8,3 km/h (2 Bft) W-SW 257 0 min 0,000 mm 0,0 UV-I 0 W/m -2,4 C -3,0 C 11,3 km/h (2 Bft) 100,00 %
13.02.2018 06:01 -1,0 C 4,4 C 90 % 1017,8 hPa 0,0 l/m 8,2 km/h (2 Bft) W-SW 257 0 min 0,000 mm 0,0 UV-I 0 W/m -2,4 C -2,9 C 12,9 km/h (3 Bft) 95,83 %
13.02.2018 06:02 -1,0 C 4,4 C 90 % 1017,8 hPa 0,0 l/m 8,0 km/h (2 Bft) W-SW 250 0 min 0,000 mm 0,0 UV-I 0 W/m -2,4 C -2,7 C 11,3 km/h (2 Bft) 96,15 %
13.02.2018 06:03 -1,0 C 4,4 C 90 % 1017,8 hPa 0,0 l/m 9,7 km/h (2 Bft) W 263 0 min 0,000 mm 0,0 UV-I 0 W/m -2,4 C -4,3 C 12,9 km/h (3 Bft) 100,00 %
13.02.2018 06:04 -0,9 C 4,4 C 90 % 1017,8 hPa 0,0 l/m 8,3 km/h (2 Bft) W-SW 242 0 min 0,000 mm 0,0 UV-I 0 W/m -2,3 C -2,9 C 11,3 km/h (2 Bft) 100,00 %
13.02.2018 06:05 -0,9 C 4,4 C 90 % 1017,8 hPa 0,0 l/m 6,8 km/h (2 Bft) W-SW 248 0 min 0,000 mm 0,0 UV-I 0 W/m -2,3 C -1,3 C 8,0 km/h (2 Bft) 100,00 %
13.02.2018 06:06 -0,9 C 4,4 C 90 % 1017,8 hPa 0,0 l/m 7,4 km/h (2 Bft) W 261 0 min 0,000 mm 0,0 UV-I 0 W/m -2,3 C -2,0 C 9,7 km/h (2 Bft) 100,00 %
13.02.2018 06:07 -0,9 C 4,4 C 90 % 1017,8 hPa 0,0 l/m 5,9 km/h (2 Bft) W-SW 249 0 min 0,000 mm 0,0 UV-I 0 W/m -2,3 C -0,9 C 8,0 km/h (2 Bft) 100,00 %
13.02.2018 06:08 -0,9 C 4,4 C 90 % 1017,8 hPa 0,0 l/m 8,9 km/h (2 Bft) W-NW 292 0 min 0,000 mm 0,0 UV-I 0 W/m -2,3 C -3,5 C 11,3 km/h (2 Bft) 100,00 %
13.02.2018 06:09 -0,9 C 4,4 C 90 % 1017,8 hPa 0,0 l/m 5,6 km/h (1 Bft) W-SW 245 0 min 0,000 mm 0,0 UV-I 0 W/m -2,3 C -0,9 C 8,0 km/h (2 Bft) 100,00 %
13.02.2018 06:10 -0,9 C 4,4 C 90 % 1017,8 hPa 0,0 l/m 10,0 km/h (2 Bft) W-SW 248 0 min 0,000 mm 0,0 UV-I 0 W/m -2,3 C -4,4 C 12,9 km/h (3 Bft) 100,00 %
13.02.2018 06:11 -0,9 C 4,4 C 90 % 1017,8 hPa 0,0 l/m 8,6 km/h (2 Bft) W 262 0 min 0,000 mm 0,0 UV-I 0 W/m -2,3 C -3,2 C 11,3 km/h (2 Bft) 100,00 %
13.02.2018 06:12 -0,9 C 4,4 C 90 % 1017,8 hPa 0,0 l/m 6,9 km/h (2 Bft) W-SW 242 0 min 0,000 mm 0,0 UV-I 0 W/m -2,3 C -1,4 C 9,7 km/h (2 Bft) 100,00 %
13.02.2018 06:13 -0,9 C 4,4 C 90 % 1017,9 hPa 0,0 l/m 9,6 km/h (2 Bft) W 275 0 min 0,000 mm 0,0 UV-I 0 W/m -2,3 C -4,1 C 12,9 km/h (3 Bft) 95,65 %
13.02.2018 06:14 -1,0 C 4,4 C 90 % 1017,8 hPa 0,0 l/m 6,2 km/h (2 Bft) W-SW 253 0 min 0,000 mm 0,0 UV-I 0 W/m -2,4 C -1,0 C 9,7 km/h (2 Bft) 100,00 %
13.02.2018 06:15 -0,9 C 4,4 C 90 % 1017,9 hPa 0,0 l/m 9,7 km/h (2 Bft) W 262 0 min 0,000 mm 0,0 UV-I 0 W/m -2,3 C -4,2 C 12,9 km/h (3 Bft) 88,46 %
13.02.2018 06:16 -1,0 C 4,4 C 90 % 1017,9 hPa 0,0 l/m 6,7 km/h (2 Bft) W 267 0 min 0,000 mm 0,0 UV-I 0 W/m -2,4 C -1,3 C 9,7 km/h (2 Bft) 100,00 %
13.02.2018 06:17 -1,0 C 4,4 C 90 % 1017,9 hPa 0,0 l/m 6,6 km/h (2 Bft) W-SW 249 0 min 0,000 mm 0,0 UV-I 0 W/m -2,4 C -1,2 C 11,3 km/h (2 Bft) 100,00 %
13.02.2018 06:18 -1,0 C 4,4 C 90 % 1017,9 hPa 0,0 l/m 5,8 km/h (2 Bft) W-SW 248 0 min 0,000 mm 0,0 UV-I 0 W/m -2,4 C -1,0 C 6,4 km/h (2 Bft) 91,67 %
13.02.2018 06:19 -1,0 C 4,4 C 90 % 1017,9 hPa 0,0 l/m 5,5 km/h (1 Bft) W-SW 254 0 min 0,000 mm 0,0 UV-I 0 W/m -2,4 C -1,0 C 14,5 km/h (3 Bft) 100,00 %
13.02.2018 06:20 -1,0 C 4,4 C 90 % 1017,9 hPa 0,0 l/m 13,2 km/h (3 Bft) W 259 0 min 0,000 mm 0,0 UV-I 0 W/m -2,4 C -7,0 C 16,1 km/h (3 Bft) 96,15 %
13.02.2018 06:21 -1,0 C 4,4 C 90 % 1017,9 hPa 0,0 l/m 7,8 km/h (2 Bft) W-NW 293 0 min 0,000 mm 0,0 UV-I 0 W/m -2,4 C -2,5 C 11,3 km/h (2 Bft) 96,77 %
13.02.2018 06:22 -1,0 C 4,4 C 89 % 1017,9 hPa 0,0 l/m 7,3 km/h (2 Bft) W 259 0 min 0,000 mm 0,0 UV-I 0 W/m -2,6 C -2,0 C 11,3 km/h (2 Bft) 95,83 %
13.02.2018 06:23 -1,1 C 4,4 C 89 % 1017,9 hPa 0,0 l/m 5,0 km/h (1 Bft) W 263 0 min 0,000 mm 0,0 UV-I 0 W/m -2,7 C -1,1 C 6,4 km/h (2 Bft) 100,00 %
13.02.2018 06:24 -1,1 C 4,4 C 89 % 1017,9 hPa 0,0 l/m 4,8 km/h (1 Bft) W 260 0 min 0,000 mm 0,0 UV-I 0 W/m -2,7 C -1,1 C 6,4 km/h (2 Bft) 96,30 %
13.02.2018 06:25 -1,1 C 4,4 C 89 % 1017,9 hPa 0,0 l/m 6,0 km/h (2 Bft) W 278 0 min 0,000 mm 0,0 UV-I 0 W/m -2,7 C -1,1 C 9,7 km/h (2 Bft) 92,31 %
13.02.2018 06:26 -1,1 C 4,4 C 89 % 1017,9 hPa 0,0 l/m 6,4 km/h (2 Bft) W 267 0 min 0,000 mm 0,0 UV-I 0 W/m -2,7 C -1,1 C 11,3 km/h (2 Bft) 100,00 %
13.02.2018 06:27 -1,1 C 4,4 C 89 % 1017,9 hPa 0,0 l/m 7,4 km/h (2 Bft) W 269 0 min 0,000 mm 0,0 UV-I 0 W/m -2,7 C -2,2 C 12,9 km/h (3 Bft) 93,33 %
13.02.2018 06:28 -1,1 C 4,4 C 89 % 1017,9 hPa 0,0 l/m 7,6 km/h (2 Bft) W 266 0 min 0,000 mm 0,0 UV-I 0 W/m -2,7 C -2,4 C 17,7 km/h (3 Bft) 100,00 %
13.02.2018 06:29 -1,1 C 4,4 C 89 % 1017,9 hPa 0,0 l/m 11,8 km/h (2 Bft) W-NW 293 0 min 0,000 mm 0,0 UV-I 0 W/m -2,7 C -6,1 C 14,5 km/h (3 Bft) 91,67 %
13.02.2018 06:30 -1,1 C 4,4 C 89 % 1017,9 hPa 0,0 l/m 8,0 km/h (2 Bft) W 267 0 min 0,000 mm 0,0 UV-I 0 W/m -2,7 C -2,8 C 11,3 km/h (2 Bft) 100,00 %
13.02.2018 06:31 -1,1 C 4,4 C 88 % 1017,9 hPa 0,0 l/m 5,2 km/h (1 Bft) W 260 0 min 0,000 mm 0,0 UV-I 0 W/m -2,8 C -1,1 C 9,7 km/h (2 Bft) 95,83 %
13.02.2018 06:32 -1,1 C 4,4 C 88 % 1018,0 hPa 0,0 l/m 5,2 km/h (1 Bft) W 261 0 min 0,000 mm 0,0 UV-I 0 W/m -2,8 C -1,1 C 9,7 km/h (2 Bft) 92,31 %
13.02.2018 06:33 -1,1 C 4,4 C 88 % 1017,9 hPa 0,0 l/m 6,3 km/h (2 Bft) W-SW 254 0 min 0,000 mm 0,0 UV-I 0 W/m -2,8 C -1,1 C 14,5 km/h (3 Bft) 100,00 %
13.02.2018 06:34 -1,1 C 4,4 C 88 % 1017,9 hPa 0,0 l/m 8,6 km/h (2 Bft) W 269 0 min 0,000 mm 0,0 UV-I 0 W/m -2,8 C -3,4 C 12,9 km/h (3 Bft) 94,12 %
13.02.2018 06:35 -1,1 C 4,4 C 88 % 1017,9 hPa 0,0 l/m 2,9 km/h (1 Bft) W 271 0 min 0,000 mm 0,0 UV-I 0 W/m -2,8 C -1,1 C 4,8 km/h (1 Bft) 100,00 %
13.02.2018 06:36 -1,1 C 4,4 C 87 % 1018,0 hPa 0,0 l/m 2,2 km/h (1 Bft) W 270 0 min 0,000 mm 0,0 UV-I 0 W/m -3,0 C -1,1 C 3,2 km/h (1 Bft) 96,15 %
13.02.2018 06:37 -1,1 C 4,4 C 87 % 1018,0 hPa 0,0 l/m 4,1 km/h (1 Bft) W 279 0 min 0,000 mm 0,0 UV-I 0 W/m -3,0 C -1,1 C 6,4 km/h (2 Bft) 100,00 %
13.02.2018 06:38 -1,1 C 4,4 C 87 % 1018,0 hPa 0,0 l/m 2,8 km/h (1 Bft) W-NW 288 0 min 0,000 mm 0,0 UV-I 0 W/m -3,0 C -1,1 C 4,8 km/h (1 Bft) 95,65 %
13.02.2018 06:39 -1,1 C 4,4 C 87 % 1018,0 hPa 0,0 l/m 2,8 km/h (1 Bft) W-NW 288 0 min 0,000 mm 0,0 UV-I 0 W/m -3,0 C -1,1 C 4,8 km/h (1 Bft) 100,00 %
13.02.2018 06:40 -1,1 C 4,4 C 87 % 1018,0 hPa 0,0 l/m 2,4 km/h (1 Bft) W-NW 288 0 min 0,000 mm 0,0 UV-I 0 W/m -3,0 C -1,1 C 3,2 km/h (1 Bft) 95,65 %
13.02.2018 06:41 -1,1 C 4,4 C 87 % 1018,0 hPa 0,0 l/m 3,5 km/h (1 Bft) W-NW 292 0 min 0,000 mm 0,0 UV-I 0 W/m -3,0 C -1,1 C 4,8 km/h (1 Bft) 92,59 %
13.02.2018 06:42 -1,1 C 4,4 C 87 % 1018,0 hPa 0,0 l/m 3,5 km/h (1 Bft) W-NW 292 0 min 0,000 mm 0,0 UV-I 0 W/m -3,0 C -1,1 C 4,8 km/h (1 Bft) 100,00 %
13.02.2018 06:43 -1,2 C 4,4 C 87 % 1018,0 hPa 0,0 l/m 3,5 km/h (1 Bft) W-NW 292 0 min 0,000 mm 0,0 UV-I 0 W/m -3,1 C -1,2 C 4,8 km/h (1 Bft) 96,30 %
13.02.2018 06:44 -1,2 C 4,4 C 87 % 1018,0 hPa 0,0 l/m 3,0 km/h (1 Bft) W-NW 292 0 min 0,000 mm 0,0 UV-I 0 W/m -3,1 C -1,2 C 3,2 km/h (1 Bft) 100,00 %
13.02.2018 06:45 -1,2 C 4,4 C 87 % 1018,0 hPa 0,0 l/m 3,8 km/h (1 Bft) W-NW 290 0 min 0,000 mm 0,0 UV-I 0 W/m -3,1 C -1,2 C 6,4 km/h (2 Bft) 91,67 %
13.02.2018 06:46 -1,2 C 4,4 C 87 % 1018,0 hPa 0,0 l/m 2,0 km/h (1 Bft) W-NW 290 0 min 0,000 mm 0,0 UV-I 0 W/m -3,1 C -1,2 C 3,2 km/h (1 Bft) 96,55 %
13.02.2018 06:47 -1,2 C 4,4 C 87 % 1018,0 hPa 0,0 l/m 5,6 km/h (1 Bft) W 266 0 min 0,000 mm 0,0 UV-I 0 W/m -3,1 C -1,2 C 9,7 km/h (2 Bft) 96,67 %
13.02.2018 06:48 -1,2 C 4,4 C 87 % 1018,1 hPa 0,0 l/m 3,4 km/h (1 Bft) W-SW 251 0 min 0,000 mm 0,0 UV-I 0 W/m -3,1 C -1,2 C 6,4 km/h (2 Bft) 95,65 %
13.02.2018 06:49 -1,2 C 4,4 C 87 % 1018,1 hPa 0,0 l/m 3,1 km/h (1 Bft) W-SW 249 0 min 0,000 mm 0,0 UV-I 0 W/m -3,1 C -1,2 C 4,8 km/h (1 Bft) 100,00 %
13.02.2018 06:50 -1,2 C 4,4 C 87 % 1018,0 hPa 0,0 l/m 3,2 km/h (1 Bft) W-SW 251 0 min 0,000 mm 0,0 UV-I 0 W/m -3,1 C -1,2 C 4,8 km/h (1 Bft) 96,30 %
13.02.2018 06:51 -1,2 C 4,4 C 87 % 1018,1 hPa 0,0 l/m 4,7 km/h (1 Bft) W-NW 302 0 min 0,000 mm 0,0 UV-I 0 W/m -3,1 C -1,2 C 6,4 km/h (2 Bft) 95,65 %
13.02.2018 06:52 -1,2 C 4,4 C 87 % 1018,1 hPa 0,0 l/m 4,3 km/h (1 Bft) W-NW 291 0 min 0,000 mm 0,0 UV-I 0 W/m -3,1 C -1,2 C 6,4 km/h (2 Bft) 100,00 %
13.02.2018 06:53 -1,2 C 4,4 C 87 % 1018,1 hPa 0,0 l/m 4,5 km/h (1 Bft) W 267 0 min 0,000 mm 0,0 UV-I 0 W/m -3,1 C -1,2 C 9,7 km/h (2 Bft) 100,00 %
13.02.2018 06:54 -1,3 C 4,4 C 87 % 1018,1 hPa 0,0 l/m 3,3 km/h (1 Bft) W 268 0 min 0,000 mm 0,0 UV-I 0 W/m -3,2 C -1,3 C 4,8 km/h (1 Bft) 100,00 %
13.02.2018 06:55 -1,3 C 4,4 C 87 % 1018,0 hPa 0,0 l/m 3,6 km/h (1 Bft) W 266 0 min 0,000 mm 0,0 UV-I 0 W/m -3,2 C -1,3 C 4,8 km/h (1 Bft) 100,00 %
13.02.2018 06:56 -1,3 C 4,4 C 87 % 1018,1 hPa 0,0 l/m 5,7 km/h (1 Bft) W 265 0 min 0,000 mm 0,0 UV-I 0 W/m -3,2 C -1,3 C 9,7 km/h (2 Bft) 96,67 %
13.02.2018 06:57 -1,2 C 4,4 C 87 % 1018,1 hPa 0,0 l/m 11,2 km/h (2 Bft) W-SW 254 0 min 0,000 mm 0,0 UV-I 0 W/m -3,1 C -5,8 C 16,1 km/h (3 Bft) 100,00 %
13.02.2018 06:58 -1,2 C 4,4 C 87 % 1018,0 hPa 0,0 l/m 5,7 km/h (1 Bft) W 279 0 min 0,000 mm 0,0 UV-I 0 W/m -3,1 C -1,2 C 8,0 km/h (2 Bft) 100,00 %
13.02.2018 06:59 -1,3 C 4,4 C 87 % 1018,1 hPa 0,0 l/m 5,5 km/h (1 Bft) W 259 0 min 0,000 mm 0,0 UV-I 0 W/m -3,2 C -1,3 C 9,7 km/h (2 Bft) 100,00 %
13.02.2018 07:00 -1,3 C 4,4 C 87 % 1018,1 hPa 0,0 l/m 6,0 km/h (2 Bft) NW 313 0 min 0,000 mm 0,0 UV-I 0 W/m -3,2 C -1,3 C 11,3 km/h (2 Bft) 100,00 %
13.02.2018 07:01 -1,3 C 4,4 C 87 % 1018,1 hPa 0,0 l/m 4,3 km/h (1 Bft) W 269 0 min 0,000 mm 0,0 UV-I 0 W/m -3,2 C -1,3 C 8,0 km/h (2 Bft) 96,15 %
13.02.2018 07:02 -1,3 C 4,4 C 87 % 1018,1 hPa 0,0 l/m 5,8 km/h (2 Bft) W 262 0 min 0,000 mm 0,0 UV-I 0 W/m -3,2 C -1,3 C 9,7 km/h (2 Bft) 100,00 %
13.02.2018 07:03 -1,3 C 4,4 C 87 % 1018,1 hPa 0,0 l/m 2,7 km/h (1 Bft) W 264 0 min 0,000 mm 0,0 UV-I 1 W/m -3,2 C -1,3 C 4,8 km/h (1 Bft) 100,00 %
13.02.2018 07:04 -1,3 C 4,4 C 87 % 1018,1 hPa 0,0 l/m 4,3 km/h (1 Bft) W 275 0 min 0,000 mm 0,0 UV-I 5 W/m -3,2 C -1,3 C 6,4 km/h (2 Bft) 96,30 %
13.02.2018 07:05 -1,3 C 4,4 C 87 % 1018,2 hPa 0,0 l/m 2,3 km/h (1 Bft) W 275 0 min 0,000 mm 0,0 UV-I 5 W/m -3,2 C -1,3 C 3,2 km/h (1 Bft) 100,00 %
13.02.2018 07:06 -1,3 C 4,4 C 88 % 1018,1 hPa 0,0 l/m 4,2 km/h (1 Bft) W 275 0 min 0,000 mm 0,0 UV-I 5 W/m -3,0 C -1,3 C 6,4 km/h (2 Bft) 100,00 %
13.02.2018 07:07 -1,4 C 4,4 C 88 % 1018,1 hPa 0,0 l/m 4,7 km/h (1 Bft) W 271 0 min 0,000 mm 0,0 UV-I 5 W/m -3,1 C -1,4 C 6,4 km/h (2 Bft) 100,00 %
13.02.2018 07:08 -1,4 C 4,4 C 88 % 1018,1 hPa 0,0 l/m 3,6 km/h (1 Bft) W 271 0 min 0,000 mm 0,0 UV-I 5 W/m -3,1 C -1,4 C 4,8 km/h (1 Bft) 100,00 %
13.02.2018 07:09 -1,4 C 4,4 C 88 % 1018,1 hPa 0,0 l/m 3,4 km/h (1 Bft) W 271 0 min 0,000 mm 0,0 UV-I 5 W/m -3,1 C -1,4 C 4,8 km/h (1 Bft) 95,65 %
13.02.2018 07:10 -1,4 C 4,4 C 88 % 1018,1 hPa 0,0 l/m 3,6 km/h (1 Bft) W 273 0 min 0,000 mm 0,0 UV-I 5 W/m -3,1 C -1,4 C 4,8 km/h (1 Bft) 100,00 %
13.02.2018 07:11 -1,4 C 4,4 C 88 % 1018,1 hPa 0,0 l/m 3,0 km/h (1 Bft) W 273 0 min 0,000 mm 0,0 UV-I 6 W/m -3,1 C -1,4 C 4,8 km/h (1 Bft) 100,00 %
13.02.2018 07:12 -1,4 C 4,4 C 88 % 1018,1 hPa 0,0 l/m 3,3 km/h (1 Bft) W 275 0 min 0,000 mm 0,0 UV-I 7 W/m -3,1 C -1,4 C 6,4 km/h (2 Bft) 100,00 %
13.02.2018 07:13 -1,4 C 4,4 C 88 % 1018,1 hPa 0,0 l/m 4,3 km/h (1 Bft) W 264 0 min 0,000 mm 0,0 UV-I 7 W/m -3,1 C -1,4 C 6,4 km/h (2 Bft) 100,00 %
13.02.2018 07:14 -1,5 C 4,4 C 88 % 1018,1 hPa 0,0 l/m 3,7 km/h (1 Bft) W 260 0 min 0,000 mm 0,0 UV-I 7 W/m -3,2 C -1,5 C 4,8 km/h (1 Bft) 95,65 %
13.02.2018 07:15 -1,5 C 4,4 C 89 % 1018,1 hPa 0,0 l/m 3,5 km/h (1 Bft) W 260 0 min 0,000 mm 0,0 UV-I 7 W/m -3,1 C -1,5 C 4,8 km/h (1 Bft) 100,00 %
13.02.2018 07:16 -1,5 C 4,4 C 89 % 1018,1 hPa 0,0 l/m 5,7 km/h (1 Bft) W-SW 252 0 min 0,000 mm 0,0 UV-I 7 W/m -3,1 C -1,5 C 8,0 km/h (2 Bft) 100,00 %
13.02.2018 07:17 -1,5 C 4,4 C 89 % 1018,0 hPa 0,0 l/m 4,6 km/h (1 Bft) W 263 0 min 0,000 mm 0,0 UV-I 8 W/m -3,1 C -1,5 C 6,4 km/h (2 Bft) 100,00 %
13.02.2018 07:18 -1,5 C 4,4 C 89 % 1018,0 hPa 0,0 l/m 5,2 km/h (1 Bft) W 269 0 min 0,000 mm 0,0 UV-I 9 W/m -3,1 C -1,5 C 9,7 km/h (2 Bft) 100,00 %
13.02.2018 07:19 -1,5 C 4,4 C 89 % 1018,1 hPa 0,0 l/m 4,3 km/h (1 Bft) W 269 0 min 0,000 mm 0,0 UV-I 11 W/m -3,1 C -1,5 C 4,8 km/h (1 Bft) 100,00 %
13.02.2018 07:20 -1,5 C 4,4 C 89 % 1018,1 hPa 0,0 l/m 4,6 km/h (1 Bft) W 272 0 min 0,000 mm 0,0 UV-I 11 W/m -3,1 C -1,5 C 6,4 km/h (2 Bft) 100,00 %
13.02.2018 07:21 -1,4 C 4,4 C 89 % 1018,1 hPa 0,0 l/m 4,5 km/h (1 Bft) W-NW 292 0 min 0,000 mm 0,0 UV-I 12 W/m -3,0 C -1,4 C 6,4 km/h (2 Bft) 100,00 %
13.02.2018 07:22 -1,4 C 4,4 C 89 % 1018,1 hPa 0,0 l/m 3,3 km/h (1 Bft) W-NW 291 0 min 0,000 mm 0,0 UV-I 13 W/m -3,0 C -1,4 C 4,8 km/h (1 Bft) 96,15 %
13.02.2018 07:23 -1,4 C 4,4 C 89 % 1018,1 hPa 0,0 l/m 3,0 km/h (1 Bft) W-NW 290 0 min 0,000 mm 0,0 UV-I 14 W/m -3,0 C -1,4 C 4,8 km/h (1 Bft) 100,00 %
13.02.2018 07:24 -1,5 C 4,4 C 89 % 1018,2 hPa 0,0 l/m 4,4 km/h (1 Bft) W 281 0 min 0,000 mm 0,0 UV-I 15 W/m -3,1 C -1,5 C 4,8 km/h (1 Bft) 100,00 %
13.02.2018 07:25 -1,5 C 4,4 C 89 % 1018,1 hPa 0,0 l/m 3,4 km/h (1 Bft) W 281 1 min 0,000 mm 0,0 UV-I 16 W/m -3,1 C -1,5 C 4,8 km/h (1 Bft) 100,00 %
13.02.2018 07:26 -1,5 C 4,4 C 89 % 1018,2 hPa 0,0 l/m 4,5 km/h (1 Bft) W 273 1 min 0,000 mm 0,0 UV-I 18 W/m -3,1 C -1,5 C 9,7 km/h (2 Bft) 100,00 %
13.02.2018 07:27 -1,5 C 4,4 C 89 % 1018,2 hPa 0,0 l/m 6,8 km/h (2 Bft) W-SW 240 1 min 0,000 mm 0,0 UV-I 19 W/m -3,1 C -1,9 C 11,3 km/h (2 Bft) 100,00 %
13.02.2018 07:28 -1,5 C 4,4 C 89 % 1018,2 hPa 0,0 l/m 6,1 km/h (2 Bft) W 281 1 min 0,000 mm 0,0 UV-I 19 W/m -3,1 C -1,5 C 9,7 km/h (2 Bft) 97,58 %
13.02.2018 07:29 -1,4 C 4,4 C 89 % 1018,1 hPa 0,0 l/m 5,6 km/h (1 Bft) W-SW 254 1 min 0,000 mm 0,0 UV-I 20 W/m -3,0 C -1,4 C 9,7 km/h (2 Bft) 100,00 %
13.02.2018 07:30 -1,4 C 4,4 C 89 % 1018,1 hPa 0,0 l/m 7,2 km/h (2 Bft) W-SW 257 1 min 0,000 mm 0,0 UV-I 21 W/m -3,0 C -2,3 C 9,7 km/h (2 Bft) 100,00 %
13.02.2018 07:31 -1,4 C 4,4 C 89 % 1018,2 hPa 0,0 l/m 7,6 km/h (2 Bft) W-SW 254 1 min 0,000 mm 0,0 UV-I 23 W/m -3,0 C -2,7 C 11,3 km/h (2 Bft) 100,00 %
13.02.2018 07:32 -1,4 C 4,4 C 89 % 1018,1 hPa 0,0 l/m 4,7 km/h (1 Bft) W 271 1 min 0,000 mm 0,0 UV-I 23 W/m -3,0 C -1,4 C 6,4 km/h (2 Bft) 100,00 %
13.02.2018 07:33 -1,4 C 4,4 C 89 % 1018,1 hPa 0,0 l/m 6,4 km/h (2 Bft) W 267 1 min 0,000 mm 0,0 UV-I 25 W/m -3,0 C -1,4 C 9,7 km/h (2 Bft) 100,00 %
13.02.2018 07:34 -1,4 C 4,4 C 88 % 1018,1 hPa 0,0 l/m 5,7 km/h (1 Bft) W-NW 288 1 min 0,000 mm 0,0 UV-I 26 W/m -3,1 C -1,4 C 9,7 km/h (2 Bft) 100,00 %
13.02.2018 07:35 -1,4 C 4,4 C 88 % 1018,1 hPa 0,0 l/m 6,0 km/h (2 Bft) W-NW 287 1 min 0,000 mm 0,0 UV-I 26 W/m -3,1 C -1,4 C 9,7 km/h (2 Bft) 100,00 %
13.02.2018 07:36 -1,4 C 4,4 C 89 % 1018,1 hPa 0,0 l/m 4,1 km/h (1 Bft) W 279 1 min 0,000 mm 0,0 UV-I 28 W/m -3,0 C -1,4 C 4,8 km/h (1 Bft) 100,00 %
13.02.2018 07:37 -1,4 C 4,4 C 88 % 1018,1 hPa 0,0 l/m 4,7 km/h (1 Bft) W 262 1 min 0,000 mm 0,0 UV-I 28 W/m -3,1 C -1,4 C 6,4 km/h (2 Bft) 100,00 %
13.02.2018 07:38 -1,4 C 4,4 C 88 % 1018,1 hPa 0,0 l/m 5,2 km/h (1 Bft) W-NW 289 1 min 0,000 mm 0,0 UV-I 30 W/m -3,1 C -1,4 C 6,4 km/h (2 Bft) 100,00 %
13.02.2018 07:39 -1,4 C 4,4 C 88 % 1018,2 hPa 0,0 l/m 4,0 km/h (1 Bft) W 272 1 min 0,000 mm 0,0 UV-I 31 W/m -3,1 C -1,4 C 4,8 km/h (1 Bft) 100,00 %
13.02.2018 07:40 -1,4 C 4,4 C 89 % 1018,2 hPa 0,0 l/m 4,8 km/h (1 Bft) W 270 1 min 0,000 mm 0,0 UV-I 33 W/m -3,0 C -1,4 C 6,4 km/h (2 Bft) 100,00 %
13.02.2018 07:41 -1,4 C 4,4 C 89 % 1018,2 hPa 0,0 l/m 6,3 km/h (2 Bft) W 261 1 min 0,000 mm 0,0 UV-I 33 W/m -3,0 C -1,4 C 9,7 km/h (2 Bft) 100,00 %
13.02.2018 07:42 -1,5 C 4,4 C 89 % 1018,2 hPa 0,0 l/m 4,0 km/h (1 Bft) W 273 1 min 0,000 mm 0,0 UV-I 35 W/m -3,1 C -1,5 C 4,8 km/h (1 Bft) 100,00 %
13.02.2018 07:43 -1,5 C 4,4 C 89 % 1018,2 hPa 0,0 l/m 3,1 km/h (1 Bft) W 273 0 min 0,000 mm 0,0 UV-I 35 W/m -3,1 C -1,5 C 4,8 km/h (1 Bft) 100,00 %
13.02.2018 07:44 -1,5 C 4,4 C 89 % 1018,2 hPa 0,0 l/m 3,9 km/h (1 Bft) W-SW 244 0 min 0,000 mm 0,0 UV-I 37 W/m -3,1 C -1,5 C 6,4 km/h (2 Bft) 100,00 %
13.02.2018 07:45 -1,5 C 4,4 C 89 % 1018,2 hPa 0,0 l/m 7,2 km/h (2 Bft) W 259 0 min 0,000 mm 0,0 UV-I 38 W/m -3,1 C -2,4 C 9,7 km/h (2 Bft) 100,00 %
13.02.2018 07:46 -1,5 C 4,4 C 89 % 1018,2 hPa 0,0 l/m 5,0 km/h (1 Bft) W 279 0 min 0,000 mm 0,0 UV-I 39 W/m -3,1 C -1,5 C 6,4 km/h (2 Bft) 100,00 %
13.02.2018 07:47 -1,4 C 4,4 C 89 % 1018,3 hPa 0,0 l/m 8,9 km/h (2 Bft) W-NW 296 0 min 0,000 mm 0,0 UV-I 39 W/m -3,0 C -4,0 C 12,9 km/h (3 Bft) 100,00 %
13.02.2018 07:48 -1,4 C 4,4 C 89 % 1018,2 hPa 0,0 l/m 3,8 km/h (1 Bft) W-SW 248 0 min 0,000 mm 0,0 UV-I 40 W/m -3,0 C -1,4 C 6,4 km/h (2 Bft) 95,65 %
13.02.2018 07:49 -1,4 C 4,4 C 89 % 1018,2 hPa 0,0 l/m 4,2 km/h (1 Bft) W 279 0 min 0,000 mm 0,0 UV-I 40 W/m -3,0 C -1,4 C 6,4 km/h (2 Bft) 100,00 %
13.02.2018 07:50 -1,4 C 4,4 C 89 % 1018,3 hPa 0,0 l/m 4,0 km/h (1 Bft) W 273 0 min 0,000 mm 0,0 UV-I 40 W/m -3,0 C -1,4 C 4,8 km/h (1 Bft) 100,00 %
13.02.2018 07:51 -1,4 C 4,4 C 89 % 1018,3 hPa 0,0 l/m 3,7 km/h (1 Bft) W 273 0 min 0,000 mm 0,0 UV-I 42 W/m -3,0 C -1,4 C 4,8 km/h (1 Bft) 100,00 %
13.02.2018 07:52 -1,4 C 4,4 C 89 % 1018,3 hPa 0,0 l/m 4,0 km/h (1 Bft) W-NW 284 0 min 0,000 mm 0,0 UV-I 43 W/m -3,0 C -1,4 C 4,8 km/h (1 Bft) 100,00 %
13.02.2018 07:53 -1,4 C 4,4 C 89 % 1018,3 hPa 0,0 l/m 5,6 km/h (1 Bft) SW 235 0 min 0,000 mm 0,0 UV-I 44 W/m -3,0 C -1,4 C 6,4 km/h (2 Bft) 100,00 %
13.02.2018 07:54 -1,4 C 4,4 C 89 % 1018,3 hPa 0,0 l/m 5,5 km/h (1 Bft) W 267 0 min 0,000 mm 0,0 UV-I 46 W/m -3,0 C -1,4 C 8,0 km/h (2 Bft) 100,00 %
13.02.2018 07:55 -1,4 C 4,4 C 89 % 1018,2 hPa 0,0 l/m 6,4 km/h (2 Bft) W-SW 244 0 min 0,000 mm 0,0 UV-I 46 W/m -3,0 C -1,4 C 11,3 km/h (2 Bft) 96,30 %
13.02.2018 07:56 -1,4 C 4,4 C 89 % 1018,2 hPa 0,0 l/m 4,7 km/h (1 Bft) W-SW 244 0 min 0,000 mm 0,0 UV-I 47 W/m -3,0 C -1,4 C 4,8 km/h (1 Bft) 100,00 %
13.02.2018 07:57 -1,4 C 4,4 C 89 % 1018,3 hPa 0,0 l/m 4,4 km/h (1 Bft) W-SW 244 0 min 0,000 mm 0,0 UV-I 48 W/m -3,0 C -1,4 C 6,4 km/h (2 Bft) 95,83 %
13.02.2018 07:58 -1,4 C 4,4 C 89 % 1018,3 hPa 0,0 l/m 4,7 km/h (1 Bft) W 264 0 min 0,000 mm 0,0 UV-I 49 W/m -3,0 C -1,4 C 6,4 km/h (2 Bft) 96,55 %
13.02.2018 07:59 -1,4 C 4,4 C 89 % 1018,4 hPa 0,0 l/m 5,7 km/h (1 Bft) W 263 0 min 0,000 mm 0,0 UV-I 50 W/m -3,0 C -1,4 C 9,7 km/h (2 Bft) 100,00 %
13.02.2018 08:00 -1,4 C 4,4 C 89 % 1018,4 hPa 0,0 l/m 4,2 km/h (1 Bft) W 263 0 min 0,000 mm 0,0 UV-I 51 W/m -3,0 C -1,4 C 6,4 km/h (2 Bft) 100,00 %
13.02.2018 08:01 -1,5 C 4,4 C 89 % 1018,3 hPa 0,0 l/m 5,6 km/h (1 Bft) W 259 0 min 0,000 mm 0,0 UV-I 53 W/m -3,1 C -1,5 C 6,4 km/h (2 Bft) 100,00 %
13.02.2018 08:02 -1,5 C 4,4 C 90 % 1018,4 hPa 0,0 l/m 4,3 km/h (1 Bft) W-SW 257 0 min 0,000 mm 0,0 UV-I 53 W/m -2,9 C -1,5 C 6,4 km/h (2 Bft) 91,67 %
13.02.2018 08:03 -1,5 C 4,4 C 90 % 1018,4 hPa 0,0 l/m 3,4 km/h (1 Bft) W-SW 257 0 min 0,000 mm 0,0 UV-I 55 W/m -2,9 C -1,5 C 4,8 km/h (1 Bft) 100,00 %
13.02.2018 08:04 -1,5 C 4,4 C 89 % 1018,3 hPa 0,0 l/m 3,4 km/h (1 Bft) W-SW 257 0 min 0,000 mm 0,0 UV-I 56 W/m -3,1 C -1,5 C 4,8 km/h (1 Bft) 100,00 %
13.02.2018 08:05 -1,5 C 4,4 C 89 % 1018,3 hPa 0,0 l/m 3,7 km/h (1 Bft) W 279 0 min 0,000 mm 0,0 UV-I 57 W/m -3,1 C -1,5 C 4,8 km/h (1 Bft) 100,00 %
13.02.2018 08:06 -1,5 C 4,4 C 89 % 1018,4 hPa 0,0 l/m 3,6 km/h (1 Bft) W-SW 254 0 min 0,000 mm 0,0 UV-I 60 W/m -3,1 C -1,5 C 4,8 km/h (1 Bft) 100,00 %
13.02.2018 08:07 -1,5 C 4,4 C 89 % 1018,4 hPa 0,0 l/m 4,2 km/h (1 Bft) W-SW 254 0 min 0,000 mm 0,0 UV-I 62 W/m -3,1 C -1,5 C 4,8 km/h (1 Bft) 95,83 %
13.02.2018 08:08 -1,5 C 4,4 C 90 % 1018,4 hPa 0,0 l/m 5,0 km/h (1 Bft) W-NW 284 0 min 0,000 mm 0,0 UV-I 64 W/m -2,9 C -1,5 C 6,4 km/h (2 Bft) 100,00 %
13.02.2018 08:09 -1,4 C 4,4 C 90 % 1018,4 hPa 0,0 l/m 4,8 km/h (1 Bft) W 273 0 min 0,000 mm 0,0 UV-I 66 W/m -2,8 C -1,4 C 6,4 km/h (2 Bft) 96,15 %
13.02.2018 08:10 -1,4 C 4,4 C 90 % 1018,3 hPa 0,0 l/m 5,2 km/h (1 Bft) W-SW 256 0 min 0,000 mm 0,0 UV-I 68 W/m -2,8 C -1,4 C 6,4 km/h (2 Bft) 100,00 %
13.02.2018 08:11 -1,4 C 4,4 C 90 % 1018,4 hPa 0,0 l/m 5,6 km/h (1 Bft) W-SW 257 0 min 0,000 mm 0,0 UV-I 70 W/m -2,8 C -1,4 C 8,0 km/h (2 Bft) 92,86 %
13.02.2018 08:12 -1,4 C 4,4 C 90 % 1018,4 hPa 0,0 l/m 5,3 km/h (1 Bft) W 267 0 min 0,000 mm 0,0 UV-I 74 W/m -2,8 C -1,4 C 9,7 km/h (2 Bft) 100,00 %
13.02.2018 08:13 -1,4 C 4,4 C 90 % 1018,4 hPa 0,0 l/m 4,0 km/h (1 Bft) W 262 0 min 0,000 mm 0,0 UV-I 77 W/m -2,8 C -1,4 C 4,8 km/h (1 Bft) 95,65 %
13.02.2018 08:14 -1,4 C 4,4 C 90 % 1018,4 hPa 0,0 l/m 4,2 km/h (1 Bft) W-SW 252 1 min 0,000 mm 0,0 UV-I 83 W/m -2,8 C -1,4 C 6,4 km/h (2 Bft) 100,00 %
13.02.2018 08:15 -1,4 C 4,4 C 90 % 1018,4 hPa 0,0 l/m 4,1 km/h (1 Bft) W 271 1 min 0,000 mm 0,0 UV-I 89 W/m -2,8 C -1,4 C 6,4 km/h (2 Bft) 95,65 %
13.02.2018 08:16 -1,4 C 4,4 C 90 % 1018,4 hPa 0,0 l/m 5,6 km/h (1 Bft) W 270 1 min 0,000 mm 0,0 UV-I 98 W/m -2,8 C -1,4 C 8,0 km/h (2 Bft) 96,30 %
13.02.2018 08:17 -1,4 C 4,4 C 90 % 1018,4 hPa 0,0 l/m 6,0 km/h (2 Bft) W-SW 244 1 min 0,000 mm 0,0 UV-I 107 W/m -2,8 C -1,4 C 9,7 km/h (2 Bft) 100,00 %
13.02.2018 08:18 -1,4 C 4,4 C 90 % 1018,4 hPa 0,0 l/m 5,7 km/h (1 Bft) W 281 1 min 0,000 mm 0,0 UV-I 113 W/m -2,8 C -1,4 C 9,7 km/h (2 Bft) 95,83 %
13.02.2018 08:19 -1,3 C 4,4 C 90 % 1018,4 hPa 0,0 l/m 5,2 km/h (1 Bft) W 281 1 min 0,000 mm 0,0 UV-I 108 W/m -2,7 C -1,3 C 6,4 km/h (2 Bft) 100,00 %
13.02.2018 08:20 -1,3 C 4,4 C 90 % 1018,4 hPa 0,0 l/m 6,2 km/h (2 Bft) W-SW 257 1 min 0,000 mm 0,0 UV-I 102 W/m -2,7 C -1,3 C 9,7 km/h (2 Bft) 91,67 %
13.02.2018 08:21 -1,3 C 4,4 C 90 % 1018,4 hPa 0,0 l/m 6,4 km/h (2 Bft) W 264 1 min 0,000 mm 0,0 UV-I 104 W/m -2,7 C -1,3 C 12,9 km/h (3 Bft) 100,00 %
13.02.2018 08:22 -1,3 C 4,4 C 90 % 1018,4 hPa 0,0 l/m 8,4 km/h (2 Bft) W 262 1 min 0,000 mm 0,0 UV-I 103 W/m -2,7 C -3,4 C 11,3 km/h (2 Bft) 89,66 %
13.02.2018 08:23 -1,2 C 4,4 C 90 % 1018,4 hPa 0,0 l/m 6,8 km/h (2 Bft) W 275 1 min 0,000 mm 0,0 UV-I 102 W/m -2,6 C -1,6 C 9,7 km/h (2 Bft) 100,00 %
13.02.2018 08:24 -1,2 C 4,4 C 90 % 1018,4 hPa 0,0 l/m 4,7 km/h (1 Bft) W 271 1 min 0,000 mm 0,0 UV-I 95 W/m -2,6 C -1,2 C 6,4 km/h (2 Bft) 93,75 %
13.02.2018 08:25 -1,2 C 4,4 C 89 % 1018,4 hPa 0,0 l/m 4,3 km/h (1 Bft) W 271 0 min 0,000 mm 0,0 UV-I 90 W/m -2,8 C -1,2 C 6,4 km/h (2 Bft) 92,31 %
13.02.2018 08:26 -1,2 C 4,4 C 89 % 1018,4 hPa 0,0 l/m 4,6 km/h (1 Bft) W 267 0 min 0,000 mm 0,0 UV-I 89 W/m -2,8 C -1,2 C 6,4 km/h (2 Bft) 100,00 %
13.02.2018 08:27 -1,2 C 4,4 C 89 % 1018,5 hPa 0,0 l/m 4,8 km/h (1 Bft) W-SW 254 0 min 0,000 mm 0,0 UV-I 85 W/m -2,8 C -1,2 C 6,4 km/h (2 Bft) 92,31 %
13.02.2018 08:28 -1,2 C 4,4 C 89 % 1018,4 hPa 0,0 l/m 4,6 km/h (1 Bft) W-SW 250 0 min 0,000 mm 0,0 UV-I 80 W/m -2,8 C -1,2 C 6,4 km/h (2 Bft) 100,00 %
13.02.2018 08:29 -1,2 C 4,4 C 89 % 1018,4 hPa 0,0 l/m 6,4 km/h (2 Bft) W-NW 285 0 min 0,000 mm 0,0 UV-I 77 W/m -2,8 C -1,2 C 11,3 km/h (2 Bft) 91,67 %
13.02.2018 08:30 -1,2 C 4,4 C 89 % 1018,4 hPa 0,0 l/m 7,6 km/h (2 Bft) W-SW 248 0 min 0,000 mm 0,0 UV-I 77 W/m -2,8 C -2,5 C 11,3 km/h (2 Bft) 90,91 %
13.02.2018 08:31 -1,2 C 4,4 C 89 % 1018,5 hPa 0,0 l/m 7,0 km/h (2 Bft) W-SW 250 0 min 0,000 mm 0,0 UV-I 76 W/m -2,8 C -1,8 C 11,3 km/h (2 Bft) 92,59 %
13.02.2018 08:32 -1,2 C 4,4 C 89 % 1018,5 hPa 0,0 l/m 7,0 km/h (2 Bft) W 259 0 min 0,000 mm 0,0 UV-I 74 W/m -2,8 C -1,8 C 9,7 km/h (2 Bft) 100,00 %
13.02.2018 08:33 -1,2 C 4,4 C 89 % 1018,5 hPa 0,0 l/m 8,4 km/h (2 Bft) W-SW 254 0 min 0,000 mm 0,0 UV-I 72 W/m -2,8 C -3,3 C 14,5 km/h (3 Bft) 88,89 %
13.02.2018 08:34 -1,2 C 4,4 C 89 % 1018,4 hPa 0,0 l/m 9,7 km/h (2 Bft) W-SW 258 0 min 0,000 mm 0,0 UV-I 70 W/m -2,8 C -4,5 C 11,3 km/h (2 Bft) 97,71 %
13.02.2018 08:35 -1,2 C 4,4 C 89 % 1018,5 hPa 0,0 l/m 7,2 km/h (2 Bft) W-NW 289 0 min 0,000 mm 0,0 UV-I 70 W/m -2,8 C -2,1 C 9,7 km/h (2 Bft) 95,45 %
13.02.2018 08:36 -1,2 C 4,4 C 89 % 1018,5 hPa 0,0 l/m 4,8 km/h (1 Bft) W 279 0 min 0,000 mm 0,0 UV-I 69 W/m -2,8 C -1,2 C 9,7 km/h (2 Bft) 96,15 %
13.02.2018 08:37 -1,3 C 4,4 C 89 % 1018,5 hPa 0,0 l/m 4,4 km/h (1 Bft) W-SW 248 0 min 0,000 mm 0,0 UV-I 70 W/m -2,9 C -1,3 C 6,4 km/h (2 Bft) 96,30 %
13.02.2018 08:38 -1,2 C 4,4 C 89 % 1018,5 hPa 0,0 l/m 5,2 km/h (1 Bft) W-SW 246 0 min 0,000 mm 0,0 UV-I 71 W/m -2,8 C -1,2 C 6,4 km/h (2 Bft) 92,86 %
13.02.2018 08:39 -1,2 C 4,4 C 90 % 1018,5 hPa 0,0 l/m 4,4 km/h (1 Bft) W 279 0 min 0,000 mm 0,0 UV-I 71 W/m -2,6 C -1,2 C 6,4 km/h (2 Bft) 95,83 %
13.02.2018 08:40 -1,2 C 4,4 C 90 % 1018,4 hPa 0,0 l/m 6,4 km/h (2 Bft) W-SW 254 0 min 0,000 mm 0,0 UV-I 70 W/m -2,6 C -1,2 C 12,9 km/h (3 Bft) 92,31 %
13.02.2018 08:41 -1,2 C 4,4 C 90 % 1018,4 hPa 0,0 l/m 8,6 km/h (2 Bft) W-SW 246 0 min 0,000 mm 0,0 UV-I 72 W/m -2,6 C -3,5 C 14,5 km/h (3 Bft) 100,00 %
13.02.2018 08:42 -1,3 C 4,4 C 90 % 1018,4 hPa 0,0 l/m 9,2 km/h (2 Bft) W-SW 246 0 min 0,000 mm 0,0 UV-I 70 W/m -2,7 C -4,2 C 12,9 km/h (3 Bft) 92,31 %
13.02.2018 08:43 -1,3 C 4,4 C 89 % 1018,4 hPa 0,0 l/m 5,7 km/h (1 Bft) W-SW 241 0 min 0,000 mm 0,0 UV-I 72 W/m -2,9 C -1,3 C 8,0 km/h (2 Bft) 95,83 %
13.02.2018 08:44 -1,3 C 4,4 C 89 % 1018,4 hPa 0,0 l/m 4,8 km/h (1 Bft) W-SW 254 0 min 0,000 mm 0,0 UV-I 73 W/m -2,9 C -1,3 C 6,4 km/h (2 Bft) 95,65 %
13.02.2018 08:45 -1,3 C 4,4 C 89 % 1018,5 hPa 0,0 l/m 4,6 km/h (1 Bft) W 278 0 min 0,000 mm 0,0 UV-I 79 W/m -2,9 C -1,3 C 9,7 km/h (2 Bft) 95,83 %
13.02.2018 08:46 -1,3 C 4,4 C 90 % 1018,4 hPa 0,0 l/m 6,4 km/h (2 Bft) W 268 0 min 0,000 mm 0,0 UV-I 89 W/m -2,7 C -1,3 C 9,7 km/h (2 Bft) 96,15 %
13.02.2018 08:47 -1,3 C 4,4 C 90 % 1018,4 hPa 0,0 l/m 3,8 km/h (1 Bft) W 270 0 min 0,000 mm 0,0 UV-I 93 W/m -2,7 C -1,3 C 4,8 km/h (1 Bft) 93,33 %
13.02.2018 08:48 -1,3 C 4,4 C 90 % 1018,4 hPa 0,0 l/m 3,6 km/h (1 Bft) NW 305 0 min 0,000 mm 0,0 UV-I 93 W/m -2,7 C -1,3 C 4,8 km/h (1 Bft) 96,30 %
13.02.2018 08:49 -1,3 C 4,4 C 90 % 1018,4 hPa 0,0 l/m 4,1 km/h (1 Bft) W 274 0 min 0,000 mm 0,0 UV-I 94 W/m -2,7 C -1,3 C 6,4 km/h (2 Bft) 92,31 %
13.02.2018 08:50 -1,3 C 4,4 C 90 % 1018,4 hPa 0,0 l/m 2,7 km/h (1 Bft) W 274 0 min 0,000 mm 0,0 UV-I 97 W/m -2,7 C -1,3 C 4,8 km/h (1 Bft) 95,83 %
13.02.2018 08:51 -1,2 C 4,4 C 90 % 1018,4 hPa 0,0 l/m 1,5 km/h (1 Bft) W 274 0 min 0,000 mm 0,0 UV-I 102 W/m -2,6 C -1,2 C 3,2 km/h (1 Bft) 95,65 %
13.02.2018 08:52 -1,2 C 4,4 C 90 % 1018,5 hPa 0,0 l/m 2,3 km/h (1 Bft) W 274 0 min 0,000 mm 0,0 UV-I 110 W/m -2,6 C -1,2 C 3,2 km/h (1 Bft) 96,30 %
13.02.2018 08:53 -1,2 C 4,4 C 90 % 1018,5 hPa 0,0 l/m 1,6 km/h (1 Bft) W 274 0 min 0,000 mm 0,0 UV-I 124 W/m -2,6 C -1,2 C 1,6 km/h (1 Bft) 95,65 %
13.02.2018 08:54 -1,2 C 4,4 C 90 % 1018,5 hPa 0,0 l/m 2,7 km/h (1 Bft) W 274 1 min 0,000 mm 0,0 UV-I 133 W/m -2,6 C -1,2 C 4,8 km/h (1 Bft) 100,00 %
13.02.2018 08:55 -1,2 C 4,4 C 90 % 1018,4 hPa 0,0 l/m 2,7 km/h (1 Bft) W 273 1 min 0,000 mm 0,0 UV-I 140 W/m -2,6 C -1,2 C 4,8 km/h (1 Bft) 95,65 %
13.02.2018 08:56 -1,1 C 4,4 C 90 % 1018,5 hPa 0,0 l/m 1,9 km/h (1 Bft) W 274 1 min 0,000 mm 0,0 UV-I 146 W/m -2,5 C -1,1 C 4,8 km/h (1 Bft) 100,00 %
13.02.2018 08:57 -1,1 C 4,4 C 90 % 1018,5 hPa 0,0 l/m 3,2 km/h (1 Bft) W 277 1 min 0,000 mm 0,0 UV-I 150 W/m -2,5 C -1,1 C 4,8 km/h (1 Bft) 92,86 %
13.02.2018 08:58 -1,1 C 4,4 C 90 % 1018,4 hPa 0,0 l/m 3,8 km/h (1 Bft) W 277 1 min 0,000 mm 0,0 UV-I 155 W/m -2,5 C -1,1 C 4,8 km/h (1 Bft) 91,67 %
13.02.2018 08:59 -1,1 C 4,4 C 90 % 1018,4 hPa 0,0 l/m 1,8 km/h (1 Bft) W 280 1 min 0,000 mm 0,0 UV-I 155 W/m -2,5 C -1,1 C 3,2 km/h (1 Bft) 95,65 %
13.02.2018 09:00 -1,1 C 4,4 C 90 % 1018,5 hPa 0,0 l/m 4,9 km/h (1 Bft) W 275 1 min 0,000 mm 0,0 UV-I 150 W/m -2,5 C -1,1 C 9,7 km/h (2 Bft) 100,00 %
13.02.2018 09:01 -1,1 C 4,4 C 90 % 1018,5 hPa 0,0 l/m 3,3 km/h (1 Bft) W 273 1 min 0,025 mm 0,0 UV-I 162 W/m -2,5 C -1,1 C 4,8 km/h (1 Bft) 91,67 %
13.02.2018 09:02 -1,1 C 4,4 C 90 % 1018,5 hPa 0,0 l/m 3,1 km/h (1 Bft) W 273 1 min 0,000 mm 0,0 UV-I 171 W/m -2,5 C -1,1 C 4,8 km/h (1 Bft) 96,15 %
13.02.2018 09:03 -1,1 C 4,4 C 89 % 1018,5 hPa 0,0 l/m 3,1 km/h (1 Bft) W 273 1 min 0,000 mm 0,0 UV-I 178 W/m -2,7 C -1,1 C 4,8 km/h (1 Bft) 96,15 %
13.02.2018 09:04 -1,0 C 4,4 C 89 % 1018,4 hPa 0,0 l/m 3,0 km/h (1 Bft) W 279 1 min 0,000 mm 0,0 UV-I 192 W/m -2,6 C -1,0 C 6,4 km/h (2 Bft) 91,67 %
13.02.2018 09:05 -1,0 C 4,4 C 89 % 1018,4 hPa 0,0 l/m 5,6 km/h (1 Bft) W 260 1 min 0,000 mm 0,0 UV-I 202 W/m -2,6 C -1,0 C 9,7 km/h (2 Bft) 100,00 %
13.02.2018 09:06 -1,0 C 4,4 C 89 % 1018,4 hPa 0,0 l/m 2,2 km/h (1 Bft) W 260 1 min 0,000 mm 0,0 UV-I 211 W/m -2,6 C -1,0 C 4,8 km/h (1 Bft) 91,30 %
13.02.2018 09:07 -1,0 C 4,4 C 89 % 1018,4 hPa 0,0 l/m 4,6 km/h (1 Bft) W 260 1 min 0,000 mm 0,0 UV-I 213 W/m -2,6 C -1,0 C 6,4 km/h (2 Bft) 96,30 %
13.02.2018 09:08 -1,0 C 4,4 C 89 % 1018,4 hPa 0,0 l/m 4,4 km/h (1 Bft) W-SW 248 1 min 0,000 mm 0,0 UV-I 213 W/m -2,6 C -1,0 C 6,4 km/h (2 Bft) 92,31 %
13.02.2018 09:09 -1,0 C 4,4 C 89 % 1018,4 hPa 0,0 l/m 5,7 km/h (1 Bft) SW 232 1 min 0,000 mm 0,0 UV-I 211 W/m -2,6 C -1,0 C 8,0 km/h (2 Bft) 96,30 %
13.02.2018 09:10 -1,0 C 4,4 C 89 % 1018,4 hPa 0,0 l/m 4,6 km/h (1 Bft) W 259 1 min 0,000 mm 0,0 UV-I 212 W/m -2,6 C -1,0 C 6,4 km/h (2 Bft) 95,65 %
13.02.2018 09:11 -0,9 C 4,4 C 88 % 1018,4 hPa 0,0 l/m 4,9 km/h (1 Bft) W 274 1 min 0,000 mm 0,0 UV-I 227 W/m -2,6 C -0,9 C 6,4 km/h (2 Bft) 100,00 %
13.02.2018 09:12 -0,9 C 4,4 C 88 % 1018,4 hPa 0,0 l/m 5,2 km/h (1 Bft) W-SW 253 1 min 0,000 mm 0,0 UV-I 232 W/m -2,6 C -0,9 C 8,0 km/h (2 Bft) 96,15 %
13.02.2018 09:13 -0,9 C 4,4 C 88 % 1018,4 hPa 0,0 l/m 5,5 km/h (1 Bft) W 259 1 min 0,000 mm 0,0 UV-I 234 W/m -2,6 C -0,9 C 11,3 km/h (2 Bft) 95,83 %
13.02.2018 09:14 -0,9 C 4,4 C 88 % 1018,4 hPa 0,0 l/m 5,1 km/h (1 Bft) W-SW 242 1 min 0,000 mm 0,0 UV-I 231 W/m -2,6 C -0,9 C 6,4 km/h (2 Bft) 100,00 %
13.02.2018 09:15 -0,8 C 4,4 C 88 % 1018,4 hPa 0,0 l/m 5,2 km/h (1 Bft) W-NW 288 1 min 0,000 mm 0,0 UV-I 208 W/m -2,5 C -0,8 C 8,0 km/h (2 Bft) 95,83 %
13.02.2018 09:16 -0,8 C 4,4 C 88 % 1018,4 hPa 0,0 l/m 3,3 km/h (1 Bft) NW 305 1 min 0,000 mm 0,0 UV-I 183 W/m -2,5 C -0,8 C 4,8 km/h (1 Bft) 100,00 %
13.02.2018 09:17 -0,8 C 4,4 C 88 % 1018,4 hPa 0,0 l/m 2,3 km/h (1 Bft) NW 304 1 min 0,000 mm 0,0 UV-I 173 W/m -2,5 C -0,8 C 4,8 km/h (1 Bft) 95,83 %
13.02.2018 09:18 -0,8 C 4,4 C 88 % 1018,4 hPa 0,0 l/m 0,4 km/h (0 Bft) NW 304 1 min 0,000 mm 0,0 UV-I 176 W/m -2,5 C -0,8 C 1,6 km/h (1 Bft) 100,00 %
13.02.2018 09:19 -0,7 C 4,4 C 88 % 1018,4 hPa 0,0 l/m 1,7 km/h (1 Bft) NW 305 1 min 0,000 mm 0,0 UV-I 195 W/m -2,4 C -0,7 C 3,2 km/h (1 Bft) 96,15 %
13.02.2018 09:20 -0,7 C 4,4 C 88 % 1018,4 hPa 0,0 l/m 2,1 km/h (1 Bft) NW 305 1 min 0,000 mm 0,0 UV-I 196 W/m -2,4 C -0,7 C 3,2 km/h (1 Bft) 96,00 %
13.02.2018 09:21 -0,6 C 4,4 C 87 % 1018,4 hPa 0,0 l/m 1,5 km/h (1 Bft) NW 305 1 min 0,000 mm 0,0 UV-I 179 W/m -2,5 C -0,6 C 3,2 km/h (1 Bft) 93,33 %
13.02.2018 09:22 -0,6 C 4,4 C 87 % 1018,4 hPa 0,0 l/m 0,8 km/h (0 Bft) NW 305 1 min 0,000 mm 0,0 UV-I 184 W/m -2,5 C -0,6 C 1,6 km/h (1 Bft) 96,67 %
13.02.2018 09:23 -0,6 C 4,4 C 87 % 1018,4 hPa 0,0 l/m 0,7 km/h (0 Bft) NW 305 1 min 0,000 mm 0,0 UV-I 200 W/m -2,5 C -0,6 C 1,6 km/h (1 Bft) 95,65 %
13.02.2018 09:24 -0,6 C 4,4 C 87 % 1018,4 hPa 0,0 l/m 2,0 km/h (1 Bft) W-NW 302 1 min 0,000 mm 0,0 UV-I 194 W/m -2,5 C -0,6 C 4,8 km/h (1 Bft) 96,30 %
13.02.2018 09:25 -0,6 C 4,4 C 87 % 1018,4 hPa 0,0 l/m 1,6 km/h (1 Bft) W-NW 302 1 min 0,000 mm 0,0 UV-I 208 W/m -2,5 C -0,6 C 4,8 km/h (1 Bft) 95,65 %
13.02.2018 09:26 -0,6 C 4,4 C 87 % 1018,4 hPa 0,0 l/m 1,7 km/h (1 Bft) W-NW 302 1 min 0,000 mm 0,0 UV-I 208 W/m -2,5 C -0,6 C 3,2 km/h (1 Bft) 95,83 %
13.02.2018 09:27 -0,6 C 4,4 C 86 % 1018,4 hPa 0,0 l/m 2,5 km/h (1 Bft) W 263 1 min 0,000 mm 0,0 UV-I 207 W/m -2,6 C -0,6 C 6,4 km/h (2 Bft) 100,00 %
13.02.2018 09:28 -0,6 C 4,4 C 87 % 1018,4 hPa 0,0 l/m 2,6 km/h (1 Bft) W 263 1 min 0,000 mm 0,0 UV-I 191 W/m -2,5 C -0,6 C 4,8 km/h (1 Bft) 95,83 %
13.02.2018 09:29 -0,7 C 4,4 C 86 % 1018,4 hPa 0,0 l/m 3,0 km/h (1 Bft) W 263 0 min 0,000 mm 0,0 UV-I 139 W/m -2,7 C -0,7 C 3,2 km/h (1 Bft) 100,00 %
13.02.2018 09:30 -0,7 C 4,4 C 86 % 1018,4 hPa 0,0 l/m 3,7 km/h (1 Bft) W 269 0 min 0,000 mm 0,1 UV-I 113 W/m -2,7 C -0,7 C 4,8 km/h (1 Bft) 95,83 %
13.02.2018 09:31 -0,7 C 4,4 C 86 % 1018,4 hPa 0,0 l/m 2,6 km/h (1 Bft) W 269 0 min 0,000 mm 0,5 UV-I 124 W/m -2,7 C -0,7 C 3,2 km/h (1 Bft) 95,65 %
13.02.2018 09:32 -0,7 C 4,4 C 86 % 1018,4 hPa 0,0 l/m 3,4 km/h (1 Bft) W 267 0 min 0,000 mm 0,5 UV-I 109 W/m -2,7 C -0,7 C 4,8 km/h (1 Bft) 100,00 %
13.02.2018 09:33 -0,7 C 4,4 C 86 % 1018,4 hPa 0,0 l/m 3,8 km/h (1 Bft) W 267 1 min 0,000 mm 0,5 UV-I 181 W/m -2,7 C -0,7 C 4,8 km/h (1 Bft) 95,65 %
13.02.2018 09:34 -0,7 C 4,4 C 86 % 1018,4 hPa 0,0 l/m 2,1 km/h (1 Bft) W 266 0 min 0,000 mm 0,5 UV-I 154 W/m -2,7 C -0,7 C 3,2 km/h (1 Bft) 100,00 %
13.02.2018 09:35 -0,7 C 4,4 C 86 % 1018,4 hPa 0,0 l/m 2,8 km/h (1 Bft) W 266 0 min 0,000 mm 0,5 UV-I 104 W/m -2,7 C -0,7 C 3,2 km/h (1 Bft) 100,00 %
13.02.2018 09:36 -0,7 C 4,4 C 86 % 1018,5 hPa 0,0 l/m 1,3 km/h (1 Bft) W 266 0 min 0,000 mm 0,5 UV-I 150 W/m -2,7 C -0,7 C 3,2 km/h (1 Bft) 92,59 %
13.02.2018 09:37 -0,7 C 4,4 C 86 % 1018,5 hPa 0,0 l/m 2,6 km/h (1 Bft) W 266 1 min 0,000 mm 0,5 UV-I 229 W/m -2,7 C -0,7 C 4,8 km/h (1 Bft) 95,65 %
13.02.2018 09:38 -0,7 C 4,4 C 87 % 1018,5 hPa 0,0 l/m 2,8 km/h (1 Bft) W 266 1 min 0,000 mm 0,5 UV-I 196 W/m -2,6 C -0,7 C 4,8 km/h (1 Bft) 100,00 %
13.02.2018 09:39 -0,6 C 4,4 C 87 % 1018,5 hPa 0,0 l/m 3,4 km/h (1 Bft) W 267 0 min 0,000 mm 0,5 UV-I 179 W/m -2,5 C -0,6 C 4,8 km/h (1 Bft) 95,65 %
13.02.2018 09:40 -0,6 C 4,4 C 86 % 1018,4 hPa 0,0 l/m 3,8 km/h (1 Bft) W 276 1 min 0,000 mm 0,5 UV-I 212 W/m -2,6 C -0,6 C 4,8 km/h (1 Bft) 100,00 %
13.02.2018 09:41 -0,6 C 4,4 C 86 % 1018,5 hPa 0,0 l/m 1,8 km/h (1 Bft) W 274 1 min 0,000 mm 0,5 UV-I 238 W/m -2,6 C -0,6 C 3,2 km/h (1 Bft) 95,83 %
13.02.2018 09:42 -0,5 C 4,4 C 86 % 1018,5 hPa 0,0 l/m 2,0 km/h (1 Bft) NW 305 1 min 0,000 mm 0,5 UV-I 226 W/m -2,5 C -0,5 C 3,2 km/h (1 Bft) 96,55 %
13.02.2018 09:43 -0,4 C 4,4 C 86 % 1018,4 hPa 0,0 l/m 5,0 km/h (1 Bft) W-NW 295 1 min 0,000 mm 0,5 UV-I 236 W/m -2,4 C -0,4 C 8,0 km/h (2 Bft) 95,65 %
13.02.2018 09:44 -0,5 C 4,4 C 85 % 1018,4 hPa 0,0 l/m 1,0 km/h (0 Bft) W-NW 295 1 min 0,000 mm 0,5 UV-I 242 W/m -2,7 C -0,5 C 1,6 km/h (1 Bft) 95,83 %
13.02.2018 09:45 -0,4 C 4,4 C 85 % 1018,4 hPa 0,0 l/m 0,1 km/h (0 Bft) W-NW 295 1 min 0,000 mm 0,6 UV-I 249 W/m -2,6 C -0,4 C 1,6 km/h (1 Bft) 100,00 %
13.02.2018 09:46 -0,4 C 4,4 C 85 % 1018,4 hPa 0,0 l/m 1,4 km/h (1 Bft) SW 233 1 min 0,000 mm 0,6 UV-I 265 W/m -2,6 C -0,4 C 4,8 km/h (1 Bft) 95,65 %
13.02.2018 09:47 -0,4 C 4,4 C 85 % 1018,4 hPa 0,0 l/m 4,0 km/h (1 Bft) SW 235 1 min 0,000 mm 0,6 UV-I 250 W/m -2,6 C -0,4 C 6,4 km/h (2 Bft) 100,00 %
13.02.2018 09:48 -0,4 C 4,4 C 85 % 1018,4 hPa 0,0 l/m 2,3 km/h (1 Bft) W-SW 242 1 min 0,000 mm 0,6 UV-I 254 W/m -2,6 C -0,4 C 3,2 km/h (1 Bft) 92,86 %
13.02.2018 09:49 -0,4 C 4,4 C 85 % 1018,4 hPa 0,0 l/m 1,9 km/h (1 Bft) W-SW 242 1 min 0,000 mm 0,6 UV-I 272 W/m -2,6 C -0,4 C 3,2 km/h (1 Bft) 100,00 %
13.02.2018 09:50 -0,4 C 4,4 C 85 % 1018,4 hPa 0,0 l/m 2,4 km/h (1 Bft) W 276 1 min 0,000 mm 0,6 UV-I 299 W/m -2,6 C -0,4 C 4,8 km/h (1 Bft) 96,15 %
13.02.2018 09:51 -0,3 C 4,4 C 85 % 1018,4 hPa 0,0 l/m 0,3 km/h (0 Bft) NW 304 1 min 0,000 mm 0,6 UV-I 294 W/m -2,5 C -0,3 C 1,6 km/h (1 Bft) 100,00 %
13.02.2018 09:52 -0,3 C 4,4 C 85 % 1018,3 hPa 0,0 l/m 3,5 km/h (1 Bft) W-NW 301 1 min 0,000 mm 0,6 UV-I 271 W/m -2,5 C -0,3 C 4,8 km/h (1 Bft) 96,15 %
13.02.2018 09:53 -0,3 C 4,4 C 85 % 1018,3 hPa 0,0 l/m 0,8 km/h (0 Bft) W-NW 301 1 min 0,000 mm 0,6 UV-I 265 W/m -2,5 C -0,3 C 3,2 km/h (1 Bft) 100,00 %
13.02.2018 09:54 -0,3 C 4,4 C 84 % 1018,3 hPa 0,0 l/m 0,5 km/h (0 Bft) W-NW 301 1 min 0,000 mm 0,6 UV-I 276 W/m -2,7 C -0,3 C 3,2 km/h (1 Bft) 95,65 %
13.02.2018 09:55 -0,3 C 4,4 C 84 % 1018,3 hPa 0,0 l/m 1,0 km/h (0 Bft) W-NW 301 1 min 0,000 mm 0,6 UV-I 274 W/m -2,7 C -0,3 C 1,6 km/h (1 Bft) 96,30 %
13.02.2018 09:56 -0,3 C 4,4 C 84 % 1018,3 hPa 0,0 l/m 1,8 km/h (1 Bft) NW 313 1 min 0,000 mm 0,6 UV-I 264 W/m -2,7 C -0,3 C 3,2 km/h (1 Bft) 92,86 %
13.02.2018 09:57 -0,2 C 4,4 C 84 % 1018,3 hPa 0,0 l/m 0,8 km/h (0 Bft) NW 313 1 min 0,000 mm 0,6 UV-I 269 W/m -2,6 C -0,2 C 3,2 km/h (1 Bft) 92,59 %
13.02.2018 09:58 -0,2 C 4,4 C 83 % 1018,3 hPa 0,0 l/m 0,0 km/h (0 Bft) NW 313 1 min 0,000 mm 0,6 UV-I 279 W/m -2,7 C -0,2 C 0,0 km/h (0 Bft) 100,00 %
13.02.2018 09:59 -0,2 C 4,4 C 83 % 1018,3 hPa 0,0 l/m 0,7 km/h (0 Bft) NW 313 1 min 0,000 mm 0,6 UV-I 305 W/m -2,7 C -0,2 C 1,6 km/h (1 Bft) 92,59 %
13.02.2018 10:00 -0,1 C 4,4 C 83 % 1018,3 hPa 0,0 l/m 2,2 km/h (1 Bft) NW 316 1 min 0,077 mm 0,7 UV-I 314 W/m -2,6 C -0,1 C 6,4 km/h (2 Bft) 95,65 %
13.02.2018 10:01 -0,1 C 4,4 C 83 % 1018,3 hPa 0,0 l/m 0,2 km/h (0 Bft) NW 316 1 min 0,000 mm 0,7 UV-I 307 W/m -2,6 C -0,1 C 1,6 km/h (1 Bft) 95,83 %
13.02.2018 10:02 -0,1 C 4,4 C 83 % 1018,3 hPa 0,0 l/m 0,3 km/h (0 Bft) NW 316 1 min 0,000 mm 0,7 UV-I 327 W/m -2,6 C -0,1 C 1,6 km/h (1 Bft) 95,65 %
13.02.2018 10:03 0,0 C 4,4 C 83 % 1018,3 hPa 0,0 l/m 0,7 km/h (0 Bft) NW 321 1 min 0,000 mm 0,7 UV-I 325 W/m -2,5 C 0,0 C 1,6 km/h (1 Bft) 91,67 %
13.02.2018 10:04 -0,1 C 4,4 C 83 % 1018,3 hPa 0,0 l/m 1,9 km/h (1 Bft) NW 314 1 min 0,000 mm 0,7 UV-I 310 W/m -2,6 C -0,1 C 4,8 km/h (1 Bft) 100,00 %
13.02.2018 10:05 0,0 C 4,4 C 82 % 1018,3 hPa 0,0 l/m 1,0 km/h (0 Bft) NW 315 1 min 0,000 mm 0,7 UV-I 309 W/m -2,7 C 0,0 C 3,2 km/h (1 Bft) 95,45 %
13.02.2018 10:06 0,0 C 4,4 C 82 % 1018,3 hPa 0,0 l/m 1,2 km/h (1 Bft) NW 309 1 min 0,000 mm 0,7 UV-I 298 W/m -2,7 C 0,0 C 3,2 km/h (1 Bft) 91,67 %
13.02.2018 10:07 0,1 C 4,4 C 81 % 1018,3 hPa 0,0 l/m 3,3 km/h (1 Bft) W-NW 300 1 min 0,000 mm 0,7 UV-I 280 W/m -2,8 C 0,1 C 6,4 km/h (2 Bft) 97,29 %
13.02.2018 10:08 0,0 C 4,4 C 81 % 1018,3 hPa 0,0 l/m 4,0 km/h (1 Bft) W-NW 297 1 min 0,000 mm 0,7 UV-I 303 W/m -2,9 C 0,0 C 6,4 km/h (2 Bft) 95,12 %
13.02.2018 10:09 0,0 C 4,4 C 81 % 1018,3 hPa 0,0 l/m 4,8 km/h (1 Bft) W 265 1 min 0,000 mm 0,7 UV-I 321 W/m -2,9 C 0,0 C 6,4 km/h (2 Bft) 95,65 %
13.02.2018 10:10 -0,1 C 4,4 C 81 % 1018,3 hPa 0,0 l/m 2,6 km/h (1 Bft) W-NW 283 1 min 0,000 mm 0,7 UV-I 342 W/m -3,0 C -0,1 C 3,2 km/h (1 Bft) 96,30 %
13.02.2018 10:11 0,0 C 4,4 C 82 % 1018,3 hPa 0,0 l/m 3,9 km/h (1 Bft) NW 309 1 min 0,000 mm 0,7 UV-I 346 W/m -2,7 C 0,0 C 6,4 km/h (2 Bft) 91,30 %
13.02.2018 10:12 0,1 C 4,4 C 81 % 1018,3 hPa 0,0 l/m 3,7 km/h (1 Bft) W-NW 301 1 min 0,000 mm 0,7 UV-I 342 W/m -2,8 C 0,1 C 4,8 km/h (1 Bft) 95,83 %
13.02.2018 10:13 0,1 C 4,4 C 81 % 1018,2 hPa 0,0 l/m 1,7 km/h (1 Bft) W-NW 302 1 min 0,000 mm 0,7 UV-I 344 W/m -2,8 C 0,1 C 3,2 km/h (1 Bft) 95,65 %
13.02.2018 10:14 0,1 C 4,4 C 81 % 1018,2 hPa 0,0 l/m 4,2 km/h (1 Bft) W-NW 294 1 min 0,000 mm 0,7 UV-I 321 W/m -2,8 C 0,1 C 6,4 km/h (2 Bft) 95,83 %
13.02.2018 10:15 0,1 C 4,4 C 80 % 1018,2 hPa 0,0 l/m 2,6 km/h (1 Bft) NW 306 1 min 0,000 mm 0,7 UV-I 279 W/m -2,9 C 0,1 C 4,8 km/h (1 Bft) 95,65 %
13.02.2018 10:16 0,1 C 4,4 C 81 % 1018,2 hPa 0,0 l/m 4,0 km/h (1 Bft) W-NW 298 1 min 0,000 mm 0,7 UV-I 290 W/m -2,8 C 0,1 C 6,4 km/h (2 Bft) 91,67 %
13.02.2018 10:17 0,2 C 4,4 C 81 % 1018,2 hPa 0,0 l/m 2,3 km/h (1 Bft) W-NW 298 1 min 0,000 mm 0,8 UV-I 367 W/m -2,7 C 0,2 C 3,2 km/h (1 Bft) 92,31 %
13.02.2018 10:18 0,2 C 4,4 C 81 % 1018,1 hPa 0,0 l/m 3,2 km/h (1 Bft) W-NW 295 1 min 0,000 mm 0,8 UV-I 366 W/m -2,7 C 0,2 C 6,4 km/h (2 Bft) 93,33 %
13.02.2018 10:19 0,2 C 4,4 C 81 % 1018,2 hPa 0,0 l/m 4,4 km/h (1 Bft) N-NW 331 1 min 0,000 mm 0,8 UV-I 344 W/m -2,7 C 0,2 C 6,4 km/h (2 Bft) 100,00 %
13.02.2018 10:20 0,2 C 4,4 C 81 % 1018,1 hPa 0,0 l/m 4,5 km/h (1 Bft) W 281 1 min 0,000 mm 0,7 UV-I 329 W/m -2,7 C 0,2 C 6,4 km/h (2 Bft) 96,15 %
13.02.2018 10:21 0,1 C 4,4 C 80 % 1018,1 hPa 0,0 l/m 2,9 km/h (1 Bft) NW 316 1 min 0,000 mm 0,8 UV-I 330 W/m -2,9 C 0,1 C 4,8 km/h (1 Bft) 95,83 %
13.02.2018 10:22 0,1 C 4,4 C 81 % 1018,1 hPa 0,0 l/m 3,6 km/h (1 Bft) W-NW 284 1 min 0,000 mm 0,8 UV-I 355 W/m -2,8 C 0,1 C 6,4 km/h (2 Bft) 95,65 %
13.02.2018 10:23 0,1 C 4,4 C 80 % 1018,1 hPa 0,0 l/m 4,8 km/h (1 Bft) W-NW 288 1 min 0,000 mm 0,8 UV-I 347 W/m -2,9 C 0,1 C 6,4 km/h (2 Bft) 95,83 %
13.02.2018 10:24 0,2 C 4,4 C 80 % 1018,1 hPa 0,0 l/m 2,2 km/h (1 Bft) W-NW 288 1 min 0,000 mm 0,8 UV-I 360 W/m -2,8 C 0,2 C 3,2 km/h (1 Bft) 100,00 %
13.02.2018 10:25 0,3 C 4,4 C 81 % 1018,0 hPa 0,0 l/m 2,9 km/h (1 Bft) W 263 1 min 0,000 mm 0,8 UV-I 364 W/m -2,6 C 0,3 C 4,8 km/h (1 Bft) 96,67 %
13.02.2018 10:26 0,3 C 4,4 C 80 % 1018,0 hPa 0,0 l/m 4,1 km/h (1 Bft) N-NW 329 1 min 0,000 mm 0,8 UV-I 367 W/m -2,7 C 0,3 C 8,0 km/h (2 Bft) 100,00 %
13.02.2018 10:27 0,3 C 4,4 C 79 % 1018,0 hPa 0,0 l/m 4,3 km/h (1 Bft) W-SW 257 1 min 0,000 mm 0,8 UV-I 361 W/m -2,9 C 0,3 C 6,4 km/h (2 Bft) 96,30 %
13.02.2018 10:28 0,3 C 4,4 C 80 % 1018,0 hPa 0,0 l/m 3,2 km/h (1 Bft) W-SW 250 1 min 0,000 mm 0,8 UV-I 375 W/m -2,7 C 0,3 C 4,8 km/h (1 Bft) 100,00 %
13.02.2018 10:29 0,3 C 4,4 C 80 % 1018,0 hPa 0,0 l/m 3,1 km/h (1 Bft) W-SW 253 1 min 0,000 mm 0,8 UV-I 377 W/m -2,7 C 0,3 C 6,4 km/h (2 Bft) 97,56 %
13.02.2018 10:30 0,3 C 4,4 C 80 % 1017,9 hPa 0,0 l/m 4,8 km/h (1 Bft) W 271 1 min 0,000 mm 0,8 UV-I 373 W/m -2,7 C 0,3 C 6,4 km/h (2 Bft) 100,00 %
13.02.2018 10:31 0,2 C 4,4 C 79 % 1017,9 hPa 0,0 l/m 1,5 km/h (1 Bft) W 271 1 min 0,000 mm 0,9 UV-I 373 W/m -3,0 C 0,2 C 3,2 km/h (1 Bft) 96,30 %
13.02.2018 10:32 0,3 C 4,4 C 80 % 1017,9 hPa 0,0 l/m 2,3 km/h (1 Bft) W-NW 290 1 min 0,000 mm 0,9 UV-I 396 W/m -2,7 C 0,3 C 4,8 km/h (1 Bft) 96,15 %
13.02.2018 10:33 0,3 C 4,4 C 80 % 1017,9 hPa 0,0 l/m 2,6 km/h (1 Bft) W-NW 289 1 min 0,000 mm 0,9 UV-I 388 W/m -2,7 C 0,3 C 4,8 km/h (1 Bft) 100,00 %
13.02.2018 10:34 0,3 C 4,4 C 80 % 1017,9 hPa 0,0 l/m 0,8 km/h (0 Bft) W-NW 289 1 min 0,000 mm 0,9 UV-I 388 W/m -2,7 C 0,3 C 3,2 km/h (1 Bft) 91,30 %
13.02.2018 10:35 0,4 C 4,4 C 81 % 1017,8 hPa 0,0 l/m 0,8 km/h (0 Bft) W-NW 289 1 min 0,000 mm 0,9 UV-I 388 W/m -2,5 C 0,4 C 1,6 km/h (1 Bft) 100,00 %
13.02.2018 10:36 0,5 C 4,4 C 80 % 1017,8 hPa 0,0 l/m 1,4 km/h (1 Bft) W-NW 289 1 min 0,000 mm 0,9 UV-I 380 W/m -2,5 C 0,5 C 3,2 km/h (1 Bft) 100,00 %
13.02.2018 10:37 0,6 C 4,4 C 80 % 1017,8 hPa 0,0 l/m 1,3 km/h (1 Bft) W-NW 289 1 min 0,000 mm 0,9 UV-I 370 W/m -2,4 C 0,6 C 3,2 km/h (1 Bft) 97,21 %
13.02.2018 10:38 0,6 C 4,4 C 79 % 1017,8 hPa 0,0 l/m 0,4 km/h (0 Bft) W-NW 284 1 min 0,000 mm 0,9 UV-I 335 W/m -2,6 C 0,6 C 1,6 km/h (1 Bft) 95,24 %
13.02.2018 10:39 0,7 C 4,4 C 79 % 1017,8 hPa 0,0 l/m 1,7 km/h (1 Bft) W-NW 284 1 min 0,000 mm 0,9 UV-I 360 W/m -2,5 C 0,7 C 3,2 km/h (1 Bft) 100,00 %
13.02.2018 10:40 0,7 C 4,4 C 80 % 1017,8 hPa 0,0 l/m 2,9 km/h (1 Bft) NW 310 1 min 0,000 mm 0,9 UV-I 396 W/m -2,3 C 0,7 C 4,8 km/h (1 Bft) 93,10 %
13.02.2018 10:41 0,7 C 4,4 C 79 % 1017,8 hPa 0,0 l/m 1,5 km/h (1 Bft) NW 310 1 min 0,000 mm 0,9 UV-I 407 W/m -2,5 C 0,7 C 3,2 km/h (1 Bft) 100,00 %
13.02.2018 10:42 0,6 C 4,4 C 78 % 1017,8 hPa 0,0 l/m 2,2 km/h (1 Bft) NW 304 1 min 0,000 mm 0,9 UV-I 422 W/m -2,8 C 0,6 C 3,2 km/h (1 Bft) 91,67 %
13.02.2018 10:43 0,7 C 4,4 C 78 % 1017,7 hPa 0,0 l/m 2,2 km/h (1 Bft) N-NW 333 1 min 0,000 mm 0,9 UV-I 424 W/m -2,7 C 0,7 C 4,8 km/h (1 Bft) 96,15 %
13.02.2018 10:44 0,7 C 4,4 C 78 % 1017,8 hPa 0,0 l/m 3,4 km/h (1 Bft) W-NW 294 1 min 0,000 mm 0,9 UV-I 424 W/m -2,7 C 0,7 C 6,4 km/h (2 Bft) 100,00 %
13.02.2018 10:45 0,6 C 4,4 C 77 % 1017,8 hPa 0,0 l/m 3,9 km/h (1 Bft) N-NW 329 1 min 0,000 mm 0,9 UV-I 429 W/m -3,0 C 0,6 C 6,4 km/h (2 Bft) 91,30 %
13.02.2018 10:46 0,6 C 4,4 C 77 % 1017,8 hPa 0,0 l/m 2,0 km/h (1 Bft) N-NW 327 1 min 0,000 mm 0,9 UV-I 427 W/m -3,0 C 0,6 C 4,8 km/h (1 Bft) 100,00 %
13.02.2018 10:47 0,7 C 4,4 C 78 % 1017,7 hPa 0,0 l/m 3,0 km/h (1 Bft) N-NW 345 1 min 0,000 mm 0,9 UV-I 415 W/m -2,7 C 0,7 C 4,8 km/h (1 Bft) 95,65 %
13.02.2018 10:48 0,7 C 4,4 C 76 % 1017,7 hPa 0,0 l/m 1,5 km/h (1 Bft) W-NW 292 1 min 0,000 mm 0,9 UV-I 406 W/m -3,0 C 0,7 C 3,2 km/h (1 Bft) 91,67 %
13.02.2018 10:49 0,8 C 4,4 C 77 % 1017,7 hPa 0,0 l/m 4,2 km/h (1 Bft) W 278 1 min 0,000 mm 1,0 UV-I 428 W/m -2,8 C 0,8 C 6,4 km/h (2 Bft) 100,00 %
13.02.2018 10:50 0,9 C 4,4 C 77 % 1017,8 hPa 0,0 l/m 5,1 km/h (1 Bft) W 272 1 min 0,000 mm 1,0 UV-I 438 W/m -2,7 C 0,9 C 6,4 km/h (2 Bft) 93,33 %
13.02.2018 10:51 0,9 C 4,4 C 76 % 1017,7 hPa 0,0 l/m 4,1 km/h (1 Bft) W 279 1 min 0,000 mm 1,0 UV-I 445 W/m -2,8 C 0,9 C 6,4 km/h (2 Bft) 100,00 %
13.02.2018 10:52 0,9 C 4,4 C 78 % 1017,7 hPa 0,0 l/m 3,2 km/h (1 Bft) N-NW 329 1 min 0,000 mm 1,0 UV-I 449 W/m -2,5 C 0,9 C 4,8 km/h (1 Bft) 92,59 %
13.02.2018 10:53 0,9 C 4,4 C 77 % 1017,7 hPa 0,0 l/m 4,3 km/h (1 Bft) W-NW 294 1 min 0,000 mm 1,0 UV-I 451 W/m -2,7 C 0,9 C 8,0 km/h (2 Bft) 95,65 %
13.02.2018 10:54 0,9 C 4,4 C 77 % 1017,7 hPa 0,0 l/m 4,9 km/h (1 Bft) W 275 1 min 0,000 mm 1,0 UV-I 456 W/m -2,7 C 0,9 C 9,7 km/h (2 Bft) 100,00 %
13.02.2018 10:55 1,0 C 4,4 C 78 % 1017,7 hPa 0,0 l/m 6,2 km/h (2 Bft) W 259 1 min 0,000 mm 1,0 UV-I 465 W/m -2,4 C 1,0 C 9,7 km/h (2 Bft) 100,00 %
13.02.2018 10:56 0,9 C 4,4 C 78 % 1017,7 hPa 0,0 l/m 4,6 km/h (1 Bft) S 188 1 min 0,000 mm 1,0 UV-I 469 W/m -2,5 C 0,9 C 8,0 km/h (2 Bft) 95,83 %
13.02.2018 10:57 0,9 C 4,4 C 78 % 1017,7 hPa 0,0 l/m 5,8 km/h (2 Bft) W-SW 251 1 min 0,000 mm 1,0 UV-I 478 W/m -2,5 C 0,9 C 8,0 km/h (2 Bft) 100,00 %
13.02.2018 10:58 0,9 C 4,4 C 78 % 1017,6 hPa 0,0 l/m 6,2 km/h (2 Bft) W-SW 246 1 min 0,000 mm 1,0 UV-I 481 W/m -2,5 C 0,9 C 9,7 km/h (2 Bft) 100,00 %
13.02.2018 10:59 0,9 C 4,4 C 78 % 1017,6 hPa 0,0 l/m 4,9 km/h (1 Bft) S-SW 199 1 min 0,000 mm 1,0 UV-I 486 W/m -2,5 C 0,9 C 6,4 km/h (2 Bft) 100,00 %
13.02.2018 11:00 1,0 C 4,4 C 78 % 1017,6 hPa 0,0 l/m 5,2 km/h (1 Bft) W-SW 256 1 min 0,127 mm 1,0 UV-I 487 W/m -2,4 C 1,0 C 6,4 km/h (2 Bft) 100,00 %
13.02.2018 11:01 0,9 C 4,4 C 76 % 1017,6 hPa 0,0 l/m 3,2 km/h (1 Bft) W-SW 244 1 min 0,000 mm 1,0 UV-I 487 W/m -2,8 C 0,9 C 6,4 km/h (2 Bft) 100,00 %
13.02.2018 11:02 1,0 C 4,4 C 76 % 1017,6 hPa 0,0 l/m 1,1 km/h (1 Bft) W-SW 245 1 min 0,000 mm 1,0 UV-I 479 W/m -2,7 C 1,0 C 1,6 km/h (1 Bft) 95,65 %
13.02.2018 11:03 1,1 C 4,4 C 76 % 1017,6 hPa 0,0 l/m 1,7 km/h (1 Bft) W 275 1 min 0,000 mm 1,0 UV-I 485 W/m -2,6 C 1,1 C 3,2 km/h (1 Bft) 100,00 %
13.02.2018 11:04 1,1 C 4,4 C 76 % 1017,6 hPa 0,0 l/m 3,6 km/h (1 Bft) NW 324 1 min 0,000 mm 1,0 UV-I 489 W/m -2,6 C 1,1 C 6,4 km/h (2 Bft) 95,65 %
13.02.2018 11:05 1,2 C 4,4 C 76 % 1017,6 hPa 0,0 l/m 2,1 km/h (1 Bft) N 355 1 min 0,000 mm 1,0 UV-I 501 W/m -2,5 C 1,2 C 4,8 km/h (1 Bft) 100,00 %
13.02.2018 11:06 1,1 C 4,4 C 74 % 1017,6 hPa 0,0 l/m 1,9 km/h (1 Bft) NW 311 1 min 0,000 mm 1,1 UV-I 514 W/m -3,0 C 1,1 C 3,2 km/h (1 Bft) 100,00 %
13.02.2018 11:07 1,2 C 4,4 C 75 % 1017,6 hPa 0,0 l/m 3,3 km/h (1 Bft) N-NW 347 1 min 0,000 mm 1,1 UV-I 529 W/m -2,7 C 1,2 C 4,8 km/h (1 Bft) 100,00 %
13.02.2018 11:08 1,2 C 4,4 C 74 % 1017,6 hPa 0,0 l/m 2,1 km/h (1 Bft) W-SW 246 1 min 0,000 mm 1,1 UV-I 537 W/m -2,9 C 1,2 C 4,8 km/h (1 Bft) 100,00 %
13.02.2018 11:09 1,2 C 4,4 C 72 % 1017,6 hPa 0,0 l/m 5,2 km/h (1 Bft) W-SW 254 1 min 0,000 mm 1,1 UV-I 535 W/m -3,3 C 1,2 C 6,4 km/h (2 Bft) 100,00 %
13.02.2018 11:10 1,2 C 4,4 C 73 % 1017,6 hPa 0,0 l/m 5,6 km/h (1 Bft) S-SW 198 1 min 0,000 mm 1,1 UV-I 534 W/m -3,1 C 1,2 C 8,0 km/h (2 Bft) 100,00 %
13.02.2018 11:11 1,3 C 4,4 C 75 % 1017,7 hPa 0,0 l/m 7,3 km/h (2 Bft) W-SW 255 1 min 0,000 mm 1,1 UV-I 540 W/m -2,6 C 0,4 C 11,3 km/h (2 Bft) 100,00 %
13.02.2018 11:12 1,3 C 4,4 C 77 % 1017,6 hPa 0,0 l/m 4,3 km/h (1 Bft) W-SW 256 1 min 0,000 mm 1,1 UV-I 540 W/m -2,3 C 1,3 C 9,7 km/h (2 Bft) 95,65 %
13.02.2018 11:13 1,4 C 4,4 C 77 % 1017,6 hPa 0,0 l/m 5,8 km/h (2 Bft) S-SW 207 1 min 0,000 mm 1,1 UV-I 540 W/m -2,2 C 1,4 C 8,0 km/h (2 Bft) 95,83 %
13.02.2018 11:14 1,4 C 4,4 C 78 % 1017,6 hPa 0,0 l/m 4,1 km/h (1 Bft) S-SO 168 1 min 0,000 mm 1,1 UV-I 536 W/m -2,0 C 1,4 C 6,4 km/h (2 Bft) 95,83 %
13.02.2018 11:15 1,3 C 4,4 C 76 % 1017,6 hPa 0,0 l/m 6,9 km/h (2 Bft) S-SW 209 1 min 0,000 mm 1,0 UV-I 455 W/m -2,5 C 0,8 C 12,9 km/h (3 Bft) 100,00 %
13.02.2018 11:16 1,3 C 4,4 C 77 % 1017,6 hPa 0,0 l/m 10,9 km/h (2 Bft) SW 217 1 min 0,000 mm 1,1 UV-I 489 W/m -2,3 C -2,7 C 14,5 km/h (3 Bft) 95,83 %
13.02.2018 11:17 1,3 C 4,4 C 77 % 1017,6 hPa 0,0 l/m 5,9 km/h (2 Bft) W-SW 252 1 min 0,000 mm 1,1 UV-I 502 W/m -2,3 C 1,3 C 14,5 km/h (3 Bft) 100,00 %
13.02.2018 11:18 1,3 C 4,4 C 76 % 1017,6 hPa 0,0 l/m 8,2 km/h (2 Bft) SW 232 1 min 0,000 mm 1,1 UV-I 500 W/m -2,5 C -0,5 C 14,5 km/h (3 Bft) 95,83 %
13.02.2018 11:19 1,2 C 4,4 C 75 % 1017,6 hPa 0,0 l/m 6,4 km/h (2 Bft) W 267 1 min 0,000 mm 1,0 UV-I 435 W/m -2,7 C 1,2 C 9,7 km/h (2 Bft) 95,65 %
13.02.2018 11:20 1,1 C 4,4 C 76 % 1017,6 hPa 0,0 l/m 7,0 km/h (2 Bft) W 276 1 min 0,000 mm 0,9 UV-I 392 W/m -2,6 C 0,5 C 9,7 km/h (2 Bft) 100,00 %
13.02.2018 11:21 1,1 C 4,4 C 77 % 1017,4 hPa 0,0 l/m 7,8 km/h (2 Bft) NW 311 0 min 0,000 mm 0,9 UV-I 213 W/m -2,5 C -0,3 C 11,3 km/h (2 Bft) 95,65 %
13.02.2018 11:22 0,9 C 4,4 C 76 % 1017,4 hPa 0,0 l/m 2,1 km/h (1 Bft) NW 311 1 min 0,000 mm 1,1 UV-I 341 W/m -2,8 C 0,9 C 3,2 km/h (1 Bft) 100,00 %
13.02.2018 11:23 0,9 C 4,4 C 76 % 1017,5 hPa 0,0 l/m 4,2 km/h (1 Bft) SW 236 1 min 0,000 mm 1,1 UV-I 534 W/m -2,8 C 0,9 C 8,0 km/h (2 Bft) 96,00 %
13.02.2018 11:24 1,0 C 4,4 C 77 % 1017,5 hPa 0,0 l/m 7,3 km/h (2 Bft) SW 236 1 min 0,000 mm 1,1 UV-I 528 W/m -2,6 C 0,1 C 9,7 km/h (2 Bft) 100,00 %
13.02.2018 11:25 1,0 C 4,4 C 76 % 1017,5 hPa 0,0 l/m 7,3 km/h (2 Bft) SW 236 1 min 0,000 mm 1,1 UV-I 526 W/m -2,7 C 0,1 C 9,7 km/h (2 Bft) 95,65 %
13.02.2018 11:26 1,0 C 4,4 C 76 % 1017,5 hPa 0,0 l/m 4,8 km/h (1 Bft) W-SW 248 1 min 0,000 mm 1,1 UV-I 520 W/m -2,7 C 1,0 C 8,0 km/h (2 Bft) 95,83 %
13.02.2018 11:27 1,0 C 4,4 C 76 % 1017,5 hPa 0,0 l/m 2,5 km/h (1 Bft) S-SO 161 1 min 0,000 mm 1,1 UV-I 524 W/m -2,7 C 1,0 C 3,2 km/h (1 Bft) 100,00 %
13.02.2018 11:28 1,2 C 4,4 C 77 % 1017,5 hPa 0,0 l/m 3,1 km/h (1 Bft) S 174 1 min 0,000 mm 1,1 UV-I 541 W/m -2,4 C 1,2 C 4,8 km/h (1 Bft) 96,30 %
13.02.2018 11:29 1,3 C 4,4 C 78 % 1017,5 hPa 0,0 l/m 7,6 km/h (2 Bft) S-SW 194 1 min 0,000 mm 1,0 UV-I 550 W/m -2,1 C 0,1 C 11,3 km/h (2 Bft) 100,00 %
13.02.2018 11:30 1,4 C 4,4 C 75 % 1017,5 hPa 0,0 l/m 6,2 km/h (2 Bft) S-SO 158 1 min 0,000 mm 0,9 UV-I 352 W/m -2,5 C 1,4 C 9,7 km/h (2 Bft) 91,67 %
13.02.2018 11:31 1,3 C 4,4 C 75 % 1017,4 hPa 0,0 l/m 3,4 km/h (1 Bft) SW 219 1 min 0,000 mm 0,9 UV-I 279 W/m -2,6 C 1,3 C 8,0 km/h (2 Bft) 100,00 %
13.02.2018 11:32 1,3 C 4,4 C 75 % 1017,4 hPa 0,0 l/m 4,5 km/h (1 Bft) S-SW 209 1 min 0,000 mm 1,1 UV-I 288 W/m -2,6 C 1,3 C 6,4 km/h (2 Bft) 95,83 %
13.02.2018 11:33 1,4 C 4,4 C 76 % 1017,5 hPa 0,0 l/m 4,5 km/h (1 Bft) SW 221 1 min 0,000 mm 1,1 UV-I 368 W/m -2,4 C 1,4 C 6,4 km/h (2 Bft) 100,00 %
13.02.2018 11:34 1,6 C 4,4 C 77 % 1017,4 hPa 0,0 l/m 6,2 km/h (2 Bft) S-SW 211 1 min 0,000 mm 1,1 UV-I 589 W/m -2,0 C 1,6 C 8,0 km/h (2 Bft) 95,65 %
13.02.2018 11:35 1,6 C 4,4 C 75 % 1017,4 hPa 0,0 l/m 10,5 km/h (2 Bft) SW 236 1 min 0,000 mm 1,1 UV-I 606 W/m -2,3 C -2,1 C 16,1 km/h (3 Bft) 95,83 %
13.02.2018 11:36 1,6 C 4,4 C 75 % 1017,4 hPa 0,0 l/m 12,9 km/h (3 Bft) SW 226 1 min 0,000 mm 1,1 UV-I 614 W/m -2,3 C -3,8 C 16,1 km/h (3 Bft) 100,00 %
13.02.2018 11:37 1,5 C 4,4 C 74 % 1017,4 hPa 0,0 l/m 11,1 km/h (2 Bft) SW 225 1 min 0,000 mm 1,1 UV-I 618 W/m -2,6 C -2,6 C 16,1 km/h (3 Bft) 100,00 %
13.02.2018 11:38 1,4 C 4,4 C 74 % 1017,4 hPa 0,0 l/m 4,0 km/h (1 Bft) S-SW 205 1 min 0,000 mm 1,1 UV-I 622 W/m -2,7 C 1,4 C 8,0 km/h (2 Bft) 100,00 %
13.02.2018 11:39 1,3 C 4,4 C 74 % 1017,3 hPa 0,0 l/m 4,8 km/h (1 Bft) W-SW 258 1 min 0,000 mm 1,1 UV-I 626 W/m -2,8 C 1,3 C 6,4 km/h (2 Bft) 95,83 %
13.02.2018 11:40 1,2 C 4,4 C 74 % 1017,3 hPa 0,0 l/m 6,2 km/h (2 Bft) SW 231 1 min 0,000 mm 1,1 UV-I 632 W/m -2,9 C 1,2 C 11,3 km/h (2 Bft) 100,00 %
13.02.2018 11:41 1,3 C 4,4 C 76 % 1017,3 hPa 0,0 l/m 7,2 km/h (2 Bft) S-SW 207 1 min 0,000 mm 1,1 UV-I 634 W/m -2,5 C 0,5 C 9,7 km/h (2 Bft) 100,00 %
13.02.2018 11:42 1,3 C 4,4 C 76 % 1017,3 hPa 0,0 l/m 7,7 km/h (2 Bft) W-SW 243 1 min 0,000 mm 1,1 UV-I 641 W/m -2,5 C 0,0 C 11,3 km/h (2 Bft) 95,65 %
13.02.2018 11:43 1,5 C 4,4 C 76 % 1017,3 hPa 0,0 l/m 8,0 km/h (2 Bft) SW 229 1 min 0,000 mm 1,1 UV-I 653 W/m -2,3 C -0,1 C 9,7 km/h (2 Bft) 95,83 %
13.02.2018 11:44 1,7 C 4,4 C 76 % 1017,3 hPa 0,0 l/m 8,8 km/h (2 Bft) S-SW 211 1 min 0,000 mm 1,1 UV-I 669 W/m -2,1 C -0,6 C 11,3 km/h (2 Bft) 95,65 %
13.02.2018 11:45 1,8 C 4,4 C 75 % 1017,3 hPa 0,0 l/m 8,6 km/h (2 Bft) S-SO 161 1 min 0,000 mm 1,2 UV-I 675 W/m -2,1 C -0,3 C 11,3 km/h (2 Bft) 100,00 %
13.02.2018 11:46 1,9 C 4,4 C 74 % 1017,2 hPa 0,0 l/m 10,5 km/h (2 Bft) W-SW 243 1 min 0,000 mm 1,2 UV-I 667 W/m -2,2 C -1,7 C 12,9 km/h (3 Bft) 100,00 %
13.02.2018 11:47 1,8 C 4,4 C 71 % 1017,3 hPa 0,0 l/m 7,2 km/h (2 Bft) W-SW 241 1 min 0,000 mm 1,1 UV-I 659 W/m -2,9 C 1,0 C 11,3 km/h (2 Bft) 100,00 %
13.02.2018 11:48 1,8 C 4,4 C 71 % 1017,2 hPa 0,0 l/m 4,4 km/h (1 Bft) S 191 1 min 0,000 mm 1,1 UV-I 654 W/m -2,9 C 1,8 C 6,4 km/h (2 Bft) 100,00 %
13.02.2018 11:49 1,7 C 4,4 C 71 % 1017,2 hPa 0,0 l/m 5,0 km/h (1 Bft) S-SW 202 1 min 0,000 mm 1,1 UV-I 662 W/m -3,0 C 1,7 C 8,0 km/h (2 Bft) 100,00 %
13.02.2018 11:50 1,8 C 4,4 C 74 % 1017,2 hPa 0,0 l/m 5,3 km/h (1 Bft) S-SW 211 1 min 0,000 mm 1,1 UV-I 664 W/m -2,3 C 1,8 C 11,3 km/h (2 Bft) 100,00 %
13.02.2018 11:51 1,9 C 4,4 C 73 % 1017,2 hPa 0,0 l/m 9,7 km/h (2 Bft) SW 227 1 min 0,000 mm 0,9 UV-I 543 W/m -2,4 C -1,1 C 12,9 km/h (3 Bft) 100,00 %
13.02.2018 11:52 1,8 C 4,4 C 72 % 1017,2 hPa 0,0 l/m 5,3 km/h (1 Bft) SW 225 1 min 0,000 mm 0,9 UV-I 299 W/m -2,7 C 1,8 C 8,0 km/h (2 Bft) 100,00 %
13.02.2018 11:53 1,8 C 4,4 C 71 % 1017,1 hPa 0,0 l/m 9,4 km/h (2 Bft) W-SW 244 1 min 0,000 mm 0,8 UV-I 284 W/m -2,9 C -1,0 C 16,1 km/h (3 Bft) 95,83 %
13.02.2018 11:54 1,7 C 4,4 C 72 % 1017,2 hPa 0,0 l/m 13,3 km/h (3 Bft) W-SW 237 1 min 0,000 mm 0,8 UV-I 278 W/m -2,8 C -3,9 C 16,1 km/h (3 Bft) 100,00 %
13.02.2018 11:55 1,7 C 4,4 C 71 % 1017,2 hPa 0,0 l/m 11,2 km/h (2 Bft) SW 223 1 min 0,000 mm 0,9 UV-I 304 W/m -3,0 C -2,5 C 14,5 km/h (3 Bft) 100,00 %
13.02.2018 11:56 1,6 C 4,4 C 71 % 1017,2 hPa 0,0 l/m 7,1 km/h (2 Bft) SW 227 1 min 0,000 mm 1,0 UV-I 376 W/m -3,1 C 0,9 C 9,7 km/h (2 Bft) 91,30 %
13.02.2018 11:57 1,6 C 4,4 C 72 % 1017,1 hPa 0,0 l/m 5,8 km/h (2 Bft) W-SW 246 1 min 0,000 mm 1,0 UV-I 585 W/m -2,9 C 1,6 C 8,0 km/h (2 Bft) 100,00 %
13.02.2018 11:58 1,8 C 4,4 C 73 % 1017,1 hPa 0,0 l/m 7,7 km/h (2 Bft) SW 218 1 min 0,000 mm 0,9 UV-I 585 W/m -2,5 C 0,5 C 11,3 km/h (2 Bft) 100,00 %
13.02.2018 11:59 1,9 C 4,4 C 73 % 1017,1 hPa 0,0 l/m 10,3 km/h (2 Bft) W-SW 243 1 min 0,000 mm 1,0 UV-I 606 W/m -2,4 C -1,6 C 14,5 km/h (3 Bft) 100,00 %
13.02.2018 12:00 1,9 C 4,4 C 72 % 1017,1 hPa 0,0 l/m 8,3 km/h (2 Bft) NW 313 1 min 0,000 mm 0,9 UV-I 617 W/m -2,6 C 0,1 C 11,3 km/h (2 Bft) 100,00 %
13.02.2018 12:01 1,7 C 4,4 C 71 % 1017,1 hPa 0,0 l/m 2,6 km/h (1 Bft) W-NW 296 1 min 0,177 mm 0,8 UV-I 284 W/m -3,0 C 1,7 C 6,4 km/h (2 Bft) 95,83 %
13.02.2018 12:02 1,7 C 4,4 C 72 % 1017,1 hPa 0,0 l/m 5,1 km/h (1 Bft) S-SW 200 0 min 0,000 mm 0,8 UV-I 243 W/m -2,8 C 1,7 C 8,0 km/h (2 Bft) 100,00 %
13.02.2018 12:03 1,7 C 4,4 C 73 % 1017,0 hPa 0,0 l/m 7,2 km/h (2 Bft) SW 214 0 min 0,000 mm 0,7 UV-I 209 W/m -2,6 C 0,9 C 11,3 km/h (2 Bft) 100,00 %
13.02.2018 12:04 1,6 C 4,4 C 74 % 1017,0 hPa 0,0 l/m 7,0 km/h (2 Bft) SW 220 0 min 0,000 mm 0,7 UV-I 184 W/m -2,5 C 1,0 C 11,3 km/h (2 Bft) 100,00 %
13.02.2018 12:05 1,6 C 4,4 C 73 % 1017,0 hPa 0,0 l/m 6,7 km/h (2 Bft) SW 225 0 min 0,000 mm 0,7 UV-I 166 W/m -2,7 C 1,3 C 9,7 km/h (2 Bft) 100,00 %
13.02.2018 12:06 1,6 C 4,4 C 74 % 1017,0 hPa 0,0 l/m 4,8 km/h (1 Bft) SW 220 0 min 0,000 mm 0,7 UV-I 153 W/m -2,5 C 1,6 C 6,4 km/h (2 Bft) 100,00 %
13.02.2018 12:07 1,5 C 4,4 C 75 % 1017,0 hPa 0,0 l/m 8,2 km/h (2 Bft) SW 227 0 min 0,000 mm 0,7 UV-I 141 W/m -2,4 C -0,3 C 11,3 km/h (2 Bft) 100,00 %
13.02.2018 12:08 1,4 C 4,4 C 74 % 1017,0 hPa 0,0 l/m 8,0 km/h (2 Bft) SW 217 0 min 0,000 mm 0,7 UV-I 130 W/m -2,7 C -0,2 C 9,7 km/h (2 Bft) 100,00 %
13.02.2018 12:09 1,4 C 4,4 C 74 % 1017,0 hPa 0,0 l/m 7,7 km/h (2 Bft) S-SW 207 0 min 0,000 mm 0,7 UV-I 123 W/m -2,7 C 0,1 C 9,7 km/h (2 Bft) 100,00 %
13.02.2018 12:10 1,3 C 4,4 C 74 % 1016,9 hPa 0,0 l/m 7,0 km/h (2 Bft) S-SW 208 0 min 0,000 mm 0,7 UV-I 117 W/m -2,8 C 0,7 C 9,7 km/h (2 Bft) 95,65 %
13.02.2018 12:11 1,2 C 4,4 C 74 % 1016,9 hPa 0,0 l/m 5,6 km/h (1 Bft) S-SW 202 0 min 0,000 mm 0,7 UV-I 113 W/m -2,9 C 1,2 C 9,7 km/h (2 Bft) 100,00 %
13.02.2018 12:12 1,0 C 4,4 C 73 % 1016,9 hPa 0,0 l/m 4,6 km/h (1 Bft) SW 215 0 min 0,000 mm 0,7 UV-I 113 W/m -3,3 C 1,0 C 8,0 km/h (2 Bft) 100,00 %
13.02.2018 12:13 0,9 C 4,4 C 74 % 1016,9 hPa 0,0 l/m 3,1 km/h (1 Bft) S-SO 163 0 min 0,000 mm 0,7 UV-I 115 W/m -3,2 C 0,9 C 6,4 km/h (2 Bft) 96,30 %
13.02.2018 12:14 0,9 C 4,4 C 75 % 1016,9 hPa 0,0 l/m 6,4 km/h (2 Bft) W-SW 256 0 min 0,000 mm 0,7 UV-I 119 W/m -3,0 C 0,9 C 9,7 km/h (2 Bft) 100,00 %
13.02.2018 12:15 0,8 C 4,4 C 75 % 1016,9 hPa 0,0 l/m 6,8 km/h (2 Bft) S-SW 198 0 min 0,000 mm 0,7 UV-I 125 W/m -3,1 C 0,4 C 8,0 km/h (2 Bft) 100,00 %
13.02.2018 12:16 0,9 C 4,4 C 76 % 1016,9 hPa 0,0 l/m 5,6 km/h (1 Bft) S-SW 208 0 min 0,000 mm 0,8 UV-I 128 W/m -2,8 C 0,9 C 9,7 km/h (2 Bft) 100,00 %
13.02.2018 12:17 0,9 C 4,4 C 76 % 1016,9 hPa 0,0 l/m 4,2 km/h (1 Bft) S-SW 204 0 min 0,000 mm 0,8 UV-I 130 W/m -2,8 C 0,9 C 6,4 km/h (2 Bft) 100,00 %
13.02.2018 12:18 0,8 C 4,4 C 75 % 1016,8 hPa 0,0 l/m 4,3 km/h (1 Bft) SW 228 0 min 0,000 mm 0,8 UV-I 130 W/m -3,1 C 0,8 C 6,4 km/h (2 Bft) 96,15 %
13.02.2018 12:19 0,8 C 4,4 C 76 % 1016,8 hPa 0,0 l/m 3,5 km/h (1 Bft) S-SW 204 0 min 0,000 mm 0,8 UV-I 136 W/m -2,9 C 0,8 C 6,4 km/h (2 Bft) 100,00 %
13.02.2018 12:20 0,8 C 4,4 C 75 % 1016,8 hPa 0,0 l/m 5,6 km/h (1 Bft) S-SW 202 0 min 0,000 mm 0,8 UV-I 144 W/m -3,1 C 0,8 C 8,0 km/h (2 Bft) 100,00 %
13.02.2018 12:21 0,9 C 4,4 C 76 % 1016,8 hPa 0,0 l/m 3,5 km/h (1 Bft) SW 229 0 min 0,000 mm 0,8 UV-I 160 W/m -2,8 C 0,9 C 6,4 km/h (2 Bft) 100,00 %
13.02.2018 12:22 0,9 C 4,4 C 75 % 1016,8 hPa 0,0 l/m 4,8 km/h (1 Bft) SW 229 0 min 0,000 mm 0,9 UV-I 167 W/m -3,0 C 0,9 C 6,4 km/h (2 Bft) 95,65 %
13.02.2018 12:23 1,0 C 4,4 C 77 % 1016,7 hPa 0,0 l/m 4,6 km/h (1 Bft) W-SW 257 0 min 0,000 mm 1,1 UV-I 167 W/m -2,6 C 1,0 C 6,4 km/h (2 Bft) 94,12 %
13.02.2018 12:24 1,1 C 4,4 C 76 % 1016,7 hPa 0,0 l/m 6,1 km/h (2 Bft) W 260 1 min 0,000 mm 0,9 UV-I 318 W/m -2,6 C 1,1 C 11,3 km/h (2 Bft) 100,00 %
13.02.2018 12:25 1,2 C 4,4 C 75 % 1016,7 hPa 0,0 l/m 7,9 km/h (2 Bft) W-SW 243 1 min 0,000 mm 0,9 UV-I 287 W/m -2,7 C -0,3 C 11,3 km/h (2 Bft) 95,65 %
13.02.2018 12:26 1,2 C 4,4 C 73 % 1016,7 hPa 0,0 l/m 4,7 km/h (1 Bft) W-SW 248 1 min 0,000 mm 0,9 UV-I 268 W/m -3,1 C 1,2 C 6,4 km/h (2 Bft) 95,83 %
13.02.2018 12:27 1,2 C 4,4 C 72 % 1016,7 hPa 0,0 l/m 3,8 km/h (1 Bft) W-SW 250 0 min 0,000 mm 1,0 UV-I 229 W/m -3,3 C 1,2 C 6,4 km/h (2 Bft) 95,65 %
13.02.2018 12:28 1,2 C 4,4 C 71 % 1016,6 hPa 0,0 l/m 1,7 km/h (1 Bft) W-SW 237 1 min 0,000 mm 1,1 UV-I 400 W/m -3,5 C 1,2 C 3,2 km/h (1 Bft) 100,00 %
13.02.2018 12:29 1,3 C 4,4 C 72 % 1016,6 hPa 0,0 l/m 4,0 km/h (1 Bft) S 190 1 min 0,000 mm 0,9 UV-I 503 W/m -3,2 C 1,3 C 6,4 km/h (2 Bft) 100,00 %
13.02.2018 12:30 1,3 C 4,4 C 72 % 1016,6 hPa 0,0 l/m 4,1 km/h (1 Bft) S 188 0 min 0,000 mm 0,9 UV-I 217 W/m -3,2 C 1,3 C 6,4 km/h (2 Bft) 100,00 %
13.02.2018 12:31 1,3 C 4,4 C 70 % 1016,5 hPa 0,0 l/m 3,4 km/h (1 Bft) S 169 0 min 0,000 mm 1,0 UV-I 237 W/m -3,6 C 1,3 C 6,4 km/h (2 Bft) 91,30 %
13.02.2018 12:32 1,2 C 4,4 C 68 % 1016,4 hPa 0,0 l/m 2,5 km/h (1 Bft) S-SO 147 0 min 0,000 mm 1,0 UV-I 237 W/m -4,0 C 1,2 C 6,4 km/h (2 Bft) 100,00 %
13.02.2018 12:33 1,1 C 4,4 C 68 % 1016,5 hPa 0,0 l/m 1,8 km/h (1 Bft) W-NW 285 0 min 0,000 mm 1,0 UV-I 206 W/m -4,1 C 1,1 C 3,2 km/h (1 Bft) 95,65 %
13.02.2018 12:34 1,2 C 4,4 C 69 % 1016,5 hPa 0,0 l/m 4,5 km/h (1 Bft) SW 236 0 min 0,000 mm 0,9 UV-I 165 W/m -3,8 C 1,2 C 8,0 km/h (2 Bft) 100,00 %
13.02.2018 12:35 1,2 C 4,4 C 68 % 1016,5 hPa 0,0 l/m 7,2 km/h (2 Bft) S-SW 200 0 min 0,000 mm 0,9 UV-I 159 W/m -4,0 C 0,4 C 8,0 km/h (2 Bft) 91,30 %
13.02.2018 12:36 1,2 C 4,4 C 69 % 1016,4 hPa 0,0 l/m 6,0 km/h (2 Bft) SW 236 0 min 0,000 mm 0,9 UV-I 157 W/m -3,8 C 1,2 C 8,0 km/h (2 Bft) 95,83 %
13.02.2018 12:37 1,2 C 4,4 C 69 % 1016,5 hPa 0,0 l/m 4,6 km/h (1 Bft) S 173 0 min 0,000 mm 0,9 UV-I 163 W/m -3,8 C 1,2 C 6,4 km/h (2 Bft) 95,65 %
13.02.2018 12:38 1,1 C 4,4 C 67 % 1016,4 hPa 0,0 l/m 4,7 km/h (1 Bft) S-SW 207 0 min 0,000 mm 0,9 UV-I 173 W/m -4,3 C 1,1 C 6,4 km/h (2 Bft) 95,83 %
13.02.2018 12:39 1,1 C 4,4 C 68 % 1016,4 hPa 0,0 l/m 2,5 km/h (1 Bft) S-SW 207 0 min 0,000 mm 0,9 UV-I 216 W/m -4,1 C 1,1 C 4,8 km/h (1 Bft) 100,00 %
13.02.2018 12:40 1,1 C 4,4 C 69 % 1016,4 hPa 0,0 l/m 2,9 km/h (1 Bft) W 277 1 min 0,000 mm 1,0 UV-I 282 W/m -3,9 C 1,1 C 4,8 km/h (1 Bft) 95,83 %
13.02.2018 12:41 1,2 C 4,4 C 70 % 1016,4 hPa 0,0 l/m 4,1 km/h (1 Bft) W 277 1 min 0,000 mm 1,0 UV-I 298 W/m -3,7 C 1,2 C 6,4 km/h (2 Bft) 100,00 %
13.02.2018 12:42 1,3 C 4,4 C 69 % 1016,4 hPa 0,0 l/m 6,0 km/h (2 Bft) W 259 1 min 0,000 mm 1,1 UV-I 319 W/m -3,7 C 1,3 C 9,7 km/h (2 Bft) 95,65 %
13.02.2018 12:43 1,4 C 4,4 C 67 % 1016,4 hPa 0,0 l/m 4,2 km/h (1 Bft) W 259 1 min 0,000 mm 1,2 UV-I 559 W/m -4,0 C 1,4 C 6,4 km/h (2 Bft) 95,83 %
13.02.2018 12:44 1,4 C 4,4 C 66 % 1016,4 hPa 0,0 l/m 4,0 km/h (1 Bft) W 263 1 min 0,000 mm 1,2 UV-I 565 W/m -4,2 C 1,4 C 6,4 km/h (2 Bft) 91,30 %
13.02.2018 12:45 1,5 C 4,4 C 66 % 1016,3 hPa 0,0 l/m 4,4 km/h (1 Bft) W-SW 244 1 min 0,000 mm 1,2 UV-I 568 W/m -4,1 C 1,5 C 6,4 km/h (2 Bft) 95,83 %
13.02.2018 12:46 1,6 C 4,4 C 66 % 1016,3 hPa 0,0 l/m 5,7 km/h (1 Bft) S-SO 168 1 min 0,000 mm 1,2 UV-I 575 W/m -4,1 C 1,6 C 9,7 km/h (2 Bft) 100,00 %
13.02.2018 12:47 1,7 C 4,4 C 67 % 1016,3 hPa 0,0 l/m 5,2 km/h (1 Bft) W-NW 296 1 min 0,000 mm 1,2 UV-I 570 W/m -3,8 C 1,7 C 11,3 km/h (2 Bft) 95,83 %
13.02.2018 12:48 1,8 C 4,4 C 67 % 1016,3 hPa 0,0 l/m 3,4 km/h (1 Bft) W-NW 302 1 min 0,000 mm 1,0 UV-I 487 W/m -3,7 C 1,8 C 9,7 km/h (2 Bft) 100,00 %
13.02.2018 12:49 1,8 C 4,4 C 65 % 1016,3 hPa 0,0 l/m 1,0 km/h (0 Bft) W-NW 302 1 min 0,000 mm 0,9 UV-I 427 W/m -4,1 C 1,8 C 1,6 km/h (1 Bft) 96,30 %
13.02.2018 12:50 1,7 C 4,4 C 65 % 1016,3 hPa 0,0 l/m 4,0 km/h (1 Bft) SW 229 0 min 0,000 mm 0,9 UV-I 188 W/m -4,2 C 1,7 C 6,4 km/h (2 Bft) 95,65 %
13.02.2018 12:51 1,6 C 4,4 C 66 % 1016,2 hPa 0,0 l/m 3,1 km/h (1 Bft) S-SW 194 0 min 0,000 mm 0,9 UV-I 190 W/m -4,1 C 1,6 C 6,4 km/h (2 Bft) 95,83 %
13.02.2018 12:52 1,6 C 4,4 C 65 % 1016,3 hPa 0,0 l/m 7,2 km/h (2 Bft) SW 227 0 min 0,000 mm 0,9 UV-I 189 W/m -4,3 C 0,8 C 9,7 km/h (2 Bft) 91,30 %
13.02.2018 12:53 1,6 C 4,4 C 65 % 1016,2 hPa 0,0 l/m 5,6 km/h (1 Bft) W-SW 244 0 min 0,000 mm 0,9 UV-I 190 W/m -4,3 C 1,6 C 8,0 km/h (2 Bft) 95,83 %
13.02.2018 12:54 1,5 C 4,4 C 65 % 1016,2 hPa 0,0 l/m 3,6 km/h (1 Bft) SW 224 0 min 0,000 mm 0,9 UV-I 198 W/m -4,3 C 1,5 C 4,8 km/h (1 Bft) 95,65 %
13.02.2018 12:55 1,4 C 4,4 C 66 % 1016,2 hPa 0,0 l/m 2,6 km/h (1 Bft) S 187 0 min 0,000 mm 0,9 UV-I 213 W/m -4,2 C 1,4 C 4,8 km/h (1 Bft) 95,83 %
13.02.2018 12:56 1,4 C 4,4 C 66 % 1016,2 hPa 0,0 l/m 3,4 km/h (1 Bft) S 187 0 min 0,000 mm 0,9 UV-I 234 W/m -4,2 C 1,4 C 4,8 km/h (1 Bft) 95,83 %
13.02.2018 12:57 1,4 C 4,4 C 67 % 1016,2 hPa 0,0 l/m 3,9 km/h (1 Bft) S-SW 192 0 min 0,000 mm 0,9 UV-I 251 W/m -4,0 C 1,4 C 6,4 km/h (2 Bft) 92,31 %
13.02.2018 12:58 1,4 C 4,4 C 67 % 1016,1 hPa 0,0 l/m 5,4 km/h (1 Bft) W-SW 240 1 min 0,000 mm 0,9 UV-I 266 W/m -4,0 C 1,4 C 9,7 km/h (2 Bft) 100,00 %
13.02.2018 12:59 1,5 C 4,4 C 66 % 1016,1 hPa 0,0 l/m 5,3 km/h (1 Bft) W-SW 237 1 min 0,000 mm 1,0 UV-I 294 W/m -4,1 C 1,5 C 8,0 km/h (2 Bft) 100,00 %
13.02.2018 13:00 1,5 C 4,4 C 66 % 1016,1 hPa 0,0 l/m 3,2 km/h (1 Bft) W-SW 237 1 min 0,102 mm 1,0 UV-I 297 W/m -4,1 C 1,5 C 4,8 km/h (1 Bft) 100,00 %
13.02.2018 13:01 1,5 C 4,4 C 66 % 1016,1 hPa 0,0 l/m 6,0 km/h (2 Bft) W-SW 244 1 min 0,000 mm 1,0 UV-I 297 W/m -4,1 C 1,5 C 8,0 km/h (2 Bft) 100,00 %
13.02.2018 13:02 1,5 C 4,4 C 66 % 1016,1 hPa 0,0 l/m 4,3 km/h (1 Bft) W-SW 244 1 min 0,000 mm 0,9 UV-I 299 W/m -4,1 C 1,5 C 4,8 km/h (1 Bft) 100,00 %
13.02.2018 13:03 1,5 C 4,4 C 65 % 1016,1 hPa 0,0 l/m 2,9 km/h (1 Bft) W-SW 244 1 min 0,000 mm 0,9 UV-I 305 W/m -4,3 C 1,5 C 4,8 km/h (1 Bft) 96,15 %
13.02.2018 13:04 1,5 C 4,4 C 66 % 1016,0 hPa 0,0 l/m 1,3 km/h (1 Bft) W-SW 244 1 min 0,000 mm 0,9 UV-I 302 W/m -4,1 C 1,5 C 3,2 km/h (1 Bft) 95,65 %
13.02.2018 13:05 1,5 C 4,4 C 66 % 1016,0 hPa 0,0 l/m 5,9 km/h (2 Bft) W-SW 257 1 min 0,000 mm 0,9 UV-I 304 W/m -4,1 C 1,5 C 12,9 km/h (3 Bft) 100,00 %
13.02.2018 13:06 1,5 C 4,4 C 64 % 1016,0 hPa 0,0 l/m 3,8 km/h (1 Bft) W-SW 256 1 min 0,000 mm 0,9 UV-I 309 W/m -4,6 C 1,5 C 6,4 km/h (2 Bft) 100,00 %
13.02.2018 13:07 1,4 C 4,4 C 63 % 1016,0 hPa 0,0 l/m 6,6 km/h (2 Bft) W 276 1 min 0,000 mm 0,9 UV-I 313 W/m -4,9 C 1,2 C 9,7 km/h (2 Bft) 100,00 %
13.02.2018 13:08 1,4 C 4,4 C 64 % 1016,0 hPa 0,0 l/m 4,7 km/h (1 Bft) W-SW 256 1 min 0,000 mm 0,9 UV-I 341 W/m -4,6 C 1,4 C 6,4 km/h (2 Bft) 100,00 %
13.02.2018 13:09 1,4 C 4,4 C 65 % 1015,9 hPa 0,0 l/m 1,0 km/h (0 Bft) W-SW 256 1 min 0,000 mm 1,0 UV-I 347 W/m -4,4 C 1,4 C 3,2 km/h (1 Bft) 100,00 %
13.02.2018 13:10 1,4 C 4,4 C 65 % 1015,9 hPa 0,0 l/m 3,5 km/h (1 Bft) W-SW 256 1 min 0,000 mm 0,9 UV-I 330 W/m -4,4 C 1,4 C 9,7 km/h (2 Bft) 100,00 %
13.02.2018 13:11 1,4 C 4,4 C 67 % 1015,9 hPa 0,0 l/m 8,8 km/h (2 Bft) SW 232 1 min 0,000 mm 0,9 UV-I 334 W/m -4,0 C -0,9 C 12,9 km/h (3 Bft) 100,00 %
13.02.2018 13:12 1,6 C 4,4 C 68 % 1015,9 hPa 0,0 l/m 8,6 km/h (2 Bft) W-SW 240 1 min 0,000 mm 0,9 UV-I 336 W/m -3,7 C -0,5 C 11,3 km/h (2 Bft) 100,00 %
13.02.2018 13:13 1,6 C 4,4 C 67 % 1015,9 hPa 0,0 l/m 5,5 km/h (1 Bft) W-SW 247 1 min 0,000 mm 0,8 UV-I 339 W/m -3,9 C 1,6 C 8,0 km/h (2 Bft) 100,00 %
13.02.2018 13:14 1,6 C 4,4 C 66 % 1015,9 hPa 0,0 l/m 3,9 km/h (1 Bft) W 260 1 min 0,000 mm 0,8 UV-I 346 W/m -4,1 C 1,6 C 4,8 km/h (1 Bft) 100,00 %
13.02.2018 13:15 1,7 C 4,4 C 69 % 1015,9 hPa 0,0 l/m 4,9 km/h (1 Bft) S-SW 198 1 min 0,000 mm 0,8 UV-I 321 W/m -3,4 C 1,7 C 8,0 km/h (2 Bft) 100,00 %
13.02.2018 13:16 1,7 C 4,4 C 67 % 1015,8 hPa 0,0 l/m 1,2 km/h (1 Bft) S-SW 198 1 min 0,000 mm 0,7 UV-I 288 W/m -3,8 C 1,7 C 4,8 km/h (1 Bft) 100,00 %
13.02.2018 13:17 1,7 C 4,4 C 67 % 1015,8 hPa 0,0 l/m 1,0 km/h (0 Bft) S-SW 198 1 min 0,000 mm 0,7 UV-I 264 W/m -3,8 C 1,7 C 1,6 km/h (1 Bft) 100,00 %
13.02.2018 13:18 1,8 C 4,4 C 68 % 1015,8 hPa 0,0 l/m 4,4 km/h (1 Bft) W 269 0 min 0,000 mm 0,7 UV-I 245 W/m -3,5 C 1,8 C 6,4 km/h (2 Bft) 100,00 %
13.02.2018 13:19 1,8 C 4,4 C 68 % 1015,8 hPa 0,0 l/m 6,4 km/h (2 Bft) W-SW 238 0 min 0,000 mm 0,6 UV-I 230 W/m -3,5 C 1,8 C 9,7 km/h (2 Bft) 100,00 %
13.02.2018 13:20 1,7 C 4,4 C 67 % 1015,8 hPa 0,0 l/m 6,2 km/h (2 Bft) W-SW 241 0 min 0,000 mm 0,6 UV-I 216 W/m -3,8 C 1,7 C 8,0 km/h (2 Bft) 100,00 %
13.02.2018 13:21 1,8 C 4,4 C 68 % 1015,7 hPa 0,0 l/m 1,6 km/h (1 Bft) W-SW 242 0 min 0,000 mm 0,6 UV-I 203 W/m -3,5 C 1,8 C 3,2 km/h (1 Bft) 100,00 %
13.02.2018 13:22 1,8 C 4,4 C 68 % 1015,7 hPa 0,0 l/m 1,0 km/h (0 Bft) W-SW 242 0 min 0,000 mm 0,6 UV-I 194 W/m -3,5 C 1,8 C 1,6 km/h (1 Bft) 95,65 %
13.02.2018 13:23 1,8 C 4,4 C 67 % 1015,8 hPa 0,0 l/m 5,4 km/h (1 Bft) W-SW 257 0 min 0,000 mm 0,5 UV-I 186 W/m -3,7 C 1,8 C 8,0 km/h (2 Bft) 100,00 %
13.02.2018 13:24 1,7 C 4,4 C 67 % 1015,8 hPa 0,0 l/m 2,7 km/h (1 Bft) W-SW 255 0 min 0,000 mm 0,5 UV-I 177 W/m -3,8 C 1,7 C 4,8 km/h (1 Bft) 100,00 %
13.02.2018 13:25 1,7 C 4,4 C 68 % 1015,7 hPa 0,0 l/m 5,6 km/h (1 Bft) SW 236 0 min 0,000 mm 0,5 UV-I 172 W/m -3,6 C 1,7 C 8,0 km/h (2 Bft) 95,83 %
13.02.2018 13:26 1,7 C 4,4 C 69 % 1015,7 hPa 0,0 l/m 5,2 km/h (1 Bft) S-SW 207 0 min 0,000 mm 0,5 UV-I 170 W/m -3,4 C 1,7 C 8,0 km/h (2 Bft) 95,65 %
13.02.2018 13:27 1,6 C 4,4 C 68 % 1015,7 hPa 0,0 l/m 2,9 km/h (1 Bft) S-SW 207 0 min 0,000 mm 0,5 UV-I 168 W/m -3,7 C 1,6 C 4,8 km/h (1 Bft) 100,00 %
13.02.2018 13:28 1,6 C 4,4 C 69 % 1015,6 hPa 0,0 l/m 6,3 km/h (2 Bft) SW 233 0 min 0,000 mm 0,5 UV-I 167 W/m -3,5 C 1,6 C 9,7 km/h (2 Bft) 100,00 %
13.02.2018 13:29 1,5 C 4,4 C 69 % 1015,6 hPa 0,0 l/m 6,0 km/h (2 Bft) SW 220 0 min 0,000 mm 0,5 UV-I 169 W/m -3,6 C 1,5 C 9,7 km/h (2 Bft) 100,00 %
13.02.2018 13:30 1,5 C 4,4 C 69 % 1015,6 hPa 0,0 l/m 4,5 km/h (1 Bft) S-SW 200 0 min 0,000 mm 0,5 UV-I 169 W/m -3,6 C 1,5 C 6,4 km/h (2 Bft) 100,00 %
13.02.2018 13:31 1,4 C 4,4 C 68 % 1015,6 hPa 0,0 l/m 4,5 km/h (1 Bft) SW 233 0 min 0,000 mm 0,5 UV-I 170 W/m -3,8 C 1,4 C 4,8 km/h (1 Bft) 100,00 %
13.02.2018 13:32 1,4 C 4,4 C 68 % 1015,6 hPa 0,0 l/m 2,7 km/h (1 Bft) SW 222 0 min 0,000 mm 0,5 UV-I 171 W/m -3,8 C 1,4 C 3,2 km/h (1 Bft) 95,83 %
13.02.2018 13:33 1,3 C 4,4 C 69 % 1015,6 hPa 0,0 l/m 3,6 km/h (1 Bft) W-SW 244 0 min 0,000 mm 0,5 UV-I 170 W/m -3,7 C 1,3 C 6,4 km/h (2 Bft) 100,00 %
13.02.2018 13:34 1,4 C 4,4 C 69 % 1015,6 hPa 0,0 l/m 3,4 km/h (1 Bft) W 276 0 min 0,000 mm 0,5 UV-I 171 W/m -3,7 C 1,4 C 4,8 km/h (1 Bft) 95,83 %
13.02.2018 13:35 1,4 C 4,4 C 68 % 1015,6 hPa 0,0 l/m 4,3 km/h (1 Bft) W-NW 287 0 min 0,000 mm 0,5 UV-I 171 W/m -3,8 C 1,4 C 6,4 km/h (2 Bft) 92,31 %
13.02.2018 13:36 1,5 C 4,4 C 68 % 1015,6 hPa 0,0 l/m 1,7 km/h (1 Bft) W-NW 286 0 min 0,000 mm 0,5 UV-I 168 W/m -3,7 C 1,5 C 3,2 km/h (1 Bft) 100,00 %
13.02.2018 13:37 1,6 C 4,4 C 70 % 1015,5 hPa 0,0 l/m 2,1 km/h (1 Bft) W 279 0 min 0,000 mm 0,5 UV-I 164 W/m -3,3 C 1,6 C 3,2 km/h (1 Bft) 95,65 %
13.02.2018 13:38 1,6 C 4,4 C 68 % 1015,5 hPa 0,0 l/m 3,0 km/h (1 Bft) W 277 0 min 0,000 mm 0,5 UV-I 161 W/m -3,7 C 1,6 C 4,8 km/h (1 Bft) 95,83 %
13.02.2018 13:39 1,6 C 4,4 C 67 % 1015,5 hPa 0,0 l/m 2,5 km/h (1 Bft) W 277 0 min 0,000 mm 0,5 UV-I 157 W/m -3,9 C 1,6 C 3,2 km/h (1 Bft) 100,00 %
13.02.2018 13:40 1,6 C 4,4 C 68 % 1015,5 hPa 0,0 l/m 2,3 km/h (1 Bft) W 280 0 min 0,000 mm 0,5 UV-I 153 W/m -3,7 C 1,6 C 4,8 km/h (1 Bft) 100,00 %
13.02.2018 13:41 1,6 C 4,4 C 68 % 1015,4 hPa 0,0 l/m 3,8 km/h (1 Bft) N-NW 330 0 min 0,000 mm 0,5 UV-I 149 W/m -3,7 C 1,6 C 6,4 km/h (2 Bft) 95,65 %
13.02.2018 13:42 1,6 C 4,4 C 67 % 1015,4 hPa 0,0 l/m 2,2 km/h (1 Bft) N-NW 329 0 min 0,000 mm 0,5 UV-I 147 W/m -3,9 C 1,6 C 4,8 km/h (1 Bft) 100,00 %
13.02.2018 13:43 1,6 C 4,4 C 67 % 1015,4 hPa 0,0 l/m 0,0 km/h (0 Bft) N-NW 329 0 min 0,000 mm 0,4 UV-I 142 W/m -3,9 C 1,6 C 0,0 km/h (0 Bft) 96,15 %
13.02.2018 13:44 1,6 C 4,4 C 68 % 1015,4 hPa 0,0 l/m 0,0 km/h (0 Bft) N-NW 329 0 min 0,000 mm 0,0 UV-I 139 W/m -3,7 C 1,6 C 0,0 km/h (0 Bft) 95,83 %
13.02.2018 13:45 1,6 C 4,4 C 69 % 1015,4 hPa 0,0 l/m 0,3 km/h (0 Bft) N-NW 329 0 min 0,000 mm 0,0 UV-I 135 W/m -3,5 C 1,6 C 3,2 km/h (1 Bft) 100,00 %
13.02.2018 13:46 1,6 C 4,4 C 68 % 1015,4 hPa 0,0 l/m 1,9 km/h (1 Bft) N-NW 329 0 min 0,000 mm 0,0 UV-I 130 W/m -3,7 C 1,6 C 3,2 km/h (1 Bft) 100,00 %
13.02.2018 13:47 1,6 C 4,4 C 68 % 1015,4 hPa 0,0 l/m 0,8 km/h (0 Bft) N-NW 329 0 min 0,000 mm 0,0 UV-I 128 W/m -3,7 C 1,6 C 1,6 km/h (1 Bft) 100,00 %
13.02.2018 13:48 1,5 C 4,4 C 68 % 1015,4 hPa 0,0 l/m 1,1 km/h (1 Bft) N-NW 329 0 min 0,000 mm 0,0 UV-I 126 W/m -3,7 C 1,5 C 3,2 km/h (1 Bft) 100,00 %
13.02.2018 13:49 1,5 C 4,4 C 69 % 1015,4 hPa 0,0 l/m 1,7 km/h (1 Bft) SO 145 0 min 0,000 mm 0,0 UV-I 125 W/m -3,6 C 1,5 C 4,8 km/h (1 Bft) 100,00 %
13.02.2018 13:50 1,4 C 4,4 C 69 % 1015,4 hPa 0,0 l/m 3,4 km/h (1 Bft) SO 134 0 min 0,000 mm 0,0 UV-I 124 W/m -3,7 C 1,4 C 4,8 km/h (1 Bft) 100,00 %
13.02.2018 13:51 1,4 C 4,4 C 68 % 1015,4 hPa 0,0 l/m 4,7 km/h (1 Bft) O-SO 112 0 min 0,000 mm 0,0 UV-I 123 W/m -3,8 C 1,4 C 6,4 km/h (2 Bft) 100,00 %
13.02.2018 13:52 1,4 C 4,4 C 67 % 1015,4 hPa 0,0 l/m 4,4 km/h (1 Bft) O-SO 112 0 min 0,000 mm 0,0 UV-I 121 W/m -4,0 C 1,4 C 4,8 km/h (1 Bft) 100,00 %
13.02.2018 13:53 1,4 C 4,4 C 67 % 1015,3 hPa 0,0 l/m 2,7 km/h (1 Bft) O-SO 112 0 min 0,000 mm 0,0 UV-I 121 W/m -4,0 C 1,4 C 4,8 km/h (1 Bft) 100,00 %
13.02.2018 13:54 1,4 C 4,4 C 67 % 1015,4 hPa 0,0 l/m 1,5 km/h (1 Bft) O-SO 112 0 min 0,000 mm 0,0 UV-I 120 W/m -4,0 C 1,4 C 3,2 km/h (1 Bft) 100,00 %
13.02.2018 13:55 1,4 C 4,4 C 67 % 1015,4 hPa 0,0 l/m 0,0 km/h (0 Bft) O-SO 112 0 min 0,000 mm 0,0 UV-I 120 W/m -4,0 C 1,4 C 0,0 km/h (0 Bft) 100,00 %
13.02.2018 13:56 1,4 C 4,4 C 68 % 1015,3 hPa 0,0 l/m 0,7 km/h (0 Bft) O-SO 112 0 min 0,000 mm 0,0 UV-I 120 W/m -3,8 C 1,4 C 1,6 km/h (1 Bft) 100,00 %
13.02.2018 13:57 1,4 C 4,4 C 67 % 1015,3 hPa 0,0 l/m 0,5 km/h (0 Bft) O-SO 112 0 min 0,000 mm 0,0 UV-I 118 W/m -4,0 C 1,4 C 1,6 km/h (1 Bft) 100,00 %
13.02.2018 13:58 1,5 C 4,4 C 68 % 1015,3 hPa 0,0 l/m 0,6 km/h (0 Bft) O-SO 112 0 min 0,000 mm 0,0 UV-I 116 W/m -3,7 C 1,5 C 1,6 km/h (1 Bft) 95,65 %
13.02.2018 13:59 1,5 C 4,4 C 67 % 1015,3 hPa 0,0 l/m 1,7 km/h (1 Bft) O-SO 112 0 min 0,000 mm 0,0 UV-I 113 W/m -3,9 C 1,5 C 3,2 km/h (1 Bft) 100,00 %
13.02.2018 14:00 1,5 C 4,4 C 67 % 1015,3 hPa 0,0 l/m 0,7 km/h (0 Bft) O-SO 112 0 min 0,000 mm 0,0 UV-I 110 W/m -3,9 C 1,5 C 1,6 km/h (1 Bft) 100,00 %
13.02.2018 14:01 1,4 C 4,4 C 67 % 1015,3 hPa 0,0 l/m 1,1 km/h (1 Bft) O-SO 112 0 min 0,076 mm 0,0 UV-I 108 W/m -4,0 C 1,4 C 3,2 km/h (1 Bft) 100,00 %
13.02.2018 14:02 1,5 C 4,4 C 67 % 1015,2 hPa 0,0 l/m 1,5 km/h (1 Bft) O-SO 112 0 min 0,000 mm 0,0 UV-I 106 W/m -3,9 C 1,5 C 3,2 km/h (1 Bft) 95,65 %
13.02.2018 14:03 1,5 C 4,4 C 67 % 1015,2 hPa 0,0 l/m 0,9 km/h (0 Bft) O-SO 112 0 min 0,000 mm 0,0 UV-I 104 W/m -3,9 C 1,5 C 1,6 km/h (1 Bft) 95,83 %
13.02.2018 14:04 1,6 C 4,4 C 67 % 1015,2 hPa 0,0 l/m 1,7 km/h (1 Bft) O-SO 112 0 min 0,000 mm 0,0 UV-I 104 W/m -3,9 C 1,6 C 3,2 km/h (1 Bft) 95,65 %
13.02.2018 14:05 1,6 C 4,4 C 69 % 1015,2 hPa 0,0 l/m 0,0 km/h (0 Bft) O-SO 112 0 min 0,000 mm 0,0 UV-I 104 W/m -3,5 C 1,6 C 0,0 km/h (0 Bft) 100,00 %
13.02.2018 14:06 1,6 C 4,4 C 68 % 1015,2 hPa 0,0 l/m 1,0 km/h (0 Bft) O-SO 112 0 min 0,000 mm 0,0 UV-I 102 W/m -3,7 C 1,6 C 3,2 km/h (1 Bft) 100,00 %
13.02.2018 14:07 1,6 C 4,4 C 67 % 1015,2 hPa 0,0 l/m 2,5 km/h (1 Bft) N-NW 337 0 min 0,000 mm 0,0 UV-I 102 W/m -3,9 C 1,6 C 4,8 km/h (1 Bft) 100,00 %
13.02.2018 14:08 1,6 C 4,4 C 67 % 1015,2 hPa 0,0 l/m 1,6 km/h (1 Bft) N-NW 337 0 min 0,000 mm 0,0 UV-I 102 W/m -3,9 C 1,6 C 3,2 km/h (1 Bft) 100,00 %
13.02.2018 14:09 1,6 C 4,4 C 68 % 1015,2 hPa 0,0 l/m 0,6 km/h (0 Bft) NW 315 0 min 0,000 mm 0,0 UV-I 104 W/m -3,7 C 1,6 C 3,2 km/h (1 Bft) 100,00 %
13.02.2018 14:10 1,5 C 4,4 C 66 % 1015,2 hPa 0,0 l/m 1,9 km/h (1 Bft) NW 315 0 min 0,000 mm 0,0 UV-I 101 W/m -4,1 C 1,5 C 3,2 km/h (1 Bft) 100,00 %
13.02.2018 14:11 1,4 C 4,4 C 67 % 1015,1 hPa 0,0 l/m 0,2 km/h (0 Bft) NW 315 0 min 0,000 mm 0,0 UV-I 98 W/m -4,0 C 1,4 C 1,6 km/h (1 Bft) 95,65 %
13.02.2018 14:12 1,4 C 4,4 C 67 % 1015,2 hPa 0,0 l/m 2,5 km/h (1 Bft) W 268 0 min 0,000 mm 0,0 UV-I 98 W/m -4,0 C 1,4 C 4,8 km/h (1 Bft) 100,00 %
13.02.2018 14:13 1,5 C 4,4 C 66 % 1015,1 hPa 0,0 l/m 0,1 km/h (0 Bft) W 268 0 min 0,000 mm 0,0 UV-I 98 W/m -4,1 C 1,5 C 1,6 km/h (1 Bft) 100,00 %
13.02.2018 14:14 1,6 C 4,4 C 67 % 1015,1 hPa 0,0 l/m 0,3 km/h (0 Bft) W 268 0 min 0,000 mm 0,3 UV-I 98 W/m -3,9 C 1,6 C 1,6 km/h (1 Bft) 100,00 %
13.02.2018 14:15 1,5 C 4,4 C 67 % 1015,1 hPa 0,0 l/m 0,0 km/h (0 Bft) W 268 0 min 0,000 mm 0,5 UV-I 98 W/m -3,9 C 1,5 C 0,0 km/h (0 Bft) 100,00 %
13.02.2018 14:16 1,5 C 4,4 C 66 % 1015,1 hPa 0,0 l/m 0,6 km/h (0 Bft) W 268 0 min 0,000 mm 0,5 UV-I 98 W/m -4,1 C 1,5 C 1,6 km/h (1 Bft) 100,00 %
13.02.2018 14:17 1,4 C 4,4 C 67 % 1015,1 hPa 0,0 l/m 0,3 km/h (0 Bft) W 268 0 min 0,000 mm 0,5 UV-I 97 W/m -4,0 C 1,4 C 1,6 km/h (1 Bft) 95,65 %
13.02.2018 14:18 1,4 C 4,4 C 66 % 1015,1 hPa 0,0 l/m 0,5 km/h (0 Bft) W 268 0 min 0,000 mm 0,5 UV-I 96 W/m -4,2 C 1,4 C 1,6 km/h (1 Bft) 100,00 %
13.02.2018 14:19 1,4 C 4,4 C 68 % 1015,1 hPa 0,0 l/m 1,4 km/h (1 Bft) W 268 0 min 0,000 mm 0,5 UV-I 95 W/m -3,8 C 1,4 C 3,2 km/h (1 Bft) 91,30 %
13.02.2018 14:20 1,4 C 4,4 C 67 % 1015,1 hPa 0,0 l/m 1,2 km/h (1 Bft) W 268 0 min 0,000 mm 0,5 UV-I 95 W/m -4,0 C 1,4 C 1,6 km/h (1 Bft) 95,83 %
13.02.2018 14:21 1,3 C 4,4 C 66 % 1015,1 hPa 0,0 l/m 0,9 km/h (0 Bft) W 268 0 min 0,000 mm 0,5 UV-I 98 W/m -4,3 C 1,3 C 1,6 km/h (1 Bft) 95,65 %
13.02.2018 14:22 1,3 C 4,4 C 67 % 1015,1 hPa 0,0 l/m 0,1 km/h (0 Bft) W 268 0 min 0,000 mm 0,5 UV-I 103 W/m -4,1 C 1,3 C 1,6 km/h (1 Bft) 95,83 %
13.02.2018 14:23 1,3 C 4,4 C 68 % 1015,0 hPa 0,0 l/m 1,0 km/h (0 Bft) W 268 0 min 0,000 mm 0,5 UV-I 112 W/m -3,9 C 1,3 C 1,6 km/h (1 Bft) 100,00 %
13.02.2018 14:24 1,3 C 4,4 C 67 % 1015,0 hPa 0,0 l/m 0,0 km/h (0 Bft) W 268 0 min 0,000 mm 0,5 UV-I 125 W/m -4,1 C 1,3 C 0,0 km/h (0 Bft) 95,83 %
13.02.2018 14:25 1,3 C 4,4 C 68 % 1015,1 hPa 0,0 l/m 0,0 km/h (0 Bft) W 268 0 min 0,000 mm 0,5 UV-I 137 W/m -3,9 C 1,3 C 0,0 km/h (0 Bft) 95,83 %
13.02.2018 14:26 1,4 C 4,4 C 69 % 1015,0 hPa 0,0 l/m 0,9 km/h (0 Bft) W 268 0 min 0,000 mm 0,5 UV-I 148 W/m -3,7 C 1,4 C 3,2 km/h (1 Bft) 91,30 %
13.02.2018 14:27 1,4 C 4,4 C 69 % 1015,1 hPa 0,0 l/m 3,3 km/h (1 Bft) W 281 0 min 0,000 mm 0,5 UV-I 157 W/m -3,7 C 1,4 C 4,8 km/h (1 Bft) 95,83 %
13.02.2018 14:28 1,4 C 4,4 C 70 % 1015,0 hPa 0,0 l/m 2,0 km/h (1 Bft) W-NW 288 0 min 0,000 mm 0,5 UV-I 166 W/m -3,5 C 1,4 C 4,8 km/h (1 Bft) 95,65 %
13.02.2018 14:29 1,4 C 4,4 C 69 % 1015,0 hPa 0,0 l/m 0,1 km/h (0 Bft) W-NW 288 0 min 0,000 mm 0,5 UV-I 173 W/m -3,7 C 1,4 C 1,6 km/h (1 Bft) 95,83 %
13.02.2018 14:30 1,4 C 4,4 C 68 % 1015,0 hPa 0,0 l/m 1,4 km/h (1 Bft) NW 325 0 min 0,000 mm 0,5 UV-I 177 W/m -3,8 C 1,4 C 3,2 km/h (1 Bft) 95,65 %
13.02.2018 14:31 1,4 C 4,4 C 67 % 1015,0 hPa 0,0 l/m 0,9 km/h (0 Bft) NW 325 0 min 0,000 mm 0,5 UV-I 182 W/m -4,0 C 1,4 C 3,2 km/h (1 Bft) 95,83 %
13.02.2018 14:32 1,4 C 4,4 C 68 % 1015,0 hPa 0,0 l/m 0,9 km/h (0 Bft) NW 325 0 min 0,000 mm 0,5 UV-I 184 W/m -3,8 C 1,4 C 3,2 km/h (1 Bft) 86,96 %
13.02.2018 14:33 1,5 C 4,4 C 69 % 1015,0 hPa 0,0 l/m 1,8 km/h (1 Bft) NW 325 0 min 0,000 mm 0,5 UV-I 185 W/m -3,6 C 1,5 C 4,8 km/h (1 Bft) 91,67 %
13.02.2018 14:34 1,5 C 4,4 C 69 % 1014,9 hPa 0,0 l/m 1,8 km/h (1 Bft) NW 325 0 min 0,000 mm 0,5 UV-I 191 W/m -3,6 C 1,5 C 4,8 km/h (1 Bft) 95,65 %
13.02.2018 14:35 1,6 C 4,4 C 68 % 1014,9 hPa 0,0 l/m 1,8 km/h (1 Bft) NW 318 0 min 0,000 mm 0,5 UV-I 196 W/m -3,7 C 1,6 C 3,2 km/h (1 Bft) 95,83 %
13.02.2018 14:36 1,6 C 4,4 C 68 % 1014,9 hPa 0,0 l/m 4,0 km/h (1 Bft) NW 309 0 min 0,000 mm 0,5 UV-I 198 W/m -3,7 C 1,6 C 4,8 km/h (1 Bft) 95,65 %
13.02.2018 14:37 1,6 C 4,4 C 66 % 1014,9 hPa 0,0 l/m 0,5 km/h (0 Bft) NW 312 0 min 0,000 mm 0,5 UV-I 199 W/m -4,1 C 1,6 C 4,8 km/h (1 Bft) 95,83 %
13.02.2018 14:38 1,5 C 4,4 C 66 % 1014,9 hPa 0,0 l/m 0,0 km/h (0 Bft) NW 312 1 min 0,000 mm 0,5 UV-I 202 W/m -4,1 C 1,5 C 0,0 km/h (0 Bft) 91,30 %
13.02.2018 14:39 1,5 C 4,4 C 66 % 1014,9 hPa 0,0 l/m 0,0 km/h (0 Bft) NW 312 1 min 0,000 mm 0,5 UV-I 201 W/m -4,1 C 1,5 C 0,0 km/h (0 Bft) 95,83 %
13.02.2018 14:40 1,5 C 4,4 C 67 % 1014,8 hPa 0,0 l/m 0,0 km/h (0 Bft) NW 312 1 min 0,000 mm 0,5 UV-I 222 W/m -3,9 C 1,5 C 0,0 km/h (0 Bft) 86,96 %
13.02.2018 14:41 1,6 C 4,4 C 68 % 1014,8 hPa 0,0 l/m 0,0 km/h (0 Bft) NW 312 1 min 0,000 mm 0,5 UV-I 263 W/m -3,7 C 1,6 C 0,0 km/h (0 Bft) 100,00 %
13.02.2018 14:42 1,6 C 4,4 C 67 % 1014,8 hPa 0,0 l/m 0,0 km/h (0 Bft) NW 312 1 min 0,000 mm 0,5 UV-I 261 W/m -3,9 C 1,6 C 0,0 km/h (0 Bft) 95,65 %
13.02.2018 14:43 1,6 C 4,4 C 65 % 1014,8 hPa 0,0 l/m 0,0 km/h (0 Bft) NW 312 1 min 0,000 mm 0,5 UV-I 250 W/m -4,3 C 1,6 C 0,0 km/h (0 Bft) 100,00 %
13.02.2018 14:44 1,7 C 4,4 C 68 % 1014,8 hPa 0,0 l/m 0,0 km/h (0 Bft) SO 134 1 min 0,000 mm 0,5 UV-I 238 W/m -3,6 C 1,7 C 0,0 km/h (0 Bft) 91,30 %
13.02.2018 14:45 1,8 C 4,4 C 67 % 1014,8 hPa 0,0 l/m 0,0 km/h (0 Bft) SO 145 1 min 0,000 mm 0,5 UV-I 229 W/m -3,7 C 1,8 C 0,0 km/h (0 Bft) 95,83 %
13.02.2018 14:46 1,8 C 4,4 C 66 % 1014,8 hPa 0,0 l/m 0,0 km/h (0 Bft) W-NW 284 1 min 0,000 mm 0,5 UV-I 228 W/m -3,9 C 1,8 C 0,0 km/h (0 Bft) 91,67 %
13.02.2018 14:47 1,8 C 4,4 C 65 % 1014,8 hPa 0,0 l/m 0,0 km/h (0 Bft) NW 323 1 min 0,000 mm 0,5 UV-I 232 W/m -4,1 C 1,8 C 0,0 km/h (0 Bft) 95,65 %
13.02.2018 14:48 1,8 C 4,4 C 66 % 1014,8 hPa 0,0 l/m 0,1 km/h (0 Bft) NO 36 1 min 0,000 mm 0,3 UV-I 236 W/m -3,9 C 1,8 C 1,6 km/h (1 Bft) 95,83 %
13.02.2018 14:49 1,7 C 4,4 C 66 % 1014,8 hPa 0,0 l/m 0,1 km/h (0 Bft) NO 55 1 min 0,000 mm 0,0 UV-I 237 W/m -4,0 C 1,7 C 1,6 km/h (1 Bft) 95,65 %
13.02.2018 14:50 1,7 C 4,4 C 65 % 1014,8 hPa 0,0 l/m 0,6 km/h (0 Bft) N-NW 331 1 min 0,000 mm 0,0 UV-I 249 W/m -4,2 C 1,7 C 4,8 km/h (1 Bft) 100,00 %
13.02.2018 14:51 1,7 C 4,4 C 66 % 1014,8 hPa 0,0 l/m 6,4 km/h (2 Bft) S-SW 212 1 min 0,000 mm 0,0 UV-I 249 W/m -4,0 C 1,7 C 8,0 km/h (2 Bft) 96,15 %
13.02.2018 14:52 1,8 C 4,4 C 66 % 1014,8 hPa 0,0 l/m 4,1 km/h (1 Bft) SW 215 1 min 0,000 mm 0,0 UV-I 231 W/m -3,9 C 1,8 C 4,8 km/h (1 Bft) 95,83 %
13.02.2018 14:53 1,8 C 4,4 C 68 % 1014,8 hPa 0,0 l/m 5,3 km/h (1 Bft) W-SW 243 1 min 0,000 mm 0,0 UV-I 223 W/m -3,5 C 1,8 C 6,4 km/h (2 Bft) 100,00 %
13.02.2018 14:54 1,7 C 4,4 C 65 % 1014,8 hPa 0,0 l/m 5,1 km/h (1 Bft) W-SW 242 1 min 0,000 mm 0,0 UV-I 227 W/m -4,2 C 1,7 C 6,4 km/h (2 Bft) 96,30 %
13.02.2018 14:55 1,7 C 4,4 C 65 % 1014,8 hPa 0,0 l/m 5,3 km/h (1 Bft) W-SW 242 1 min 0,000 mm 0,0 UV-I 223 W/m -4,2 C 1,7 C 6,4 km/h (2 Bft) 91,30 %
13.02.2018 14:56 1,7 C 4,4 C 65 % 1014,7 hPa 0,0 l/m 3,4 km/h (1 Bft) W-SW 242 1 min 0,000 mm 0,0 UV-I 209 W/m -4,2 C 1,7 C 4,8 km/h (1 Bft) 95,83 %
13.02.2018 14:57 1,7 C 4,4 C 65 % 1014,8 hPa 0,0 l/m 1,0 km/h (0 Bft) W-SW 242 1 min 0,000 mm 0,0 UV-I 199 W/m -4,2 C 1,7 C 3,2 km/h (1 Bft) 100,00 %
13.02.2018 14:58 1,6 C 4,4 C 65 % 1014,7 hPa 0,0 l/m 1,3 km/h (1 Bft) W-SW 242 1 min 0,000 mm 0,0 UV-I 197 W/m -4,3 C 1,6 C 3,2 km/h (1 Bft) 88,89 %
13.02.2018 14:59 1,6 C 4,4 C 66 % 1014,8 hPa 0,0 l/m 2,4 km/h (1 Bft) W-SW 242 1 min 0,000 mm 0,0 UV-I 197 W/m -4,1 C 1,6 C 3,2 km/h (1 Bft) 100,00 %
13.02.2018 15:00 1,6 C 4,4 C 66 % 1014,7 hPa 0,0 l/m 2,2 km/h (1 Bft) W-SW 242 1 min 0,076 mm 0,0 UV-I 199 W/m -4,1 C 1,6 C 3,2 km/h (1 Bft) 87,50 %
13.02.2018 15:01 1,5 C 4,4 C 66 % 1014,8 hPa 0,0 l/m 2,9 km/h (1 Bft) SW 216 1 min 0,000 mm 0,0 UV-I 220 W/m -4,1 C 1,5 C 4,8 km/h (1 Bft) 82,61 %
13.02.2018 15:02 1,4 C 4,4 C 65 % 1014,7 hPa 0,0 l/m 2,8 km/h (1 Bft) SW 215 1 min 0,000 mm 0,0 UV-I 214 W/m -4,4 C 1,4 C 4,8 km/h (1 Bft) 95,83 %
13.02.2018 15:03 1,4 C 4,4 C 66 % 1014,7 hPa 0,0 l/m 2,1 km/h (1 Bft) SW 215 1 min 0,000 mm 0,0 UV-I 199 W/m -4,2 C 1,4 C 3,2 km/h (1 Bft) 96,15 %
13.02.2018 15:04 1,5 C 4,4 C 66 % 1014,7 hPa 0,0 l/m 2,0 km/h (1 Bft) SW 215 1 min 0,000 mm 0,0 UV-I 199 W/m -4,1 C 1,5 C 3,2 km/h (1 Bft) 92,86 %
13.02.2018 15:05 1,5 C 4,4 C 66 % 1014,7 hPa 0,0 l/m 0,5 km/h (0 Bft) SW 215 1 min 0,000 mm 0,0 UV-I 203 W/m -4,1 C 1,5 C 3,2 km/h (1 Bft) 96,30 %
13.02.2018 15:06 1,6 C 4,4 C 67 % 1014,7 hPa 0,0 l/m 1,6 km/h (1 Bft) SW 215 1 min 0,000 mm 0,0 UV-I 206 W/m -3,9 C 1,6 C 3,2 km/h (1 Bft) 100,00 %
13.02.2018 15:07 1,6 C 4,4 C 66 % 1014,7 hPa 0,0 l/m 2,3 km/h (1 Bft) SW 215 1 min 0,000 mm 0,0 UV-I 212 W/m -4,1 C 1,6 C 3,2 km/h (1 Bft) 95,83 %
13.02.2018 15:08 1,6 C 4,4 C 66 % 1014,7 hPa 0,0 l/m 1,8 km/h (1 Bft) SW 215 1 min 0,000 mm 0,0 UV-I 207 W/m -4,1 C 1,6 C 3,2 km/h (1 Bft) 95,65 %
13.02.2018 15:09 1,7 C 4,4 C 67 % 1014,7 hPa 0,0 l/m 1,5 km/h (1 Bft) SW 215 1 min 0,000 mm 0,0 UV-I 210 W/m -3,8 C 1,7 C 3,2 km/h (1 Bft) 91,67 %
13.02.2018 15:10 1,7 C 4,4 C 67 % 1014,7 hPa 0,0 l/m 2,0 km/h (1 Bft) SW 215 1 min 0,000 mm 0,0 UV-I 231 W/m -3,8 C 1,7 C 3,2 km/h (1 Bft) 100,00 %
13.02.2018 15:11 1,7 C 4,4 C 66 % 1014,7 hPa 0,0 l/m 0,3 km/h (0 Bft) SW 215 1 min 0,000 mm 0,0 UV-I 236 W/m -4,0 C 1,7 C 1,6 km/h (1 Bft) 100,00 %
13.02.2018 15:12 1,7 C 4,4 C 66 % 1014,7 hPa 0,0 l/m 0,7 km/h (0 Bft) SW 215 1 min 0,000 mm 0,0 UV-I 213 W/m -4,0 C 1,7 C 3,2 km/h (1 Bft) 95,65 %
13.02.2018 15:13 1,7 C 4,4 C 65 % 1014,7 hPa 0,0 l/m 2,7 km/h (1 Bft) SW 216 1 min 0,000 mm 0,0 UV-I 206 W/m -4,2 C 1,7 C 4,8 km/h (1 Bft) 91,67 %
13.02.2018 15:14 1,6 C 4,4 C 65 % 1014,7 hPa 0,0 l/m 2,1 km/h (1 Bft) SW 216 1 min 0,000 mm 0,0 UV-I 202 W/m -4,3 C 1,6 C 3,2 km/h (1 Bft) 100,00 %
13.02.2018 15:15 1,6 C 4,4 C 65 % 1014,7 hPa 0,0 l/m 1,6 km/h (1 Bft) SW 216 1 min 0,000 mm 0,0 UV-I 197 W/m -4,3 C 1,6 C 4,8 km/h (1 Bft) 95,83 %
13.02.2018 15:16 1,7 C 4,4 C 65 % 1014,7 hPa 0,0 l/m 1,2 km/h (1 Bft) SW 216 1 min 0,000 mm 0,0 UV-I 199 W/m -4,2 C 1,7 C 3,2 km/h (1 Bft) 91,30 %
13.02.2018 15:17 1,7 C 4,4 C 66 % 1014,7 hPa 0,0 l/m 3,7 km/h (1 Bft) SW 223 1 min 0,000 mm 0,0 UV-I 220 W/m -4,0 C 1,7 C 6,4 km/h (2 Bft) 91,67 %
13.02.2018 15:18 1,7 C 4,4 C 67 % 1014,6 hPa 0,0 l/m 5,7 km/h (1 Bft) SW 216 1 min 0,000 mm 0,0 UV-I 285 W/m -3,8 C 1,7 C 8,0 km/h (2 Bft) 69,57 %
13.02.2018 15:19 1,8 C 4,4 C 66 % 1014,7 hPa 0,0 l/m 4,1 km/h (1 Bft) SW 216 1 min 0,000 mm 0,0 UV-I 309 W/m -3,9 C 1,8 C 6,4 km/h (2 Bft) 70,83 %
13.02.2018 15:20 1,8 C 4,4 C 65 % 1014,6 hPa 0,0 l/m 4,4 km/h (1 Bft) SW 236 1 min 0,000 mm 0,0 UV-I 313 W/m -4,1 C 1,8 C 6,4 km/h (2 Bft) 78,26 %
13.02.2018 15:21 1,7 C 4,4 C 65 % 1014,6 hPa 0,0 l/m 4,1 km/h (1 Bft) SW 229 1 min 0,000 mm 0,0 UV-I 311 W/m -4,2 C 1,7 C 4,8 km/h (1 Bft) 87,50 %
13.02.2018 15:22 1,7 C 4,4 C 64 % 1014,6 hPa 0,0 l/m 2,7 km/h (1 Bft) SW 230 1 min 0,000 mm 0,0 UV-I 311 W/m -4,4 C 1,7 C 4,8 km/h (1 Bft) 87,50 %
13.02.2018 15:23 1,7 C 4,4 C 64 % 1014,6 hPa 0,0 l/m 2,5 km/h (1 Bft) SW 231 1 min 0,000 mm 0,0 UV-I 310 W/m -4,4 C 1,7 C 4,8 km/h (1 Bft) 86,96 %
13.02.2018 15:24 1,7 C 4,4 C 65 % 1014,6 hPa 0,0 l/m 3,4 km/h (1 Bft) SW 231 1 min 0,000 mm 0,0 UV-I 307 W/m -4,2 C 1,7 C 4,8 km/h (1 Bft) 95,83 %
13.02.2018 15:25 1,8 C 4,4 C 64 % 1014,6 hPa 0,0 l/m 4,2 km/h (1 Bft) W-SW 239 1 min 0,000 mm 0,0 UV-I 300 W/m -4,3 C 1,8 C 6,4 km/h (2 Bft) 86,96 %
13.02.2018 15:26 1,8 C 4,4 C 66 % 1014,6 hPa 0,0 l/m 5,2 km/h (1 Bft) W-SW 240 1 min 0,000 mm 0,0 UV-I 292 W/m -3,9 C 1,8 C 6,4 km/h (2 Bft) 83,33 %
13.02.2018 15:27 1,8 C 4,4 C 65 % 1014,6 hPa 0,0 l/m 3,7 km/h (1 Bft) W 271 1 min 0,000 mm 0,0 UV-I 287 W/m -4,1 C 1,8 C 4,8 km/h (1 Bft) 100,00 %
13.02.2018 15:28 1,8 C 4,4 C 64 % 1014,6 hPa 0,0 l/m 1,7 km/h (1 Bft) W 271 1 min 0,000 mm 0,0 UV-I 281 W/m -4,3 C 1,8 C 3,2 km/h (1 Bft) 91,67 %
13.02.2018 15:29 1,8 C 4,4 C 66 % 1014,6 hPa 0,0 l/m 1,9 km/h (1 Bft) W 260 1 min 0,000 mm 0,0 UV-I 277 W/m -3,9 C 1,8 C 3,2 km/h (1 Bft) 100,00 %
13.02.2018 15:30 1,7 C 4,4 C 64 % 1014,5 hPa 0,0 l/m 4,7 km/h (1 Bft) S 177 1 min 0,000 mm 0,0 UV-I 273 W/m -4,4 C 1,7 C 6,4 km/h (2 Bft) 96,30 %
13.02.2018 15:31 1,7 C 4,4 C 67 % 1014,5 hPa 0,0 l/m 2,3 km/h (1 Bft) S 177 1 min 0,000 mm 0,0 UV-I 272 W/m -3,8 C 1,7 C 3,2 km/h (1 Bft) 91,30 %
13.02.2018 15:32 1,7 C 4,4 C 66 % 1014,5 hPa 0,0 l/m 3,0 km/h (1 Bft) S 189 1 min 0,000 mm 0,0 UV-I 262 W/m -4,0 C 1,7 C 4,8 km/h (1 Bft) 100,00 %
13.02.2018 15:33 1,7 C 4,4 C 67 % 1014,5 hPa 0,0 l/m 3,5 km/h (1 Bft) S 190 1 min 0,000 mm 0,0 UV-I 257 W/m -3,8 C 1,7 C 4,8 km/h (1 Bft) 95,65 %
13.02.2018 15:34 1,7 C 4,4 C 65 % 1014,5 hPa 0,0 l/m 1,6 km/h (1 Bft) S 190 1 min 0,000 mm 0,0 UV-I 252 W/m -4,2 C 1,7 C 3,2 km/h (1 Bft) 100,00 %
13.02.2018 15:35 1,7 C 4,4 C 64 % 1014,5 hPa 0,0 l/m 0,4 km/h (0 Bft) S 190 1 min 0,000 mm 0,0 UV-I 244 W/m -4,4 C 1,7 C 1,6 km/h (1 Bft) 95,65 %
13.02.2018 15:36 1,7 C 4,4 C 64 % 1014,5 hPa 0,0 l/m 0,8 km/h (0 Bft) S 190 1 min 0,000 mm 0,0 UV-I 235 W/m -4,4 C 1,7 C 1,6 km/h (1 Bft) 100,00 %
13.02.2018 15:37 1,7 C 4,4 C 65 % 1014,5 hPa 0,0 l/m 3,2 km/h (1 Bft) S-SW 195 1 min 0,000 mm 0,0 UV-I 232 W/m -4,2 C 1,7 C 6,4 km/h (2 Bft) 86,96 %
13.02.2018 15:38 1,8 C 4,4 C 65 % 1014,5 hPa 0,0 l/m 1,9 km/h (1 Bft) S-SW 195 1 min 0,000 mm 0,0 UV-I 228 W/m -4,1 C 1,8 C 4,8 km/h (1 Bft) 100,00 %
13.02.2018 15:39 1,7 C 4,4 C 64 % 1014,5 hPa 0,0 l/m 2,0 km/h (1 Bft) S-SW 195 1 min 0,000 mm 0,0 UV-I 221 W/m -4,4 C 1,7 C 3,2 km/h (1 Bft) 95,83 %
13.02.2018 15:40 1,6 C 4,4 C 63 % 1014,5 hPa 0,0 l/m 3,0 km/h (1 Bft) N-NO 26 1 min 0,000 mm 0,0 UV-I 210 W/m -4,7 C 1,6 C 6,4 km/h (2 Bft) 95,65 %
13.02.2018 15:41 1,6 C 4,4 C 64 % 1014,4 hPa 0,0 l/m 5,7 km/h (1 Bft) NW 309 1 min 0,000 mm 0,0 UV-I 198 W/m -4,5 C 1,6 C 6,4 km/h (2 Bft) 95,83 %
13.02.2018 15:42 1,7 C 4,4 C 65 % 1014,4 hPa 0,0 l/m 2,3 km/h (1 Bft) NW 309 1 min 0,000 mm 0,0 UV-I 195 W/m -4,2 C 1,7 C 4,8 km/h (1 Bft) 91,30 %
13.02.2018 15:43 1,6 C 4,4 C 64 % 1014,5 hPa 0,0 l/m 1,5 km/h (1 Bft) NO 40 1 min 0,000 mm 0,0 UV-I 192 W/m -4,5 C 1,6 C 3,2 km/h (1 Bft) 95,83 %
13.02.2018 15:44 1,6 C 4,4 C 64 % 1014,4 hPa 0,0 l/m 4,5 km/h (1 Bft) NW 323 1 min 0,000 mm 0,0 UV-I 190 W/m -4,5 C 1,6 C 6,4 km/h (2 Bft) 91,30 %
13.02.2018 15:45 1,6 C 4,4 C 64 % 1014,4 hPa 0,0 l/m 5,9 km/h (2 Bft) N 350 1 min 0,000 mm 0,0 UV-I 176 W/m -4,5 C 1,6 C 8,0 km/h (2 Bft) 91,67 %
13.02.2018 15:46 1,6 C 4,4 C 65 % 1014,4 hPa 0,0 l/m 6,1 km/h (2 Bft) NO 34 1 min 0,000 mm 0,0 UV-I 171 W/m -4,3 C 1,6 C 6,4 km/h (2 Bft) 95,65 %
13.02.2018 15:47 1,6 C 4,4 C 65 % 1014,5 hPa 0,0 l/m 3,5 km/h (1 Bft) N-NW 336 1 min 0,000 mm 0,0 UV-I 164 W/m -4,3 C 1,6 C 6,4 km/h (2 Bft) 100,00 %
13.02.2018 15:48 1,6 C 4,4 C 64 % 1014,4 hPa 0,0 l/m 4,0 km/h (1 Bft) N-NW 335 1 min 0,000 mm 0,0 UV-I 156 W/m -4,5 C 1,6 C 4,8 km/h (1 Bft) 96,15 %
13.02.2018 15:49 1,5 C 4,4 C 64 % 1014,4 hPa 0,0 l/m 4,6 km/h (1 Bft) N-NW 335 1 min 0,000 mm 0,0 UV-I 150 W/m -4,6 C 1,5 C 6,4 km/h (2 Bft) 100,00 %
13.02.2018 15:50 1,4 C 4,4 C 64 % 1014,4 hPa 0,0 l/m 5,0 km/h (1 Bft) N-NW 340 1 min 0,000 mm 0,0 UV-I 146 W/m -4,6 C 1,4 C 6,4 km/h (2 Bft) 95,65 %
13.02.2018 15:51 1,4 C 4,4 C 65 % 1014,4 hPa 0,0 l/m 5,6 km/h (1 Bft) N-NO 26 1 min 0,000 mm 0,0 UV-I 142 W/m -4,4 C 1,4 C 8,0 km/h (2 Bft) 100,00 %
13.02.2018 15:52 1,4 C 4,4 C 65 % 1014,4 hPa 0,0 l/m 5,2 km/h (1 Bft) N-NO 22 1 min 0,000 mm 0,0 UV-I 137 W/m -4,4 C 1,4 C 6,4 km/h (2 Bft) 91,30 %
13.02.2018 15:53 1,4 C 4,4 C 66 % 1014,3 hPa 0,0 l/m 8,0 km/h (2 Bft) N-NO 15 1 min 0,000 mm 0,0 UV-I 133 W/m -4,2 C -0,2 C 11,3 km/h (2 Bft) 100,00 %
13.02.2018 15:54 1,4 C 4,4 C 69 % 1014,4 hPa 0,0 l/m 8,9 km/h (2 Bft) N 5 1 min 0,000 mm 0,0 UV-I 126 W/m -3,7 C -1,0 C 11,3 km/h (2 Bft) 95,65 %
13.02.2018 15:55 1,4 C 4,4 C 69 % 1014,3 hPa 0,0 l/m 6,5 km/h (2 Bft) N 5 1 min 0,000 mm 0,0 UV-I 120 W/m -3,7 C 1,3 C 9,7 km/h (2 Bft) 95,83 %
13.02.2018 15:56 1,4 C 4,4 C 67 % 1014,4 hPa 0,0 l/m 6,2 km/h (2 Bft) N 355 0 min 0,000 mm 0,0 UV-I 115 W/m -4,0 C 1,4 C 8,0 km/h (2 Bft) 95,65 %
13.02.2018 15:57 1,4 C 4,4 C 68 % 1014,4 hPa 0,0 l/m 4,5 km/h (1 Bft) N 355 0 min 0,000 mm 0,0 UV-I 110 W/m -3,8 C 1,4 C 6,4 km/h (2 Bft) 95,83 %
13.02.2018 15:58 1,4 C 4,4 C 68 % 1014,4 hPa 0,0 l/m 2,7 km/h (1 Bft) N 355 0 min 0,000 mm 0,0 UV-I 109 W/m -3,8 C 1,4 C 4,8 km/h (1 Bft) 100,00 %
13.02.2018 15:59 1,3 C 4,4 C 67 % 1014,4 hPa 0,0 l/m 5,5 km/h (1 Bft) N 5 0 min 0,000 mm 0,0 UV-I 109 W/m -4,1 C 1,3 C 8,0 km/h (2 Bft) 95,83 %
13.02.2018 16:00 1,3 C 4,4 C 67 % 1014,4 hPa 0,0 l/m 4,3 km/h (1 Bft) N 5 0 min 0,000 mm 0,0 UV-I 107 W/m -4,1 C 1,3 C 6,4 km/h (2 Bft) 100,00 %
13.02.2018 16:01 1,3 C 4,4 C 67 % 1014,4 hPa 0,0 l/m 6,2 km/h (2 Bft) N 5 0 min 0,077 mm 0,0 UV-I 104 W/m -4,1 C 1,3 C 8,0 km/h (2 Bft) 96,30 %
13.02.2018 16:02 1,3 C 4,4 C 68 % 1014,4 hPa 0,0 l/m 5,0 km/h (1 Bft) N 5 0 min 0,000 mm 0,0 UV-I 97 W/m -3,9 C 1,3 C 6,4 km/h (2 Bft) 95,65 %
13.02.2018 16:03 1,3 C 4,4 C 69 % 1014,4 hPa 0,0 l/m 4,4 km/h (1 Bft) NO 36 0 min 0,000 mm 0,0 UV-I 95 W/m -3,7 C 1,3 C 6,4 km/h (2 Bft) 95,83 %
13.02.2018 16:04 1,3 C 4,4 C 70 % 1014,4 hPa 0,0 l/m 6,3 km/h (2 Bft) NO 42 0 min 0,000 mm 0,0 UV-I 95 W/m -3,6 C 1,3 C 8,0 km/h (2 Bft) 95,65 %
13.02.2018 16:05 1,3 C 4,4 C 70 % 1014,4 hPa 0,0 l/m 5,0 km/h (1 Bft) N-NO 32 0 min 0,000 mm 0,0 UV-I 94 W/m -3,6 C 1,3 C 6,4 km/h (2 Bft) 95,83 %
13.02.2018 16:06 1,3 C 4,4 C 69 % 1014,4 hPa 0,0 l/m 4,5 km/h (1 Bft) N-NO 32 0 min 0,000 mm 0,0 UV-I 93 W/m -3,7 C 1,3 C 6,4 km/h (2 Bft) 95,65 %
13.02.2018 16:07 1,2 C 4,4 C 70 % 1014,4 hPa 0,0 l/m 5,3 km/h (1 Bft) N-NO 32 0 min 0,000 mm 0,0 UV-I 93 W/m -3,7 C 1,2 C 6,4 km/h (2 Bft) 95,83 %
13.02.2018 16:08 1,2 C 4,4 C 70 % 1014,3 hPa 0,0 l/m 3,8 km/h (1 Bft) N-NO 32 0 min 0,000 mm 0,0 UV-I 94 W/m -3,7 C 1,2 C 6,4 km/h (2 Bft) 95,83 %
13.02.2018 16:09 1,2 C 4,4 C 68 % 1014,3 hPa 0,0 l/m 4,2 km/h (1 Bft) N-NO 32 0 min 0,000 mm 0,0 UV-I 96 W/m -4,0 C 1,2 C 4,8 km/h (1 Bft) 100,00 %
13.02.2018 16:10 1,2 C 4,4 C 68 % 1014,3 hPa 0,0 l/m 3,4 km/h (1 Bft) N-NO 32 1 min 0,000 mm 0,0 UV-I 97 W/m -4,0 C 1,2 C 4,8 km/h (1 Bft) 95,83 %
13.02.2018 16:11 1,1 C 4,4 C 68 % 1014,4 hPa 0,0 l/m 4,8 km/h (1 Bft) N-NO 32 1 min 0,000 mm 0,0 UV-I 98 W/m -4,1 C 1,1 C 6,4 km/h (2 Bft) 100,00 %
13.02.2018 16:12 1,2 C 4,4 C 68 % 1014,3 hPa 0,0 l/m 4,1 km/h (1 Bft) N-NO 32 1 min 0,000 mm 0,0 UV-I 98 W/m -4,0 C 1,2 C 6,4 km/h (2 Bft) 95,83 %
13.02.2018 16:13 1,2 C 4,4 C 69 % 1014,3 hPa 0,0 l/m 3,8 km/h (1 Bft) N-NO 32 1 min 0,000 mm 0,0 UV-I 97 W/m -3,8 C 1,2 C 4,8 km/h (1 Bft) 100,00 %
13.02.2018 16:14 1,1 C 4,4 C 70 % 1014,3 hPa 0,0 l/m 4,3 km/h (1 Bft) N-NO 32 1 min 0,000 mm 0,0 UV-I 94 W/m -3,7 C 1,1 C 4,8 km/h (1 Bft) 96,30 %
13.02.2018 16:15 1,2 C 4,4 C 70 % 1014,3 hPa 0,0 l/m 3,6 km/h (1 Bft) N-NO 32 1 min 0,000 mm 0,0 UV-I 92 W/m -3,7 C 1,2 C 4,8 km/h (1 Bft) 100,00 %
13.02.2018 16:16 1,2 C 4,4 C 71 % 1014,3 hPa 0,0 l/m 4,4 km/h (1 Bft) N-NO 32 0 min 0,000 mm 0,0 UV-I 82 W/m -3,5 C 1,2 C 4,8 km/h (1 Bft) 96,30 %
13.02.2018 16:17 1,2 C 4,4 C 71 % 1014,3 hPa 0,0 l/m 4,7 km/h (1 Bft) N-NO 32 0 min 0,000 mm 0,0 UV-I 72 W/m -3,5 C 1,2 C 6,4 km/h (2 Bft) 91,30 %
13.02.2018 16:18 1,1 C 4,4 C 71 % 1014,3 hPa 0,0 l/m 5,2 km/h (1 Bft) N-NO 32 0 min 0,000 mm 0,0 UV-I 70 W/m -3,6 C 1,1 C 6,4 km/h (2 Bft) 100,00 %
13.02.2018 16:19 1,1 C 4,4 C 70 % 1014,3 hPa 0,0 l/m 4,6 km/h (1 Bft) N-NO 32 0 min 0,000 mm 0,0 UV-I 72 W/m -3,7 C 1,1 C 6,4 km/h (2 Bft) 95,65 %
13.02.2018 16:20 1,1 C 4,4 C 70 % 1014,3 hPa 0,0 l/m 4,4 km/h (1 Bft) NO 39 0 min 0,000 mm 0,0 UV-I 71 W/m -3,7 C 1,1 C 4,8 km/h (1 Bft) 100,00 %
13.02.2018 16:21 1,1 C 4,4 C 70 % 1014,3 hPa 0,0 l/m 3,8 km/h (1 Bft) NO 39 0 min 0,000 mm 0,0 UV-I 73 W/m -3,7 C 1,1 C 4,8 km/h (1 Bft) 86,96 %
13.02.2018 16:22 1,1 C 4,4 C 69 % 1014,3 hPa 0,0 l/m 4,0 km/h (1 Bft) NO 39 0 min 0,000 mm 0,0 UV-I 75 W/m -3,9 C 1,1 C 4,8 km/h (1 Bft) 100,00 %
13.02.2018 16:23 1,0 C 4,4 C 69 % 1014,3 hPa 0,0 l/m 3,0 km/h (1 Bft) NO 39 0 min 0,000 mm 0,0 UV-I 76 W/m -4,0 C 1,0 C 4,8 km/h (1 Bft) 95,65 %
13.02.2018 16:24 1,0 C 4,4 C 69 % 1014,3 hPa 0,0 l/m 4,0 km/h (1 Bft) NO 39 0 min 0,000 mm 0,0 UV-I 77 W/m -4,0 C 1,0 C 4,8 km/h (1 Bft) 100,00 %
13.02.2018 16:25 1,0 C 4,4 C 70 % 1014,4 hPa 0,0 l/m 4,0 km/h (1 Bft) NO 40 0 min 0,000 mm 0,0 UV-I 75 W/m -3,8 C 1,0 C 4,8 km/h (1 Bft) 95,83 %
13.02.2018 16:26 1,0 C 4,4 C 70 % 1014,4 hPa 0,0 l/m 4,4 km/h (1 Bft) NO 51 0 min 0,000 mm 0,0 UV-I 71 W/m -3,8 C 1,0 C 6,4 km/h (2 Bft) 100,00 %
13.02.2018 16:27 1,0 C 4,4 C 69 % 1014,4 hPa 0,0 l/m 4,4 km/h (1 Bft) NO 51 0 min 0,000 mm 0,0 UV-I 68 W/m -4,0 C 1,0 C 6,4 km/h (2 Bft) 100,00 %
13.02.2018 16:28 1,0 C 4,4 C 69 % 1014,4 hPa 0,0 l/m 4,2 km/h (1 Bft) NO 51 0 min 0,000 mm 0,0 UV-I 66 W/m -4,0 C 1,0 C 4,8 km/h (1 Bft) 95,65 %
13.02.2018 16:29 1,0 C 4,4 C 70 % 1014,4 hPa 0,0 l/m 4,6 km/h (1 Bft) NO 51 0 min 0,000 mm 0,0 UV-I 63 W/m -3,8 C 1,0 C 4,8 km/h (1 Bft) 100,00 %
13.02.2018 16:30 1,0 C 4,4 C 70 % 1014,4 hPa 0,0 l/m 3,4 km/h (1 Bft) NO 51 0 min 0,000 mm 0,0 UV-I 60 W/m -3,8 C 1,0 C 4,8 km/h (1 Bft) 100,00 %
13.02.2018 16:31 1,0 C 4,4 C 70 % 1014,4 hPa 0,0 l/m 3,0 km/h (1 Bft) NO 51 0 min 0,000 mm 0,0 UV-I 58 W/m -3,8 C 1,0 C 4,8 km/h (1 Bft) 100,00 %
13.02.2018 16:32 1,0 C 4,4 C 70 % 1014,4 hPa 0,0 l/m 3,0 km/h (1 Bft) NO 51 0 min 0,000 mm 0,0 UV-I 59 W/m -3,8 C 1,0 C 4,8 km/h (1 Bft) 100,00 %
13.02.2018 16:33 1,0 C 4,4 C 69 % 1014,3 hPa 0,0 l/m 3,5 km/h (1 Bft) NO 51 0 min 0,000 mm 0,0 UV-I 64 W/m -4,0 C 1,0 C 4,8 km/h (1 Bft) 100,00 %
13.02.2018 16:34 1,0 C 4,4 C 69 % 1014,3 hPa 0,0 l/m 3,6 km/h (1 Bft) NO 51 1 min 0,000 mm 0,0 UV-I 69 W/m -4,0 C 1,0 C 4,8 km/h (1 Bft) 100,00 %
13.02.2018 16:35 1,0 C 4,4 C 69 % 1014,3 hPa 0,0 l/m 4,2 km/h (1 Bft) NO 51 1 min 0,000 mm 0,0 UV-I 71 W/m -4,0 C 1,0 C 4,8 km/h (1 Bft) 95,83 %
13.02.2018 16:36 0,9 C 4,4 C 70 % 1014,3 hPa 0,0 l/m 5,0 km/h (1 Bft) NO 51 1 min 0,000 mm 0,0 UV-I 74 W/m -3,9 C 0,9 C 6,4 km/h (2 Bft) 100,00 %
13.02.2018 16:37 0,9 C 4,4 C 71 % 1014,3 hPa 0,0 l/m 5,5 km/h (1 Bft) NO 51 1 min 0,000 mm 0,0 UV-I 74 W/m -3,7 C 0,9 C 6,4 km/h (2 Bft) 100,00 %
13.02.2018 16:38 0,9 C 4,4 C 71 % 1014,3 hPa 0,0 l/m 4,7 km/h (1 Bft) NO 51 1 min 0,000 mm 0,0 UV-I 71 W/m -3,7 C 0,9 C 6,4 km/h (2 Bft) 100,00 %
13.02.2018 16:39 0,8 C 4,4 C 72 % 1014,3 hPa 0,0 l/m 4,6 km/h (1 Bft) NO 51 1 min 0,000 mm 0,0 UV-I 70 W/m -3,7 C 0,8 C 4,8 km/h (1 Bft) 100,00 %
13.02.2018 16:40 0,8 C 4,4 C 72 % 1014,2 hPa 0,0 l/m 4,6 km/h (1 Bft) NO 51 1 min 0,000 mm 0,0 UV-I 69 W/m -3,7 C 0,8 C 4,8 km/h (1 Bft) 100,00 %
13.02.2018 16:41 0,8 C 4,4 C 72 % 1014,2 hPa 0,0 l/m 5,0 km/h (1 Bft) NO 51 1 min 0,000 mm 0,0 UV-I 69 W/m -3,7 C 0,8 C 6,4 km/h (2 Bft) 100,00 %
13.02.2018 16:42 0,8 C 4,4 C 72 % 1014,2 hPa 0,0 l/m 5,0 km/h (1 Bft) NO 51 1 min 0,000 mm 0,0 UV-I 70 W/m -3,7 C 0,8 C 6,4 km/h (2 Bft) 100,00 %
13.02.2018 16:43 0,8 C 4,4 C 72 % 1014,2 hPa 0,0 l/m 4,6 km/h (1 Bft) NO 51 1 min 0,000 mm 0,0 UV-I 70 W/m -3,7 C 0,8 C 4,8 km/h (1 Bft) 95,83 %
13.02.2018 16:44 0,8 C 4,4 C 73 % 1014,3 hPa 0,0 l/m 4,0 km/h (1 Bft) NO 51 1 min 0,000 mm 0,0 UV-I 70 W/m -3,5 C 0,8 C 4,8 km/h (1 Bft) 100,00 %
13.02.2018 16:45 0,8 C 4,4 C 73 % 1014,2 hPa 0,0 l/m 4,3 km/h (1 Bft) NO 51 1 min 0,000 mm 0,0 UV-I 70 W/m -3,5 C 0,8 C 4,8 km/h (1 Bft) 100,00 %
13.02.2018 16:46 0,8 C 4,4 C 72 % 1014,2 hPa 0,0 l/m 4,2 km/h (1 Bft) NO 51 1 min 0,000 mm 0,0 UV-I 70 W/m -3,7 C 0,8 C 4,8 km/h (1 Bft) 92,59 %
13.02.2018 16:47 0,8 C 4,4 C 73 % 1014,2 hPa 0,0 l/m 4,6 km/h (1 Bft) NO 51 1 min 0,000 mm 0,0 UV-I 69 W/m -3,5 C 0,8 C 4,8 km/h (1 Bft) 100,00 %
13.02.2018 16:48 0,8 C 4,4 C 73 % 1014,2 hPa 0,0 l/m 3,9 km/h (1 Bft) NO 51 1 min 0,000 mm 0,0 UV-I 69 W/m -3,5 C 0,8 C 4,8 km/h (1 Bft) 100,00 %
13.02.2018 16:49 0,8 C 4,4 C 73 % 1014,2 hPa 0,0 l/m 3,8 km/h (1 Bft) NO 51 1 min 0,000 mm 0,0 UV-I 67 W/m -3,5 C 0,8 C 4,8 km/h (1 Bft) 100,00 %
13.02.2018 16:50 0,8 C 4,4 C 72 % 1014,2 hPa 0,0 l/m 3,9 km/h (1 Bft) NO 51 1 min 0,000 mm 0,0 UV-I 66 W/m -3,7 C 0,8 C 4,8 km/h (1 Bft) 100,00 %
13.02.2018 16:51 0,8 C 4,4 C 72 % 1014,2 hPa 0,0 l/m 3,9 km/h (1 Bft) NO 51 1 min 0,000 mm 0,0 UV-I 64 W/m -3,7 C 0,8 C 4,8 km/h (1 Bft) 100,00 %
13.02.2018 16:52 0,7 C 4,4 C 73 % 1014,2 hPa 0,0 l/m 3,6 km/h (1 Bft) NO 51 1 min 0,000 mm 0,0 UV-I 62 W/m -3,6 C 0,7 C 4,8 km/h (1 Bft) 95,83 %
13.02.2018 16:53 0,7 C 4,4 C 73 % 1014,2 hPa 0,0 l/m 3,7 km/h (1 Bft) NO 51 1 min 0,000 mm 0,0 UV-I 60 W/m -3,6 C 0,7 C 4,8 km/h (1 Bft) 100,00 %
13.02.2018 16:54 0,7 C 4,4 C 73 % 1014,2 hPa 0,0 l/m 3,2 km/h (1 Bft) NO 51 1 min 0,000 mm 0,0 UV-I 56 W/m -3,6 C 0,7 C 4,8 km/h (1 Bft) 100,00 %
13.02.2018 16:55 0,7 C 4,4 C 73 % 1014,2 hPa 0,0 l/m 3,2 km/h (1 Bft) NO 51 1 min 0,000 mm 0,0 UV-I 54 W/m -3,6 C 0,7 C 4,8 km/h (1 Bft) 96,15 %
13.02.2018 16:56 0,7 C 4,4 C 73 % 1014,2 hPa 0,0 l/m 3,6 km/h (1 Bft) NO 51 1 min 0,000 mm 0,0 UV-I 52 W/m -3,6 C 0,7 C 4,8 km/h (1 Bft) 95,83 %
13.02.2018 16:57 0,7 C 4,4 C 73 % 1014,2 hPa 0,0 l/m 2,9 km/h (1 Bft) NO 51 1 min 0,000 mm 0,0 UV-I 51 W/m -3,6 C 0,7 C 4,8 km/h (1 Bft) 100,00 %
13.02.2018 16:58 0,8 C 4,4 C 72 % 1014,3 hPa 0,0 l/m 1,9 km/h (1 Bft) NO 51 1 min 0,000 mm 0,0 UV-I 50 W/m -3,7 C 0,8 C 3,2 km/h (1 Bft) 97,14 %
13.02.2018 16:59 0,7 C 4,4 C 72 % 1014,3 hPa 0,0 l/m 2,3 km/h (1 Bft) NO 51 1 min 0,000 mm 0,0 UV-I 49 W/m -3,8 C 0,7 C 3,2 km/h (1 Bft) 100,00 %
13.02.2018 17:00 0,7 C 4,4 C 72 % 1014,2 hPa 0,0 l/m 2,1 km/h (1 Bft) NO 51 1 min 0,000 mm 0,0 UV-I 47 W/m -3,8 C 0,7 C 3,2 km/h (1 Bft) 95,65 %
13.02.2018 17:01 0,7 C 4,4 C 72 % 1014,2 hPa 0,0 l/m 2,5 km/h (1 Bft) NO 51 1 min 0,025 mm 0,0 UV-I 43 W/m -3,8 C 0,7 C 4,8 km/h (1 Bft) 100,00 %
13.02.2018 17:02 0,7 C 4,4 C 72 % 1014,2 hPa 0,0 l/m 3,3 km/h (1 Bft) NO 51 1 min 0,000 mm 0,0 UV-I 41 W/m -3,8 C 0,7 C 4,8 km/h (1 Bft) 95,65 %
13.02.2018 17:03 0,7 C 4,4 C 72 % 1014,2 hPa 0,0 l/m 2,7 km/h (1 Bft) NO 51 1 min 0,000 mm 0,0 UV-I 38 W/m -3,8 C 0,7 C 3,2 km/h (1 Bft) 100,00 %
13.02.2018 17:04 0,7 C 4,4 C 72 % 1014,2 hPa 0,0 l/m 3,4 km/h (1 Bft) NO 51 1 min 0,000 mm 0,0 UV-I 36 W/m -3,8 C 0,7 C 4,8 km/h (1 Bft) 95,65 %
13.02.2018 17:05 0,7 C 4,4 C 72 % 1014,2 hPa 0,0 l/m 3,5 km/h (1 Bft) NO 51 1 min 0,000 mm 0,0 UV-I 33 W/m -3,8 C 0,7 C 4,8 km/h (1 Bft) 100,00 %
13.02.2018 17:06 0,7 C 4,4 C 72 % 1014,2 hPa 0,0 l/m 3,4 km/h (1 Bft) NO 51 1 min 0,000 mm 0,0 UV-I 32 W/m -3,8 C 0,7 C 4,8 km/h (1 Bft) 100,00 %
13.02.2018 17:07 0,7 C 4,4 C 72 % 1014,2 hPa 0,0 l/m 3,1 km/h (1 Bft) NO 51 1 min 0,000 mm 0,0 UV-I 29 W/m -3,8 C 0,7 C 3,2 km/h (1 Bft) 95,83 %
13.02.2018 17:08 0,7 C 4,4 C 72 % 1014,2 hPa 0,0 l/m 3,0 km/h (1 Bft) NO 51 1 min 0,000 mm 0,0 UV-I 26 W/m -3,8 C 0,7 C 4,8 km/h (1 Bft) 100,00 %
13.02.2018 17:09 0,7 C 4,4 C 73 % 1014,3 hPa 0,0 l/m 3,0 km/h (1 Bft) NO 51 1 min 0,000 mm 0,0 UV-I 24 W/m -3,6 C 0,7 C 4,8 km/h (1 Bft) 95,83 %
13.02.2018 17:10 0,7 C 4,4 C 73 % 1014,3 hPa 0,0 l/m 3,0 km/h (1 Bft) NO 51 1 min 0,000 mm 0,0 UV-I 23 W/m -3,6 C 0,7 C 4,8 km/h (1 Bft) 95,65 %
13.02.2018 17:11 0,7 C 4,4 C 73 % 1014,2 hPa 0,0 l/m 3,2 km/h (1 Bft) NO 51 1 min 0,000 mm 0,0 UV-I 21 W/m -3,6 C 0,7 C 3,2 km/h (1 Bft) 95,83 %
13.02.2018 17:12 0,7 C 4,4 C 73 % 1014,2 hPa 0,0 l/m 2,1 km/h (1 Bft) NO 51 0 min 0,000 mm 0,0 UV-I 19 W/m -3,6 C 0,7 C 3,2 km/h (1 Bft) 100,00 %
13.02.2018 17:13 0,7 C 4,4 C 72 % 1014,2 hPa 0,0 l/m 2,1 km/h (1 Bft) NO 51 0 min 0,000 mm 0,0 UV-I 17 W/m -3,8 C 0,7 C 3,2 km/h (1 Bft) 95,83 %
13.02.2018 17:14 0,7 C 4,4 C 73 % 1014,2 hPa 0,0 l/m 2,0 km/h (1 Bft) NO 51 0 min 0,000 mm 0,0 UV-I 16 W/m -3,6 C 0,7 C 3,2 km/h (1 Bft) 95,65 %
13.02.2018 17:15 0,7 C 4,4 C 72 % 1014,3 hPa 0,0 l/m 2,8 km/h (1 Bft) NO 51 0 min 0,000 mm 0,0 UV-I 15 W/m -3,8 C 0,7 C 3,2 km/h (1 Bft) 95,83 %
13.02.2018 17:16 0,7 C 4,4 C 73 % 1014,2 hPa 0,0 l/m 3,0 km/h (1 Bft) NO 51 0 min 0,000 mm 0,0 UV-I 12 W/m -3,6 C 0,7 C 4,8 km/h (1 Bft) 91,67 %
13.02.2018 17:17 0,7 C 4,4 C 73 % 1014,2 hPa 0,0 l/m 2,4 km/h (1 Bft) NO 51 0 min 0,000 mm 0,0 UV-I 11 W/m -3,6 C 0,7 C 3,2 km/h (1 Bft) 100,00 %
13.02.2018 17:18 0,7 C 4,4 C 73 % 1014,2 hPa 0,0 l/m 2,1 km/h (1 Bft) NO 51 0 min 0,000 mm 0,0 UV-I 11 W/m -3,6 C 0,7 C 3,2 km/h (1 Bft) 95,83 %
13.02.2018 17:19 0,7 C 4,4 C 73 % 1014,2 hPa 0,0 l/m 1,9 km/h (1 Bft) NO 51 0 min 0,000 mm 0,0 UV-I 10 W/m -3,6 C 0,7 C 3,2 km/h (1 Bft) 96,15 %
13.02.2018 17:20 0,7 C 4,4 C 73 % 1014,2 hPa 0,0 l/m 2,0 km/h (1 Bft) NO 51 0 min 0,000 mm 0,0 UV-I 9 W/m -3,6 C 0,7 C 3,2 km/h (1 Bft) 96,15 %
13.02.2018 17:21 0,7 C 4,4 C 72 % 1014,2 hPa 0,0 l/m 2,0 km/h (1 Bft) NO 51 0 min 0,000 mm 0,0 UV-I 9 W/m -3,8 C 0,7 C 3,2 km/h (1 Bft) 96,30 %
13.02.2018 17:22 0,7 C 4,4 C 72 % 1014,2 hPa 0,0 l/m 2,5 km/h (1 Bft) NO 51 0 min 0,000 mm 0,0 UV-I 9 W/m -3,8 C 0,7 C 3,2 km/h (1 Bft) 100,00 %
13.02.2018 17:23 0,7 C 4,4 C 73 % 1014,2 hPa 0,0 l/m 2,0 km/h (1 Bft) NO 51 0 min 0,000 mm 0,0 UV-I 7 W/m -3,6 C 0,7 C 3,2 km/h (1 Bft) 96,15 %
13.02.2018 17:24 0,6 C 4,4 C 74 % 1014,1 hPa 0,0 l/m 2,3 km/h (1 Bft) NO 51 0 min 0,000 mm 0,0 UV-I 7 W/m -3,5 C 0,6 C 3,2 km/h (1 Bft) 95,83 %
13.02.2018 17:25 0,6 C 4,4 C 75 % 1014,2 hPa 0,0 l/m 2,0 km/h (1 Bft) NO 51 0 min 0,000 mm 0,0 UV-I 7 W/m -3,3 C 0,6 C 3,2 km/h (1 Bft) 91,30 %
13.02.2018 17:26 0,5 C 4,4 C 75 % 1014,2 hPa 0,0 l/m 2,7 km/h (1 Bft) NO 51 0 min 0,000 mm 0,0 UV-I 7 W/m -3,4 C 0,5 C 3,2 km/h (1 Bft) 100,00 %
13.02.2018 17:27 0,6 C 4,4 C 74 % 1014,2 hPa 0,0 l/m 2,7 km/h (1 Bft) NO 51 0 min 0,000 mm 0,0 UV-I 6 W/m -3,5 C 0,6 C 3,2 km/h (1 Bft) 95,65 %
13.02.2018 17:28 0,6 C 4,4 C 73 % 1014,2 hPa 0,0 l/m 2,8 km/h (1 Bft) NO 51 0 min 0,000 mm 0,0 UV-I 5 W/m -3,7 C 0,6 C 3,2 km/h (1 Bft) 100,00 %
13.02.2018 17:29 0,6 C 4,4 C 73 % 1014,2 hPa 0,0 l/m 2,8 km/h (1 Bft) NO 51 0 min 0,000 mm 0,0 UV-I 5 W/m -3,7 C 0,6 C 3,2 km/h (1 Bft) 95,65 %
13.02.2018 17:30 0,6 C 4,4 C 73 % 1014,1 hPa 0,0 l/m 2,1 km/h (1 Bft) NO 51 0 min 0,000 mm 0,0 UV-I 5 W/m -3,7 C 0,6 C 3,2 km/h (1 Bft) 95,83 %
13.02.2018 17:31 0,6 C 4,4 C 73 % 1014,1 hPa 0,0 l/m 2,6 km/h (1 Bft) NO 51 0 min 0,000 mm 0,0 UV-I 5 W/m -3,7 C 0,6 C 3,2 km/h (1 Bft) 92,31 %
13.02.2018 17:32 0,6 C 4,4 C 74 % 1014,1 hPa 0,0 l/m 3,1 km/h (1 Bft) NO 51 0 min 0,000 mm 0,0 UV-I 5 W/m -3,5 C 0,6 C 3,2 km/h (1 Bft) 96,30 %
13.02.2018 17:33 0,6 C 4,4 C 74 % 1014,2 hPa 0,0 l/m 2,8 km/h (1 Bft) NO 51 0 min 0,000 mm 0,0 UV-I 5 W/m -3,5 C 0,6 C 3,2 km/h (1 Bft) 100,00 %
13.02.2018 17:34 0,5 C 4,4 C 74 % 1014,2 hPa 0,0 l/m 2,7 km/h (1 Bft) NO 51 0 min 0,000 mm 0,0 UV-I 5 W/m -3,6 C 0,5 C 3,2 km/h (1 Bft) 95,83 %
13.02.2018 17:35 0,5 C 4,4 C 74 % 1014,1 hPa 0,0 l/m 3,3 km/h (1 Bft) NO 51 0 min 0,000 mm 0,0 UV-I 5 W/m -3,6 C 0,5 C 4,8 km/h (1 Bft) 100,00 %
13.02.2018 17:36 0,5 C 4,4 C 74 % 1014,1 hPa 0,0 l/m 2,5 km/h (1 Bft) NO 51 0 min 0,000 mm 0,0 UV-I 0 W/m -3,6 C 0,5 C 3,2 km/h (1 Bft) 93,33 %
13.02.2018 17:37 0,5 C 4,4 C 74 % 1014,1 hPa 0,0 l/m 2,1 km/h (1 Bft) NO 51 0 min 0,000 mm 0,0 UV-I 0 W/m -3,6 C 0,5 C 3,2 km/h (1 Bft) 100,00 %
13.02.2018 17:38 0,5 C 4,4 C 74 % 1014,1 hPa 0,0 l/m 2,3 km/h (1 Bft) NO 51 0 min 0,000 mm 0,0 UV-I 0 W/m -3,6 C 0,5 C 3,2 km/h (1 Bft) 96,15 %
13.02.2018 17:39 0,5 C 4,4 C 74 % 1014,1 hPa 0,0 l/m 3,2 km/h (1 Bft) NO 51 0 min 0,000 mm 0,0 UV-I 0 W/m -3,6 C 0,5 C 3,2 km/h (1 Bft) 95,83 %
13.02.2018 17:40 0,5 C 4,4 C 74 % 1014,1 hPa 0,0 l/m 3,4 km/h (1 Bft) NO 51 0 min 0,000 mm 0,0 UV-I 0 W/m -3,6 C 0,5 C 4,8 km/h (1 Bft) 100,00 %
13.02.2018 17:41 0,4 C 4,4 C 75 % 1014,1 hPa 0,0 l/m 3,0 km/h (1 Bft) NO 51 0 min 0,000 mm 0,0 UV-I 0 W/m -3,5 C 0,4 C 4,8 km/h (1 Bft) 91,67 %
13.02.2018 17:42 0,4 C 4,4 C 75 % 1014,1 hPa 0,0 l/m 2,5 km/h (1 Bft) NO 51 0 min 0,000 mm 0,0 UV-I 0 W/m -3,5 C 0,4 C 3,2 km/h (1 Bft) 95,65 %
13.02.2018 17:43 0,4 C 4,4 C 75 % 1014,1 hPa 0,0 l/m 3,3 km/h (1 Bft) NO 51 0 min 0,000 mm 0,0 UV-I 0 W/m -3,5 C 0,4 C 4,8 km/h (1 Bft) 100,00 %
13.02.2018 17:44 0,4 C 4,4 C 75 % 1014,1 hPa 0,0 l/m 3,2 km/h (1 Bft) NO 51 0 min 0,000 mm 0,0 UV-I 0 W/m -3,5 C 0,4 C 4,8 km/h (1 Bft) 95,65 %
13.02.2018 17:45 0,4 C 4,4 C 76 % 1014,1 hPa 0,0 l/m 2,7 km/h (1 Bft) NO 51 0 min 0,000 mm 0,0 UV-I 0 W/m -3,3 C 0,4 C 3,2 km/h (1 Bft) 100,00 %
13.02.2018 17:46 0,4 C 4,4 C 76 % 1014,1 hPa 0,0 l/m 3,3 km/h (1 Bft) NO 51 0 min 0,000 mm 0,0 UV-I 0 W/m -3,3 C 0,4 C 4,8 km/h (1 Bft) 91,30 %
13.02.2018 17:47 0,4 C 4,4 C 76 % 1014,1 hPa 0,0 l/m 2,5 km/h (1 Bft) NO 51 0 min 0,000 mm 0,0 UV-I 0 W/m -3,3 C 0,4 C 3,2 km/h (1 Bft) 100,00 %
13.02.2018 17:48 0,4 C 4,4 C 76 % 1014,0 hPa 0,0 l/m 4,1 km/h (1 Bft) NO 51 0 min 0,000 mm 0,0 UV-I 0 W/m -3,3 C 0,4 C 4,8 km/h (1 Bft) 100,00 %
13.02.2018 17:49 0,3 C 4,4 C 76 % 1014,1 hPa 0,0 l/m 3,2 km/h (1 Bft) NO 51 0 min 0,000 mm 0,0 UV-I 0 W/m -3,4 C 0,3 C 4,8 km/h (1 Bft) 100,00 %
13.02.2018 17:50 0,3 C 4,4 C 76 % 1014,1 hPa 0,0 l/m 2,9 km/h (1 Bft) NO 51 0 min 0,000 mm 0,0 UV-I 0 W/m -3,4 C 0,3 C 4,8 km/h (1 Bft) 95,65 %
13.02.2018 17:51 0,3 C 4,4 C 76 % 1014,1 hPa 0,0 l/m 3,6 km/h (1 Bft) NO 51 0 min 0,000 mm 0,0 UV-I 0 W/m -3,4 C 0,3 C 4,8 km/h (1 Bft) 100,00 %
13.02.2018 17:52 0,3 C 4,4 C 76 % 1014,1 hPa 0,0 l/m 3,1 km/h (1 Bft) NO 51 0 min 0,000 mm 0,0 UV-I 0 W/m -3,4 C 0,3 C 4,8 km/h (1 Bft) 100,00 %
13.02.2018 17:53 0,3 C 4,4 C 77 % 1014,1 hPa 0,0 l/m 3,6 km/h (1 Bft) NO 51 0 min 0,000 mm 0,0 UV-I 0 W/m -3,2 C 0,3 C 4,8 km/h (1 Bft) 100,00 %
13.02.2018 17:54 0,3 C 4,4 C 77 % 1014,1 hPa 0,0 l/m 3,0 km/h (1 Bft) NO 51 0 min 0,000 mm 0,0 UV-I 0 W/m -3,2 C 0,3 C 4,8 km/h (1 Bft) 95,65 %
13.02.2018 17:55 0,3 C 4,4 C 76 % 1014,1 hPa 0,0 l/m 3,4 km/h (1 Bft) NO 51 0 min 0,000 mm 0,0 UV-I 0 W/m -3,4 C 0,3 C 4,8 km/h (1 Bft) 100,00 %
13.02.2018 17:56 0,2 C 4,4 C 76 % 1014,2 hPa 0,0 l/m 2,1 km/h (1 Bft) NO 51 0 min 0,000 mm 0,0 UV-I 0 W/m -3,5 C 0,2 C 3,2 km/h (1 Bft) 100,00 %
13.02.2018 17:57 0,2 C 4,4 C 76 % 1014,1 hPa 0,0 l/m 2,9 km/h (1 Bft) NO 51 0 min 0,000 mm 0,0 UV-I 0 W/m -3,5 C 0,2 C 3,2 km/h (1 Bft) 100,00 %
13.02.2018 17:58 0,2 C 4,4 C 76 % 1014,1 hPa 0,0 l/m 2,9 km/h (1 Bft) NO 51 0 min 0,000 mm 0,0 UV-I 0 W/m -3,5 C 0,2 C 3,2 km/h (1 Bft) 100,00 %
13.02.2018 17:59 0,2 C 4,4 C 76 % 1014,2 hPa 0,0 l/m 3,1 km/h (1 Bft) NO 51 0 min 0,000 mm 0,0 UV-I 0 W/m -3,5 C 0,2 C 4,8 km/h (1 Bft) 100,00 %
13.02.2018 18:00 0,2 C 4,4 C 76 % 1014,1 hPa 0,0 l/m 2,1 km/h (1 Bft) NO 51 0 min 0,000 mm 0,0 UV-I 0 W/m -3,5 C 0,2 C 3,2 km/h (1 Bft) 100,00 %
13.02.2018 18:01 0,2 C 4,4 C 76 % 1014,1 hPa 0,0 l/m 2,5 km/h (1 Bft) NO 51 0 min 0,000 mm 0,0 UV-I 0 W/m -3,5 C 0,2 C 3,2 km/h (1 Bft) 100,00 %
13.02.2018 18:02 0,2 C 4,4 C 77 % 1014,2 hPa 0,0 l/m 2,5 km/h (1 Bft) NO 51 0 min 0,000 mm 0,0 UV-I 0 W/m -3,3 C 0,2 C 3,2 km/h (1 Bft) 100,00 %
13.02.2018 18:03 0,1 C 4,4 C 77 % 1014,2 hPa 0,0 l/m 1,9 km/h (1 Bft) NO 51 0 min 0,000 mm 0,0 UV-I 0 W/m -3,4 C 0,1 C 3,2 km/h (1 Bft) 95,65 %
13.02.2018 18:04 0,1 C 4,4 C 78 % 1014,2 hPa 0,0 l/m 2,2 km/h (1 Bft) NO 51 0 min 0,000 mm 0,0 UV-I 0 W/m -3,3 C 0,1 C 3,2 km/h (1 Bft) 100,00 %
13.02.2018 18:05 0,1 C 4,4 C 78 % 1014,2 hPa 0,0 l/m 1,8 km/h (1 Bft) NO 51 0 min 0,000 mm 0,0 UV-I 0 W/m -3,3 C 0,1 C 3,2 km/h (1 Bft) 100,00 %
13.02.2018 18:06 0,1 C 4,4 C 77 % 1014,2 hPa 0,0 l/m 1,2 km/h (1 Bft) NO 51 0 min 0,000 mm 0,0 UV-I 0 W/m -3,4 C 0,1 C 1,6 km/h (1 Bft) 100,00 %
13.02.2018 18:07 0,1 C 4,4 C 77 % 1014,2 hPa 0,0 l/m 1,4 km/h (1 Bft) NO 51 0 min 0,000 mm 0,0 UV-I 0 W/m -3,4 C 0,1 C 3,2 km/h (1 Bft) 100,00 %
13.02.2018 18:08 0,1 C 4,4 C 77 % 1014,2 hPa 0,0 l/m 0,6 km/h (0 Bft) NO 51 0 min 0,000 mm 0,0 UV-I 0 W/m -3,4 C 0,1 C 1,6 km/h (1 Bft) 100,00 %
13.02.2018 18:09 0,1 C 4,4 C 76 % 1014,2 hPa 0,0 l/m 0,6 km/h (0 Bft) NO 51 0 min 0,000 mm 0,0 UV-I 0 W/m -3,6 C 0,1 C 1,6 km/h (1 Bft) 96,55 %
13.02.2018 18:10 0,2 C 4,4 C 77 % 1014,2 hPa 0,0 l/m 1,3 km/h (1 Bft) NO 51 0 min 0,000 mm 0,0 UV-I 0 W/m -3,3 C 0,2 C 1,6 km/h (1 Bft) 100,00 %
13.02.2018 18:11 0,2 C 4,4 C 77 % 1014,1 hPa 0,0 l/m 1,1 km/h (1 Bft) NO 51 0 min 0,000 mm 0,0 UV-I 0 W/m -3,3 C 0,2 C 1,6 km/h (1 Bft) 100,00 %
13.02.2018 18:12 0,1 C 4,4 C 77 % 1014,2 hPa 0,0 l/m 2,1 km/h (1 Bft) NO 51 0 min 0,000 mm 0,0 UV-I 0 W/m -3,4 C 0,1 C 3,2 km/h (1 Bft) 100,00 %
13.02.2018 18:13 0,1 C 4,4 C 77 % 1014,2 hPa 0,0 l/m 2,1 km/h (1 Bft) NO 51 0 min 0,000 mm 0,0 UV-I 0 W/m -3,4 C 0,1 C 3,2 km/h (1 Bft) 100,00 %
13.02.2018 18:14 0,1 C 4,4 C 76 % 1014,2 hPa 0,0 l/m 2,1 km/h (1 Bft) NO 51 0 min 0,000 mm 0,0 UV-I 0 W/m -3,6 C 0,1 C 3,2 km/h (1 Bft) 100,00 %
13.02.2018 18:15 0,1 C 4,4 C 75 % 1014,1 hPa 0,0 l/m 2,1 km/h (1 Bft) NO 51 0 min 0,000 mm 0,0 UV-I 0 W/m -3,8 C 0,1 C 3,2 km/h (1 Bft) 100,00 %
13.02.2018 18:16 0,0 C 4,4 C 76 % 1014,1 hPa 0,0 l/m 2,5 km/h (1 Bft) NO 51 0 min 0,000 mm 0,0 UV-I 0 W/m -3,7 C 0,0 C 3,2 km/h (1 Bft) 95,83 %
13.02.2018 18:17 -0,1 C 4,4 C 76 % 1014,1 hPa 0,0 l/m 2,4 km/h (1 Bft) NO 51 0 min 0,000 mm 0,0 UV-I 0 W/m -3,8 C -0,1 C 3,2 km/h (1 Bft) 100,00 %
13.02.2018 18:18 -0,1 C 4,4 C 76 % 1014,1 hPa 0,0 l/m 2,4 km/h (1 Bft) NO 51 0 min 0,000 mm 0,0 UV-I 0 W/m -3,8 C -0,1 C 3,2 km/h (1 Bft) 95,65 %
13.02.2018 18:19 -0,2 C 4,4 C 76 % 1014,1 hPa 0,0 l/m 2,4 km/h (1 Bft) NO 51 0 min 0,000 mm 0,0 UV-I 0 W/m -3,9 C -0,2 C 3,2 km/h (1 Bft) 100,00 %
13.02.2018 18:20 -0,2 C 4,4 C 76 % 1014,1 hPa 0,0 l/m 1,9 km/h (1 Bft) NO 51 0 min 0,000 mm 0,0 UV-I 0 W/m -3,9 C -0,2 C 3,2 km/h (1 Bft) 95,65 %
13.02.2018 18:21 -0,1 C 4,4 C 76 % 1014,2 hPa 0,0 l/m 2,3 km/h (1 Bft) NO 51 0 min 0,000 mm 0,0 UV-I 0 W/m -3,8 C -0,1 C 3,2 km/h (1 Bft) 100,00 %
13.02.2018 18:22 -0,1 C 4,4 C 76 % 1014,1 hPa 0,0 l/m 2,2 km/h (1 Bft) NO 51 0 min 0,000 mm 0,0 UV-I 0 W/m -3,8 C -0,1 C 3,2 km/h (1 Bft) 100,00 %
13.02.2018 18:23 -0,1 C 4,4 C 77 % 1014,2 hPa 0,0 l/m 2,3 km/h (1 Bft) NO 51 0 min 0,000 mm 0,0 UV-I 0 W/m -3,6 C -0,1 C 3,2 km/h (1 Bft) 100,00 %
13.02.2018 18:24 -0,1 C 4,4 C 76 % 1014,2 hPa 0,0 l/m 2,4 km/h (1 Bft) NO 51 0 min 0,000 mm 0,0 UV-I 0 W/m -3,8 C -0,1 C 3,2 km/h (1 Bft) 100,00 %
13.02.2018 18:25 -0,1 C 4,4 C 77 % 1014,2 hPa 0,0 l/m 2,5 km/h (1 Bft) NO 51 0 min 0,000 mm 0,0 UV-I 0 W/m -3,6 C -0,1 C 3,2 km/h (1 Bft) 100,00 %
13.02.2018 18:26 0,0 C 4,4 C 77 % 1014,2 hPa 0,0 l/m 2,8 km/h (1 Bft) NO 51 0 min 0,000 mm 0,0 UV-I 0 W/m -3,5 C 0,0 C 3,2 km/h (1 Bft) 100,00 %
13.02.2018 18:27 0,0 C 4,4 C 77 % 1014,1 hPa 0,0 l/m 3,0 km/h (1 Bft) NO 51 0 min 0,000 mm 0,0 UV-I 0 W/m -3,5 C 0,0 C 3,2 km/h (1 Bft) 100,00 %
13.02.2018 18:28 0,0 C 4,4 C 76 % 1014,2 hPa 0,0 l/m 3,2 km/h (1 Bft) NO 51 0 min 0,000 mm 0,0 UV-I 0 W/m -3,7 C 0,0 C 4,8 km/h (1 Bft) 100,00 %
13.02.2018 18:29 0,0 C 4,4 C 77 % 1014,1 hPa 0,0 l/m 3,2 km/h (1 Bft) NO 51 0 min 0,000 mm 0,0 UV-I 0 W/m -3,5 C 0,0 C 4,8 km/h (1 Bft) 100,00 %
13.02.2018 18:30 0,0 C 4,4 C 77 % 1014,1 hPa 0,0 l/m 3,3 km/h (1 Bft) NO 51 0 min 0,000 mm 0,0 UV-I 0 W/m -3,5 C 0,0 C 4,8 km/h (1 Bft) 100,00 %
13.02.2018 18:31 0,0 C 4,4 C 76 % 1014,2 hPa 0,0 l/m 2,5 km/h (1 Bft) NO 51 0 min 0,000 mm 0,0 UV-I 0 W/m -3,7 C 0,0 C 3,2 km/h (1 Bft) 100,00 %
13.02.2018 18:32 0,1 C 4,4 C 76 % 1014,2 hPa 0,0 l/m 3,2 km/h (1 Bft) NO 51 0 min 0,000 mm 0,0 UV-I 0 W/m -3,6 C 0,1 C 3,2 km/h (1 Bft) 100,00 %
13.02.2018 18:33 0,1 C 4,4 C 76 % 1014,2 hPa 0,0 l/m 3,1 km/h (1 Bft) NO 51 0 min 0,000 mm 0,0 UV-I 0 W/m -3,6 C 0,1 C 4,8 km/h (1 Bft) 95,83 %
13.02.2018 18:34 0,1 C 4,4 C 76 % 1014,1 hPa 0,0 l/m 2,3 km/h (1 Bft) NO 51 0 min 0,000 mm 0,0 UV-I 0 W/m -3,6 C 0,1 C 3,2 km/h (1 Bft) 100,00 %
13.02.2018 18:35 0,1 C 4,4 C 76 % 1014,2 hPa 0,0 l/m 2,9 km/h (1 Bft) NO 51 0 min 0,000 mm 0,0 UV-I 0 W/m -3,6 C 0,1 C 3,2 km/h (1 Bft) 100,00 %
13.02.2018 18:36 0,1 C 4,4 C 76 % 1014,2 hPa 0,0 l/m 2,3 km/h (1 Bft) NO 51 0 min 0,000 mm 0,0 UV-I 0 W/m -3,6 C 0,1 C 3,2 km/h (1 Bft) 95,83 %
13.02.2018 18:37 -0,1 C 4,4 C 76 % 1014,1 hPa 0,0 l/m 2,1 km/h (1 Bft) NO 51 0 min 0,000 mm 0,0 UV-I 0 W/m -3,8 C -0,1 C 3,2 km/h (1 Bft) 100,00 %
13.02.2018 18:38 -0,1 C 4,4 C 76 % 1014,1 hPa 0,0 l/m 2,5 km/h (1 Bft) NO 51 0 min 0,000 mm 0,0 UV-I 0 W/m -3,8 C -0,1 C 3,2 km/h (1 Bft) 100,00 %
13.02.2018 18:39 -0,1 C 4,4 C 77 % 1014,1 hPa 0,0 l/m 2,4 km/h (1 Bft) NO 51 0 min 0,000 mm 0,0 UV-I 0 W/m -3,6 C -0,1 C 3,2 km/h (1 Bft) 100,00 %
13.02.2018 18:40 -0,2 C 4,4 C 77 % 1014,1 hPa 0,0 l/m 1,9 km/h (1 Bft) NO 51 0 min 0,000 mm 0,0 UV-I 0 W/m -3,7 C -0,2 C 3,2 km/h (1 Bft) 100,00 %
13.02.2018 18:41 -0,1 C 4,4 C 76 % 1014,2 hPa 0,0 l/m 2,1 km/h (1 Bft) NO 51 0 min 0,000 mm 0,0 UV-I 0 W/m -3,8 C -0,1 C 3,2 km/h (1 Bft) 100,00 %
13.02.2018 18:42 -0,2 C 4,4 C 76 % 1014,1 hPa 0,0 l/m 1,6 km/h (1 Bft) NO 51 0 min 0,000 mm 0,0 UV-I 0 W/m -3,9 C -0,2 C 3,2 km/h (1 Bft) 100,00 %
13.02.2018 18:44 -0,2 C 4,4 C 77 % 1014,2 hPa 0,0 l/m 1,9 km/h (1 Bft) NO 51 0 min 0,000 mm 0,0 UV-I 0 W/m -3,7 C -0,2 C 3,2 km/h (1 Bft) 100,00 %
13.02.2018 18:45 -0,3 C 4,4 C 77 % 1014,2 hPa 0,0 l/m 1,5 km/h (1 Bft) NO 51 0 min 0,000 mm 0,0 UV-I 0 W/m -3,8 C -0,3 C 3,2 km/h (1 Bft) 100,00 %
13.02.2018 18:46 -0,3 C 4,4 C 77 % 1014,2 hPa 0,0 l/m 2,2 km/h (1 Bft) NO 51 0 min 0,000 mm 0,0 UV-I 0 W/m -3,8 C -0,3 C 3,2 km/h (1 Bft) 95,83 %
13.02.2018 18:47 -0,4 C 4,4 C 77 % 1014,1 hPa 0,0 l/m 2,3 km/h (1 Bft) NO 51 0 min 0,000 mm 0,0 UV-I 0 W/m -3,9 C -0,4 C 3,2 km/h (1 Bft) 100,00 %
13.02.2018 18:48 -0,3 C 4,4 C 76 % 1014,1 hPa 0,0 l/m 2,7 km/h (1 Bft) NO 51 0 min 0,000 mm 0,0 UV-I 0 W/m -4,0 C -0,3 C 3,2 km/h (1 Bft) 100,00 %
13.02.2018 18:49 -0,3 C 4,4 C 76 % 1014,1 hPa 0,0 l/m 2,9 km/h (1 Bft) NO 51 0 min 0,000 mm 0,0 UV-I 0 W/m -4,0 C -0,3 C 3,2 km/h (1 Bft) 100,00 %
13.02.2018 18:50 -0,3 C 4,4 C 76 % 1014,1 hPa 0,0 l/m 3,1 km/h (1 Bft) NO 51 0 min 0,000 mm 0,0 UV-I 0 W/m -4,0 C -0,3 C 3,2 km/h (1 Bft) 100,00 %
13.02.2018 18:51 -0,3 C 4,4 C 76 % 1014,1 hPa 0,0 l/m 2,7 km/h (1 Bft) NO 51 0 min 0,000 mm 0,0 UV-I 0 W/m -4,0 C -0,3 C 3,2 km/h (1 Bft) 95,83 %
13.02.2018 18:52 -0,2 C 4,4 C 76 % 1014,1 hPa 0,0 l/m 3,4 km/h (1 Bft) NO 51 0 min 0,000 mm 0,0 UV-I 0 W/m -3,9 C -0,2 C 4,8 km/h (1 Bft) 100,00 %
13.02.2018 18:53 -0,1 C 4,4 C 76 % 1014,1 hPa 0,0 l/m 3,6 km/h (1 Bft) NO 51 0 min 0,000 mm 0,0 UV-I 0 W/m -3,8 C -0,1 C 4,8 km/h (1 Bft) 95,83 %
13.02.2018 18:54 -0,1 C 4,4 C 76 % 1014,1 hPa 0,0 l/m 3,1 km/h (1 Bft) NO 51 0 min 0,000 mm 0,0 UV-I 0 W/m -3,8 C -0,1 C 4,8 km/h (1 Bft) 100,00 %
13.02.2018 18:55 -0,1 C 4,4 C 76 % 1014,1 hPa 0,0 l/m 2,8 km/h (1 Bft) NO 51 0 min 0,000 mm 0,0 UV-I 0 W/m -3,8 C -0,1 C 3,2 km/h (1 Bft) 95,83 %
13.02.2018 18:56 0,0 C 4,4 C 75 % 1014,1 hPa 0,0 l/m 3,1 km/h (1 Bft) NO 51 0 min 0,000 mm 0,0 UV-I 0 W/m -3,9 C 0,0 C 3,2 km/h (1 Bft) 95,65 %
13.02.2018 18:57 0,0 C 4,4 C 76 % 1014,1 hPa 0,0 l/m 2,7 km/h (1 Bft) NO 51 0 min 0,000 mm 0,0 UV-I 0 W/m -3,7 C 0,0 C 3,2 km/h (1 Bft) 95,83 %
13.02.2018 18:58 -0,1 C 4,4 C 76 % 1014,1 hPa 0,0 l/m 2,7 km/h (1 Bft) NO 51 0 min 0,000 mm 0,0 UV-I 0 W/m -3,8 C -0,1 C 3,2 km/h (1 Bft) 95,65 %
13.02.2018 18:59 -0,1 C 4,4 C 76 % 1014,1 hPa 0,0 l/m 2,5 km/h (1 Bft) NO 51 0 min 0,000 mm 0,0 UV-I 0 W/m -3,8 C -0,1 C 3,2 km/h (1 Bft) 91,67 %
13.02.2018 19:00 -0,1 C 4,4 C 77 % 1014,1 hPa 0,0 l/m 2,2 km/h (1 Bft) NO 51 0 min 0,000 mm 0,0 UV-I 0 W/m -3,6 C -0,1 C 3,2 km/h (1 Bft) 95,65 %
13.02.2018 19:01 -0,2 C 4,4 C 78 % 1014,1 hPa 0,0 l/m 1,7 km/h (1 Bft) NO 51 0 min 0,000 mm 0,0 UV-I 0 W/m -3,6 C -0,2 C 3,2 km/h (1 Bft) 100,00 %
13.02.2018 19:02 -0,3 C 4,4 C 78 % 1014,1 hPa 0,0 l/m 2,0 km/h (1 Bft) NO 51 0 min 0,000 mm 0,0 UV-I 0 W/m -3,7 C -0,3 C 3,2 km/h (1 Bft) 91,30 %
13.02.2018 19:03 -0,3 C 4,4 C 78 % 1014,1 hPa 0,0 l/m 2,1 km/h (1 Bft) NO 51 0 min 0,000 mm 0,0 UV-I 0 W/m -3,7 C -0,3 C 3,2 km/h (1 Bft) 100,00 %
13.02.2018 19:04 -0,2 C 4,4 C 77 % 1014,0 hPa 0,0 l/m 2,0 km/h (1 Bft) NO 51 0 min 0,000 mm 0,0 UV-I 0 W/m -3,7 C -0,2 C 3,2 km/h (1 Bft) 86,96 %
13.02.2018 19:05 -0,2 C 4,4 C 77 % 1014,0 hPa 0,0 l/m 2,7 km/h (1 Bft) NO 51 0 min 0,000 mm 0,0 UV-I 0 W/m -3,7 C -0,2 C 3,2 km/h (1 Bft) 95,83 %
13.02.2018 19:06 -0,2 C 4,4 C 78 % 1014,0 hPa 0,0 l/m 1,8 km/h (1 Bft) NO 51 0 min 0,000 mm 0,0 UV-I 0 W/m -3,6 C -0,2 C 3,2 km/h (1 Bft) 96,15 %
13.02.2018 19:07 -0,2 C 4,4 C 78 % 1014,0 hPa 0,0 l/m 2,1 km/h (1 Bft) NO 51 0 min 0,000 mm 0,0 UV-I 0 W/m -3,6 C -0,2 C 3,2 km/h (1 Bft) 95,83 %
13.02.2018 19:08 -0,2 C 4,4 C 77 % 1014,0 hPa 0,0 l/m 2,0 km/h (1 Bft) NO 51 0 min 0,000 mm 0,0 UV-I 0 W/m -3,7 C -0,2 C 3,2 km/h (1 Bft) 100,00 %
13.02.2018 19:09 -0,2 C 4,4 C 77 % 1014,0 hPa 0,0 l/m 2,1 km/h (1 Bft) NO 51 0 min 0,000 mm 0,0 UV-I 0 W/m -3,7 C -0,2 C 3,2 km/h (1 Bft) 95,83 %
13.02.2018 19:10 -0,2 C 4,4 C 77 % 1014,1 hPa 0,0 l/m 2,3 km/h (1 Bft) NO 51 0 min 0,000 mm 0,0 UV-I 0 W/m -3,7 C -0,2 C 3,2 km/h (1 Bft) 100,00 %
13.02.2018 19:11 -0,3 C 4,4 C 77 % 1014,0 hPa 0,0 l/m 2,3 km/h (1 Bft) NO 51 0 min 0,000 mm 0,0 UV-I 0 W/m -3,8 C -0,3 C 3,2 km/h (1 Bft) 91,67 %
13.02.2018 19:12 -0,3 C 4,4 C 78 % 1014,0 hPa 0,0 l/m 2,5 km/h (1 Bft) NO 51 0 min 0,000 mm 0,0 UV-I 0 W/m -3,7 C -0,3 C 3,2 km/h (1 Bft) 100,00 %
13.02.2018 19:13 -0,2 C 4,4 C 78 % 1014,0 hPa 0,0 l/m 2,7 km/h (1 Bft) NO 51 0 min 0,000 mm 0,0 UV-I 0 W/m -3,6 C -0,2 C 3,2 km/h (1 Bft) 95,65 %
13.02.2018 19:14 -0,2 C 4,4 C 78 % 1014,0 hPa 0,0 l/m 2,2 km/h (1 Bft) NO 51 0 min 0,000 mm 0,0 UV-I 0 W/m -3,6 C -0,2 C 3,2 km/h (1 Bft) 100,00 %
13.02.2018 19:15 -0,3 C 4,4 C 78 % 1014,1 hPa 0,0 l/m 2,5 km/h (1 Bft) NO 51 0 min 0,000 mm 0,0 UV-I 0 W/m -3,7 C -0,3 C 3,2 km/h (1 Bft) 96,15 %
13.02.2018 19:16 -0,3 C 4,4 C 78 % 1014,0 hPa 0,0 l/m 2,8 km/h (1 Bft) NO 51 0 min 0,000 mm 0,0 UV-I 0 W/m -3,7 C -0,3 C 3,2 km/h (1 Bft) 100,00 %
13.02.2018 19:17 -0,3 C 4,4 C 78 % 1014,0 hPa 0,0 l/m 3,2 km/h (1 Bft) NO 51 0 min 0,000 mm 0,0 UV-I 0 W/m -3,7 C -0,3 C 4,8 km/h (1 Bft) 95,65 %
13.02.2018 19:18 -0,3 C 4,4 C 79 % 1013,9 hPa 0,0 l/m 3,6 km/h (1 Bft) NO 51 0 min 0,000 mm 0,0 UV-I 0 W/m -3,5 C -0,3 C 4,8 km/h (1 Bft) 87,50 %
13.02.2018 19:19 -0,4 C 4,4 C 78 % 1013,9 hPa 0,0 l/m 3,1 km/h (1 Bft) NO 51 0 min 0,000 mm 0,0 UV-I 0 W/m -3,8 C -0,4 C 3,2 km/h (1 Bft) 100,00 %
13.02.2018 19:20 -0,3 C 4,4 C 78 % 1014,0 hPa 0,0 l/m 3,0 km/h (1 Bft) NO 51 0 min 0,000 mm 0,0 UV-I 0 W/m -3,7 C -0,3 C 3,2 km/h (1 Bft) 91,67 %
13.02.2018 19:21 -0,3 C 4,4 C 78 % 1013,9 hPa 0,0 l/m 3,6 km/h (1 Bft) NO 51 0 min 0,000 mm 0,0 UV-I 0 W/m -3,7 C -0,3 C 4,8 km/h (1 Bft) 100,00 %
13.02.2018 19:22 -0,3 C 4,4 C 79 % 1013,9 hPa 0,0 l/m 3,2 km/h (1 Bft) NO 51 0 min 0,000 mm 0,0 UV-I 0 W/m -3,5 C -0,3 C 4,8 km/h (1 Bft) 91,67 %
13.02.2018 19:23 -0,3 C 4,4 C 79 % 1013,9 hPa 0,0 l/m 2,4 km/h (1 Bft) NO 51 0 min 0,000 mm 0,0 UV-I 0 W/m -3,5 C -0,3 C 3,2 km/h (1 Bft) 91,30 %
13.02.2018 19:24 -0,2 C 4,4 C 78 % 1013,9 hPa 0,0 l/m 3,5 km/h (1 Bft) NO 51 0 min 0,000 mm 0,0 UV-I 0 W/m -3,6 C -0,2 C 4,8 km/h (1 Bft) 95,83 %
13.02.2018 19:25 -0,2 C 4,4 C 78 % 1013,9 hPa 0,0 l/m 3,6 km/h (1 Bft) NO 51 0 min 0,000 mm 0,0 UV-I 0 W/m -3,6 C -0,2 C 4,8 km/h (1 Bft) 95,65 %
13.02.2018 19:26 -0,2 C 4,4 C 78 % 1013,9 hPa 0,0 l/m 2,9 km/h (1 Bft) NO 51 0 min 0,000 mm 0,0 UV-I 0 W/m -3,6 C -0,2 C 4,8 km/h (1 Bft) 95,83 %
13.02.2018 19:27 -0,2 C 4,4 C 78 % 1013,9 hPa 0,0 l/m 2,8 km/h (1 Bft) NO 51 0 min 0,000 mm 0,0 UV-I 0 W/m -3,6 C -0,2 C 3,2 km/h (1 Bft) 92,31 %
13.02.2018 19:28 -0,2 C 4,4 C 78 % 1013,9 hPa 0,0 l/m 2,5 km/h (1 Bft) NO 51 0 min 0,000 mm 0,0 UV-I 0 W/m -3,6 C -0,2 C 3,2 km/h (1 Bft) 100,00 %
13.02.2018 19:29 -0,2 C 4,4 C 78 % 1013,9 hPa 0,0 l/m 4,2 km/h (1 Bft) O-NO 65 0 min 0,000 mm 0,0 UV-I 0 W/m -3,6 C -0,2 C 4,8 km/h (1 Bft) 92,86 %
13.02.2018 19:30 -0,2 C 4,4 C 78 % 1013,9 hPa 0,0 l/m 3,3 km/h (1 Bft) O-NO 66 0 min 0,000 mm 0,0 UV-I 0 W/m -3,6 C -0,2 C 4,8 km/h (1 Bft) 95,83 %
13.02.2018 19:31 -0,2 C 4,4 C 78 % 1013,9 hPa 0,0 l/m 3,3 km/h (1 Bft) O-NO 66 0 min 0,000 mm 0,0 UV-I 0 W/m -3,6 C -0,2 C 4,8 km/h (1 Bft) 91,67 %
13.02.2018 19:32 -0,2 C 4,4 C 78 % 1013,9 hPa 0,0 l/m 2,8 km/h (1 Bft) O-NO 66 0 min 0,000 mm 0,0 UV-I 0 W/m -3,6 C -0,2 C 4,8 km/h (1 Bft) 96,15 %
13.02.2018 19:33 -0,1 C 4,4 C 78 % 1013,9 hPa 0,0 l/m 3,2 km/h (1 Bft) O-NO 66 0 min 0,000 mm 0,0 UV-I 0 W/m -3,5 C -0,1 C 4,8 km/h (1 Bft) 95,83 %
13.02.2018 19:34 -0,2 C 4,4 C 79 % 1013,9 hPa 0,0 l/m 3,8 km/h (1 Bft) O-NO 66 0 min 0,000 mm 0,0 UV-I 0 W/m -3,4 C -0,2 C 4,8 km/h (1 Bft) 95,65 %
13.02.2018 19:35 -0,2 C 4,4 C 79 % 1013,9 hPa 0,0 l/m 3,8 km/h (1 Bft) O-NO 66 0 min 0,000 mm 0,0 UV-I 0 W/m -3,4 C -0,2 C 4,8 km/h (1 Bft) 91,67 %
13.02.2018 19:36 -0,2 C 4,4 C 80 % 1013,9 hPa 0,0 l/m 3,7 km/h (1 Bft) O-NO 66 0 min 0,000 mm 0,0 UV-I 0 W/m -3,2 C -0,2 C 4,8 km/h (1 Bft) 91,30 %
13.02.2018 19:37 -0,2 C 4,4 C 80 % 1013,8 hPa 0,0 l/m 2,7 km/h (1 Bft) O-NO 66 0 min 0,000 mm 0,0 UV-I 0 W/m -3,2 C -0,2 C 3,2 km/h (1 Bft) 95,83 %
13.02.2018 19:38 -0,2 C 4,4 C 80 % 1013,9 hPa 0,0 l/m 2,0 km/h (1 Bft) O-NO 66 0 min 0,000 mm 0,0 UV-I 0 W/m -3,2 C -0,2 C 3,2 km/h (1 Bft) 95,65 %
13.02.2018 19:39 -0,2 C 4,4 C 80 % 1013,9 hPa 0,0 l/m 2,2 km/h (1 Bft) O-NO 66 0 min 0,000 mm 0,0 UV-I 0 W/m -3,2 C -0,2 C 3,2 km/h (1 Bft) 91,67 %
13.02.2018 19:40 -0,2 C 4,4 C 81 % 1013,9 hPa 0,0 l/m 2,3 km/h (1 Bft) O-NO 66 0 min 0,000 mm 0,0 UV-I 0 W/m -3,1 C -0,2 C 3,2 km/h (1 Bft) 95,65 %
13.02.2018 19:41 -0,2 C 4,4 C 81 % 1013,9 hPa 0,0 l/m 2,1 km/h (1 Bft) O-NO 66 0 min 0,000 mm 0,0 UV-I 0 W/m -3,1 C -0,2 C 3,2 km/h (1 Bft) 95,83 %
13.02.2018 19:42 -0,2 C 4,4 C 81 % 1013,9 hPa 0,0 l/m 2,2 km/h (1 Bft) O-NO 66 0 min 0,000 mm 0,0 UV-I 0 W/m -3,1 C -0,2 C 3,2 km/h (1 Bft) 95,65 %
13.02.2018 19:43 -0,2 C 4,4 C 81 % 1013,9 hPa 0,0 l/m 2,6 km/h (1 Bft) O-NO 66 0 min 0,000 mm 0,0 UV-I 0 W/m -3,1 C -0,2 C 3,2 km/h (1 Bft) 95,83 %
13.02.2018 19:44 -0,2 C 4,4 C 81 % 1013,9 hPa 0,0 l/m 2,6 km/h (1 Bft) O-NO 66 0 min 0,000 mm 0,0 UV-I 0 W/m -3,1 C -0,2 C 3,2 km/h (1 Bft) 91,30 %
13.02.2018 19:45 -0,2 C 4,4 C 81 % 1013,9 hPa 0,0 l/m 2,3 km/h (1 Bft) O-NO 66 0 min 0,000 mm 0,0 UV-I 0 W/m -3,1 C -0,2 C 3,2 km/h (1 Bft) 93,33 %
13.02.2018 19:46 -0,2 C 4,4 C 81 % 1013,8 hPa 0,0 l/m 1,9 km/h (1 Bft) O-NO 66 0 min 0,000 mm 0,0 UV-I 0 W/m -3,1 C -0,2 C 3,2 km/h (1 Bft) 96,15 %
13.02.2018 19:47 -0,2 C 4,4 C 80 % 1013,8 hPa 0,0 l/m 3,2 km/h (1 Bft) O-NO 66 0 min 0,000 mm 0,0 UV-I 0 W/m -3,2 C -0,2 C 4,8 km/h (1 Bft) 96,30 %
13.02.2018 19:48 -0,2 C 4,4 C 80 % 1013,9 hPa 0,0 l/m 4,4 km/h (1 Bft) O 80 0 min 0,000 mm 0,0 UV-I 0 W/m -3,2 C -0,2 C 4,8 km/h (1 Bft) 95,65 %
13.02.2018 19:49 -0,2 C 4,4 C 80 % 1013,9 hPa 0,0 l/m 3,3 km/h (1 Bft) O 80 0 min 0,000 mm 0,0 UV-I 0 W/m -3,2 C -0,2 C 4,8 km/h (1 Bft) 95,83 %
13.02.2018 19:50 -0,2 C 4,4 C 79 % 1013,8 hPa 0,0 l/m 3,6 km/h (1 Bft) O 82 0 min 0,000 mm 0,0 UV-I 0 W/m -3,4 C -0,2 C 4,8 km/h (1 Bft) 91,67 %
13.02.2018 19:51 -0,2 C 4,4 C 79 % 1013,8 hPa 0,0 l/m 3,6 km/h (1 Bft) O 82 0 min 0,000 mm 0,0 UV-I 0 W/m -3,4 C -0,2 C 4,8 km/h (1 Bft) 100,00 %
13.02.2018 19:52 -0,2 C 4,4 C 79 % 1013,8 hPa 0,0 l/m 3,6 km/h (1 Bft) O 82 0 min 0,000 mm 0,0 UV-I 0 W/m -3,4 C -0,2 C 4,8 km/h (1 Bft) 91,67 %
13.02.2018 19:53 -0,2 C 4,4 C 79 % 1013,8 hPa 0,0 l/m 3,8 km/h (1 Bft) O 82 0 min 0,000 mm 0,0 UV-I 0 W/m -3,4 C -0,2 C 4,8 km/h (1 Bft) 95,65 %
13.02.2018 19:54 -0,2 C 4,4 C 79 % 1013,8 hPa 0,0 l/m 3,1 km/h (1 Bft) O 82 0 min 0,000 mm 0,0 UV-I 0 W/m -3,4 C -0,2 C 4,8 km/h (1 Bft) 100,00 %
13.02.2018 19:55 -0,2 C 4,4 C 79 % 1013,8 hPa 0,0 l/m 3,7 km/h (1 Bft) O 82 0 min 0,000 mm 0,0 UV-I 0 W/m -3,4 C -0,2 C 4,8 km/h (1 Bft) 95,65 %
13.02.2018 19:56 -0,3 C 4,4 C 79 % 1013,8 hPa 0,0 l/m 3,4 km/h (1 Bft) O 82 0 min 0,000 mm 0,0 UV-I 0 W/m -3,5 C -0,3 C 4,8 km/h (1 Bft) 100,00 %
13.02.2018 19:57 -0,2 C 4,4 C 80 % 1013,8 hPa 0,0 l/m 3,8 km/h (1 Bft) O 82 0 min 0,000 mm 0,0 UV-I 0 W/m -3,2 C -0,2 C 6,4 km/h (2 Bft) 91,30 %
13.02.2018 19:58 -0,2 C 4,4 C 80 % 1013,9 hPa 0,0 l/m 3,4 km/h (1 Bft) O 83 0 min 0,000 mm 0,0 UV-I 0 W/m -3,2 C -0,2 C 4,8 km/h (1 Bft) 95,83 %
13.02.2018 19:59 -0,2 C 4,4 C 80 % 1013,8 hPa 0,0 l/m 3,4 km/h (1 Bft) O 83 0 min 0,000 mm 0,0 UV-I 0 W/m -3,2 C -0,2 C 4,8 km/h (1 Bft) 95,65 %
13.02.2018 20:00 -0,2 C 4,4 C 80 % 1013,8 hPa 0,0 l/m 3,7 km/h (1 Bft) O 83 0 min 0,000 mm 0,0 UV-I 0 W/m -3,2 C -0,2 C 4,8 km/h (1 Bft) 100,00 %
13.02.2018 20:01 -0,2 C 4,4 C 80 % 1013,9 hPa 0,0 l/m 3,5 km/h (1 Bft) O 83 0 min 0,000 mm 0,0 UV-I 0 W/m -3,2 C -0,2 C 4,8 km/h (1 Bft) 100,00 %
13.02.2018 20:02 -0,2 C 4,4 C 80 % 1013,9 hPa 0,0 l/m 3,6 km/h (1 Bft) O 83 0 min 0,000 mm 0,0 UV-I 0 W/m -3,2 C -0,2 C 4,8 km/h (1 Bft) 100,00 %
13.02.2018 20:03 -0,2 C 4,4 C 80 % 1013,9 hPa 0,0 l/m 3,6 km/h (1 Bft) O 83 0 min 0,000 mm 0,0 UV-I 0 W/m -3,2 C -0,2 C 4,8 km/h (1 Bft) 100,00 %
13.02.2018 20:04 -0,2 C 4,4 C 80 % 1013,9 hPa 0,0 l/m 3,6 km/h (1 Bft) O 83 0 min 0,000 mm 0,0 UV-I 0 W/m -3,2 C -0,2 C 4,8 km/h (1 Bft) 100,00 %
13.02.2018 20:05 -0,2 C 4,4 C 79 % 1013,9 hPa 0,0 l/m 2,5 km/h (1 Bft) O 83 0 min 0,000 mm 0,0 UV-I 0 W/m -3,4 C -0,2 C 3,2 km/h (1 Bft) 95,65 %
13.02.2018 20:06 -0,2 C 4,4 C 79 % 1013,9 hPa 0,0 l/m 3,1 km/h (1 Bft) O 83 0 min 0,000 mm 0,0 UV-I 0 W/m -3,4 C -0,2 C 3,2 km/h (1 Bft) 100,00 %
13.02.2018 20:07 -0,2 C 4,4 C 79 % 1013,9 hPa 0,0 l/m 2,5 km/h (1 Bft) O 83 0 min 0,000 mm 0,0 UV-I 0 W/m -3,4 C -0,2 C 3,2 km/h (1 Bft) 100,00 %
13.02.2018 20:08 -0,2 C 4,4 C 79 % 1013,9 hPa 0,0 l/m 1,9 km/h (1 Bft) O 83 0 min 0,000 mm 0,0 UV-I 0 W/m -3,4 C -0,2 C 3,2 km/h (1 Bft) 100,00 %
13.02.2018 20:09 -0,2 C 4,4 C 79 % 1013,9 hPa 0,0 l/m 2,9 km/h (1 Bft) O 83 0 min 0,000 mm 0,0 UV-I 0 W/m -3,4 C -0,2 C 4,8 km/h (1 Bft) 100,00 %
13.02.2018 20:10 -0,2 C 4,4 C 80 % 1013,9 hPa 0,0 l/m 2,5 km/h (1 Bft) O 83 0 min 0,000 mm 0,0 UV-I 0 W/m -3,2 C -0,2 C 3,2 km/h (1 Bft) 100,00 %
13.02.2018 20:11 -0,2 C 4,4 C 80 % 1013,9 hPa 0,0 l/m 2,1 km/h (1 Bft) O 83 0 min 0,000 mm 0,0 UV-I 0 W/m -3,2 C -0,2 C 3,2 km/h (1 Bft) 100,00 %
13.02.2018 20:12 -0,2 C 4,4 C 80 % 1013,9 hPa 0,0 l/m 2,3 km/h (1 Bft) O 83 0 min 0,000 mm 0,0 UV-I 0 W/m -3,2 C -0,2 C 3,2 km/h (1 Bft) 100,00 %
13.02.2018 20:13 -0,2 C 4,4 C 80 % 1013,9 hPa 0,0 l/m 1,5 km/h (1 Bft) O 83 0 min 0,000 mm 0,0 UV-I 0 W/m -3,2 C -0,2 C 1,6 km/h (1 Bft) 95,65 %
13.02.2018 20:14 -0,2 C 4,4 C 81 % 1013,9 hPa 0,0 l/m 1,7 km/h (1 Bft) O 83 0 min 0,000 mm 0,0 UV-I 0 W/m -3,1 C -0,2 C 3,2 km/h (1 Bft) 100,00 %
13.02.2018 20:15 -0,2 C 4,4 C 81 % 1014,0 hPa 0,0 l/m 1,1 km/h (1 Bft) O 83 0 min 0,000 mm 0,0 UV-I 0 W/m -3,1 C -0,2 C 1,6 km/h (1 Bft) 100,00 %
13.02.2018 20:16 -0,2 C 4,4 C 81 % 1014,0 hPa 0,0 l/m 0,1 km/h (0 Bft) O 83 0 min 0,000 mm 0,0 UV-I 0 W/m -3,1 C -0,2 C 1,6 km/h (1 Bft) 95,65 %
13.02.2018 20:17 -0,2 C 4,4 C 81 % 1014,0 hPa 0,0 l/m 0,0 km/h (0 Bft) O 83 0 min 0,000 mm 0,0 UV-I 0 W/m -3,1 C -0,2 C 0,0 km/h (0 Bft) 95,83 %
13.02.2018 20:18 -0,2 C 4,4 C 81 % 1013,9 hPa 0,0 l/m 0,7 km/h (0 Bft) O 83 0 min 0,000 mm 0,0 UV-I 0 W/m -3,1 C -0,2 C 1,6 km/h (1 Bft) 100,00 %
13.02.2018 20:19 -0,2 C 4,4 C 82 % 1014,0 hPa 0,0 l/m 1,1 km/h (1 Bft) O 83 0 min 0,000 mm 0,0 UV-I 0 W/m -2,9 C -0,2 C 1,6 km/h (1 Bft) 100,00 %
13.02.2018 20:20 -0,2 C 4,4 C 82 % 1013,9 hPa 0,0 l/m 0,2 km/h (0 Bft) O 83 0 min 0,000 mm 0,0 UV-I 0 W/m -2,9 C -0,2 C 1,6 km/h (1 Bft) 100,00 %
13.02.2018 20:21 -0,2 C 4,4 C 83 % 1014,0 hPa 0,0 l/m 0,0 km/h (0 Bft) O 83 0 min 0,000 mm 0,0 UV-I 0 W/m -2,7 C -0,2 C 0,0 km/h (0 Bft) 95,83 %
13.02.2018 20:22 -0,2 C 4,4 C 84 % 1014,0 hPa 0,0 l/m 0,0 km/h (0 Bft) O 83 0 min 0,000 mm 0,0 UV-I 0 W/m -2,6 C -0,2 C 0,0 km/h (0 Bft) 100,00 %
13.02.2018 20:23 -0,2 C 4,4 C 84 % 1014,0 hPa 0,0 l/m 0,0 km/h (0 Bft) O 83 0 min 0,000 mm 0,0 UV-I 0 W/m -2,6 C -0,2 C 0,0 km/h (0 Bft) 100,00 %
13.02.2018 20:24 -0,2 C 4,4 C 85 % 1014,0 hPa 0,0 l/m 0,0 km/h (0 Bft) O 83 0 min 0,000 mm 0,0 UV-I 0 W/m -2,4 C -0,2 C 0,0 km/h (0 Bft) 100,00 %
13.02.2018 20:25 -0,2 C 4,4 C 85 % 1014,0 hPa 0,0 l/m 0,0 km/h (0 Bft) O 83 0 min 0,000 mm 0,0 UV-I 0 W/m -2,4 C -0,2 C 0,0 km/h (0 Bft) 100,00 %
13.02.2018 20:26 -0,2 C 4,4 C 85 % 1014,0 hPa 0,0 l/m 0,0 km/h (0 Bft) O 83 0 min 0,000 mm 0,0 UV-I 0 W/m -2,4 C -0,2 C 0,0 km/h (0 Bft) 100,00 %
13.02.2018 20:27 -0,3 C 4,4 C 86 % 1013,9 hPa 0,0 l/m 0,0 km/h (0 Bft) O 83 0 min 0,000 mm 0,0 UV-I 0 W/m -2,3 C -0,3 C 0,0 km/h (0 Bft) 100,00 %
13.02.2018 20:28 -0,3 C 4,4 C 85 % 1013,9 hPa 0,0 l/m 0,0 km/h (0 Bft) O 83 0 min 0,000 mm 0,0 UV-I 0 W/m -2,5 C -0,3 C 0,0 km/h (0 Bft) 100,00 %
13.02.2018 20:29 -0,3 C 4,4 C 85 % 1014,0 hPa 0,0 l/m 1,0 km/h (0 Bft) O 83 0 min 0,000 mm 0,0 UV-I 0 W/m -2,5 C -0,3 C 1,6 km/h (1 Bft) 100,00 %
13.02.2018 20:30 -0,3 C 4,4 C 84 % 1013,9 hPa 0,0 l/m 1,1 km/h (1 Bft) O 83 0 min 0,000 mm 0,0 UV-I 0 W/m -2,7 C -0,3 C 1,6 km/h (1 Bft) 95,65 %
13.02.2018 20:31 -0,4 C 4,4 C 84 % 1014,0 hPa 0,0 l/m 0,3 km/h (0 Bft) O 83 0 min 0,000 mm 0,0 UV-I 0 W/m -2,8 C -0,4 C 1,6 km/h (1 Bft) 100,00 %
13.02.2018 20:32 -0,4 C 4,4 C 84 % 1014,0 hPa 0,0 l/m 1,3 km/h (1 Bft) O 83 0 min 0,000 mm 0,0 UV-I 0 W/m -2,8 C -0,4 C 3,2 km/h (1 Bft) 100,00 %
13.02.2018 20:33 -0,4 C 4,4 C 84 % 1014,0 hPa 0,0 l/m 2,2 km/h (1 Bft) O 83 0 min 0,000 mm 0,0 UV-I 0 W/m -2,8 C -0,4 C 3,2 km/h (1 Bft) 100,00 %
13.02.2018 20:34 -0,4 C 4,4 C 84 % 1014,0 hPa 0,0 l/m 1,9 km/h (1 Bft) O 83 0 min 0,000 mm 0,0 UV-I 0 W/m -2,8 C -0,4 C 3,2 km/h (1 Bft) 100,00 %
13.02.2018 20:35 -0,4 C 4,4 C 83 % 1014,0 hPa 0,0 l/m 2,4 km/h (1 Bft) O 83 0 min 0,000 mm 0,0 UV-I 0 W/m -2,9 C -0,4 C 3,2 km/h (1 Bft) 100,00 %
13.02.2018 20:36 -0,4 C 4,4 C 83 % 1013,9 hPa 0,0 l/m 1,2 km/h (1 Bft) O 83 0 min 0,000 mm 0,0 UV-I 0 W/m -2,9 C -0,4 C 1,6 km/h (1 Bft) 100,00 %
13.02.2018 20:37 -0,4 C 4,4 C 83 % 1014,0 hPa 0,0 l/m 1,1 km/h (1 Bft) O 83 0 min 0,000 mm 0,0 UV-I 0 W/m -2,9 C -0,4 C 1,6 km/h (1 Bft) 100,00 %
13.02.2018 20:38 -0,4 C 4,4 C 83 % 1014,0 hPa 0,0 l/m 0,5 km/h (0 Bft) O 83 0 min 0,000 mm 0,0 UV-I 0 W/m -2,9 C -0,4 C 1,6 km/h (1 Bft) 100,00 %
13.02.2018 20:39 -0,4 C 4,4 C 83 % 1014,0 hPa 0,0 l/m 1,1 km/h (1 Bft) O 83 0 min 0,000 mm 0,0 UV-I 0 W/m -2,9 C -0,4 C 3,2 km/h (1 Bft) 100,00 %
13.02.2018 20:40 -0,4 C 4,4 C 83 % 1013,9 hPa 0,0 l/m 1,5 km/h (1 Bft) O 83 0 min 0,000 mm 0,0 UV-I 0 W/m -2,9 C -0,4 C 3,2 km/h (1 Bft) 95,83 %
13.02.2018 20:41 -0,4 C 4,4 C 83 % 1013,9 hPa 0,0 l/m 0,8 km/h (0 Bft) O 83 0 min 0,000 mm 0,0 UV-I 0 W/m -2,9 C -0,4 C 3,2 km/h (1 Bft) 100,00 %
13.02.2018 20:42 -0,3 C 4,4 C 83 % 1013,9 hPa 0,0 l/m 0,1 km/h (0 Bft) O 83 0 min 0,000 mm 0,0 UV-I 0 W/m -2,8 C -0,3 C 1,6 km/h (1 Bft) 100,00 %
13.02.2018 20:43 -0,3 C 4,4 C 83 % 1013,9 hPa 0,0 l/m 1,9 km/h (1 Bft) O 83 0 min 0,000 mm 0,0 UV-I 0 W/m -2,8 C -0,3 C 3,2 km/h (1 Bft) 100,00 %
13.02.2018 20:44 -0,3 C 4,4 C 83 % 1013,9 hPa 0,0 l/m 2,2 km/h (1 Bft) O 83 0 min 0,000 mm 0,0 UV-I 0 W/m -2,8 C -0,3 C 3,2 km/h (1 Bft) 100,00 %
13.02.2018 20:45 -0,3 C 4,4 C 83 % 1013,9 hPa 0,0 l/m 3,1 km/h (1 Bft) O 83 0 min 0,000 mm 0,0 UV-I 0 W/m -2,8 C -0,3 C 4,8 km/h (1 Bft) 100,00 %
13.02.2018 20:46 -0,3 C 4,4 C 82 % 1013,8 hPa 0,0 l/m 2,9 km/h (1 Bft) O 83 0 min 0,000 mm 0,0 UV-I 0 W/m -3,0 C -0,3 C 4,8 km/h (1 Bft) 100,00 %
13.02.2018 20:47 -0,3 C 4,4 C 82 % 1013,9 hPa 0,0 l/m 1,4 km/h (1 Bft) O 83 0 min 0,000 mm 0,0 UV-I 0 W/m -3,0 C -0,3 C 3,2 km/h (1 Bft) 96,15 %
13.02.2018 20:48 -0,3 C 4,4 C 82 % 1013,9 hPa 0,0 l/m 1,2 km/h (1 Bft) O 83 0 min 0,000 mm 0,0 UV-I 0 W/m -3,0 C -0,3 C 3,2 km/h (1 Bft) 100,00 %
13.02.2018 20:49 -0,3 C 4,4 C 82 % 1013,9 hPa 0,0 l/m 3,0 km/h (1 Bft) O 83 0 min 0,000 mm 0,0 UV-I 0 W/m -3,0 C -0,3 C 4,8 km/h (1 Bft) 95,65 %
13.02.2018 20:50 -0,3 C 4,4 C 82 % 1014,0 hPa 0,0 l/m 2,3 km/h (1 Bft) O 83 0 min 0,000 mm 0,0 UV-I 0 W/m -3,0 C -0,3 C 3,2 km/h (1 Bft) 95,83 %
13.02.2018 20:51 -0,3 C 4,4 C 82 % 1013,9 hPa 0,0 l/m 3,0 km/h (1 Bft) O 83 0 min 0,000 mm 0,0 UV-I 0 W/m -3,0 C -0,3 C 4,8 km/h (1 Bft) 100,00 %
13.02.2018 20:52 -0,3 C 4,4 C 82 % 1013,9 hPa 0,0 l/m 2,7 km/h (1 Bft) O 83 0 min 0,000 mm 0,0 UV-I 0 W/m -3,0 C -0,3 C 3,2 km/h (1 Bft) 95,83 %
13.02.2018 20:53 -0,3 C 4,4 C 82 % 1013,9 hPa 0,0 l/m 3,4 km/h (1 Bft) O 83 0 min 0,000 mm 0,0 UV-I 0 W/m -3,0 C -0,3 C 4,8 km/h (1 Bft) 100,00 %
13.02.2018 20:54 -0,3 C 4,4 C 82 % 1013,9 hPa 0,0 l/m 4,0 km/h (1 Bft) O 83 0 min 0,000 mm 0,0 UV-I 0 W/m -3,0 C -0,3 C 4,8 km/h (1 Bft) 100,00 %
13.02.2018 20:55 -0,3 C 4,4 C 82 % 1013,9 hPa 0,0 l/m 4,3 km/h (1 Bft) O-NO 68 0 min 0,000 mm 0,0 UV-I 0 W/m -3,0 C -0,3 C 6,4 km/h (2 Bft) 100,00 %
13.02.2018 20:56 -0,3 C 4,4 C 82 % 1013,9 hPa 0,0 l/m 4,9 km/h (1 Bft) O-SO 104 0 min 0,000 mm 0,0 UV-I 0 W/m -3,0 C -0,3 C 6,4 km/h (2 Bft) 92,86 %
13.02.2018 20:57 -0,3 C 4,4 C 82 % 1013,9 hPa 0,0 l/m 4,5 km/h (1 Bft) O-SO 104 0 min 0,000 mm 0,0 UV-I 0 W/m -3,0 C -0,3 C 4,8 km/h (1 Bft) 100,00 %
13.02.2018 20:58 -0,4 C 4,4 C 82 % 1013,8 hPa 0,0 l/m 4,7 km/h (1 Bft) O-SO 104 0 min 0,000 mm 0,0 UV-I 0 W/m -3,1 C -0,4 C 4,8 km/h (1 Bft) 100,00 %
13.02.2018 20:59 -0,4 C 4,4 C 82 % 1013,9 hPa 0,0 l/m 4,4 km/h (1 Bft) O-SO 103 0 min 0,000 mm 0,0 UV-I 0 W/m -3,1 C -0,4 C 6,4 km/h (2 Bft) 100,00 %
13.02.2018 21:00 -0,4 C 4,4 C 82 % 1013,9 hPa 0,0 l/m 4,8 km/h (1 Bft) O-SO 103 0 min 0,000 mm 0,0 UV-I 0 W/m -3,1 C -0,4 C 6,4 km/h (2 Bft) 100,00 %
13.02.2018 21:01 -0,4 C 4,4 C 82 % 1013,9 hPa 0,0 l/m 4,2 km/h (1 Bft) O-SO 103 0 min 0,000 mm 0,0 UV-I 0 W/m -3,1 C -0,4 C 4,8 km/h (1 Bft) 100,00 %
13.02.2018 21:02 -0,4 C 4,4 C 82 % 1013,8 hPa 0,0 l/m 3,8 km/h (1 Bft) O-SO 103 0 min 0,000 mm 0,0 UV-I 0 W/m -3,1 C -0,4 C 4,8 km/h (1 Bft) 95,65 %
13.02.2018 21:03 -0,4 C 4,4 C 82 % 1013,9 hPa 0,0 l/m 3,7 km/h (1 Bft) O-SO 102 0 min 0,000 mm 0,0 UV-I 0 W/m -3,1 C -0,4 C 6,4 km/h (2 Bft) 100,00 %
13.02.2018 21:04 -0,4 C 4,4 C 82 % 1013,8 hPa 0,0 l/m 5,6 km/h (1 Bft) O-SO 102 0 min 0,000 mm 0,0 UV-I 0 W/m -3,1 C -0,4 C 6,4 km/h (2 Bft) 95,65 %
13.02.2018 21:05 -0,4 C 4,4 C 82 % 1013,9 hPa 0,0 l/m 5,1 km/h (1 Bft) O-SO 102 0 min 0,000 mm 0,0 UV-I 0 W/m -3,1 C -0,4 C 6,4 km/h (2 Bft) 100,00 %
13.02.2018 21:06 -0,5 C 4,4 C 82 % 1013,9 hPa 0,0 l/m 6,0 km/h (2 Bft) O-SO 102 0 min 0,000 mm 0,0 UV-I 0 W/m -3,2 C -0,5 C 9,7 km/h (2 Bft) 100,00 %
13.02.2018 21:07 -0,5 C 4,4 C 82 % 1013,8 hPa 0,0 l/m 5,1 km/h (1 Bft) O-SO 102 0 min 0,000 mm 0,0 UV-I 0 W/m -3,2 C -0,5 C 6,4 km/h (2 Bft) 95,65 %
13.02.2018 21:08 -0,5 C 4,4 C 82 % 1013,9 hPa 0,0 l/m 5,3 km/h (1 Bft) O-SO 102 0 min 0,000 mm 0,0 UV-I 0 W/m -3,2 C -0,5 C 9,7 km/h (2 Bft) 100,00 %
13.02.2018 21:09 -0,5 C 4,4 C 82 % 1013,8 hPa 0,0 l/m 4,5 km/h (1 Bft) O-SO 102 0 min 0,000 mm 0,0 UV-I 0 W/m -3,2 C -0,5 C 6,4 km/h (2 Bft) 100,00 %
13.02.2018 21:10 -0,5 C 4,4 C 83 % 1013,7 hPa 0,0 l/m 5,2 km/h (1 Bft) O 101 0 min 0,000 mm 0,0 UV-I 0 W/m -3,0 C -0,5 C 6,4 km/h (2 Bft) 100,00 %
13.02.2018 21:11 -0,5 C 4,4 C 83 % 1013,8 hPa 0,0 l/m 5,2 km/h (1 Bft) O 101 0 min 0,000 mm 0,0 UV-I 0 W/m -3,0 C -0,5 C 6,4 km/h (2 Bft) 100,00 %
13.02.2018 21:12 -0,5 C 4,4 C 83 % 1013,8 hPa 0,0 l/m 5,4 km/h (1 Bft) O 101 0 min 0,000 mm 0,0 UV-I 0 W/m -3,0 C -0,5 C 6,4 km/h (2 Bft) 100,00 %
13.02.2018 21:13 -0,5 C 4,4 C 83 % 1013,7 hPa 0,0 l/m 6,0 km/h (2 Bft) O 101 0 min 0,000 mm 0,0 UV-I 0 W/m -3,0 C -0,5 C 9,7 km/h (2 Bft) 100,00 %
13.02.2018 21:14 -0,6 C 4,4 C 83 % 1013,8 hPa 0,0 l/m 4,9 km/h (1 Bft) O 101 0 min 0,000 mm 0,0 UV-I 0 W/m -3,1 C -0,6 C 6,4 km/h (2 Bft) 95,83 %
13.02.2018 21:15 -0,6 C 4,4 C 83 % 1013,7 hPa 0,0 l/m 4,3 km/h (1 Bft) O 101 0 min 0,000 mm 0,0 UV-I 0 W/m -3,1 C -0,6 C 4,8 km/h (1 Bft) 100,00 %
13.02.2018 21:16 -0,6 C 4,4 C 83 % 1013,7 hPa 0,0 l/m 4,1 km/h (1 Bft) O 101 0 min 0,000 mm 0,0 UV-I 0 W/m -3,1 C -0,6 C 4,8 km/h (1 Bft) 100,00 %
13.02.2018 21:17 -0,6 C 4,4 C 84 % 1013,7 hPa 0,0 l/m 2,6 km/h (1 Bft) O 101 0 min 0,000 mm 0,0 UV-I 0 W/m -3,0 C -0,6 C 4,8 km/h (1 Bft) 100,00 %
13.02.2018 21:18 -0,6 C 4,4 C 84 % 1013,7 hPa 0,0 l/m 3,8 km/h (1 Bft) O 101 0 min 0,000 mm 0,0 UV-I 0 W/m -3,0 C -0,6 C 6,4 km/h (2 Bft) 100,00 %
13.02.2018 21:19 -0,7 C 4,4 C 83 % 1013,8 hPa 0,0 l/m 3,6 km/h (1 Bft) O 101 0 min 0,000 mm 0,0 UV-I 0 W/m -3,2 C -0,7 C 4,8 km/h (1 Bft) 100,00 %
13.02.2018 21:20 -0,7 C 4,4 C 83 % 1013,7 hPa 0,0 l/m 3,3 km/h (1 Bft) O 101 0 min 0,000 mm 0,0 UV-I 0 W/m -3,2 C -0,7 C 4,8 km/h (1 Bft) 100,00 %
13.02.2018 21:21 -0,7 C 4,4 C 83 % 1013,8 hPa 0,0 l/m 3,3 km/h (1 Bft) O 101 0 min 0,000 mm 0,0 UV-I 0 W/m -3,2 C -0,7 C 4,8 km/h (1 Bft) 95,65 %
13.02.2018 21:22 -0,7 C 4,4 C 83 % 1013,7 hPa 0,0 l/m 3,6 km/h (1 Bft) O 101 0 min 0,000 mm 0,0 UV-I 0 W/m -3,2 C -0,7 C 4,8 km/h (1 Bft) 95,83 %
13.02.2018 21:23 -0,7 C 4,4 C 83 % 1013,7 hPa 0,0 l/m 4,2 km/h (1 Bft) O 101 0 min 0,000 mm 0,0 UV-I 0 W/m -3,2 C -0,7 C 4,8 km/h (1 Bft) 100,00 %
13.02.2018 21:24 -0,7 C 4,4 C 83 % 1013,7 hPa 0,0 l/m 3,4 km/h (1 Bft) O 101 0 min 0,000 mm 0,0 UV-I 0 W/m -3,2 C -0,7 C 4,8 km/h (1 Bft) 95,65 %
13.02.2018 21:25 -0,7 C 4,4 C 83 % 1013,7 hPa 0,0 l/m 2,6 km/h (1 Bft) O 101 0 min 0,000 mm 0,0 UV-I 0 W/m -3,2 C -0,7 C 4,8 km/h (1 Bft) 95,83 %
13.02.2018 21:26 -0,7 C 4,4 C 83 % 1013,7 hPa 0,0 l/m 2,6 km/h (1 Bft) O 101 0 min 0,000 mm 0,0 UV-I 0 W/m -3,2 C -0,7 C 3,2 km/h (1 Bft) 100,00 %
13.02.2018 21:27 -0,7 C 4,4 C 82 % 1013,7 hPa 0,0 l/m 3,1 km/h (1 Bft) O 101 0 min 0,000 mm 0,0 UV-I 0 W/m -3,4 C -0,7 C 4,8 km/h (1 Bft) 95,83 %
13.02.2018 21:28 -0,7 C 4,4 C 82 % 1013,7 hPa 0,0 l/m 3,0 km/h (1 Bft) O 101 0 min 0,000 mm 0,0 UV-I 0 W/m -3,4 C -0,7 C 3,2 km/h (1 Bft) 100,00 %
13.02.2018 21:29 -0,8 C 4,4 C 82 % 1013,7 hPa 0,0 l/m 3,6 km/h (1 Bft) O 101 0 min 0,000 mm 0,0 UV-I 0 W/m -3,5 C -0,8 C 4,8 km/h (1 Bft) 95,83 %
13.02.2018 21:30 -0,8 C 4,4 C 82 % 1013,7 hPa 0,0 l/m 3,6 km/h (1 Bft) O 101 0 min 0,000 mm 0,0 UV-I 0 W/m -3,5 C -0,8 C 4,8 km/h (1 Bft) 100,00 %
13.02.2018 21:31 -0,8 C 4,4 C 82 % 1013,7 hPa 0,0 l/m 3,2 km/h (1 Bft) O 101 0 min 0,000 mm 0,0 UV-I 0 W/m -3,5 C -0,8 C 4,8 km/h (1 Bft) 95,83 %
13.02.2018 21:32 -0,8 C 4,4 C 82 % 1013,7 hPa 0,0 l/m 3,1 km/h (1 Bft) O 101 0 min 0,000 mm 0,0 UV-I 0 W/m -3,5 C -0,8 C 4,8 km/h (1 Bft) 95,65 %
13.02.2018 21:33 -0,8 C 4,4 C 82 % 1013,7 hPa 0,0 l/m 3,4 km/h (1 Bft) O 101 0 min 0,000 mm 0,0 UV-I 0 W/m -3,5 C -0,8 C 4,8 km/h (1 Bft) 95,83 %
13.02.2018 21:34 -0,8 C 4,4 C 82 % 1013,7 hPa 0,0 l/m 3,6 km/h (1 Bft) O 101 0 min 0,000 mm 0,0 UV-I 0 W/m -3,5 C -0,8 C 4,8 km/h (1 Bft) 91,30 %
13.02.2018 21:35 -0,8 C 4,4 C 82 % 1013,7 hPa 0,0 l/m 5,1 km/h (1 Bft) O-SO 120 0 min 0,000 mm 0,0 UV-I 0 W/m -3,5 C -0,8 C 6,4 km/h (2 Bft) 100,00 %
13.02.2018 21:36 -0,9 C 4,4 C 82 % 1013,7 hPa 0,0 l/m 4,1 km/h (1 Bft) O-SO 120 0 min 0,000 mm 0,0 UV-I 0 W/m -3,6 C -0,9 C 4,8 km/h (1 Bft) 95,65 %
13.02.2018 21:37 -0,9 C 4,4 C 82 % 1013,7 hPa 0,0 l/m 3,6 km/h (1 Bft) O-SO 120 0 min 0,000 mm 0,0 UV-I 0 W/m -3,6 C -0,9 C 4,8 km/h (1 Bft) 100,00 %
13.02.2018 21:38 -0,9 C 4,4 C 82 % 1013,7 hPa 0,0 l/m 4,3 km/h (1 Bft) O-SO 120 0 min 0,000 mm 0,0 UV-I 0 W/m -3,6 C -0,9 C 4,8 km/h (1 Bft) 95,65 %
13.02.2018 21:39 -0,9 C 4,4 C 82 % 1013,7 hPa 0,0 l/m 4,7 km/h (1 Bft) O-SO 120 0 min 0,000 mm 0,0 UV-I 0 W/m -3,6 C -0,9 C 6,4 km/h (2 Bft) 100,00 %
13.02.2018 21:40 -0,9 C 4,4 C 82 % 1013,7 hPa 0,0 l/m 4,9 km/h (1 Bft) O-SO 120 0 min 0,000 mm 0,0 UV-I 0 W/m -3,6 C -0,9 C 6,4 km/h (2 Bft) 95,65 %
13.02.2018 21:41 -0,9 C 4,4 C 82 % 1013,7 hPa 0,0 l/m 4,1 km/h (1 Bft) O-SO 120 0 min 0,000 mm 0,0 UV-I 0 W/m -3,6 C -0,9 C 4,8 km/h (1 Bft) 95,83 %
13.02.2018 21:42 -0,9 C 4,4 C 82 % 1013,7 hPa 0,0 l/m 4,1 km/h (1 Bft) O-SO 120 0 min 0,000 mm 0,0 UV-I 0 W/m -3,6 C -0,9 C 6,4 km/h (2 Bft) 100,00 %
13.02.2018 21:43 -0,9 C 4,4 C 82 % 1013,7 hPa 0,0 l/m 4,4 km/h (1 Bft) O-SO 120 0 min 0,000 mm 0,0 UV-I 0 W/m -3,6 C -0,9 C 6,4 km/h (2 Bft) 95,83 %
13.02.2018 21:44 -0,9 C 4,4 C 82 % 1013,7 hPa 0,0 l/m 4,4 km/h (1 Bft) O-SO 120 0 min 0,000 mm 0,0 UV-I 0 W/m -3,6 C -0,9 C 4,8 km/h (1 Bft) 95,65 %
13.02.2018 21:45 -0,9 C 4,4 C 82 % 1013,7 hPa 0,0 l/m 3,3 km/h (1 Bft) O-SO 120 0 min 0,000 mm 0,0 UV-I 0 W/m -3,6 C -0,9 C 4,8 km/h (1 Bft) 95,83 %
13.02.2018 21:46 -0,9 C 4,4 C 82 % 1013,7 hPa 0,0 l/m 2,5 km/h (1 Bft) O-SO 120 0 min 0,000 mm 0,0 UV-I 0 W/m -3,6 C -0,9 C 3,2 km/h (1 Bft) 100,00 %
13.02.2018 21:47 -0,9 C 4,4 C 82 % 1013,7 hPa 0,0 l/m 3,3 km/h (1 Bft) O-SO 120 0 min 0,000 mm 0,0 UV-I 0 W/m -3,6 C -0,9 C 4,8 km/h (1 Bft) 95,83 %
13.02.2018 21:48 -0,9 C 4,4 C 82 % 1013,7 hPa 0,0 l/m 3,6 km/h (1 Bft) O-SO 120 0 min 0,000 mm 0,0 UV-I 0 W/m -3,6 C -0,9 C 4,8 km/h (1 Bft) 96,15 %
13.02.2018 21:49 -0,9 C 4,4 C 82 % 1013,7 hPa 0,0 l/m 3,4 km/h (1 Bft) O-SO 120 0 min 0,000 mm 0,0 UV-I 0 W/m -3,6 C -0,9 C 4,8 km/h (1 Bft) 95,83 %
13.02.2018 21:50 -0,9 C 4,4 C 82 % 1013,6 hPa 0,0 l/m 3,4 km/h (1 Bft) O-SO 120 0 min 0,000 mm 0,0 UV-I 0 W/m -3,6 C -0,9 C 4,8 km/h (1 Bft) 95,83 %
13.02.2018 21:51 -0,9 C 4,4 C 82 % 1013,7 hPa 0,0 l/m 3,7 km/h (1 Bft) O-SO 120 0 min 0,000 mm 0,0 UV-I 0 W/m -3,6 C -0,9 C 4,8 km/h (1 Bft) 95,65 %
13.02.2018 21:52 -0,9 C 4,4 C 82 % 1013,7 hPa 0,0 l/m 4,5 km/h (1 Bft) O-SO 120 0 min 0,000 mm 0,0 UV-I 0 W/m -3,6 C -0,9 C 4,8 km/h (1 Bft) 95,83 %
13.02.2018 21:53 -0,9 C 4,4 C 82 % 1013,7 hPa 0,0 l/m 4,5 km/h (1 Bft) O-SO 120 0 min 0,000 mm 0,0 UV-I 0 W/m -3,6 C -0,9 C 6,4 km/h (2 Bft) 95,65 %
13.02.2018 21:54 -0,9 C 4,4 C 82 % 1013,7 hPa 0,0 l/m 4,3 km/h (1 Bft) O-SO 120 0 min 0,000 mm 0,0 UV-I 0 W/m -3,6 C -0,9 C 4,8 km/h (1 Bft) 93,33 %
13.02.2018 21:55 -0,9 C 4,4 C 82 % 1013,7 hPa 0,0 l/m 3,7 km/h (1 Bft) O-SO 120 0 min 0,000 mm 0,0 UV-I 0 W/m -3,6 C -0,9 C 4,8 km/h (1 Bft) 100,00 %
13.02.2018 21:56 -0,9 C 4,4 C 82 % 1013,7 hPa 0,0 l/m 3,8 km/h (1 Bft) O-SO 120 0 min 0,000 mm 0,0 UV-I 0 W/m -3,6 C -0,9 C 4,8 km/h (1 Bft) 95,83 %
13.02.2018 21:57 -0,9 C 4,4 C 82 % 1013,7 hPa 0,0 l/m 4,0 km/h (1 Bft) O-SO 120 0 min 0,000 mm 0,0 UV-I 0 W/m -3,6 C -0,9 C 6,4 km/h (2 Bft) 100,00 %
13.02.2018 21:58 -1,0 C 4,4 C 82 % 1013,7 hPa 0,0 l/m 4,8 km/h (1 Bft) O-SO 120 0 min 0,000 mm 0,0 UV-I 0 W/m -3,7 C -1,0 C 6,4 km/h (2 Bft) 95,83 %
13.02.2018 21:59 -1,1 C 4,4 C 82 % 1013,7 hPa 0,0 l/m 4,8 km/h (1 Bft) O-SO 120 0 min 0,000 mm 0,0 UV-I 0 W/m -3,8 C -1,1 C 6,4 km/h (2 Bft) 100,00 %
13.02.2018 22:00 -1,1 C 4,4 C 83 % 1013,7 hPa 0,0 l/m 4,5 km/h (1 Bft) O-SO 120 0 min 0,000 mm 0,0 UV-I 0 W/m -3,6 C -1,1 C 6,4 km/h (2 Bft) 91,67 %
13.02.2018 22:01 -1,0 C 4,4 C 82 % 1013,7 hPa 0,0 l/m 3,1 km/h (1 Bft) O-SO 120 0 min 0,000 mm 0,0 UV-I 0 W/m -3,7 C -1,0 C 4,8 km/h (1 Bft) 100,00 %
13.02.2018 22:02 -1,0 C 4,4 C 82 % 1013,7 hPa 0,0 l/m 2,5 km/h (1 Bft) O-SO 120 0 min 0,000 mm 0,0 UV-I 0 W/m -3,7 C -1,0 C 3,2 km/h (1 Bft) 100,00 %
13.02.2018 22:03 -1,0 C 4,4 C 82 % 1013,7 hPa 0,0 l/m 3,3 km/h (1 Bft) O-SO 120 0 min 0,000 mm 0,0 UV-I 0 W/m -3,7 C -1,0 C 4,8 km/h (1 Bft) 92,31 %
13.02.2018 22:04 -1,0 C 4,4 C 82 % 1013,7 hPa 0,0 l/m 2,8 km/h (1 Bft) O-SO 120 0 min 0,000 mm 0,0 UV-I 0 W/m -3,7 C -1,0 C 3,2 km/h (1 Bft) 100,00 %
13.02.2018 22:05 -1,1 C 4,4 C 82 % 1013,7 hPa 0,0 l/m 3,4 km/h (1 Bft) O-SO 120 0 min 0,000 mm 0,0 UV-I 0 W/m -3,8 C -1,1 C 4,8 km/h (1 Bft) 100,00 %
13.02.2018 22:06 -1,1 C 4,4 C 83 % 1013,7 hPa 0,0 l/m 4,0 km/h (1 Bft) O-SO 120 0 min 0,000 mm 0,0 UV-I 0 W/m -3,6 C -1,1 C 6,4 km/h (2 Bft) 95,83 %
13.02.2018 22:07 -1,0 C 4,4 C 83 % 1013,7 hPa 0,0 l/m 3,0 km/h (1 Bft) O-SO 120 0 min 0,000 mm 0,0 UV-I 0 W/m -3,5 C -1,0 C 4,8 km/h (1 Bft) 100,00 %
13.02.2018 22:08 -1,1 C 4,4 C 82 % 1013,7 hPa 0,0 l/m 3,4 km/h (1 Bft) O-SO 120 0 min 0,000 mm 0,0 UV-I 0 W/m -3,8 C -1,1 C 4,8 km/h (1 Bft) 100,00 %
13.02.2018 22:09 -1,1 C 4,4 C 82 % 1013,7 hPa 0,0 l/m 3,2 km/h (1 Bft) O-SO 120 0 min 0,000 mm 0,0 UV-I 0 W/m -3,8 C -1,1 C 4,8 km/h (1 Bft) 95,65 %
13.02.2018 22:10 -1,0 C 4,4 C 83 % 1013,7 hPa 0,0 l/m 3,9 km/h (1 Bft) O-SO 120 0 min 0,000 mm 0,0 UV-I 0 W/m -3,5 C -1,0 C 4,8 km/h (1 Bft) 95,83 %
13.02.2018 22:11 -1,1 C 4,4 C 82 % 1013,7 hPa 0,0 l/m 3,6 km/h (1 Bft) O-SO 120 0 min 0,000 mm 0,0 UV-I 0 W/m -3,8 C -1,1 C 4,8 km/h (1 Bft) 100,00 %
13.02.2018 22:12 -1,1 C 4,4 C 83 % 1013,6 hPa 0,0 l/m 3,6 km/h (1 Bft) O-SO 120 0 min 0,000 mm 0,0 UV-I 0 W/m -3,6 C -1,1 C 4,8 km/h (1 Bft) 100,00 %
13.02.2018 22:13 -1,1 C 4,4 C 83 % 1013,6 hPa 0,0 l/m 3,1 km/h (1 Bft) O-SO 120 0 min 0,000 mm 0,0 UV-I 0 W/m -3,6 C -1,1 C 4,8 km/h (1 Bft) 100,00 %
13.02.2018 22:14 -1,1 C 4,4 C 83 % 1013,6 hPa 0,0 l/m 3,2 km/h (1 Bft) O-SO 120 0 min 0,000 mm 0,0 UV-I 0 W/m -3,6 C -1,1 C 4,8 km/h (1 Bft) 100,00 %
13.02.2018 22:15 -1,1 C 4,4 C 83 % 1013,6 hPa 0,0 l/m 3,3 km/h (1 Bft) O-SO 120 0 min 0,000 mm 0,0 UV-I 0 W/m -3,6 C -1,1 C 4,8 km/h (1 Bft) 100,00 %
13.02.2018 22:16 -1,1 C 4,4 C 84 % 1013,7 hPa 0,0 l/m 2,8 km/h (1 Bft) O-SO 120 0 min 0,000 mm 0,0 UV-I 0 W/m -3,4 C -1,1 C 3,2 km/h (1 Bft) 95,65 %
13.02.2018 22:17 -1,1 C 4,4 C 83 % 1013,6 hPa 0,0 l/m 2,0 km/h (1 Bft) O-SO 120 0 min 0,000 mm 0,0 UV-I 0 W/m -3,6 C -1,1 C 3,2 km/h (1 Bft) 100,00 %
13.02.2018 22:18 -1,1 C 4,4 C 84 % 1013,6 hPa 0,0 l/m 2,4 km/h (1 Bft) O-SO 120 0 min 0,000 mm 0,0 UV-I 0 W/m -3,4 C -1,1 C 3,2 km/h (1 Bft) 100,00 %
13.02.2018 22:19 -1,1 C 4,4 C 84 % 1013,6 hPa 0,0 l/m 2,0 km/h (1 Bft) O-SO 120 0 min 0,000 mm 0,0 UV-I 0 W/m -3,4 C -1,1 C 3,2 km/h (1 Bft) 100,00 %
13.02.2018 22:20 -1,1 C 4,4 C 84 % 1013,6 hPa 0,0 l/m 3,3 km/h (1 Bft) O-SO 120 0 min 0,000 mm 0,0 UV-I 0 W/m -3,4 C -1,1 C 4,8 km/h (1 Bft) 92,31 %
13.02.2018 22:21 -1,1 C 4,4 C 85 % 1013,6 hPa 0,0 l/m 3,0 km/h (1 Bft) O-SO 120 0 min 0,000 mm 0,0 UV-I 0 W/m -3,3 C -1,1 C 4,8 km/h (1 Bft) 100,00 %
13.02.2018 22:22 -1,1 C 4,4 C 85 % 1013,6 hPa 0,0 l/m 4,0 km/h (1 Bft) O-SO 120 0 min 0,000 mm 0,0 UV-I 0 W/m -3,3 C -1,1 C 4,8 km/h (1 Bft) 100,00 %
13.02.2018 22:23 -1,1 C 4,4 C 85 % 1013,6 hPa 0,0 l/m 4,0 km/h (1 Bft) O-SO 120 0 min 0,000 mm 0,0 UV-I 0 W/m -3,3 C -1,1 C 4,8 km/h (1 Bft) 100,00 %
13.02.2018 22:24 -1,1 C 4,4 C 85 % 1013,6 hPa 0,0 l/m 2,4 km/h (1 Bft) O-SO 120 0 min 0,000 mm 0,0 UV-I 0 W/m -3,3 C -1,1 C 4,8 km/h (1 Bft) 95,83 %
13.02.2018 22:25 -1,1 C 4,4 C 86 % 1013,5 hPa 0,0 l/m 3,6 km/h (1 Bft) O-SO 120 0 min 0,000 mm 0,0 UV-I 0 W/m -3,1 C -1,1 C 4,8 km/h (1 Bft) 100,00 %
13.02.2018 22:26 -1,1 C 4,4 C 86 % 1013,6 hPa 0,0 l/m 3,0 km/h (1 Bft) O-SO 120 0 min 0,000 mm 0,0 UV-I 0 W/m -3,1 C -1,1 C 4,8 km/h (1 Bft) 100,00 %
13.02.2018 22:27 -1,2 C 4,4 C 86 % 1013,5 hPa 0,0 l/m 4,2 km/h (1 Bft) O-SO 120 0 min 0,000 mm 0,0 UV-I 0 W/m -3,2 C -1,2 C 4,8 km/h (1 Bft) 100,00 %
13.02.2018 22:28 -1,3 C 4,4 C 86 % 1013,5 hPa 0,0 l/m 3,4 km/h (1 Bft) O-SO 120 0 min 0,000 mm 0,0 UV-I 0 W/m -3,3 C -1,3 C 4,8 km/h (1 Bft) 100,00 %
13.02.2018 22:29 -1,3 C 4,4 C 86 % 1013,5 hPa 0,0 l/m 3,2 km/h (1 Bft) O-SO 120 0 min 0,000 mm 0,0 UV-I 0 W/m -3,3 C -1,3 C 4,8 km/h (1 Bft) 100,00 %
13.02.2018 22:30 -1,3 C 4,4 C 87 % 1013,5 hPa 0,0 l/m 3,7 km/h (1 Bft) O-SO 120 0 min 0,000 mm 0,0 UV-I 0 W/m -3,2 C -1,3 C 4,8 km/h (1 Bft) 100,00 %
13.02.2018 22:31 -1,3 C 4,4 C 87 % 1013,5 hPa 0,0 l/m 3,4 km/h (1 Bft) O-SO 120 0 min 0,000 mm 0,0 UV-I 0 W/m -3,2 C -1,3 C 4,8 km/h (1 Bft) 95,65 %
13.02.2018 22:32 -1,3 C 4,4 C 87 % 1013,5 hPa 0,0 l/m 3,4 km/h (1 Bft) O-SO 120 0 min 0,000 mm 0,0 UV-I 0 W/m -3,2 C -1,3 C 4,8 km/h (1 Bft) 100,00 %
13.02.2018 22:33 -1,3 C 4,4 C 87 % 1013,5 hPa 0,0 l/m 3,4 km/h (1 Bft) O-SO 120 0 min 0,000 mm 0,0 UV-I 0 W/m -3,2 C -1,3 C 4,8 km/h (1 Bft) 100,00 %
13.02.2018 22:34 -1,3 C 4,4 C 87 % 1013,5 hPa 0,0 l/m 3,5 km/h (1 Bft) O-SO 120 0 min 0,000 mm 0,0 UV-I 0 W/m -3,2 C -1,3 C 4,8 km/h (1 Bft) 100,00 %
13.02.2018 22:35 -1,3 C 4,4 C 87 % 1013,5 hPa 0,0 l/m 2,5 km/h (1 Bft) O-SO 120 0 min 0,000 mm 0,0 UV-I 0 W/m -3,2 C -1,3 C 3,2 km/h (1 Bft) 100,00 %
13.02.2018 22:37 -1,3 C 4,4 C 87 % 1013,4 hPa 0,0 l/m 3,3 km/h (1 Bft) O-SO 120 0 min 0,000 mm 0,0 UV-I 0 W/m -3,2 C -1,3 C 4,8 km/h (1 Bft) 100,00 %
13.02.2018 22:38 -1,3 C 4,4 C 87 % 1013,4 hPa 0,0 l/m 3,9 km/h (1 Bft) O-SO 120 0 min 0,000 mm 0,0 UV-I 0 W/m -3,2 C -1,3 C 4,8 km/h (1 Bft) 95,83 %
13.02.2018 22:39 -1,4 C 4,4 C 87 % 1013,4 hPa 0,0 l/m 4,1 km/h (1 Bft) O-SO 120 0 min 0,000 mm 0,0 UV-I 0 W/m -3,3 C -1,4 C 4,8 km/h (1 Bft) 95,65 %
13.02.2018 22:40 -1,3 C 4,4 C 87 % 1013,4 hPa 0,0 l/m 3,8 km/h (1 Bft) O-SO 120 0 min 0,000 mm 0,0 UV-I 0 W/m -3,2 C -1,3 C 4,8 km/h (1 Bft) 95,83 %
13.02.2018 22:41 -1,3 C 4,4 C 87 % 1013,4 hPa 0,0 l/m 3,4 km/h (1 Bft) O-SO 120 0 min 0,000 mm 0,0 UV-I 0 W/m -3,2 C -1,3 C 4,8 km/h (1 Bft) 91,30 %
13.02.2018 22:42 -1,3 C 4,4 C 87 % 1013,4 hPa 0,0 l/m 3,4 km/h (1 Bft) O-SO 120 0 min 0,000 mm 0,0 UV-I 0 W/m -3,2 C -1,3 C 4,8 km/h (1 Bft) 100,00 %
13.02.2018 22:43 -1,3 C 4,4 C 87 % 1013,4 hPa 0,0 l/m 2,7 km/h (1 Bft) O-SO 120 0 min 0,000 mm 0,0 UV-I 0 W/m -3,2 C -1,3 C 4,8 km/h (1 Bft) 91,67 %
13.02.2018 22:44 -1,3 C 4,4 C 87 % 1013,4 hPa 0,0 l/m 3,4 km/h (1 Bft) O-SO 120 0 min 0,000 mm 0,0 UV-I 0 W/m -3,2 C -1,3 C 4,8 km/h (1 Bft) 100,00 %
13.02.2018 22:45 -1,3 C 4,4 C 87 % 1013,4 hPa 0,0 l/m 3,6 km/h (1 Bft) O-SO 120 0 min 0,000 mm 0,0 UV-I 0 W/m -3,2 C -1,3 C 6,4 km/h (2 Bft) 95,83 %
13.02.2018 22:46 -1,3 C 4,4 C 87 % 1013,4 hPa 0,0 l/m 4,5 km/h (1 Bft) O-SO 120 0 min 0,000 mm 0,0 UV-I 0 W/m -3,2 C -1,3 C 6,4 km/h (2 Bft) 91,67 %
13.02.2018 22:47 -1,4 C 4,4 C 87 % 1013,4 hPa 0,0 l/m 4,2 km/h (1 Bft) O-SO 120 0 min 0,000 mm 0,0 UV-I 0 W/m -3,3 C -1,4 C 4,8 km/h (1 Bft) 95,83 %
13.02.2018 22:48 -1,4 C 4,4 C 87 % 1013,4 hPa 0,0 l/m 5,6 km/h (1 Bft) O-SO 120 0 min 0,000 mm 0,0 UV-I 0 W/m -3,3 C -1,4 C 6,4 km/h (2 Bft) 100,00 %
13.02.2018 22:49 -1,4 C 4,4 C 87 % 1013,4 hPa 0,0 l/m 5,0 km/h (1 Bft) O-SO 120 0 min 0,000 mm 0,0 UV-I 0 W/m -3,3 C -1,4 C 6,4 km/h (2 Bft) 95,83 %
13.02.2018 22:50 -1,5 C 4,4 C 87 % 1013,4 hPa 0,0 l/m 4,6 km/h (1 Bft) O-SO 120 0 min 0,000 mm 0,0 UV-I 0 W/m -3,4 C -1,5 C 6,4 km/h (2 Bft) 95,65 %
13.02.2018 22:51 -1,4 C 4,4 C 87 % 1013,4 hPa 0,0 l/m 3,4 km/h (1 Bft) O-SO 120 0 min 0,000 mm 0,0 UV-I 0 W/m -3,3 C -1,4 C 4,8 km/h (1 Bft) 95,83 %
13.02.2018 22:52 -1,4 C 4,4 C 87 % 1013,4 hPa 0,0 l/m 3,7 km/h (1 Bft) O-SO 120 0 min 0,000 mm 0,0 UV-I 0 W/m -3,3 C -1,4 C 4,8 km/h (1 Bft) 92,31 %
13.02.2018 22:53 -1,5 C 4,4 C 87 % 1013,4 hPa 0,0 l/m 3,6 km/h (1 Bft) O-SO 120 0 min 0,000 mm 0,0 UV-I 0 W/m -3,4 C -1,5 C 4,8 km/h (1 Bft) 95,83 %
13.02.2018 22:54 -1,4 C 4,4 C 87 % 1013,4 hPa 0,0 l/m 5,6 km/h (1 Bft) O-SO 120 0 min 0,000 mm 0,0 UV-I 0 W/m -3,3 C -1,4 C 6,4 km/h (2 Bft) 100,00 %
13.02.2018 22:55 -1,4 C 4,4 C 86 % 1013,4 hPa 0,0 l/m 5,0 km/h (1 Bft) O-SO 120 0 min 0,000 mm 0,0 UV-I 0 W/m -3,4 C -1,4 C 6,4 km/h (2 Bft) 95,83 %
13.02.2018 22:56 -1,4 C 4,4 C 86 % 1013,4 hPa 0,0 l/m 4,9 km/h (1 Bft) O-SO 115 0 min 0,000 mm 0,0 UV-I 0 W/m -3,4 C -1,4 C 6,4 km/h (2 Bft) 95,65 %
13.02.2018 22:57 -1,4 C 4,4 C 86 % 1013,4 hPa 0,0 l/m 5,4 km/h (1 Bft) O-SO 103 0 min 0,000 mm 0,0 UV-I 0 W/m -3,4 C -1,4 C 9,7 km/h (2 Bft) 100,00 %
13.02.2018 22:58 -1,4 C 4,4 C 86 % 1013,4 hPa 0,0 l/m 4,2 km/h (1 Bft) O-SO 103 0 min 0,000 mm 0,0 UV-I 0 W/m -3,4 C -1,4 C 6,4 km/h (2 Bft) 95,83 %
13.02.2018 22:59 -1,4 C 4,4 C 86 % 1013,4 hPa 0,0 l/m 4,7 km/h (1 Bft) O-SO 103 0 min 0,000 mm 0,0 UV-I 0 W/m -3,4 C -1,4 C 6,4 km/h (2 Bft) 95,65 %
13.02.2018 23:00 -1,4 C 4,4 C 86 % 1013,3 hPa 0,0 l/m 4,3 km/h (1 Bft) O-SO 103 0 min 0,000 mm 0,0 UV-I 0 W/m -3,4 C -1,4 C 6,4 km/h (2 Bft) 95,83 %
13.02.2018 23:01 -1,4 C 4,4 C 86 % 1013,4 hPa 0,0 l/m 4,8 km/h (1 Bft) O-SO 103 0 min 0,000 mm 0,0 UV-I 0 W/m -3,4 C -1,4 C 6,4 km/h (2 Bft) 95,65 %
13.02.2018 23:02 -1,3 C 4,4 C 86 % 1013,4 hPa 0,0 l/m 6,2 km/h (2 Bft) O-SO 103 0 min 0,000 mm 0,0 UV-I 0 W/m -3,3 C -1,3 C 9,7 km/h (2 Bft) 95,83 %
13.02.2018 23:03 -1,3 C 4,4 C 86 % 1013,3 hPa 0,0 l/m 3,9 km/h (1 Bft) O-SO 103 0 min 0,000 mm 0,0 UV-I 0 W/m -3,3 C -1,3 C 4,8 km/h (1 Bft) 100,00 %
13.02.2018 23:04 -1,3 C 4,4 C 85 % 1013,3 hPa 0,0 l/m 4,3 km/h (1 Bft) O-SO 103 0 min 0,000 mm 0,0 UV-I 0 W/m -3,5 C -1,3 C 4,8 km/h (1 Bft) 95,83 %
13.02.2018 23:05 -1,3 C 4,4 C 86 % 1013,3 hPa 0,0 l/m 4,5 km/h (1 Bft) O-SO 103 0 min 0,000 mm 0,0 UV-I 0 W/m -3,3 C -1,3 C 4,8 km/h (1 Bft) 96,30 %
13.02.2018 23:06 -1,4 C 4,4 C 86 % 1013,3 hPa 0,0 l/m 3,1 km/h (1 Bft) O-SO 103 0 min 0,000 mm 0,0 UV-I 0 W/m -3,4 C -1,4 C 4,8 km/h (1 Bft) 100,00 %
13.02.2018 23:07 -1,4 C 4,4 C 86 % 1013,3 hPa 0,0 l/m 4,2 km/h (1 Bft) O-SO 103 0 min 0,000 mm 0,0 UV-I 0 W/m -3,4 C -1,4 C 6,4 km/h (2 Bft) 95,65 %
13.02.2018 23:08 -1,4 C 4,4 C 86 % 1013,3 hPa 0,0 l/m 4,5 km/h (1 Bft) O-SO 103 0 min 0,000 mm 0,0 UV-I 0 W/m -3,4 C -1,4 C 4,8 km/h (1 Bft) 100,00 %
13.02.2018 23:09 -1,4 C 4,4 C 85 % 1013,3 hPa 0,0 l/m 4,6 km/h (1 Bft) O-SO 103 0 min 0,000 mm 0,0 UV-I 0 W/m -3,6 C -1,4 C 6,4 km/h (2 Bft) 95,65 %
13.02.2018 23:10 -1,4 C 4,4 C 86 % 1013,3 hPa 0,0 l/m 4,5 km/h (1 Bft) O-SO 103 0 min 0,000 mm 0,0 UV-I 0 W/m -3,4 C -1,4 C 6,4 km/h (2 Bft) 100,00 %
13.02.2018 23:11 -1,5 C 4,4 C 86 % 1013,3 hPa 0,0 l/m 4,7 km/h (1 Bft) O-SO 103 0 min 0,000 mm 0,0 UV-I 0 W/m -3,5 C -1,5 C 6,4 km/h (2 Bft) 91,30 %
13.02.2018 23:12 -1,5 C 4,4 C 86 % 1013,3 hPa 0,0 l/m 5,0 km/h (1 Bft) O-SO 103 0 min 0,000 mm 0,0 UV-I 0 W/m -3,5 C -1,5 C 6,4 km/h (2 Bft) 100,00 %
13.02.2018 23:13 -1,5 C 4,4 C 86 % 1013,3 hPa 0,0 l/m 5,0 km/h (1 Bft) O-SO 103 0 min 0,000 mm 0,0 UV-I 0 W/m -3,5 C -1,5 C 6,4 km/h (2 Bft) 95,65 %
13.02.2018 23:14 -1,4 C 4,4 C 86 % 1013,3 hPa 0,0 l/m 5,8 km/h (2 Bft) O-SO 102 0 min 0,000 mm 0,0 UV-I 0 W/m -3,4 C -1,4 C 9,7 km/h (2 Bft) 95,83 %
13.02.2018 23:15 -1,4 C 4,4 C 86 % 1013,3 hPa 0,0 l/m 4,0 km/h (1 Bft) O-SO 102 0 min 0,000 mm 0,0 UV-I 0 W/m -3,4 C -1,4 C 4,8 km/h (1 Bft) 95,65 %
13.02.2018 23:16 -1,4 C 4,4 C 86 % 1013,3 hPa 0,0 l/m 4,5 km/h (1 Bft) O 101 0 min 0,000 mm 0,0 UV-I 0 W/m -3,4 C -1,4 C 6,4 km/h (2 Bft) 95,83 %
13.02.2018 23:17 -1,5 C 4,4 C 86 % 1013,3 hPa 0,0 l/m 5,9 km/h (2 Bft) O-SO 102 0 min 0,000 mm 0,0 UV-I 0 W/m -3,5 C -1,5 C 9,7 km/h (2 Bft) 100,00 %
13.02.2018 23:18 -1,4 C 4,4 C 86 % 1013,3 hPa 0,0 l/m 5,1 km/h (1 Bft) O-SO 102 0 min 0,000 mm 0,0 UV-I 0 W/m -3,4 C -1,4 C 6,4 km/h (2 Bft) 95,83 %
13.02.2018 23:19 -1,4 C 4,4 C 86 % 1013,3 hPa 0,0 l/m 5,6 km/h (1 Bft) O 101 0 min 0,000 mm 0,0 UV-I 0 W/m -3,4 C -1,4 C 9,7 km/h (2 Bft) 100,00 %
13.02.2018 23:20 -1,4 C 4,4 C 86 % 1013,3 hPa 0,0 l/m 5,3 km/h (1 Bft) O-SO 102 0 min 0,000 mm 0,0 UV-I 0 W/m -3,4 C -1,4 C 6,4 km/h (2 Bft) 91,67 %
13.02.2018 23:21 -1,4 C 4,4 C 86 % 1013,3 hPa 0,0 l/m 4,2 km/h (1 Bft) O-SO 102 0 min 0,000 mm 0,0 UV-I 0 W/m -3,4 C -1,4 C 6,4 km/h (2 Bft) 100,00 %
13.02.2018 23:22 -1,4 C 4,4 C 86 % 1013,3 hPa 0,0 l/m 4,3 km/h (1 Bft) O-SO 102 0 min 0,000 mm 0,0 UV-I 0 W/m -3,4 C -1,4 C 6,4 km/h (2 Bft) 95,83 %
13.02.2018 23:23 -1,3 C 4,4 C 86 % 1013,3 hPa 0,0 l/m 4,6 km/h (1 Bft) O-SO 102 0 min 0,000 mm 0,0 UV-I 0 W/m -3,3 C -1,3 C 6,4 km/h (2 Bft) 100,00 %
13.02.2018 23:24 -1,3 C 4,4 C 86 % 1013,3 hPa 0,0 l/m 4,6 km/h (1 Bft) O-SO 102 0 min 0,000 mm 0,0 UV-I 0 W/m -3,3 C -1,3 C 6,4 km/h (2 Bft) 91,67 %
13.02.2018 23:25 -1,3 C 4,4 C 86 % 1013,3 hPa 0,0 l/m 3,2 km/h (1 Bft) O-SO 102 0 min 0,000 mm 0,0 UV-I 0 W/m -3,3 C -1,3 C 4,8 km/h (1 Bft) 94,74 %
13.02.2018 23:26 -1,3 C 4,4 C 86 % 1013,3 hPa 0,0 l/m 2,9 km/h (1 Bft) O-SO 102 0 min 0,000 mm 0,0 UV-I 0 W/m -3,3 C -1,3 C 4,8 km/h (1 Bft) 100,00 %
13.02.2018 23:27 -1,3 C 4,4 C 86 % 1013,3 hPa 0,0 l/m 3,1 km/h (1 Bft) O-SO 102 0 min 0,000 mm 0,0 UV-I 0 W/m -3,3 C -1,3 C 4,8 km/h (1 Bft) 95,83 %
13.02.2018 23:28 -1,3 C 4,4 C 86 % 1013,3 hPa 0,0 l/m 2,8 km/h (1 Bft) O-SO 102 0 min 0,000 mm 0,0 UV-I 0 W/m -3,3 C -1,3 C 4,8 km/h (1 Bft) 91,30 %
13.02.2018 23:29 -1,3 C 4,4 C 86 % 1013,3 hPa 0,0 l/m 3,1 km/h (1 Bft) O 101 0 min 0,000 mm 0,0 UV-I 0 W/m -3,3 C -1,3 C 4,8 km/h (1 Bft) 95,83 %
13.02.2018 23:30 -1,3 C 4,4 C 86 % 1013,3 hPa 0,0 l/m 3,2 km/h (1 Bft) O-SO 102 0 min 0,000 mm 0,0 UV-I 0 W/m -3,3 C -1,3 C 4,8 km/h (1 Bft) 91,30 %
13.02.2018 23:31 -1,3 C 4,4 C 87 % 1013,3 hPa 0,0 l/m 3,3 km/h (1 Bft) O-SO 102 0 min 0,000 mm 0,0 UV-I 0 W/m -3,2 C -1,3 C 4,8 km/h (1 Bft) 95,83 %
13.02.2018 23:32 -1,4 C 4,4 C 87 % 1013,3 hPa 0,0 l/m 3,8 km/h (1 Bft) O 101 0 min 0,000 mm 0,0 UV-I 0 W/m -3,3 C -1,4 C 4,8 km/h (1 Bft) 95,65 %
13.02.2018 23:33 -1,4 C 4,4 C 87 % 1013,3 hPa 0,0 l/m 3,4 km/h (1 Bft) O-SO 102 0 min 0,000 mm 0,0 UV-I 0 W/m -3,3 C -1,4 C 4,8 km/h (1 Bft) 95,83 %
13.02.2018 23:34 -1,4 C 4,4 C 87 % 1013,2 hPa 0,0 l/m 2,8 km/h (1 Bft) O-SO 102 0 min 0,000 mm 0,0 UV-I 0 W/m -3,3 C -1,4 C 4,8 km/h (1 Bft) 95,65 %
13.02.2018 23:35 -1,4 C 4,4 C 87 % 1013,3 hPa 0,0 l/m 2,8 km/h (1 Bft) O-SO 102 0 min 0,000 mm 0,0 UV-I 0 W/m -3,3 C -1,4 C 3,2 km/h (1 Bft) 100,00 %
13.02.2018 23:36 -1,5 C 4,4 C 88 % 1013,2 hPa 0,0 l/m 3,2 km/h (1 Bft) O-SO 102 0 min 0,000 mm 0,0 UV-I 0 W/m -3,2 C -1,5 C 3,2 km/h (1 Bft) 95,65 %
13.02.2018 23:37 -1,5 C 4,4 C 88 % 1013,3 hPa 0,0 l/m 3,5 km/h (1 Bft) O-SO 102 0 min 0,000 mm 0,0 UV-I 0 W/m -3,2 C -1,5 C 4,8 km/h (1 Bft) 100,00 %
13.02.2018 23:38 -1,6 C 4,4 C 88 % 1013,2 hPa 0,0 l/m 3,5 km/h (1 Bft) O-SO 102 0 min 0,000 mm 0,0 UV-I 0 W/m -3,3 C -1,6 C 4,8 km/h (1 Bft) 95,65 %
13.02.2018 23:39 -1,6 C 4,4 C 88 % 1013,2 hPa 0,0 l/m 3,4 km/h (1 Bft) O-SO 102 0 min 0,000 mm 0,0 UV-I 0 W/m -3,3 C -1,6 C 4,8 km/h (1 Bft) 100,00 %
13.02.2018 23:40 -1,7 C 4,4 C 88 % 1013,3 hPa 0,0 l/m 2,7 km/h (1 Bft) O-SO 102 0 min 0,000 mm 0,0 UV-I 0 W/m -3,4 C -1,7 C 3,2 km/h (1 Bft) 91,67 %
13.02.2018 23:41 -1,7 C 4,4 C 88 % 1013,2 hPa 0,0 l/m 3,5 km/h (1 Bft) O-SO 102 0 min 0,000 mm 0,0 UV-I 0 W/m -3,4 C -1,7 C 4,8 km/h (1 Bft) 96,15 %
13.02.2018 23:42 -1,7 C 4,4 C 89 % 1013,3 hPa 0,0 l/m 3,1 km/h (1 Bft) O-SO 102 0 min 0,000 mm 0,0 UV-I 0 W/m -3,3 C -1,7 C 4,8 km/h (1 Bft) 91,67 %
13.02.2018 23:43 -1,7 C 4,4 C 89 % 1013,3 hPa 0,0 l/m 2,5 km/h (1 Bft) O-SO 102 0 min 0,000 mm 0,0 UV-I 0 W/m -3,3 C -1,7 C 4,8 km/h (1 Bft) 91,30 %
13.02.2018 23:44 -1,7 C 4,4 C 89 % 1013,3 hPa 0,0 l/m 3,6 km/h (1 Bft) O-SO 102 0 min 0,000 mm 0,0 UV-I 0 W/m -3,3 C -1,7 C 4,8 km/h (1 Bft) 100,00 %
13.02.2018 23:45 -1,7 C 4,4 C 89 % 1013,3 hPa 0,0 l/m 3,2 km/h (1 Bft) O-SO 102 0 min 0,000 mm 0,0 UV-I 0 W/m -3,3 C -1,7 C 4,8 km/h (1 Bft) 95,65 %
13.02.2018 23:46 -1,7 C 4,4 C 89 % 1013,2 hPa 0,0 l/m 2,6 km/h (1 Bft) O-SO 102 0 min 0,000 mm 0,0 UV-I 0 W/m -3,3 C -1,7 C 3,2 km/h (1 Bft) 100,00 %
13.02.2018 23:47 -1,7 C 4,4 C 89 % 1013,3 hPa 0,0 l/m 3,6 km/h (1 Bft) O-SO 102 0 min 0,000 mm 0,0 UV-I 0 W/m -3,3 C -1,7 C 4,8 km/h (1 Bft) 95,65 %
13.02.2018 23:48 -1,8 C 4,4 C 89 % 1013,2 hPa 0,0 l/m 3,7 km/h (1 Bft) O-SO 102 0 min 0,000 mm 0,0 UV-I 0 W/m -3,4 C -1,8 C 4,8 km/h (1 Bft) 95,83 %
13.02.2018 23:49 -1,8 C 4,4 C 89 % 1013,3 hPa 0,0 l/m 3,1 km/h (1 Bft) O-SO 102 0 min 0,000 mm 0,0 UV-I 0 W/m -3,4 C -1,8 C 4,8 km/h (1 Bft) 86,96 %
13.02.2018 23:50 -1,8 C 4,4 C 89 % 1013,2 hPa 0,0 l/m 2,7 km/h (1 Bft) O-SO 102 0 min 0,000 mm 0,0 UV-I 0 W/m -3,4 C -1,8 C 4,8 km/h (1 Bft) 100,00 %
13.02.2018 23:51 -1,9 C 4,4 C 89 % 1013,2 hPa 0,0 l/m 3,0 km/h (1 Bft) O 101 0 min 0,000 mm 0,0 UV-I 0 W/m -3,5 C -1,9 C 3,2 km/h (1 Bft) 95,65 %
13.02.2018 23:52 -1,9 C 4,4 C 89 % 1013,2 hPa 0,0 l/m 3,5 km/h (1 Bft) O 101 0 min 0,000 mm 0,0 UV-I 0 W/m -3,5 C -1,9 C 4,8 km/h (1 Bft) 95,83 %
13.02.2018 23:53 -1,9 C 4,4 C 89 % 1013,2 hPa 0,0 l/m 3,4 km/h (1 Bft) O-SO 102 0 min 0,000 mm 0,0 UV-I 0 W/m -3,5 C -1,9 C 4,8 km/h (1 Bft) 91,30 %
13.02.2018 23:54 -1,9 C 4,4 C 89 % 1013,2 hPa 0,0 l/m 3,4 km/h (1 Bft) O 101 0 min 0,000 mm 0,0 UV-I 0 W/m -3,5 C -1,9 C 4,8 km/h (1 Bft) 95,83 %
13.02.2018 23:55 -1,9 C 4,4 C 89 % 1013,2 hPa 0,0 l/m 3,8 km/h (1 Bft) O-SO 102 0 min 0,000 mm 0,0 UV-I 0 W/m -3,5 C -1,9 C 4,8 km/h (1 Bft) 100,00 %
13.02.2018 23:56 -1,9 C 4,4 C 89 % 1013,2 hPa 0,0 l/m 3,6 km/h (1 Bft) O-SO 102 0 min 0,000 mm 0,0 UV-I 0 W/m -3,5 C -1,9 C 4,8 km/h (1 Bft) 92,59 %
13.02.2018 23:57 -1,9 C 4,4 C 89 % 1013,2 hPa 0,0 l/m 3,8 km/h (1 Bft) O-SO 102 0 min 0,000 mm 0,0 UV-I 0 W/m -3,5 C -1,9 C 4,8 km/h (1 Bft) 100,00 %
13.02.2018 23:58 -1,9 C 4,4 C 89 % 1013,2 hPa 0,0 l/m 3,5 km/h (1 Bft) O-SO 102 0 min 0,000 mm 0,0 UV-I 0 W/m -3,5 C -1,9 C 4,8 km/h (1 Bft) 92,00 %
13.02.2018 23:59 -1,9 C 4,4 C 89 % 1013,2 hPa 0,0 l/m 3,6 km/h (1 Bft) O-SO 102 0 min 0,000 mm 0,0 UV-I 0 W/m -3,5 C -1,9 C 4,8 km/h (1 Bft) 100,00 %
_ Min-Zeit 23:51 00:00 13:07 23:34 - 09:58 - - - - - - 13:07 06:20 09:58 00:02
Minimum _ -1,9 C 4,4 C 63 % 1013,2 hPa - 0,0 km/h (0 Bft) - - - - - - -4,9 C -7,0 C 0,0 km/h (0 Bft) 9,09 %
_ Max-Zeit 11:46 00:00 02:47 08:27 00:00 00:07 - - 07:25 12:01 11:45 11:45 02:47 13:19 00:39 00:01
Maximum _ 1,9 C 4,4 C 92 % 1018,5 hPa 0,0 l/m 13,3 km/h
SW (3 Bft)
- - 1 min 0,177 mm 1,2 UV-I 675 W/m -1,5 C 1,8 C 17,7 km/h
SW (3 Bft)
100,00 %
Durchschnitt _ -0,1 C 4,4 C 81 % 1016,2 hPa #0,0 l/m 4,6 km/h (1 Bft) W - #6:05 h #0,762 mm 0,8 UV-I 201 W/m -3,0 C -0,5 C 6,8 km/h (2 Bft) 97,19 %